<?xml version='1.0' encoding='UTF-8'?><gpx version="1.1" creator="JPX - https://github.com/jenetics/jpx" xmlns="http://www.topografix.com/GPX/1/1"><trk><trkseg><trkpt lat="36.822301086842046" lon="14.959123332568174"><ele>119.6</ele><time>2026-04-19T06:25:17Z</time></trkpt><trkpt lat="36.82226085546136" lon="14.959231684467369"><ele>118.19999999999999</ele><time>2026-04-19T06:25:22Z</time></trkpt><trkpt lat="36.82234140817051" lon="14.959327001949708"><ele>116.80000000000001</ele><time>2026-04-19T06:25:24Z</time></trkpt><trkpt lat="36.82242161608683" lon="14.959446307271918"><ele>115.4</ele><time>2026-04-19T06:25:26Z</time></trkpt><trkpt lat="36.822465375453234" lon="14.95950631477162"><ele>114.0</ele><time>2026-04-19T06:25:27Z</time></trkpt><trkpt lat="36.82251388382613" lon="14.959606708037395"><ele>114.0</ele><time>2026-04-19T06:25:29Z</time></trkpt><trkpt lat="36.82253918867931" lon="14.959729084951912"><ele>114.0</ele><time>2026-04-19T06:25:31Z</time></trkpt><trkpt lat="36.82254922947337" lon="14.959884864052102"><ele>114.0</ele><time>2026-04-19T06:25:33Z</time></trkpt><trkpt lat="36.822550807446774" lon="14.959965397104538"><ele>114.0</ele><time>2026-04-19T06:25:34Z</time></trkpt><trkpt lat="36.82255271054162" lon="14.96012395298875"><ele>114.0</ele><time>2026-04-19T06:25:36Z</time></trkpt><trkpt lat="36.822545029017434" lon="14.960280862975743"><ele>113.6</ele><time>2026-04-19T06:25:38Z</time></trkpt><trkpt lat="36.82255056036559" lon="14.960361740266706"><ele>113.2</ele><time>2026-04-19T06:25:39Z</time></trkpt><trkpt lat="36.8225995591065" lon="14.960485799611078"><ele>112.79999999999998</ele><time>2026-04-19T06:25:41Z</time></trkpt><trkpt lat="36.8226975819639" lon="14.960583164655644"><ele>112.39999999999999</ele><time>2026-04-19T06:25:43Z</time></trkpt><trkpt lat="36.822769008963284" lon="14.960601804267261"><ele>112.0</ele><time>2026-04-19T06:25:44Z</time></trkpt><trkpt lat="36.82284474278956" lon="14.960599344310378"><ele>112.0</ele><time>2026-04-19T06:25:45Z</time></trkpt><trkpt lat="36.82291158814908" lon="14.96061657772477"><ele>112.0</ele><time>2026-04-19T06:25:46Z</time></trkpt><trkpt lat="36.82297281097619" lon="14.960639976938515"><ele>112.0</ele><time>2026-04-19T06:25:47Z</time></trkpt><trkpt lat="36.82303067167193" lon="14.960672181871526"><ele>112.0</ele><time>2026-04-19T06:25:48Z</time></trkpt><trkpt lat="36.823092725902896" lon="14.960710920810016"><ele>112.0</ele><time>2026-04-19T06:25:49Z</time></trkpt><trkpt lat="36.82314812234842" lon="14.96074985691013"><ele>112.0</ele><time>2026-04-19T06:25:50Z</time></trkpt><trkpt lat="36.82323848940762" lon="14.96083952631748"><ele>112.0</ele><time>2026-04-19T06:25:52Z</time></trkpt><trkpt lat="36.82327553654654" lon="14.960909323568044"><ele>111.33333333333334</ele><time>2026-04-19T06:25:53Z</time></trkpt><trkpt lat="36.82331080108776" lon="14.960976637373578"><ele>110.66666666666667</ele><time>2026-04-19T06:25:54Z</time></trkpt><trkpt lat="36.823380307757574" lon="14.961111899640615"><ele>110.0</ele><time>2026-04-19T06:25:56Z</time></trkpt><trkpt lat="36.823415969238965" lon="14.96118367301563"><ele>109.33333333333334</ele><time>2026-04-19T06:25:57Z</time></trkpt><trkpt lat="36.823455925797596" lon="14.961263537147357"><ele>108.66666666666667</ele><time>2026-04-19T06:25:58Z</time></trkpt><trkpt lat="36.82350034161003" lon="14.96134878757572"><ele>108.0</ele><time>2026-04-19T06:25:59Z</time></trkpt><trkpt lat="36.823549982777614" lon="14.961435996577254"><ele>107.83333333333333</ele><time>2026-04-19T06:26:00Z</time></trkpt><trkpt lat="36.82359147802058" lon="14.961519213806413"><ele>107.66666666666666</ele><time>2026-04-19T06:26:01Z</time></trkpt><trkpt lat="36.82363233732606" lon="14.961594281590704"><ele>107.5</ele><time>2026-04-19T06:26:02Z</time></trkpt><trkpt lat="36.82366939952737" lon="14.961669600001228"><ele>107.33333333333333</ele><time>2026-04-19T06:26:03Z</time></trkpt><trkpt lat="36.823708942887556" lon="14.961738961540469"><ele>107.16666666666666</ele><time>2026-04-19T06:26:04Z</time></trkpt><trkpt lat="36.82374837115948" lon="14.961814053983566"><ele>107.0</ele><time>2026-04-19T06:26:05Z</time></trkpt><trkpt lat="36.823789973041464" lon="14.961911774479256"><ele>106.75</ele><time>2026-04-19T06:26:06Z</time></trkpt><trkpt lat="36.823844706589114" lon="14.96201761522952"><ele>106.5</ele><time>2026-04-19T06:26:07Z</time></trkpt><trkpt lat="36.82392145808477" lon="14.962135866675686"><ele>106.25</ele><time>2026-04-19T06:26:08Z</time></trkpt><trkpt lat="36.82399433256374" lon="14.962258948708943"><ele>106.0</ele><time>2026-04-19T06:26:09Z</time></trkpt><trkpt lat="36.8240535722474" lon="14.962380653292287"><ele>106.0</ele><time>2026-04-19T06:26:10Z</time></trkpt><trkpt lat="36.82410823440367" lon="14.962506554948009"><ele>106.0</ele><time>2026-04-19T06:26:11Z</time></trkpt><trkpt lat="36.82416345990962" lon="14.962641666513125"><ele>106.0</ele><time>2026-04-19T06:26:12Z</time></trkpt><trkpt lat="36.82422161318051" lon="14.962762081795747"><ele>106.0</ele><time>2026-04-19T06:26:13Z</time></trkpt><trkpt lat="36.824277247595546" lon="14.962875253424881"><ele>106.4</ele><time>2026-04-19T06:26:14Z</time></trkpt><trkpt lat="36.82433448812172" lon="14.962983677399027"><ele>106.8</ele><time>2026-04-19T06:26:15Z</time></trkpt><trkpt lat="36.82439042791697" lon="14.96309676349384"><ele>107.20000000000002</ele><time>2026-04-19T06:26:16Z</time></trkpt><trkpt lat="36.82447216030217" lon="14.96320159844347"><ele>107.60000000000001</ele><time>2026-04-19T06:26:17Z</time></trkpt><trkpt lat="36.82453009329835" lon="14.963330561911397"><ele>108.0</ele><time>2026-04-19T06:26:18Z</time></trkpt><trkpt lat="36.824581531041105" lon="14.963476097832512"><ele>106.66666666666666</ele><time>2026-04-19T06:26:19Z</time></trkpt><trkpt lat="36.82467189952822" lon="14.963653798124652"><ele>105.33333333333333</ele><time>2026-04-19T06:26:20Z</time></trkpt><trkpt lat="36.82478179242828" lon="14.963867387256888"><ele>104.0</ele><time>2026-04-19T06:26:21Z</time></trkpt><trkpt lat="36.824892003735066" lon="14.96407238401029"><ele>102.66666666666666</ele><time>2026-04-19T06:26:22Z</time></trkpt><trkpt lat="36.8249815530764" lon="14.964248496728567"><ele>101.33333333333334</ele><time>2026-04-19T06:26:23Z</time></trkpt><trkpt lat="36.825066892179215" lon="14.964407145816686"><ele>100.0</ele><time>2026-04-19T06:26:24Z</time></trkpt><trkpt lat="36.82514298984183" lon="14.96455748502304"><ele>100.5</ele><time>2026-04-19T06:26:25Z</time></trkpt><trkpt lat="36.82521199413139" lon="14.964693035353566"><ele>101.0</ele><time>2026-04-19T06:26:26Z</time></trkpt><trkpt lat="36.82527907769381" lon="14.964820322836763"><ele>101.5</ele><time>2026-04-19T06:26:27Z</time></trkpt><trkpt lat="36.82534350746668" lon="14.964948415019002"><ele>102.0</ele><time>2026-04-19T06:26:28Z</time></trkpt><trkpt lat="36.825409263126176" lon="14.965075311969956"><ele>102.0</ele><time>2026-04-19T06:26:29Z</time></trkpt><trkpt lat="36.825476993502285" lon="14.9652009780579"><ele>102.0</ele><time>2026-04-19T06:26:30Z</time></trkpt><trkpt lat="36.8255322613753" lon="14.965320601665898"><ele>102.0</ele><time>2026-04-19T06:26:31Z</time></trkpt><trkpt lat="36.82558617602075" lon="14.965434887024387"><ele>102.0</ele><time>2026-04-19T06:26:32Z</time></trkpt><trkpt lat="36.8256305059382" lon="14.965533995007236"><ele>102.0</ele><time>2026-04-19T06:26:33Z</time></trkpt><trkpt lat="36.825666387693566" lon="14.96561455665408"><ele>102.0</ele><time>2026-04-19T06:26:34Z</time></trkpt><trkpt lat="36.82568902720247" lon="14.965742612563638"><ele>102.0</ele><time>2026-04-19T06:26:36Z</time></trkpt><trkpt lat="36.82573657305911" lon="14.965847605961368"><ele>102.0</ele><time>2026-04-19T06:26:38Z</time></trkpt><trkpt lat="36.8258281729849" lon="14.965976367669384"><ele>102.0</ele><time>2026-04-19T06:26:40Z</time></trkpt><trkpt lat="36.82592482817201" lon="14.966043852495874"><ele>101.75</ele><time>2026-04-19T06:26:41Z</time></trkpt><trkpt lat="36.825994513895495" lon="14.96615690945147"><ele>101.5</ele><time>2026-04-19T06:26:42Z</time></trkpt><trkpt lat="36.82608579012479" lon="14.966296367492628"><ele>101.25</ele><time>2026-04-19T06:26:43Z</time></trkpt><trkpt lat="36.826163413680646" lon="14.96646922532708"><ele>101.0</ele><time>2026-04-19T06:26:44Z</time></trkpt><trkpt lat="36.82625204633413" lon="14.966652697986822"><ele>100.66666666666666</ele><time>2026-04-19T06:26:45Z</time></trkpt><trkpt lat="36.82635383351786" lon="14.966846091236404"><ele>100.33333333333334</ele><time>2026-04-19T06:26:46Z</time></trkpt><trkpt lat="36.8264603346335" lon="14.967045877268548"><ele>100.0</ele><time>2026-04-19T06:26:47Z</time></trkpt><trkpt lat="36.826568749160025" lon="14.967244957305624"><ele>100.0</ele><time>2026-04-19T06:26:48Z</time></trkpt><trkpt lat="36.82667837415359" lon="14.967453272074094"><ele>100.0</ele><time>2026-04-19T06:26:49Z</time></trkpt><trkpt lat="36.82679062293093" lon="14.967663158852677"><ele>100.0</ele><time>2026-04-19T06:26:50Z</time></trkpt><trkpt lat="36.826903222019894" lon="14.967873162661311"><ele>98.66666666666667</ele><time>2026-04-19T06:26:51Z</time></trkpt><trkpt lat="36.827017275498676" lon="14.968086894438656"><ele>97.33333333333334</ele><time>2026-04-19T06:26:52Z</time></trkpt><trkpt lat="36.82712444781369" lon="14.968293464615833"><ele>96.0</ele><time>2026-04-19T06:26:53Z</time></trkpt><trkpt lat="36.82723196179203" lon="14.968500550923697"><ele>94.33333333333333</ele><time>2026-04-19T06:26:54Z</time></trkpt><trkpt lat="36.82733446000402" lon="14.968700689042796"><ele>92.66666666666666</ele><time>2026-04-19T06:26:55Z</time></trkpt><trkpt lat="36.82743046496042" lon="14.968887344957581"><ele>91.0</ele><time>2026-04-19T06:26:56Z</time></trkpt><trkpt lat="36.827527621101524" lon="14.969076746364037"><ele>91.0</ele><time>2026-04-19T06:26:57Z</time></trkpt><trkpt lat="36.82763029512793" lon="14.969270929934002"><ele>91.0</ele><time>2026-04-19T06:26:58Z</time></trkpt><trkpt lat="36.827733418295274" lon="14.969466240213794"><ele>91.0</ele><time>2026-04-19T06:26:59Z</time></trkpt><trkpt lat="36.827834864309075" lon="14.969665403208706"><ele>91.0</ele><time>2026-04-19T06:27:00Z</time></trkpt><trkpt lat="36.82793844220808" lon="14.969864260982995"><ele>91.0</ele><time>2026-04-19T06:27:01Z</time></trkpt><trkpt lat="36.82804234257179" lon="14.970058796572939"><ele>91.0</ele><time>2026-04-19T06:27:02Z</time></trkpt><trkpt lat="36.828142198953266" lon="14.970251606198033"><ele>90.0</ele><time>2026-04-19T06:27:03Z</time></trkpt><trkpt lat="36.82824467831533" lon="14.97045167593869"><ele>89.0</ele><time>2026-04-19T06:27:04Z</time></trkpt><trkpt lat="36.828350380081226" lon="14.970653323045793"><ele>88.0</ele><time>2026-04-19T06:27:05Z</time></trkpt><trkpt lat="36.828449031155046" lon="14.970848556377726"><ele>87.0</ele><time>2026-04-19T06:27:06Z</time></trkpt><trkpt lat="36.828544587886064" lon="14.971034844368573"><ele>86.0</ele><time>2026-04-19T06:27:07Z</time></trkpt><trkpt lat="36.82864432484579" lon="14.971228801645928"><ele>85.0</ele><time>2026-04-19T06:27:08Z</time></trkpt><trkpt lat="36.82874490012466" lon="14.971423209131894"><ele>85.0</ele><time>2026-04-19T06:27:09Z</time></trkpt><trkpt lat="36.82883791854957" lon="14.971600714098347"><ele>85.0</ele><time>2026-04-19T06:27:10Z</time></trkpt><trkpt lat="36.828926377858245" lon="14.971767501815304"><ele>85.0</ele><time>2026-04-19T06:27:11Z</time></trkpt><trkpt lat="36.8290130218782" lon="14.971934509968886"><ele>83.33333333333333</ele><time>2026-04-19T06:27:12Z</time></trkpt><trkpt lat="36.829098767927945" lon="14.972094981792617"><ele>81.66666666666667</ele><time>2026-04-19T06:27:13Z</time></trkpt><trkpt lat="36.82918914704181" lon="14.972255718360028"><ele>80.0</ele><time>2026-04-19T06:27:14Z</time></trkpt><trkpt lat="36.82927528112981" lon="14.972412228942718"><ele>79.0</ele><time>2026-04-19T06:27:15Z</time></trkpt><trkpt lat="36.82935549859547" lon="14.972546255715685"><ele>78.0</ele><time>2026-04-19T06:27:16Z</time></trkpt><trkpt lat="36.82943439494217" lon="14.97266699026144"><ele>77.0</ele><time>2026-04-19T06:27:17Z</time></trkpt><trkpt lat="36.82951061519255" lon="14.972786605991464"><ele>76.0</ele><time>2026-04-19T06:27:18Z</time></trkpt><trkpt lat="36.82958743084573" lon="14.972902613714352"><ele>76.0</ele><time>2026-04-19T06:27:19Z</time></trkpt><trkpt lat="36.82966360662971" lon="14.97300292894759"><ele>76.0</ele><time>2026-04-19T06:27:20Z</time></trkpt><trkpt lat="36.82974046991452" lon="14.97308584382855"><ele>76.0</ele><time>2026-04-19T06:27:21Z</time></trkpt><trkpt lat="36.829820190437076" lon="14.973135990839372"><ele>76.0</ele><time>2026-04-19T06:27:22Z</time></trkpt><trkpt lat="36.82990764533497" lon="14.973158636552434"><ele>76.0</ele><time>2026-04-19T06:27:23Z</time></trkpt><trkpt lat="36.82998945894227" lon="14.973182369204725"><ele>76.0</ele><time>2026-04-19T06:27:24Z</time></trkpt><trkpt lat="36.83006431531761" lon="14.973232012978132"><ele>76.0</ele><time>2026-04-19T06:27:25Z</time></trkpt><trkpt lat="36.83014464005183" lon="14.973271858449799"><ele>76.0</ele><time>2026-04-19T06:27:26Z</time></trkpt><trkpt lat="36.83022118118218" lon="14.973311600649925"><ele>76.0</ele><time>2026-04-19T06:27:27Z</time></trkpt><trkpt lat="36.830290221944374" lon="14.973349607550844"><ele>76.0</ele><time>2026-04-19T06:27:28Z</time></trkpt><trkpt lat="36.8303640732876" lon="14.9733917336552"><ele>76.0</ele><time>2026-04-19T06:27:29Z</time></trkpt><trkpt lat="36.830443371915905" lon="14.97343709713568"><ele>75.33333333333333</ele><time>2026-04-19T06:27:30Z</time></trkpt><trkpt lat="36.83052060287303" lon="14.973482483521863"><ele>74.66666666666666</ele><time>2026-04-19T06:27:31Z</time></trkpt><trkpt lat="36.830598640531775" lon="14.97353157458102"><ele>74.0</ele><time>2026-04-19T06:27:32Z</time></trkpt><trkpt lat="36.83067499215838" lon="14.973579604849677"><ele>73.33333333333333</ele><time>2026-04-19T06:27:33Z</time></trkpt><trkpt lat="36.83075039702377" lon="14.973629988870329"><ele>72.66666666666667</ele><time>2026-04-19T06:27:34Z</time></trkpt><trkpt lat="36.83082067366407" lon="14.973675935812645"><ele>72.0</ele><time>2026-04-19T06:27:35Z</time></trkpt><trkpt lat="36.830894922068815" lon="14.973724479483069"><ele>72.0</ele><time>2026-04-19T06:27:36Z</time></trkpt><trkpt lat="36.83096956652979" lon="14.973769092920318"><ele>72.0</ele><time>2026-04-19T06:27:37Z</time></trkpt><trkpt lat="36.83104296456758" lon="14.973813320790224"><ele>72.0</ele><time>2026-04-19T06:27:38Z</time></trkpt><trkpt lat="36.83111937989116" lon="14.973859366795793"><ele>72.0</ele><time>2026-04-19T06:27:39Z</time></trkpt><trkpt lat="36.83119857183857" lon="14.973907085937102"><ele>72.0</ele><time>2026-04-19T06:27:40Z</time></trkpt><trkpt lat="36.83128378947687" lon="14.973938689527369"><ele>72.0</ele><time>2026-04-19T06:27:41Z</time></trkpt><trkpt lat="36.831360387524974" lon="14.973983607021045"><ele>71.83333333333333</ele><time>2026-04-19T06:27:42Z</time></trkpt><trkpt lat="36.83143170308075" lon="14.974043031171288"><ele>71.66666666666667</ele><time>2026-04-19T06:27:43Z</time></trkpt><trkpt lat="36.831505645207514" lon="14.974093944098495"><ele>71.5</ele><time>2026-04-19T06:27:44Z</time></trkpt><trkpt lat="36.83157699633192" lon="14.974144541649492"><ele>71.33333333333334</ele><time>2026-04-19T06:27:45Z</time></trkpt><trkpt lat="36.83164824621648" lon="14.974195067409434"><ele>71.16666666666667</ele><time>2026-04-19T06:27:46Z</time></trkpt><trkpt lat="36.83171722343643" lon="14.974247529663312"><ele>71.0</ele><time>2026-04-19T06:27:47Z</time></trkpt><trkpt lat="36.83177704527439" lon="14.97429609564387"><ele>71.0</ele><time>2026-04-19T06:27:48Z</time></trkpt><trkpt lat="36.83183288809308" lon="14.974341138461511"><ele>71.0</ele><time>2026-04-19T06:27:49Z</time></trkpt><trkpt lat="36.83191362177475" lon="14.974413147078394"><ele>71.0</ele><time>2026-04-19T06:27:51Z</time></trkpt><trkpt lat="36.83199350767657" lon="14.974470557768058"><ele>71.0</ele><time>2026-04-19T06:27:53Z</time></trkpt><trkpt lat="36.832065871447085" lon="14.974546350454451"><ele>71.0</ele><time>2026-04-19T06:27:55Z</time></trkpt><trkpt lat="36.83212440682777" lon="14.974612686959487"><ele>71.0</ele><time>2026-04-19T06:27:58Z</time></trkpt><trkpt lat="36.83206114742726" lon="14.974439581179752"><ele>71.0</ele><time>2026-04-19T06:28:00Z</time></trkpt><trkpt lat="36.8321251235869" lon="14.974386161614785"><ele>71.0</ele><time>2026-04-19T06:28:03Z</time></trkpt><trkpt lat="36.832367527044504" lon="14.974587428000135"><ele>71.0</ele><time>2026-04-19T06:28:04Z</time></trkpt><trkpt lat="36.83247554918158" lon="14.974653064497211"><ele>71.0</ele><time>2026-04-19T06:28:06Z</time></trkpt><trkpt lat="36.832535125857945" lon="14.974715686285624"><ele>71.0</ele><time>2026-04-19T06:28:07Z</time></trkpt><trkpt lat="36.83259945725656" lon="14.974795331182015"><ele>71.0</ele><time>2026-04-19T06:28:08Z</time></trkpt><trkpt lat="36.83265499069271" lon="14.974878400034296"><ele>71.0</ele><time>2026-04-19T06:28:09Z</time></trkpt><trkpt lat="36.832706627346866" lon="14.974957266480002"><ele>71.0</ele><time>2026-04-19T06:28:10Z</time></trkpt><trkpt lat="36.83276113462616" lon="14.975026346246459"><ele>71.0</ele><time>2026-04-19T06:28:11Z</time></trkpt><trkpt lat="36.83281989952433" lon="14.975092326153035"><ele>71.5</ele><time>2026-04-19T06:28:12Z</time></trkpt><trkpt lat="36.832877457484045" lon="14.975159099731584"><ele>72.0</ele><time>2026-04-19T06:28:13Z</time></trkpt><trkpt lat="36.83292871257889" lon="14.975243029068318"><ele>72.5</ele><time>2026-04-19T06:28:14Z</time></trkpt><trkpt lat="36.83298172305167" lon="14.975335186847733"><ele>73.0</ele><time>2026-04-19T06:28:15Z</time></trkpt><trkpt lat="36.83303998499478" lon="14.97542839690861"><ele>73.5</ele><time>2026-04-19T06:28:16Z</time></trkpt><trkpt lat="36.83308991407343" lon="14.975510738694643"><ele>74.0</ele><time>2026-04-19T06:28:17Z</time></trkpt><trkpt lat="36.83312832565862" lon="14.975585084994416"><ele>74.0</ele><time>2026-04-19T06:28:18Z</time></trkpt><trkpt lat="36.83315942813605" lon="14.97567224489332"><ele>74.0</ele><time>2026-04-19T06:28:19Z</time></trkpt><trkpt lat="36.833196934905" lon="14.975783869938267"><ele>74.0</ele><time>2026-04-19T06:28:20Z</time></trkpt><trkpt lat="36.83323147494324" lon="14.97590117203628"><ele>74.0</ele><time>2026-04-19T06:28:21Z</time></trkpt><trkpt lat="36.833284320663495" lon="14.97602106988652"><ele>74.0</ele><time>2026-04-19T06:28:22Z</time></trkpt><trkpt lat="36.83337260742845" lon="14.976143897885217"><ele>74.0</ele><time>2026-04-19T06:28:23Z</time></trkpt><trkpt lat="36.833460576717464" lon="14.976248457239764"><ele>74.0</ele><time>2026-04-19T06:28:24Z</time></trkpt><trkpt lat="36.833544387833875" lon="14.976352634159811"><ele>74.0</ele><time>2026-04-19T06:28:25Z</time></trkpt><trkpt lat="36.83362149780577" lon="14.976448602601236"><ele>74.0</ele><time>2026-04-19T06:28:26Z</time></trkpt><trkpt lat="36.8336929821036" lon="14.976537937523993"><ele>74.0</ele><time>2026-04-19T06:28:27Z</time></trkpt><trkpt lat="36.83376190934297" lon="14.976624959323287"><ele>74.0</ele><time>2026-04-19T06:28:28Z</time></trkpt><trkpt lat="36.83382845338126" lon="14.976699865569813"><ele>74.0</ele><time>2026-04-19T06:28:29Z</time></trkpt><trkpt lat="36.833902696992425" lon="14.97676854509238"><ele>74.0</ele><time>2026-04-19T06:28:30Z</time></trkpt><trkpt lat="36.83397510102632" lon="14.976826853419228"><ele>74.0</ele><time>2026-04-19T06:28:31Z</time></trkpt><trkpt lat="36.834051600952805" lon="14.976878229852296"><ele>72.8</ele><time>2026-04-19T06:28:32Z</time></trkpt><trkpt lat="36.8341320945041" lon="14.976921889238499"><ele>71.60000000000001</ele><time>2026-04-19T06:28:33Z</time></trkpt><trkpt lat="36.83421697570729" lon="14.976966314042697"><ele>70.4</ele><time>2026-04-19T06:28:34Z</time></trkpt><trkpt lat="36.83430638286964" lon="14.977007531521984"><ele>69.2</ele><time>2026-04-19T06:28:35Z</time></trkpt><trkpt lat="36.83439481777423" lon="14.97704224184362"><ele>68.0</ele><time>2026-04-19T06:28:36Z</time></trkpt><trkpt lat="36.834479782396365" lon="14.977073136240298"><ele>67.66666666666667</ele><time>2026-04-19T06:28:37Z</time></trkpt><trkpt lat="36.83455852159114" lon="14.977102950561788"><ele>67.33333333333334</ele><time>2026-04-19T06:28:38Z</time></trkpt><trkpt lat="36.8346309605151" lon="14.977127224444446"><ele>67.0</ele><time>2026-04-19T06:28:39Z</time></trkpt><trkpt lat="36.834698955716675" lon="14.977154158321893"><ele>66.66666666666667</ele><time>2026-04-19T06:28:40Z</time></trkpt><trkpt lat="36.834763167595064" lon="14.977182163431262"><ele>66.33333333333333</ele><time>2026-04-19T06:28:41Z</time></trkpt><trkpt lat="36.83485963457842" lon="14.97722819728043"><ele>66.0</ele><time>2026-04-19T06:28:43Z</time></trkpt><trkpt lat="36.834969927773265" lon="14.977296718780227"><ele>66.0</ele><time>2026-04-19T06:28:45Z</time></trkpt><trkpt lat="36.83502086228389" lon="14.977348192119793"><ele>66.0</ele><time>2026-04-19T06:28:46Z</time></trkpt><trkpt lat="36.835073890465374" lon="14.977397939940076"><ele>66.0</ele><time>2026-04-19T06:28:47Z</time></trkpt><trkpt lat="36.83513076865141" lon="14.977450388493839"><ele>66.0</ele><time>2026-04-19T06:28:48Z</time></trkpt><trkpt lat="36.83520013198392" lon="14.97752231909062"><ele>66.0</ele><time>2026-04-19T06:28:49Z</time></trkpt><trkpt lat="36.835269764499365" lon="14.977593616683395"><ele>66.0</ele><time>2026-04-19T06:28:50Z</time></trkpt><trkpt lat="36.83532281908311" lon="14.977659801051947"><ele>65.0</ele><time>2026-04-19T06:28:51Z</time></trkpt><trkpt lat="36.83537857785999" lon="14.977707778517239"><ele>63.99999999999999</ele><time>2026-04-19T06:28:52Z</time></trkpt><trkpt lat="36.83550432808834" lon="14.977759044950579"><ele>62.99999999999999</ele><time>2026-04-19T06:28:54Z</time></trkpt><trkpt lat="36.83559166169224" lon="14.977788691508445"><ele>62.0</ele><time>2026-04-19T06:28:55Z</time></trkpt><trkpt lat="36.83567286885942" lon="14.977812689798677"><ele>61.0</ele><time>2026-04-19T06:28:56Z</time></trkpt><trkpt lat="36.83574648778929" lon="14.977862033005158"><ele>61.0</ele><time>2026-04-19T06:28:57Z</time></trkpt><trkpt lat="36.83583766346665" lon="14.977950359237555"><ele>60.99999999999999</ele><time>2026-04-19T06:28:58Z</time></trkpt><trkpt lat="36.835933527701506" lon="14.978031571733148"><ele>60.99999999999999</ele><time>2026-04-19T06:28:59Z</time></trkpt><trkpt lat="36.83602318252524" lon="14.978098986219257"><ele>61.0</ele><time>2026-04-19T06:29:00Z</time></trkpt><trkpt lat="36.83609622031061" lon="14.978151886846009"><ele>61.0</ele><time>2026-04-19T06:29:01Z</time></trkpt><trkpt lat="36.836155267412856" lon="14.97819760444757"><ele>61.33333333333333</ele><time>2026-04-19T06:29:02Z</time></trkpt><trkpt lat="36.83621826172673" lon="14.978250715396756"><ele>61.666666666666664</ele><time>2026-04-19T06:29:04Z</time></trkpt><trkpt lat="36.836287647791494" lon="14.97829009906407"><ele>62.0</ele><time>2026-04-19T06:29:07Z</time></trkpt><trkpt lat="36.83635428313925" lon="14.97838285001514"><ele>62.33333333333333</ele><time>2026-04-19T06:29:09Z</time></trkpt><trkpt lat="36.83641162018581" lon="14.97843706355397"><ele>62.666666666666664</ele><time>2026-04-19T06:29:23Z</time></trkpt><trkpt lat="36.836491861921" lon="14.978522257502238"><ele>63.0</ele><time>2026-04-19T06:29:25Z</time></trkpt><trkpt lat="36.8365440060618" lon="14.978571876462716"><ele>63.0</ele><time>2026-04-19T06:29:26Z</time></trkpt><trkpt lat="36.83665233235033" lon="14.978677696058293"><ele>63.0</ele><time>2026-04-19T06:29:28Z</time></trkpt><trkpt lat="36.8367260746545" lon="14.978748554882396"><ele>63.0</ele><time>2026-04-19T06:29:29Z</time></trkpt><trkpt lat="36.83679772231781" lon="14.978814431587564"><ele>63.0</ele><time>2026-04-19T06:29:30Z</time></trkpt><trkpt lat="36.83685715477097" lon="14.978898267709939"><ele>63.0</ele><time>2026-04-19T06:29:31Z</time></trkpt><trkpt lat="36.836944732667995" lon="14.978957157903267"><ele>63.666666666666664</ele><time>2026-04-19T06:29:32Z</time></trkpt><trkpt lat="36.83702327917226" lon="14.979023833796864"><ele>64.33333333333333</ele><time>2026-04-19T06:29:33Z</time></trkpt><trkpt lat="36.83709380650506" lon="14.979062257969549"><ele>65.0</ele><time>2026-04-19T06:29:34Z</time></trkpt><trkpt lat="36.83715783424329" lon="14.979092754989232"><ele>65.66666666666666</ele><time>2026-04-19T06:29:35Z</time></trkpt><trkpt lat="36.8372306759998" lon="14.979125340727363"><ele>66.33333333333333</ele><time>2026-04-19T06:29:36Z</time></trkpt><trkpt lat="36.83731090506674" lon="14.979166549101212"><ele>67.0</ele><time>2026-04-19T06:29:37Z</time></trkpt><trkpt lat="36.83739832534688" lon="14.97920618982744"><ele>65.66666666666666</ele><time>2026-04-19T06:29:38Z</time></trkpt><trkpt lat="36.837484932429305" lon="14.97924524397187"><ele>64.33333333333333</ele><time>2026-04-19T06:29:39Z</time></trkpt><trkpt lat="36.83756460853097" lon="14.979294049659414"><ele>63.0</ele><time>2026-04-19T06:29:40Z</time></trkpt><trkpt lat="36.83764259629994" lon="14.979338171014252"><ele>61.66666666666667</ele><time>2026-04-19T06:29:41Z</time></trkpt><trkpt lat="36.83772692599864" lon="14.979374905989104"><ele>60.333333333333336</ele><time>2026-04-19T06:29:42Z</time></trkpt><trkpt lat="36.83781017990751" lon="14.979411522397436"><ele>59.0</ele><time>2026-04-19T06:29:43Z</time></trkpt><trkpt lat="36.83789116369468" lon="14.979440231373193"><ele>59.0</ele><time>2026-04-19T06:29:44Z</time></trkpt><trkpt lat="36.837978536290876" lon="14.979467743394288"><ele>59.00000000000001</ele><time>2026-04-19T06:29:45Z</time></trkpt><trkpt lat="36.838068194724904" lon="14.97949037505859"><ele>59.00000000000001</ele><time>2026-04-19T06:29:46Z</time></trkpt><trkpt lat="36.83815681253827" lon="14.979512808979479"><ele>59.0</ele><time>2026-04-19T06:29:47Z</time></trkpt><trkpt lat="36.838246751811646" lon="14.979534307858307"><ele>59.0</ele><time>2026-04-19T06:29:48Z</time></trkpt><trkpt lat="36.83833591429074" lon="14.97955766745869"><ele>59.0</ele><time>2026-04-19T06:29:49Z</time></trkpt><trkpt lat="36.83842754731828" lon="14.979580642126512"><ele>59.00000000000001</ele><time>2026-04-19T06:29:50Z</time></trkpt><trkpt lat="36.838521337004444" lon="14.979600970075445"><ele>59.00000000000001</ele><time>2026-04-19T06:29:51Z</time></trkpt><trkpt lat="36.83861626460929" lon="14.979618547377157"><ele>59.0</ele><time>2026-04-19T06:29:52Z</time></trkpt><trkpt lat="36.83870641985311" lon="14.979630887928764"><ele>59.0</ele><time>2026-04-19T06:29:53Z</time></trkpt><trkpt lat="36.83879018074582" lon="14.97964464244541"><ele>59.0</ele><time>2026-04-19T06:29:54Z</time></trkpt><trkpt lat="36.838883273571625" lon="14.979656514251284"><ele>59.00000000000001</ele><time>2026-04-19T06:29:55Z</time></trkpt><trkpt lat="36.839002544175415" lon="14.979672601982024"><ele>59.00000000000001</ele><time>2026-04-19T06:29:56Z</time></trkpt><trkpt lat="36.83910881479061" lon="14.979685784185316"><ele>59.0</ele><time>2026-04-19T06:29:57Z</time></trkpt><trkpt lat="36.83921122975125" lon="14.979706500933663"><ele>59.0</ele><time>2026-04-19T06:29:58Z</time></trkpt><trkpt lat="36.83930795114288" lon="14.979737920045611"><ele>59.00000000000001</ele><time>2026-04-19T06:29:59Z</time></trkpt><trkpt lat="36.83939713886936" lon="14.97976992228081"><ele>59.0</ele><time>2026-04-19T06:30:00Z</time></trkpt><trkpt lat="36.83947475647895" lon="14.979799964320879"><ele>59.0</ele><time>2026-04-19T06:30:01Z</time></trkpt><trkpt lat="36.83955132796721" lon="14.979833953528841"><ele>59.0</ele><time>2026-04-19T06:30:02Z</time></trkpt><trkpt lat="36.8396216505986" lon="14.979868334920626"><ele>59.00000000000001</ele><time>2026-04-19T06:30:03Z</time></trkpt><trkpt lat="36.83969128678571" lon="14.979894935921786"><ele>59.0</ele><time>2026-04-19T06:30:04Z</time></trkpt><trkpt lat="36.83975455853419" lon="14.979915948376922"><ele>59.00000000000001</ele><time>2026-04-19T06:30:05Z</time></trkpt><trkpt lat="36.83981894849032" lon="14.979932959023653"><ele>59.0</ele><time>2026-04-19T06:30:06Z</time></trkpt><trkpt lat="36.839879560929795" lon="14.97996041830412"><ele>59.0</ele><time>2026-04-19T06:30:07Z</time></trkpt><trkpt lat="36.83995130949761" lon="14.979935672617337"><ele>59.0</ele><time>2026-04-19T06:30:08Z</time></trkpt><trkpt lat="36.840020483296456" lon="14.979850871826695"><ele>59.00000000000001</ele><time>2026-04-19T06:30:09Z</time></trkpt><trkpt lat="36.84010989380806" lon="14.979784887699616"><ele>59.0</ele><time>2026-04-19T06:30:10Z</time></trkpt><trkpt lat="36.8401940144903" lon="14.979721801793934"><ele>59.25</ele><time>2026-04-19T06:30:11Z</time></trkpt><trkpt lat="36.840299250647995" lon="14.979634354057845"><ele>59.5</ele><time>2026-04-19T06:30:12Z</time></trkpt><trkpt lat="36.84040364161568" lon="14.979542226136587"><ele>59.75</ele><time>2026-04-19T06:30:13Z</time></trkpt><trkpt lat="36.840510574580975" lon="14.979478924044523"><ele>60.0</ele><time>2026-04-19T06:30:14Z</time></trkpt><trkpt lat="36.840600308025586" lon="14.979392424512238"><ele>60.0</ele><time>2026-04-19T06:30:15Z</time></trkpt><trkpt lat="36.84071055779161" lon="14.97933800354552"><ele>60.0</ele><time>2026-04-19T06:30:16Z</time></trkpt><trkpt lat="36.84082863836306" lon="14.979295341975904"><ele>60.0</ele><time>2026-04-19T06:30:17Z</time></trkpt><trkpt lat="36.840945531187636" lon="14.979258317194482"><ele>60.0</ele><time>2026-04-19T06:30:18Z</time></trkpt><trkpt lat="36.84106744535034" lon="14.979216051989479"><ele>60.5</ele><time>2026-04-19T06:30:19Z</time></trkpt><trkpt lat="36.8412083310239" lon="14.979188328803446"><ele>61.0</ele><time>2026-04-19T06:30:20Z</time></trkpt><trkpt lat="36.84133799671541" lon="14.97914898378195"><ele>61.5</ele><time>2026-04-19T06:30:21Z</time></trkpt><trkpt lat="36.841463102794336" lon="14.979099321504664"><ele>62.0</ele><time>2026-04-19T06:30:22Z</time></trkpt><trkpt lat="36.841631162505976" lon="14.979065342079421"><ele>63.333333333333336</ele><time>2026-04-19T06:30:23Z</time></trkpt><trkpt lat="36.84180460563207" lon="14.979060746631449"><ele>64.66666666666667</ele><time>2026-04-19T06:30:24Z</time></trkpt><trkpt lat="36.84196030592104" lon="14.979047965721502"><ele>66.0</ele><time>2026-04-19T06:30:25Z</time></trkpt><trkpt lat="36.84212911368567" lon="14.979031503698591"><ele>66.0</ele><time>2026-04-19T06:30:26Z</time></trkpt><trkpt lat="36.84229326247748" lon="14.979044932321647"><ele>66.0</ele><time>2026-04-19T06:30:27Z</time></trkpt><trkpt lat="36.842433477606626" lon="14.979061601226531"><ele>66.0</ele><time>2026-04-19T06:30:28Z</time></trkpt><trkpt lat="36.84256197640124" lon="14.979077870812013"><ele>66.0</ele><time>2026-04-19T06:30:29Z</time></trkpt><trkpt lat="36.84268981970927" lon="14.979095428662077"><ele>65.75</ele><time>2026-04-19T06:30:30Z</time></trkpt><trkpt lat="36.842815347349315" lon="14.979112791269175"><ele>65.5</ele><time>2026-04-19T06:30:31Z</time></trkpt><trkpt lat="36.84294430712592" lon="14.97911900963409"><ele>65.25</ele><time>2026-04-19T06:30:32Z</time></trkpt><trkpt lat="36.843071195307324" lon="14.979108361438366"><ele>65.0</ele><time>2026-04-19T06:30:33Z</time></trkpt><trkpt lat="36.843203290079394" lon="14.97908051879564"><ele>65.0</ele><time>2026-04-19T06:30:34Z</time></trkpt><trkpt lat="36.8433303543579" lon="14.979038719775472"><ele>65.0</ele><time>2026-04-19T06:30:35Z</time></trkpt><trkpt lat="36.843455763921156" lon="14.978986385309746"><ele>65.0</ele><time>2026-04-19T06:30:36Z</time></trkpt><trkpt lat="36.843587272670845" lon="14.978938367362993"><ele>65.0</ele><time>2026-04-19T06:30:37Z</time></trkpt><trkpt lat="36.8436982100348" lon="14.978892310120607"><ele>65.0</ele><time>2026-04-19T06:30:38Z</time></trkpt><trkpt lat="36.84379719566594" lon="14.978847876216138"><ele>65.0</ele><time>2026-04-19T06:30:39Z</time></trkpt><trkpt lat="36.84388244841223" lon="14.978811076254571"><ele>65.0</ele><time>2026-04-19T06:30:40Z</time></trkpt><trkpt lat="36.84395625064672" lon="14.978775809704771"><ele>65.0</ele><time>2026-04-19T06:30:41Z</time></trkpt><trkpt lat="36.84403163002206" lon="14.978766037261392"><ele>65.0</ele><time>2026-04-19T06:30:42Z</time></trkpt><trkpt lat="36.84410648326331" lon="14.978735844725236"><ele>65.0</ele><time>2026-04-19T06:30:43Z</time></trkpt><trkpt lat="36.84417264278769" lon="14.978707782140212"><ele>65.0</ele><time>2026-04-19T06:30:44Z</time></trkpt><trkpt lat="36.84427508272491" lon="14.978673454001301"><ele>65.0</ele><time>2026-04-19T06:30:46Z</time></trkpt><trkpt lat="36.844394318925744" lon="14.97866427370492"><ele>65.0</ele><time>2026-04-19T06:30:48Z</time></trkpt><trkpt lat="36.84448536483962" lon="14.978647122182272"><ele>65.0</ele><time>2026-04-19T06:30:50Z</time></trkpt><trkpt lat="36.844557159797056" lon="14.978894934942996"><ele>65.25</ele><time>2026-04-19T06:31:00Z</time></trkpt><trkpt lat="36.84459627804401" lon="14.979030285825951"><ele>65.5</ele><time>2026-04-19T06:31:01Z</time></trkpt><trkpt lat="36.84464315928297" lon="14.97919292593292"><ele>65.75</ele><time>2026-04-19T06:31:02Z</time></trkpt><trkpt lat="36.84468268349559" lon="14.979340301239304"><ele>66.0</ele><time>2026-04-19T06:31:03Z</time></trkpt><trkpt lat="36.8447027917331" lon="14.979475650884236"><ele>67.0</ele><time>2026-04-19T06:31:04Z</time></trkpt><trkpt lat="36.84470703206889" lon="14.979624826178517"><ele>68.0</ele><time>2026-04-19T06:31:05Z</time></trkpt><trkpt lat="36.84470907753886" lon="14.979766544271696"><ele>69.0</ele><time>2026-04-19T06:31:06Z</time></trkpt><trkpt lat="36.84472230746861" lon="14.979886987429813"><ele>70.0</ele><time>2026-04-19T06:31:07Z</time></trkpt><trkpt lat="36.84474531119817" lon="14.979998592855448"><ele>71.0</ele><time>2026-04-19T06:31:08Z</time></trkpt><trkpt lat="36.84478329434751" lon="14.980122956881646"><ele>72.0</ele><time>2026-04-19T06:31:09Z</time></trkpt><trkpt lat="36.84482442400172" lon="14.980273754821019"><ele>73.0</ele><time>2026-04-19T06:31:10Z</time></trkpt><trkpt lat="36.844837172698455" lon="14.980407890287285"><ele>74.0</ele><time>2026-04-19T06:31:11Z</time></trkpt><trkpt lat="36.84483336945341" lon="14.98054588947605"><ele>75.0</ele><time>2026-04-19T06:31:12Z</time></trkpt><trkpt lat="36.844841854858366" lon="14.980722905367417"><ele>75.75</ele><time>2026-04-19T06:31:13Z</time></trkpt><trkpt lat="36.84485424459909" lon="14.980898518161178"><ele>76.5</ele><time>2026-04-19T06:31:14Z</time></trkpt><trkpt lat="36.84487620131168" lon="14.981056737957886"><ele>77.25</ele><time>2026-04-19T06:31:15Z</time></trkpt><trkpt lat="36.844892716876316" lon="14.981204688340503"><ele>78.0</ele><time>2026-04-19T06:31:16Z</time></trkpt><trkpt lat="36.84491189805181" lon="14.981345267617902"><ele>78.0</ele><time>2026-04-19T06:31:17Z</time></trkpt><trkpt lat="36.84494000187909" lon="14.981464161394715"><ele>78.0</ele><time>2026-04-19T06:31:18Z</time></trkpt><trkpt lat="36.84496605139102" lon="14.981590586634765"><ele>78.0</ele><time>2026-04-19T06:31:19Z</time></trkpt><trkpt lat="36.844979441922305" lon="14.981739246052655"><ele>78.0</ele><time>2026-04-19T06:31:20Z</time></trkpt><trkpt lat="36.84499670743119" lon="14.981899893740325"><ele>78.66666666666667</ele><time>2026-04-19T06:31:21Z</time></trkpt><trkpt lat="36.84501299749363" lon="14.98206939461962"><ele>79.33333333333334</ele><time>2026-04-19T06:31:22Z</time></trkpt><trkpt lat="36.84503830958111" lon="14.982281873789303"><ele>80.0</ele><time>2026-04-19T06:31:23Z</time></trkpt><trkpt lat="36.84506161744076" lon="14.982457710363931"><ele>80.5</ele><time>2026-04-19T06:31:24Z</time></trkpt><trkpt lat="36.845080627730155" lon="14.982591823800707"><ele>81.0</ele><time>2026-04-19T06:31:25Z</time></trkpt><trkpt lat="36.84509591880683" lon="14.98269630653067"><ele>81.5</ele><time>2026-04-19T06:31:26Z</time></trkpt><trkpt lat="36.84507312591694" lon="14.982774844112507"><ele>82.0</ele><time>2026-04-19T06:31:27Z</time></trkpt><trkpt lat="36.845109946553976" lon="14.982886366311696"><ele>82.5</ele><time>2026-04-19T06:31:34Z</time></trkpt><trkpt lat="36.84511595981069" lon="14.982977126231361"><ele>83.0</ele><time>2026-04-19T06:31:35Z</time></trkpt><trkpt lat="36.84512379786549" lon="14.983089495014365"><ele>83.25</ele><time>2026-04-19T06:31:36Z</time></trkpt><trkpt lat="36.84513482697196" lon="14.98322041196449"><ele>83.5</ele><time>2026-04-19T06:31:37Z</time></trkpt><trkpt lat="36.845145562080596" lon="14.983378539637002"><ele>83.75</ele><time>2026-04-19T06:31:38Z</time></trkpt><trkpt lat="36.84516454361762" lon="14.983564463051657"><ele>84.0</ele><time>2026-04-19T06:31:39Z</time></trkpt><trkpt lat="36.84519312036454" lon="14.983792961651517"><ele>84.0</ele><time>2026-04-19T06:31:40Z</time></trkpt><trkpt lat="36.845204433482884" lon="14.984023311584233"><ele>84.0</ele><time>2026-04-19T06:31:41Z</time></trkpt><trkpt lat="36.84522356794627" lon="14.984219104522516"><ele>84.0</ele><time>2026-04-19T06:31:42Z</time></trkpt><trkpt lat="36.84525175808702" lon="14.98440417026131"><ele>84.33333333333333</ele><time>2026-04-19T06:31:43Z</time></trkpt><trkpt lat="36.84526822724764" lon="14.984583597498581"><ele>84.66666666666666</ele><time>2026-04-19T06:31:44Z</time></trkpt><trkpt lat="36.84528253394129" lon="14.984775766026608"><ele>85.0</ele><time>2026-04-19T06:31:45Z</time></trkpt><trkpt lat="36.8453023496161" lon="14.984979825321615"><ele>85.0</ele><time>2026-04-19T06:31:46Z</time></trkpt><trkpt lat="36.84532241469886" lon="14.985169688304055"><ele>85.0</ele><time>2026-04-19T06:31:47Z</time></trkpt><trkpt lat="36.84533897643484" lon="14.985344236609778"><ele>85.0</ele><time>2026-04-19T06:31:48Z</time></trkpt><trkpt lat="36.84535855980513" lon="14.985500955454102"><ele>85.0</ele><time>2026-04-19T06:31:49Z</time></trkpt><trkpt lat="36.8453782465767" lon="14.985660381876801"><ele>85.0</ele><time>2026-04-19T06:31:50Z</time></trkpt><trkpt lat="36.84538058336532" lon="14.98582592802747"><ele>85.0</ele><time>2026-04-19T06:31:51Z</time></trkpt><trkpt lat="36.84539550325439" lon="14.98597088558645"><ele>85.0</ele><time>2026-04-19T06:31:52Z</time></trkpt><trkpt lat="36.84542950201538" lon="14.986091917388087"><ele>85.0</ele><time>2026-04-19T06:31:53Z</time></trkpt><trkpt lat="36.84544568369731" lon="14.986201750996665"><ele>85.0</ele><time>2026-04-19T06:31:54Z</time></trkpt><trkpt lat="36.845471919947876" lon="14.986292768124521"><ele>84.5</ele><time>2026-04-19T06:31:55Z</time></trkpt><trkpt lat="36.84551843661571" lon="14.98637113874845"><ele>84.0</ele><time>2026-04-19T06:31:56Z</time></trkpt><trkpt lat="36.84558541636654" lon="14.986475249770724"><ele>83.5</ele><time>2026-04-19T06:31:57Z</time></trkpt><trkpt lat="36.84565641839731" lon="14.986622033215905"><ele>83.0</ele><time>2026-04-19T06:31:58Z</time></trkpt><trkpt lat="36.845738802079055" lon="14.986792062761111"><ele>82.5</ele><time>2026-04-19T06:31:59Z</time></trkpt><trkpt lat="36.84580869453921" lon="14.98693906242132"><ele>82.0</ele><time>2026-04-19T06:32:00Z</time></trkpt><trkpt lat="36.845876133060145" lon="14.98708257005711"><ele>81.5</ele><time>2026-04-19T06:32:01Z</time></trkpt><trkpt lat="36.84593725256186" lon="14.987217628107816"><ele>81.0</ele><time>2026-04-19T06:32:02Z</time></trkpt><trkpt lat="36.84600163918832" lon="14.987349830698694"><ele>81.0</ele><time>2026-04-19T06:32:03Z</time></trkpt><trkpt lat="36.84605774768649" lon="14.987482303858183"><ele>81.0</ele><time>2026-04-19T06:32:04Z</time></trkpt><trkpt lat="36.8461289092477" lon="14.987643845793652"><ele>81.0</ele><time>2026-04-19T06:32:05Z</time></trkpt><trkpt lat="36.84620205948105" lon="14.987811951392276"><ele>81.0</ele><time>2026-04-19T06:32:06Z</time></trkpt><trkpt lat="36.8462629848162" lon="14.987951177817743"><ele>80.6</ele><time>2026-04-19T06:32:07Z</time></trkpt><trkpt lat="36.846318000144336" lon="14.988080527236873"><ele>80.19999999999999</ele><time>2026-04-19T06:32:08Z</time></trkpt><trkpt lat="36.84637193068627" lon="14.988201247035914"><ele>79.80000000000001</ele><time>2026-04-19T06:32:09Z</time></trkpt><trkpt lat="36.84642514794888" lon="14.98832142822878"><ele>79.4</ele><time>2026-04-19T06:32:10Z</time></trkpt><trkpt lat="36.84650232512422" lon="14.988390188255087"><ele>79.0</ele><time>2026-04-19T06:32:11Z</time></trkpt><trkpt lat="36.84657183435592" lon="14.988459872485812"><ele>78.83333333333333</ele><time>2026-04-19T06:32:12Z</time></trkpt><trkpt lat="36.84663714445131" lon="14.988525346205892"><ele>78.66666666666666</ele><time>2026-04-19T06:32:13Z</time></trkpt><trkpt lat="36.84670080937943" lon="14.98858346098809"><ele>78.5</ele><time>2026-04-19T06:32:14Z</time></trkpt><trkpt lat="36.84676734472017" lon="14.988642069458333"><ele>78.33333333333333</ele><time>2026-04-19T06:32:15Z</time></trkpt><trkpt lat="36.84683517509822" lon="14.988703232492826"><ele>78.16666666666667</ele><time>2026-04-19T06:32:16Z</time></trkpt><trkpt lat="36.846893341799195" lon="14.988755681896299"><ele>78.0</ele><time>2026-04-19T06:32:17Z</time></trkpt><trkpt lat="36.846955834207776" lon="14.988811952728177"><ele>77.75</ele><time>2026-04-19T06:32:18Z</time></trkpt><trkpt lat="36.84702776703922" lon="14.988891697707553"><ele>77.5</ele><time>2026-04-19T06:32:19Z</time></trkpt><trkpt lat="36.84708798862434" lon="14.988971572575958"><ele>77.25</ele><time>2026-04-19T06:32:20Z</time></trkpt><trkpt lat="36.8471549912047" lon="14.989064537726776"><ele>77.0</ele><time>2026-04-19T06:32:21Z</time></trkpt><trkpt lat="36.846907660445325" lon="14.989651756361978"><ele>76.8</ele><time>2026-04-19T06:32:22Z</time></trkpt><trkpt lat="36.8469396038084" lon="14.989774923023443"><ele>76.6</ele><time>2026-04-19T06:32:23Z</time></trkpt><trkpt lat="36.84697459529259" lon="14.989894106534893"><ele>76.39999999999999</ele><time>2026-04-19T06:32:24Z</time></trkpt><trkpt lat="36.84700999516758" lon="14.990027779521427"><ele>76.2</ele><time>2026-04-19T06:32:25Z</time></trkpt><trkpt lat="36.8470468499658" lon="14.990177622794087"><ele>76.0</ele><time>2026-04-19T06:32:26Z</time></trkpt><trkpt lat="36.84708019527204" lon="14.990305470357042"><ele>75.8</ele><time>2026-04-19T06:32:27Z</time></trkpt><trkpt lat="36.847121491778395" lon="14.990427266280047"><ele>75.6</ele><time>2026-04-19T06:32:28Z</time></trkpt><trkpt lat="36.84716135226353" lon="14.990561689667665"><ele>75.4</ele><time>2026-04-19T06:32:29Z</time></trkpt><trkpt lat="36.84719730451165" lon="14.990686500961699"><ele>75.2</ele><time>2026-04-19T06:32:30Z</time></trkpt><trkpt lat="36.84723245832779" lon="14.990810006526322"><ele>75.0</ele><time>2026-04-19T06:32:31Z</time></trkpt><trkpt lat="36.847274558050906" lon="14.990948571488069"><ele>74.5</ele><time>2026-04-19T06:32:32Z</time></trkpt><trkpt lat="36.847320978951366" lon="14.991095365503572"><ele>74.0</ele><time>2026-04-19T06:32:33Z</time></trkpt><trkpt lat="36.847367348408476" lon="14.991239051701113"><ele>73.5</ele><time>2026-04-19T06:32:34Z</time></trkpt><trkpt lat="36.84741432809559" lon="14.99137954975778"><ele>73.0</ele><time>2026-04-19T06:32:35Z</time></trkpt><trkpt lat="36.84746765974725" lon="14.991517462330542"><ele>73.0</ele><time>2026-04-19T06:32:36Z</time></trkpt><trkpt lat="36.84752752113646" lon="14.991655448207746"><ele>73.0</ele><time>2026-04-19T06:32:37Z</time></trkpt><trkpt lat="36.84759540764806" lon="14.991794152313116"><ele>73.0</ele><time>2026-04-19T06:32:38Z</time></trkpt><trkpt lat="36.84767271395858" lon="14.991938950989438"><ele>73.0</ele><time>2026-04-19T06:32:39Z</time></trkpt><trkpt lat="36.84775980518557" lon="14.992089570777136"><ele>72.2</ele><time>2026-04-19T06:32:40Z</time></trkpt><trkpt lat="36.84783618767513" lon="14.992218404481724"><ele>71.4</ele><time>2026-04-19T06:32:41Z</time></trkpt><trkpt lat="36.847890529528975" lon="14.992328962837194"><ele>70.60000000000001</ele><time>2026-04-19T06:32:42Z</time></trkpt><trkpt lat="36.84793125516447" lon="14.99242791857657"><ele>69.8</ele><time>2026-04-19T06:32:43Z</time></trkpt><trkpt lat="36.847959201439906" lon="14.992529670321195"><ele>69.0</ele><time>2026-04-19T06:32:44Z</time></trkpt><trkpt lat="36.847981777525646" lon="14.992634644009229"><ele>69.0</ele><time>2026-04-19T06:32:45Z</time></trkpt><trkpt lat="36.84799648474762" lon="14.99272410652989"><ele>69.0</ele><time>2026-04-19T06:32:46Z</time></trkpt><trkpt lat="36.84799135905285" lon="14.992819686844545"><ele>69.0</ele><time>2026-04-19T06:32:48Z</time></trkpt><trkpt lat="36.84799918493995" lon="14.992952336141373"><ele>69.0</ele><time>2026-04-19T06:32:54Z</time></trkpt><trkpt lat="36.848045582025556" lon="14.99303313288218"><ele>69.0</ele><time>2026-04-19T06:32:55Z</time></trkpt><trkpt lat="36.848102817561724" lon="14.993078535805985"><ele>69.0</ele><time>2026-04-19T06:32:56Z</time></trkpt><trkpt lat="36.84816341955596" lon="14.99315893179512"><ele>69.0</ele><time>2026-04-19T06:32:57Z</time></trkpt><trkpt lat="36.84820486584372" lon="14.993246538501152"><ele>69.0</ele><time>2026-04-19T06:32:58Z</time></trkpt><trkpt lat="36.848267725893486" lon="14.99333935415055"><ele>69.0</ele><time>2026-04-19T06:32:59Z</time></trkpt><trkpt lat="36.84833741566669" lon="14.99343466319183"><ele>69.0</ele><time>2026-04-19T06:33:00Z</time></trkpt><trkpt lat="36.84841736036582" lon="14.993551726521753"><ele>69.0</ele><time>2026-04-19T06:33:01Z</time></trkpt><trkpt lat="36.84849454147919" lon="14.99367202701277"><ele>69.5</ele><time>2026-04-19T06:33:02Z</time></trkpt><trkpt lat="36.84856734909178" lon="14.993770147762664"><ele>70.0</ele><time>2026-04-19T06:33:03Z</time></trkpt><trkpt lat="36.84864014173047" lon="14.993874556026672"><ele>70.5</ele><time>2026-04-19T06:33:04Z</time></trkpt><trkpt lat="36.84871538396895" lon="14.993983918757882"><ele>71.0</ele><time>2026-04-19T06:33:05Z</time></trkpt><trkpt lat="36.84880395807894" lon="14.994095795157934"><ele>70.5</ele><time>2026-04-19T06:33:06Z</time></trkpt><trkpt lat="36.84890068002564" lon="14.994216175142931"><ele>70.0</ele><time>2026-04-19T06:33:07Z</time></trkpt><trkpt lat="36.849005612709654" lon="14.994322363670637"><ele>69.5</ele><time>2026-04-19T06:33:08Z</time></trkpt><trkpt lat="36.84911861128783" lon="14.994421954934204"><ele>69.0</ele><time>2026-04-19T06:33:09Z</time></trkpt><trkpt lat="36.849219816040986" lon="14.994524109888056"><ele>69.25</ele><time>2026-04-19T06:33:10Z</time></trkpt><trkpt lat="36.849324279573565" lon="14.99464378016834"><ele>69.5</ele><time>2026-04-19T06:33:11Z</time></trkpt><trkpt lat="36.849429392573285" lon="14.994750513648716"><ele>69.75</ele><time>2026-04-19T06:33:12Z</time></trkpt><trkpt lat="36.84952847794467" lon="14.994848029899039"><ele>70.0</ele><time>2026-04-19T06:33:13Z</time></trkpt><trkpt lat="36.84961462675124" lon="14.994947359434782"><ele>69.5</ele><time>2026-04-19T06:33:14Z</time></trkpt><trkpt lat="36.84972556013364" lon="14.995054965762325"><ele>69.0</ele><time>2026-04-19T06:33:15Z</time></trkpt><trkpt lat="36.84984442202425" lon="14.995167832296794"><ele>68.5</ele><time>2026-04-19T06:33:16Z</time></trkpt><trkpt lat="36.849971636068034" lon="14.995269079315865"><ele>68.0</ele><time>2026-04-19T06:33:17Z</time></trkpt><trkpt lat="36.850091600112556" lon="14.995346016270464"><ele>68.0</ele><time>2026-04-19T06:33:18Z</time></trkpt><trkpt lat="36.85021044716377" lon="14.995403025626437"><ele>68.0</ele><time>2026-04-19T06:33:19Z</time></trkpt><trkpt lat="36.85033058530031" lon="14.99545626968791"><ele>68.0</ele><time>2026-04-19T06:33:20Z</time></trkpt><trkpt lat="36.85045162409895" lon="14.995515898067543"><ele>68.0</ele><time>2026-04-19T06:33:21Z</time></trkpt><trkpt lat="36.85057312405012" lon="14.99557862716363"><ele>68.0</ele><time>2026-04-19T06:33:22Z</time></trkpt><trkpt lat="36.85069506822839" lon="14.995643457082764"><ele>68.0</ele><time>2026-04-19T06:33:23Z</time></trkpt><trkpt lat="36.85081572295237" lon="14.995713195779368"><ele>68.0</ele><time>2026-04-19T06:33:24Z</time></trkpt><trkpt lat="36.850933167264515" lon="14.995794402494871"><ele>68.0</ele><time>2026-04-19T06:33:25Z</time></trkpt><trkpt lat="36.85104633283335" lon="14.99589274943022"><ele>66.75</ele><time>2026-04-19T06:33:26Z</time></trkpt><trkpt lat="36.851152851127424" lon="14.996014713643474"><ele>65.5</ele><time>2026-04-19T06:33:27Z</time></trkpt><trkpt lat="36.851248281291525" lon="14.996153577731913"><ele>64.25</ele><time>2026-04-19T06:33:28Z</time></trkpt><trkpt lat="36.85133442939325" lon="14.996298109568297"><ele>63.0</ele><time>2026-04-19T06:33:29Z</time></trkpt><trkpt lat="36.85141367181991" lon="14.996433175295394"><ele>63.0</ele><time>2026-04-19T06:33:30Z</time></trkpt><trkpt lat="36.85149403464821" lon="14.996562590474648"><ele>63.0</ele><time>2026-04-19T06:33:31Z</time></trkpt><trkpt lat="36.85158436019132" lon="14.996697573593815"><ele>63.0</ele><time>2026-04-19T06:33:32Z</time></trkpt><trkpt lat="36.85168887037471" lon="14.996840616885285"><ele>63.0</ele><time>2026-04-19T06:33:33Z</time></trkpt><trkpt lat="36.85181404662429" lon="14.996990300465574"><ele>62.33333333333333</ele><time>2026-04-19T06:33:34Z</time></trkpt><trkpt lat="36.85194671084383" lon="14.99712893375123"><ele>61.666666666666664</ele><time>2026-04-19T06:33:35Z</time></trkpt><trkpt lat="36.85207492091621" lon="14.997254433205878"><ele>61.0</ele><time>2026-04-19T06:33:36Z</time></trkpt><trkpt lat="36.85221115861338" lon="14.997380711082732"><ele>61.0</ele><time>2026-04-19T06:33:37Z</time></trkpt><trkpt lat="36.85233931558121" lon="14.997497671557454"><ele>61.0</ele><time>2026-04-19T06:33:38Z</time></trkpt><trkpt lat="36.85245578709477" lon="14.997612028942125"><ele>61.0</ele><time>2026-04-19T06:33:39Z</time></trkpt><trkpt lat="36.85256188208868" lon="14.997724608353005"><ele>61.0</ele><time>2026-04-19T06:33:40Z</time></trkpt><trkpt lat="36.85265075424802" lon="14.997841240230096"><ele>59.75</ele><time>2026-04-19T06:33:41Z</time></trkpt><trkpt lat="36.85272107228572" lon="14.99797016084434"><ele>58.5</ele><time>2026-04-19T06:33:42Z</time></trkpt><trkpt lat="36.85277581921337" lon="14.998112717698138"><ele>57.25</ele><time>2026-04-19T06:33:43Z</time></trkpt><trkpt lat="36.85282285743837" lon="14.998268820814221"><ele>56.0</ele><time>2026-04-19T06:33:44Z</time></trkpt><trkpt lat="36.85284789735685" lon="14.998449469873389"><ele>55.0</ele><time>2026-04-19T06:33:45Z</time></trkpt><trkpt lat="36.85285854719126" lon="14.998633258242267"><ele>54.0</ele><time>2026-04-19T06:33:46Z</time></trkpt><trkpt lat="36.852849690136516" lon="14.998802124180203"><ele>53.0</ele><time>2026-04-19T06:33:47Z</time></trkpt><trkpt lat="36.852844063001" lon="14.998956901316182"><ele>52.0</ele><time>2026-04-19T06:33:48Z</time></trkpt><trkpt lat="36.852843315476214" lon="14.999102437452034"><ele>51.400000000000006</ele><time>2026-04-19T06:33:49Z</time></trkpt><trkpt lat="36.85285094057301" lon="14.999229437626603"><ele>50.800000000000004</ele><time>2026-04-19T06:33:50Z</time></trkpt><trkpt lat="36.85285879206579" lon="14.999346000316912"><ele>50.2</ele><time>2026-04-19T06:33:51Z</time></trkpt><trkpt lat="36.85286604304614" lon="14.999447161195633"><ele>49.6</ele><time>2026-04-19T06:33:52Z</time></trkpt><trkpt lat="36.852886885544685" lon="14.999572924536537"><ele>49.0</ele><time>2026-04-19T06:33:54Z</time></trkpt><trkpt lat="36.85291377393844" lon="14.999685699146088"><ele>49.0</ele><time>2026-04-19T06:33:56Z</time></trkpt><trkpt lat="36.85291530065789" lon="14.999767337697458"><ele>49.0</ele><time>2026-04-19T06:33:58Z</time></trkpt><trkpt lat="36.85301999730786" lon="14.999765026884276"><ele>49.0</ele><time>2026-04-19T06:33:59Z</time></trkpt><trkpt lat="36.85309444990663" lon="14.999807707017299"><ele>49.0</ele><time>2026-04-19T06:34:01Z</time></trkpt><trkpt lat="36.85324284039561" lon="14.999892495056537"><ele>49.0</ele><time>2026-04-19T06:34:05Z</time></trkpt><trkpt lat="36.85334202359737" lon="14.999957969333018"><ele>48.99999999999999</ele><time>2026-04-19T06:34:06Z</time></trkpt><trkpt lat="36.85343843184925" lon="15.000004608834196"><ele>49.0</ele><time>2026-04-19T06:34:07Z</time></trkpt><trkpt lat="36.85351362477293" lon="15.000048016917816"><ele>49.0</ele><time>2026-04-19T06:34:08Z</time></trkpt><trkpt lat="36.85357493237133" lon="15.000087563745579"><ele>49.0</ele><time>2026-04-19T06:34:09Z</time></trkpt><trkpt lat="36.8536374309519" lon="15.000117794376568"><ele>48.99999999999999</ele><time>2026-04-19T06:34:10Z</time></trkpt><trkpt lat="36.85369938889351" lon="15.000150600546474"><ele>49.0</ele><time>2026-04-19T06:34:11Z</time></trkpt><trkpt lat="36.85376223294098" lon="15.00019175348635"><ele>48.166666666666664</ele><time>2026-04-19T06:34:12Z</time></trkpt><trkpt lat="36.853831918577875" lon="15.000236895917743"><ele>47.33333333333333</ele><time>2026-04-19T06:34:13Z</time></trkpt><trkpt lat="36.85390380822455" lon="15.000273928639118"><ele>46.5</ele><time>2026-04-19T06:34:14Z</time></trkpt><trkpt lat="36.85397818368766" lon="15.000307800272674"><ele>45.666666666666664</ele><time>2026-04-19T06:34:15Z</time></trkpt><trkpt lat="36.8540508601671" lon="15.00035427720561"><ele>44.83333333333333</ele><time>2026-04-19T06:34:16Z</time></trkpt><trkpt lat="36.85412452907476" lon="15.000393239721946"><ele>44.0</ele><time>2026-04-19T06:34:17Z</time></trkpt><trkpt lat="36.85419634704197" lon="15.000434253389207"><ele>44.0</ele><time>2026-04-19T06:34:18Z</time></trkpt><trkpt lat="36.85428536707312" lon="15.000483835752465"><ele>44.0</ele><time>2026-04-19T06:34:19Z</time></trkpt><trkpt lat="36.854371262747" lon="15.00053445491009"><ele>44.0</ele><time>2026-04-19T06:34:20Z</time></trkpt><trkpt lat="36.85445214832582" lon="15.000582783729582"><ele>44.0</ele><time>2026-04-19T06:34:21Z</time></trkpt><trkpt lat="36.85452366635253" lon="15.000632742656357"><ele>44.0</ele><time>2026-04-19T06:34:22Z</time></trkpt><trkpt lat="36.854585598553896" lon="15.000695778216054"><ele>44.0</ele><time>2026-04-19T06:34:23Z</time></trkpt><trkpt lat="36.85463054062544" lon="15.000762799106257"><ele>44.85714285714286</ele><time>2026-04-19T06:34:24Z</time></trkpt><trkpt lat="36.85466070797829" lon="15.000834790730375"><ele>45.714285714285715</ele><time>2026-04-19T06:34:25Z</time></trkpt><trkpt lat="36.854666717626635" lon="15.000914543158531"><ele>46.57142857142857</ele><time>2026-04-19T06:34:26Z</time></trkpt><trkpt lat="36.854654182015175" lon="15.001003618587964"><ele>47.42857142857143</ele><time>2026-04-19T06:34:28Z</time></trkpt><trkpt lat="36.85465600929769" lon="15.001087090257096"><ele>48.285714285714285</ele><time>2026-04-19T06:34:31Z</time></trkpt><trkpt lat="36.85466152165755" lon="15.001173505336158"><ele>49.142857142857146</ele><time>2026-04-19T06:34:32Z</time></trkpt><trkpt lat="36.85465634218967" lon="15.001267671375386"><ele>50.0</ele><time>2026-04-19T06:34:33Z</time></trkpt><trkpt lat="36.85465500234716" lon="15.001399566685834"><ele>50.00000000000001</ele><time>2026-04-19T06:34:35Z</time></trkpt><trkpt lat="36.85464066433051" lon="15.001481413245296"><ele>50.0</ele><time>2026-04-19T06:34:37Z</time></trkpt><trkpt lat="36.85471276140114" lon="15.001442738513195"><ele>50.0</ele><time>2026-04-19T06:34:44Z</time></trkpt><trkpt lat="36.85469988759102" lon="15.001342738649942"><ele>50.0</ele><time>2026-04-19T06:34:57Z</time></trkpt><trkpt lat="36.85470993741781" lon="15.001180183402019"><ele>50.00000000000001</ele><time>2026-04-19T06:34:59Z</time></trkpt><trkpt lat="36.85472125047149" lon="15.001069226242873"><ele>50.0</ele><time>2026-04-19T06:35:00Z</time></trkpt><trkpt lat="36.8547288863839" lon="15.000950516827755"><ele>50.0</ele><time>2026-04-19T06:35:01Z</time></trkpt><trkpt lat="36.85472788671045" lon="15.000836185472096"><ele>50.0</ele><time>2026-04-19T06:35:02Z</time></trkpt><trkpt lat="36.854719126001754" lon="15.000695776052936"><ele>50.0</ele><time>2026-04-19T06:35:03Z</time></trkpt><trkpt lat="36.854740803364734" lon="15.000524217301642"><ele>50.0</ele><time>2026-04-19T06:35:04Z</time></trkpt><trkpt lat="36.85475405426225" lon="15.000313036644943"><ele>50.0</ele><time>2026-04-19T06:35:05Z</time></trkpt><trkpt lat="36.854764763551564" lon="15.000142361779025"><ele>50.0</ele><time>2026-04-19T06:35:06Z</time></trkpt><trkpt lat="36.854705863219955" lon="14.999999135749574"><ele>50.0</ele><time>2026-04-19T06:35:07Z</time></trkpt><trkpt lat="36.85470532093659" lon="14.999885613279492"><ele>50.0</ele><time>2026-04-19T06:35:08Z</time></trkpt><trkpt lat="36.85470681218752" lon="14.999799596200436"><ele>50.0</ele><time>2026-04-19T06:35:09Z</time></trkpt><trkpt lat="36.854720479742284" lon="14.99968218803655"><ele>50.00000000000001</ele><time>2026-04-19T06:35:11Z</time></trkpt><trkpt lat="36.854786425239766" lon="14.99961690832995"><ele>50.0</ele><time>2026-04-19T06:35:13Z</time></trkpt><trkpt lat="36.854893535565544" lon="14.99963577614998"><ele>50.0</ele><time>2026-04-19T06:35:15Z</time></trkpt><trkpt lat="36.85497121368819" lon="14.999685588713103"><ele>50.0</ele><time>2026-04-19T06:35:16Z</time></trkpt><trkpt lat="36.8550486307068" lon="14.999736387336421"><ele>50.00000000000001</ele><time>2026-04-19T06:35:17Z</time></trkpt><trkpt lat="36.85511878455694" lon="14.999782513666155"><ele>50.0</ele><time>2026-04-19T06:35:18Z</time></trkpt><trkpt lat="36.85523742783225" lon="14.999844319078328"><ele>50.50000000000001</ele><time>2026-04-19T06:35:20Z</time></trkpt><trkpt lat="36.85530655480586" lon="14.999904571520156"><ele>51.0</ele><time>2026-04-19T06:35:21Z</time></trkpt><trkpt lat="36.8553969493971" lon="14.999969390909783"><ele>51.5</ele><time>2026-04-19T06:35:22Z</time></trkpt><trkpt lat="36.8554598015657" lon="15.00002390618957"><ele>52.0</ele><time>2026-04-19T06:35:23Z</time></trkpt><trkpt lat="36.8555098786666" lon="15.000086836843906"><ele>52.50000000000001</ele><time>2026-04-19T06:35:24Z</time></trkpt><trkpt lat="36.85557763233841" lon="15.000188281657037"><ele>53.0</ele><time>2026-04-19T06:35:25Z</time></trkpt><trkpt lat="36.855672971857594" lon="15.000329552570474"><ele>53.0</ele><time>2026-04-19T06:35:26Z</time></trkpt><trkpt lat="36.85578932098144" lon="15.000493588142579"><ele>53.0</ele><time>2026-04-19T06:35:27Z</time></trkpt><trkpt lat="36.85591201725412" lon="15.000667243565259"><ele>53.0</ele><time>2026-04-19T06:35:28Z</time></trkpt><trkpt lat="36.85603184289603" lon="15.000835939179236"><ele>53.0</ele><time>2026-04-19T06:35:29Z</time></trkpt><trkpt lat="36.8561726434444" lon="15.001011572772475"><ele>53.0</ele><time>2026-04-19T06:35:30Z</time></trkpt><trkpt lat="36.85629737099376" lon="15.001168001949882"><ele>53.0</ele><time>2026-04-19T06:35:31Z</time></trkpt><trkpt lat="36.856398378118215" lon="15.001301672890632"><ele>53.0</ele><time>2026-04-19T06:35:32Z</time></trkpt><trkpt lat="36.85648379454664" lon="15.001413731417808"><ele>53.0</ele><time>2026-04-19T06:35:33Z</time></trkpt><trkpt lat="36.856567925436615" lon="15.001499441158522"><ele>53.0</ele><time>2026-04-19T06:35:34Z</time></trkpt><trkpt lat="36.85664851988522" lon="15.001569254704274"><ele>53.0</ele><time>2026-04-19T06:35:35Z</time></trkpt><trkpt lat="36.85675467646903" lon="15.001640577407214"><ele>54.0</ele><time>2026-04-19T06:35:36Z</time></trkpt><trkpt lat="36.856872543916815" lon="15.001697736079489"><ele>55.0</ele><time>2026-04-19T06:35:37Z</time></trkpt><trkpt lat="36.85697865148713" lon="15.001748182286347"><ele>56.0</ele><time>2026-04-19T06:35:38Z</time></trkpt><trkpt lat="36.857073392220144" lon="15.001811883241723"><ele>57.0</ele><time>2026-04-19T06:35:39Z</time></trkpt><trkpt lat="36.85714693361995" lon="15.001858819884927"><ele>58.0</ele><time>2026-04-19T06:35:40Z</time></trkpt><trkpt lat="36.857227887937846" lon="15.00189410587281"><ele>58.0</ele><time>2026-04-19T06:35:41Z</time></trkpt><trkpt lat="36.857325237923085" lon="15.001931260507565"><ele>58.0</ele><time>2026-04-19T06:35:42Z</time></trkpt><trkpt lat="36.857429111351244" lon="15.001973132613848"><ele>58.0</ele><time>2026-04-19T06:35:43Z</time></trkpt><trkpt lat="36.85754328761624" lon="15.002035465955672"><ele>58.0</ele><time>2026-04-19T06:35:44Z</time></trkpt><trkpt lat="36.85768718369265" lon="15.00212311464734"><ele>57.666666666666664</ele><time>2026-04-19T06:35:45Z</time></trkpt><trkpt lat="36.857829012131276" lon="15.002210685880842"><ele>57.33333333333333</ele><time>2026-04-19T06:35:46Z</time></trkpt><trkpt lat="36.857969082968125" lon="15.00230718393285"><ele>57.0</ele><time>2026-04-19T06:35:47Z</time></trkpt><trkpt lat="36.85810207784022" lon="15.002400559407805"><ele>57.0</ele><time>2026-04-19T06:35:48Z</time></trkpt><trkpt lat="36.8582045568039" lon="15.002465747312588"><ele>57.0</ele><time>2026-04-19T06:35:49Z</time></trkpt><trkpt lat="36.85829102039129" lon="15.002520834676337"><ele>57.0</ele><time>2026-04-19T06:35:50Z</time></trkpt><trkpt lat="36.85837251674867" lon="15.002586390558138"><ele>57.0</ele><time>2026-04-19T06:35:51Z</time></trkpt><trkpt lat="36.858463988236814" lon="15.002675649287893"><ele>57.0</ele><time>2026-04-19T06:35:52Z</time></trkpt><trkpt lat="36.85856275764509" lon="15.002789531335008"><ele>58.5</ele><time>2026-04-19T06:35:53Z</time></trkpt><trkpt lat="36.85864660641957" lon="15.002944094485292"><ele>60.0</ele><time>2026-04-19T06:35:54Z</time></trkpt><trkpt lat="36.85872428326314" lon="15.0030532023054"><ele>61.5</ele><time>2026-04-19T06:35:55Z</time></trkpt><trkpt lat="36.85878056390347" lon="15.00315861587438"><ele>63.0</ele><time>2026-04-19T06:35:56Z</time></trkpt><trkpt lat="36.858840976789025" lon="15.003288580023241"><ele>62.8</ele><time>2026-04-19T06:35:57Z</time></trkpt><trkpt lat="36.85891209969079" lon="15.003412892019556"><ele>62.599999999999994</ele><time>2026-04-19T06:35:58Z</time></trkpt><trkpt lat="36.858957712765076" lon="15.003531454967343"><ele>62.400000000000006</ele><time>2026-04-19T06:35:59Z</time></trkpt><trkpt lat="36.858978731625825" lon="15.003642276821394"><ele>62.2</ele><time>2026-04-19T06:36:00Z</time></trkpt><trkpt lat="36.85901339462627" lon="15.00373279256143"><ele>62.0</ele><time>2026-04-19T06:36:01Z</time></trkpt><trkpt lat="36.859046309497025" lon="15.003809727357517"><ele>62.0</ele><time>2026-04-19T06:36:02Z</time></trkpt><trkpt lat="36.8590774071091" lon="15.003878868337724"><ele>62.0</ele><time>2026-04-19T06:36:04Z</time></trkpt><trkpt lat="36.85912539383927" lon="15.003945531014"><ele>62.0</ele><time>2026-04-19T06:36:07Z</time></trkpt><trkpt lat="36.859181173647904" lon="15.004072990325975"><ele>62.0</ele><time>2026-04-19T06:36:09Z</time></trkpt><trkpt lat="36.859257265659316" lon="15.004210799269785"><ele>62.0</ele><time>2026-04-19T06:36:11Z</time></trkpt><trkpt lat="36.85930663870516" lon="15.004298392855391"><ele>64.0</ele><time>2026-04-19T06:36:12Z</time></trkpt><trkpt lat="36.859356297172525" lon="15.004379360770239"><ele>66.0</ele><time>2026-04-19T06:36:13Z</time></trkpt><trkpt lat="36.85940743150685" lon="15.004464495818652"><ele>68.0</ele><time>2026-04-19T06:36:14Z</time></trkpt><trkpt lat="36.85946111038433" lon="15.004566869008395"><ele>70.0</ele><time>2026-04-19T06:36:15Z</time></trkpt><trkpt lat="36.859536699823195" lon="15.004684557773944"><ele>72.0</ele><time>2026-04-19T06:36:16Z</time></trkpt><trkpt lat="36.85959643238867" lon="15.004802712214538"><ele>72.0</ele><time>2026-04-19T06:36:17Z</time></trkpt><trkpt lat="36.85966415800399" lon="15.004937393525614"><ele>72.0</ele><time>2026-04-19T06:36:18Z</time></trkpt><trkpt lat="36.85972955595214" lon="15.005101145689661"><ele>72.0</ele><time>2026-04-19T06:36:19Z</time></trkpt><trkpt lat="36.85980133012385" lon="15.005242902656464"><ele>72.0</ele><time>2026-04-19T06:36:20Z</time></trkpt><trkpt lat="36.85987860102826" lon="15.005395515967484"><ele>72.25</ele><time>2026-04-19T06:36:21Z</time></trkpt><trkpt lat="36.859956736089664" lon="15.005521211738301"><ele>72.5</ele><time>2026-04-19T06:36:22Z</time></trkpt><trkpt lat="36.860008119178445" lon="15.005653186451692"><ele>72.75</ele><time>2026-04-19T06:36:23Z</time></trkpt><trkpt lat="36.8600637698839" lon="15.005786292844139"><ele>73.0</ele><time>2026-04-19T06:36:24Z</time></trkpt><trkpt lat="36.860120737069686" lon="15.005938448057872"><ele>73.0</ele><time>2026-04-19T06:36:25Z</time></trkpt><trkpt lat="36.860170096781026" lon="15.00608077067435"><ele>73.0</ele><time>2026-04-19T06:36:26Z</time></trkpt><trkpt lat="36.8602295343704" lon="15.006210385979568"><ele>73.0</ele><time>2026-04-19T06:36:27Z</time></trkpt><trkpt lat="36.860299919521964" lon="15.006331564073514"><ele>73.0</ele><time>2026-04-19T06:36:28Z</time></trkpt><trkpt lat="36.86034436553009" lon="15.006457269351214"><ele>73.0</ele><time>2026-04-19T06:36:29Z</time></trkpt><trkpt lat="36.86038825341096" lon="15.006599965945664"><ele>73.0</ele><time>2026-04-19T06:36:30Z</time></trkpt><trkpt lat="36.860450883927456" lon="15.00675168425412"><ele>73.0</ele><time>2026-04-19T06:36:31Z</time></trkpt><trkpt lat="36.860535628312654" lon="15.006910670859028"><ele>73.0</ele><time>2026-04-19T06:36:32Z</time></trkpt><trkpt lat="36.86061044153969" lon="15.007062656471254"><ele>71.25</ele><time>2026-04-19T06:36:33Z</time></trkpt><trkpt lat="36.86068249548206" lon="15.007197945510287"><ele>69.5</ele><time>2026-04-19T06:36:34Z</time></trkpt><trkpt lat="36.86074026685466" lon="15.00734402173528"><ele>67.75</ele><time>2026-04-19T06:36:35Z</time></trkpt><trkpt lat="36.860818187130434" lon="15.007463490984229"><ele>66.0</ele><time>2026-04-19T06:36:36Z</time></trkpt><trkpt lat="36.860913095827804" lon="15.00755587428213"><ele>67.0</ele><time>2026-04-19T06:36:37Z</time></trkpt><trkpt lat="36.86098983187393" lon="15.007638378672903"><ele>68.0</ele><time>2026-04-19T06:36:38Z</time></trkpt><trkpt lat="36.86103912530143" lon="15.007738777742485"><ele>69.0</ele><time>2026-04-19T06:36:39Z</time></trkpt><trkpt lat="36.861100008316285" lon="15.00784399596086"><ele>70.0</ele><time>2026-04-19T06:36:40Z</time></trkpt><trkpt lat="36.86115985796947" lon="15.007957587036547"><ele>71.0</ele><time>2026-04-19T06:36:41Z</time></trkpt><trkpt lat="36.86121389903776" lon="15.008065410620455"><ele>71.0</ele><time>2026-04-19T06:36:42Z</time></trkpt><trkpt lat="36.86126062801864" lon="15.008162919520544"><ele>71.0</ele><time>2026-04-19T06:36:43Z</time></trkpt><trkpt lat="36.86130726860561" lon="15.008266973351079"><ele>71.0</ele><time>2026-04-19T06:36:44Z</time></trkpt><trkpt lat="36.86136291347326" lon="15.00838977583623"><ele>71.0</ele><time>2026-04-19T06:36:45Z</time></trkpt><trkpt lat="36.861429456992695" lon="15.008537605474595"><ele>71.0</ele><time>2026-04-19T06:36:46Z</time></trkpt><trkpt lat="36.86149498614727" lon="15.008687122725291"><ele>69.66666666666667</ele><time>2026-04-19T06:36:47Z</time></trkpt><trkpt lat="36.861558869729784" lon="15.008841748674476"><ele>68.33333333333333</ele><time>2026-04-19T06:36:48Z</time></trkpt><trkpt lat="36.861638607222346" lon="15.009037728284467"><ele>67.0</ele><time>2026-04-19T06:36:49Z</time></trkpt><trkpt lat="36.86171881414188" lon="15.009237643525985"><ele>68.0</ele><time>2026-04-19T06:36:50Z</time></trkpt><trkpt lat="36.86181049249541" lon="15.009467912522208"><ele>69.0</ele><time>2026-04-19T06:36:51Z</time></trkpt><trkpt lat="36.86191876997776" lon="15.009743695370213"><ele>68.66666666666667</ele><time>2026-04-19T06:36:52Z</time></trkpt><trkpt lat="36.86201141191446" lon="15.009994143931607"><ele>68.33333333333334</ele><time>2026-04-19T06:36:53Z</time></trkpt><trkpt lat="36.86208688537509" lon="15.010198710755953"><ele>68.0</ele><time>2026-04-19T06:36:54Z</time></trkpt><trkpt lat="36.862151937735234" lon="15.0103654996378"><ele>68.0</ele><time>2026-04-19T06:36:55Z</time></trkpt><trkpt lat="36.862206228726784" lon="15.010514761420056"><ele>68.0</ele><time>2026-04-19T06:36:56Z</time></trkpt><trkpt lat="36.86223853084071" lon="15.010644984515775"><ele>68.0</ele><time>2026-04-19T06:36:57Z</time></trkpt><trkpt lat="36.862268663813126" lon="15.01076611608663"><ele>68.0</ele><time>2026-04-19T06:36:58Z</time></trkpt><trkpt lat="36.86230675175441" lon="15.010877044606806"><ele>68.0</ele><time>2026-04-19T06:36:59Z</time></trkpt><trkpt lat="36.86235949915277" lon="15.010958257794684"><ele>67.5</ele><time>2026-04-19T06:37:00Z</time></trkpt><trkpt lat="36.862370073489956" lon="15.011052457242428"><ele>67.0</ele><time>2026-04-19T06:37:01Z</time></trkpt><trkpt lat="36.86239008260101" lon="15.011138491608454"><ele>66.5</ele><time>2026-04-19T06:37:02Z</time></trkpt><trkpt lat="36.86241286340894" lon="15.011252800257537"><ele>66.0</ele><time>2026-04-19T06:37:03Z</time></trkpt><trkpt lat="36.862436090857095" lon="15.011394836441227"><ele>65.5</ele><time>2026-04-19T06:37:04Z</time></trkpt><trkpt lat="36.86245213444925" lon="15.011497280901638"><ele>65.0</ele><time>2026-04-19T06:37:05Z</time></trkpt><trkpt lat="36.862466625176666" lon="15.01158306640052"><ele>65.0</ele><time>2026-04-19T06:37:06Z</time></trkpt><trkpt lat="36.86249670885834" lon="15.011652950043242"><ele>65.0</ele><time>2026-04-19T06:37:07Z</time></trkpt><trkpt lat="36.862504235867895" lon="15.011742319048613"><ele>65.0</ele><time>2026-04-19T06:37:09Z</time></trkpt><trkpt lat="36.86255299781743" lon="15.011819316011506"><ele>65.0</ele><time>2026-04-19T06:37:37Z</time></trkpt><trkpt lat="36.862679149318005" lon="15.011862911591255"><ele>65.0</ele><time>2026-04-19T06:37:39Z</time></trkpt><trkpt lat="36.862781731305446" lon="15.011830624297072"><ele>65.0</ele><time>2026-04-19T06:37:40Z</time></trkpt><trkpt lat="36.86293098215954" lon="15.011754043656191"><ele>65.0</ele><time>2026-04-19T06:37:41Z</time></trkpt><trkpt lat="36.863118867228884" lon="15.011656017446237"><ele>65.0</ele><time>2026-04-19T06:37:42Z</time></trkpt><trkpt lat="36.86331806958158" lon="15.011583678102065"><ele>66.33333333333334</ele><time>2026-04-19T06:37:43Z</time></trkpt><trkpt lat="36.86350627336949" lon="15.011502782757505"><ele>67.66666666666667</ele><time>2026-04-19T06:37:44Z</time></trkpt><trkpt lat="36.86368979649832" lon="15.011423899339528"><ele>69.0</ele><time>2026-04-19T06:37:45Z</time></trkpt><trkpt lat="36.863846046449716" lon="15.01133325498974"><ele>69.0</ele><time>2026-04-19T06:37:46Z</time></trkpt><trkpt lat="36.86403186834892" lon="15.011248646748845"><ele>69.0</ele><time>2026-04-19T06:37:47Z</time></trkpt><trkpt lat="36.86417553966558" lon="15.011184238793136"><ele>69.0</ele><time>2026-04-19T06:37:48Z</time></trkpt><trkpt lat="36.86428667781224" lon="15.011129926871943"><ele>69.60000000000001</ele><time>2026-04-19T06:37:49Z</time></trkpt><trkpt lat="36.86440383376035" lon="15.011087358652526"><ele>70.2</ele><time>2026-04-19T06:37:50Z</time></trkpt><trkpt lat="36.86452305259768" lon="15.011071722416458"><ele>70.80000000000001</ele><time>2026-04-19T06:37:51Z</time></trkpt><trkpt lat="36.864626796364476" lon="15.011055215579702"><ele>71.4</ele><time>2026-04-19T06:37:52Z</time></trkpt><trkpt lat="36.86471369547745" lon="15.011046571415347"><ele>72.0</ele><time>2026-04-19T06:37:53Z</time></trkpt><trkpt lat="36.86480986812873" lon="15.01102413595557"><ele>72.0</ele><time>2026-04-19T06:37:54Z</time></trkpt><trkpt lat="36.86493705199253" lon="15.011025881254529"><ele>72.0</ele><time>2026-04-19T06:37:55Z</time></trkpt><trkpt lat="36.86507236383952" lon="15.011036326163365"><ele>72.0</ele><time>2026-04-19T06:37:56Z</time></trkpt><trkpt lat="36.86520972185681" lon="15.01101420214416"><ele>72.0</ele><time>2026-04-19T06:37:57Z</time></trkpt><trkpt lat="36.86532555776163" lon="15.011015185023233"><ele>72.25</ele><time>2026-04-19T06:37:58Z</time></trkpt><trkpt lat="36.865430148738454" lon="15.010999783143967"><ele>72.5</ele><time>2026-04-19T06:37:59Z</time></trkpt><trkpt lat="36.86553190200843" lon="15.010948814058919"><ele>72.75</ele><time>2026-04-19T06:38:00Z</time></trkpt><trkpt lat="36.865649109007144" lon="15.010870055985787"><ele>73.0</ele><time>2026-04-19T06:38:01Z</time></trkpt><trkpt lat="36.86576714240797" lon="15.010787685803136"><ele>73.0</ele><time>2026-04-19T06:38:02Z</time></trkpt><trkpt lat="36.86587594296075" lon="15.010712513078563"><ele>73.0</ele><time>2026-04-19T06:38:03Z</time></trkpt><trkpt lat="36.86596435894936" lon="15.010653362614718"><ele>73.0</ele><time>2026-04-19T06:38:04Z</time></trkpt><trkpt lat="36.86603128981469" lon="15.010618268082885"><ele>73.0</ele><time>2026-04-19T06:38:05Z</time></trkpt><trkpt lat="36.866151355204224" lon="15.010660441349287"><ele>73.0</ele><time>2026-04-19T06:38:07Z</time></trkpt><trkpt lat="36.8662217526492" lon="15.010658951314772"><ele>73.83333333333333</ele><time>2026-04-19T06:38:08Z</time></trkpt><trkpt lat="36.86629267563301" lon="15.01066382928318"><ele>74.66666666666666</ele><time>2026-04-19T06:38:09Z</time></trkpt><trkpt lat="36.86636109506554" lon="15.010646746766207"><ele>75.5</ele><time>2026-04-19T06:38:10Z</time></trkpt><trkpt lat="36.866445456966424" lon="15.010619432290376"><ele>76.33333333333333</ele><time>2026-04-19T06:38:11Z</time></trkpt><trkpt lat="36.866519017022036" lon="15.010596268625655"><ele>77.16666666666667</ele><time>2026-04-19T06:38:12Z</time></trkpt><trkpt lat="36.86660550188879" lon="15.010503536355392"><ele>78.0</ele><time>2026-04-19T06:38:14Z</time></trkpt><trkpt lat="36.86659961640729" lon="15.010421292710904"><ele>78.0</ele><time>2026-04-19T06:38:15Z</time></trkpt><trkpt lat="36.86655512495972" lon="15.010323989505551"><ele>78.0</ele><time>2026-04-19T06:38:16Z</time></trkpt><trkpt lat="36.86652907317405" lon="15.01022305922291"><ele>78.0</ele><time>2026-04-19T06:38:17Z</time></trkpt><trkpt lat="36.866499004104384" lon="15.010110374487361"><ele>78.0</ele><time>2026-04-19T06:38:18Z</time></trkpt><trkpt lat="36.8664942972735" lon="15.010005949969546"><ele>78.0</ele><time>2026-04-19T06:38:19Z</time></trkpt><trkpt lat="36.86648774613382" lon="15.009913897842633"><ele>78.0</ele><time>2026-04-19T06:38:20Z</time></trkpt><trkpt lat="36.86648203151275" lon="15.009820504301087"><ele>77.4</ele><time>2026-04-19T06:38:21Z</time></trkpt><trkpt lat="36.866527661912635" lon="15.009746895316466"><ele>76.8</ele><time>2026-04-19T06:38:22Z</time></trkpt><trkpt lat="36.866569882117105" lon="15.009681703133502"><ele>76.2</ele><time>2026-04-19T06:38:23Z</time></trkpt><trkpt lat="36.86664908685196" lon="15.009632555458065"><ele>75.6</ele><time>2026-04-19T06:38:24Z</time></trkpt><trkpt lat="36.86673115551659" lon="15.009519600714468"><ele>75.0</ele><time>2026-04-19T06:38:25Z</time></trkpt><trkpt lat="36.86683024324893" lon="15.00937886082577"><ele>75.6</ele><time>2026-04-19T06:38:26Z</time></trkpt><trkpt lat="36.8669146843667" lon="15.009278822279077"><ele>76.2</ele><time>2026-04-19T06:38:26.999Z</time></trkpt><trkpt lat="36.866986717275005" lon="15.009196307085451"><ele>76.8</ele><time>2026-04-19T06:38:27.999Z</time></trkpt><trkpt lat="36.86703506443464" lon="15.009074608800207"><ele>77.4</ele><time>2026-04-19T06:38:28.999Z</time></trkpt><trkpt lat="36.86709269432011" lon="15.00893569371229"><ele>78.0</ele><time>2026-04-19T06:38:29.999Z</time></trkpt><trkpt lat="36.867148534966326" lon="15.008824891156062"><ele>78.0</ele><time>2026-04-19T06:38:30.999Z</time></trkpt><trkpt lat="36.867210345659835" lon="15.00873810073463"><ele>78.0</ele><time>2026-04-19T06:38:31.999Z</time></trkpt><trkpt lat="36.86728879161533" lon="15.008676144478617"><ele>78.0</ele><time>2026-04-19T06:38:32.999Z</time></trkpt><trkpt lat="36.86737190879217" lon="15.008618108627873"><ele>78.0</ele><time>2026-04-19T06:38:33.999Z</time></trkpt><trkpt lat="36.86746181339523" lon="15.008584087771306"><ele>78.0</ele><time>2026-04-19T06:38:34.999Z</time></trkpt><trkpt lat="36.86755104788406" lon="15.008562192858884"><ele>79.25</ele><time>2026-04-19T06:38:35.999Z</time></trkpt><trkpt lat="36.8676484856662" lon="15.008521571749215"><ele>80.5</ele><time>2026-04-19T06:38:36.999Z</time></trkpt><trkpt lat="36.86778594194989" lon="15.008509204603168"><ele>81.75</ele><time>2026-04-19T06:38:38Z</time></trkpt><trkpt lat="36.86794972642363" lon="15.008442343844164"><ele>83.0</ele><time>2026-04-19T06:38:39Z</time></trkpt><trkpt lat="36.86811272134754" lon="15.008357894909576"><ele>84.33333333333334</ele><time>2026-04-19T06:38:40Z</time></trkpt><trkpt lat="36.86829781667303" lon="15.008266655432616"><ele>85.66666666666667</ele><time>2026-04-19T06:38:41Z</time></trkpt><trkpt lat="36.86845313213867" lon="15.008194150809302"><ele>87.0</ele><time>2026-04-19T06:38:42Z</time></trkpt><trkpt lat="36.86858501432756" lon="15.00814191432485"><ele>88.25</ele><time>2026-04-19T06:38:43Z</time></trkpt><trkpt lat="36.86870745859911" lon="15.008101432185986"><ele>89.5</ele><time>2026-04-19T06:38:44Z</time></trkpt><trkpt lat="36.86882871233989" lon="15.008068818509052"><ele>90.75</ele><time>2026-04-19T06:38:45Z</time></trkpt><trkpt lat="36.86896250531605" lon="15.008060973557708"><ele>92.0</ele><time>2026-04-19T06:38:46Z</time></trkpt><trkpt lat="36.869091129037905" lon="15.008068098374661"><ele>92.0</ele><time>2026-04-19T06:38:47Z</time></trkpt><trkpt lat="36.86921756551862" lon="15.008064599130941"><ele>92.0</ele><time>2026-04-19T06:38:48Z</time></trkpt><trkpt lat="36.8693582802307" lon="15.008062076973518"><ele>92.0</ele><time>2026-04-19T06:38:49Z</time></trkpt><trkpt lat="36.86950990966958" lon="15.008035791174082"><ele>92.0</ele><time>2026-04-19T06:38:50Z</time></trkpt><trkpt lat="36.86962210227412" lon="15.008005016289886"><ele>91.6</ele><time>2026-04-19T06:38:51Z</time></trkpt><trkpt lat="36.86971086167177" lon="15.00796587071056"><ele>91.19999999999999</ele><time>2026-04-19T06:38:52Z</time></trkpt><trkpt lat="36.86978760343632" lon="15.007906798603551"><ele>90.8</ele><time>2026-04-19T06:38:53Z</time></trkpt><trkpt lat="36.86988658699989" lon="15.007825606471428"><ele>90.4</ele><time>2026-04-19T06:38:54Z</time></trkpt><trkpt lat="36.86999398584552" lon="15.007775423075643"><ele>90.0</ele><time>2026-04-19T06:38:55Z</time></trkpt><trkpt lat="36.870065058130066" lon="15.007757686749835"><ele>90.4</ele><time>2026-04-19T06:38:56Z</time></trkpt><trkpt lat="36.870141379199396" lon="15.007771668549209"><ele>90.8</ele><time>2026-04-19T06:39:08Z</time></trkpt><trkpt lat="36.87026153970255" lon="15.007794904295562"><ele>91.19999999999999</ele><time>2026-04-19T06:39:10Z</time></trkpt><trkpt lat="36.87035550140103" lon="15.00784079311766"><ele>91.6</ele><time>2026-04-19T06:39:11Z</time></trkpt><trkpt lat="36.87044853665375" lon="15.007849554794559"><ele>92.0</ele><time>2026-04-19T06:39:12Z</time></trkpt><trkpt lat="36.87053386946101" lon="15.007832690767488"><ele>92.0</ele><time>2026-04-19T06:39:13Z</time></trkpt><trkpt lat="36.87060091978395" lon="15.007795842441151"><ele>92.0</ele><time>2026-04-19T06:39:14Z</time></trkpt><trkpt lat="36.8706702031926" lon="15.007734210642816"><ele>92.0</ele><time>2026-04-19T06:39:15Z</time></trkpt><trkpt lat="36.870755839059704" lon="15.007644987795235"><ele>92.0</ele><time>2026-04-19T06:39:16Z</time></trkpt><trkpt lat="36.87085259297691" lon="15.007549836278892"><ele>92.0</ele><time>2026-04-19T06:39:17Z</time></trkpt><trkpt lat="36.870941228203826" lon="15.007481558196556"><ele>93.19999999999999</ele><time>2026-04-19T06:39:18Z</time></trkpt><trkpt lat="36.871018863882604" lon="15.00745870345102"><ele>94.4</ele><time>2026-04-19T06:39:19Z</time></trkpt><trkpt lat="36.87111109828783" lon="15.007452925186104"><ele>95.6</ele><time>2026-04-19T06:39:20Z</time></trkpt><trkpt lat="36.871223371095525" lon="15.007446130611994"><ele>96.80000000000001</ele><time>2026-04-19T06:39:21Z</time></trkpt><trkpt lat="36.87131912081776" lon="15.007442303376815"><ele>98.0</ele><time>2026-04-19T06:39:22Z</time></trkpt><trkpt lat="36.8714037794908" lon="15.007418086138658"><ele>98.0</ele><time>2026-04-19T06:39:23Z</time></trkpt><trkpt lat="36.871475755086436" lon="15.00734980239471"><ele>98.0</ele><time>2026-04-19T06:39:24Z</time></trkpt><trkpt lat="36.871563115578695" lon="15.00729007314514"><ele>98.0</ele><time>2026-04-19T06:39:25Z</time></trkpt><trkpt lat="36.87166301068971" lon="15.007235385850187"><ele>98.0</ele><time>2026-04-19T06:39:26Z</time></trkpt><trkpt lat="36.87173134308417" lon="15.007177495433485"><ele>98.0</ele><time>2026-04-19T06:39:27Z</time></trkpt><trkpt lat="36.871788713996885" lon="15.00712574602699"><ele>97.80000000000001</ele><time>2026-04-19T06:39:28Z</time></trkpt><trkpt lat="36.871870036044186" lon="15.007045219926022"><ele>97.6</ele><time>2026-04-19T06:39:30Z</time></trkpt><trkpt lat="36.87194944615314" lon="15.006961250607004"><ele>97.4</ele><time>2026-04-19T06:39:32Z</time></trkpt><trkpt lat="36.8720341262586" lon="15.006953062113631"><ele>97.19999999999999</ele><time>2026-04-19T06:39:33Z</time></trkpt><trkpt lat="36.8721322337603" lon="15.006923068510828"><ele>97.0</ele><time>2026-04-19T06:39:34Z</time></trkpt><trkpt lat="36.87222406891628" lon="15.00687619855053"><ele>97.00000000000001</ele><time>2026-04-19T06:39:35Z</time></trkpt><trkpt lat="36.87230312817874" lon="15.006844390066355"><ele>97.0</ele><time>2026-04-19T06:39:36Z</time></trkpt><trkpt lat="36.87237717415233" lon="15.006801499360884"><ele>97.0</ele><time>2026-04-19T06:39:37Z</time></trkpt><trkpt lat="36.87244591876301" lon="15.00674409768547"><ele>97.0</ele><time>2026-04-19T06:39:38Z</time></trkpt><trkpt lat="36.87251694553298" lon="15.006686133569351"><ele>97.00000000000001</ele><time>2026-04-19T06:39:39Z</time></trkpt><trkpt lat="36.87260502798505" lon="15.006667521956343"><ele>97.0</ele><time>2026-04-19T06:39:40Z</time></trkpt><trkpt lat="36.87270508541628" lon="15.006630031188253"><ele>98.6</ele><time>2026-04-19T06:39:41Z</time></trkpt><trkpt lat="36.87282210471363" lon="15.006595934127848"><ele>100.19999999999999</ele><time>2026-04-19T06:39:42Z</time></trkpt><trkpt lat="36.872917452889354" lon="15.006585824841546"><ele>101.8</ele><time>2026-04-19T06:39:43Z</time></trkpt><trkpt lat="36.87299989453353" lon="15.00659210357151"><ele>103.4</ele><time>2026-04-19T06:39:44Z</time></trkpt><trkpt lat="36.87311099378603" lon="15.006582742300415"><ele>105.0</ele><time>2026-04-19T06:39:45Z</time></trkpt><trkpt lat="36.873226938477096" lon="15.006587654693373"><ele>105.0</ele><time>2026-04-19T06:39:46Z</time></trkpt><trkpt lat="36.873330669910715" lon="15.006605230763972"><ele>105.0</ele><time>2026-04-19T06:39:47Z</time></trkpt><trkpt lat="36.87341584299696" lon="15.006580337201827"><ele>105.0</ele><time>2026-04-19T06:39:48Z</time></trkpt><trkpt lat="36.87350012693956" lon="15.006569863772958"><ele>105.0</ele><time>2026-04-19T06:39:49Z</time></trkpt><trkpt lat="36.87358743869014" lon="15.00654485829623"><ele>105.0</ele><time>2026-04-19T06:39:50Z</time></trkpt><trkpt lat="36.87367136089358" lon="15.006500075984029"><ele>105.0</ele><time>2026-04-19T06:39:51Z</time></trkpt><trkpt lat="36.873742875053274" lon="15.006441000917928"><ele>105.0</ele><time>2026-04-19T06:39:52Z</time></trkpt><trkpt lat="36.87383915633562" lon="15.006396038418183"><ele>105.0</ele><time>2026-04-19T06:39:53Z</time></trkpt><trkpt lat="36.87392708361489" lon="15.006337807223794"><ele>105.0</ele><time>2026-04-19T06:39:54Z</time></trkpt><trkpt lat="36.8740152887812" lon="15.006285597948475"><ele>105.0</ele><time>2026-04-19T06:39:55Z</time></trkpt><trkpt lat="36.87409813881875" lon="15.006241612427466"><ele>105.0</ele><time>2026-04-19T06:39:56Z</time></trkpt><trkpt lat="36.874167935001715" lon="15.006188039814885"><ele>105.0</ele><time>2026-04-19T06:39:57Z</time></trkpt><trkpt lat="36.874251238918774" lon="15.00615691417964"><ele>105.0</ele><time>2026-04-19T06:39:58Z</time></trkpt><trkpt lat="36.874335961126285" lon="15.006132713999593"><ele>105.0</ele><time>2026-04-19T06:39:59Z</time></trkpt><trkpt lat="36.874407088236275" lon="15.006108359430932"><ele>105.0</ele><time>2026-04-19T06:40:00Z</time></trkpt><trkpt lat="36.87447953962961" lon="15.00608794146003"><ele>105.0</ele><time>2026-04-19T06:40:01Z</time></trkpt><trkpt lat="36.874545483082755" lon="15.006073918645724"><ele>104.83333333333333</ele><time>2026-04-19T06:40:02Z</time></trkpt><trkpt lat="36.87461980440289" lon="15.006074925570953"><ele>104.66666666666666</ele><time>2026-04-19T06:40:03Z</time></trkpt><trkpt lat="36.87469170332647" lon="15.006110573430492"><ele>104.5</ele><time>2026-04-19T06:40:04Z</time></trkpt><trkpt lat="36.874767937772965" lon="15.006130478830505"><ele>104.33333333333333</ele><time>2026-04-19T06:40:05Z</time></trkpt><trkpt lat="36.87484976254469" lon="15.006164954782411"><ele>104.16666666666666</ele><time>2026-04-19T06:40:06Z</time></trkpt><trkpt lat="36.87495747025669" lon="15.0061574972117"><ele>104.0</ele><time>2026-04-19T06:40:07Z</time></trkpt><trkpt lat="36.87504237212717" lon="15.006154368079914"><ele>104.6</ele><time>2026-04-19T06:40:08Z</time></trkpt><trkpt lat="36.87512525267687" lon="15.00612491554356"><ele>105.2</ele><time>2026-04-19T06:40:09Z</time></trkpt><trkpt lat="36.8752151718662" lon="15.006085847559063"><ele>105.79999999999998</ele><time>2026-04-19T06:40:10Z</time></trkpt><trkpt lat="36.87531013597289" lon="15.00604716754811"><ele>106.39999999999999</ele><time>2026-04-19T06:40:11Z</time></trkpt><trkpt lat="36.875409599928346" lon="15.0060109011967"><ele>107.0</ele><time>2026-04-19T06:40:12Z</time></trkpt><trkpt lat="36.87549979320969" lon="15.006014387486092"><ele>107.0</ele><time>2026-04-19T06:40:13Z</time></trkpt><trkpt lat="36.8756113683587" lon="15.006013049711845"><ele>106.99999999999999</ele><time>2026-04-19T06:40:14Z</time></trkpt><trkpt lat="36.875726826578536" lon="15.005992310611761"><ele>106.99999999999999</ele><time>2026-04-19T06:40:15Z</time></trkpt><trkpt lat="36.87583392948634" lon="15.00599480122861"><ele>107.0</ele><time>2026-04-19T06:40:16Z</time></trkpt><trkpt lat="36.87593299099382" lon="15.005986028131794"><ele>107.0</ele><time>2026-04-19T06:40:17Z</time></trkpt><trkpt lat="36.87603059413478" lon="15.005968235353473"><ele>107.83333333333333</ele><time>2026-04-19T06:40:18Z</time></trkpt><trkpt lat="36.876103458960614" lon="15.005942563236616"><ele>108.66666666666666</ele><time>2026-04-19T06:40:19Z</time></trkpt><trkpt lat="36.87618254823573" lon="15.005914242962909"><ele>109.5</ele><time>2026-04-19T06:40:20Z</time></trkpt><trkpt lat="36.87625885595392" lon="15.005850075553571"><ele>110.33333333333334</ele><time>2026-04-19T06:40:21Z</time></trkpt><trkpt lat="36.87633279360707" lon="15.005779174671884"><ele>111.16666666666667</ele><time>2026-04-19T06:40:22Z</time></trkpt><trkpt lat="36.87640609367382" lon="15.005706317836102"><ele>112.0</ele><time>2026-04-19T06:40:23Z</time></trkpt><trkpt lat="36.87648184266334" lon="15.00563561584997"><ele>112.83333333333334</ele><time>2026-04-19T06:40:24Z</time></trkpt><trkpt lat="36.87655907155309" lon="15.005606055713313"><ele>113.66666666666667</ele><time>2026-04-19T06:40:25Z</time></trkpt><trkpt lat="36.87662364623104" lon="15.005574062612288"><ele>114.5</ele><time>2026-04-19T06:40:26Z</time></trkpt><trkpt lat="36.87670075768908" lon="15.005569387731375"><ele>115.33333333333334</ele><time>2026-04-19T06:40:27Z</time></trkpt><trkpt lat="36.87675897466053" lon="15.005535560133376"><ele>116.16666666666667</ele><time>2026-04-19T06:40:28Z</time></trkpt><trkpt lat="36.87684593182632" lon="15.005478326897924"><ele>117.0</ele><time>2026-04-19T06:40:30Z</time></trkpt><trkpt lat="36.87689126693022" lon="15.005356626868972"><ele>117.0</ele><time>2026-04-19T06:40:32Z</time></trkpt><trkpt lat="36.876967061501254" lon="15.005257264947629"><ele>116.99999999999999</ele><time>2026-04-19T06:40:34Z</time></trkpt><trkpt lat="36.87706426666147" lon="15.005149406180937"><ele>116.99999999999999</ele><time>2026-04-19T06:40:35.999Z</time></trkpt><trkpt lat="36.87714209321584" lon="15.005109454224193"><ele>117.0</ele><time>2026-04-19T06:40:36.999Z</time></trkpt><trkpt lat="36.87722554124464" lon="15.005107071658284"><ele>117.0</ele><time>2026-04-19T06:40:37.999Z</time></trkpt><trkpt lat="36.87730173760257" lon="15.00508136889966"><ele>117.0</ele><time>2026-04-19T06:40:38.999Z</time></trkpt><trkpt lat="36.87737165069575" lon="15.005035761324782"><ele>116.99999999999999</ele><time>2026-04-19T06:40:39.999Z</time></trkpt><trkpt lat="36.877449016455046" lon="15.0049993356038"><ele>116.99999999999999</ele><time>2026-04-19T06:40:40.999Z</time></trkpt><trkpt lat="36.87752143620993" lon="15.004933798580263"><ele>117.0</ele><time>2026-04-19T06:40:41.999Z</time></trkpt><trkpt lat="36.87759624683384" lon="15.004856391782594"><ele>117.0</ele><time>2026-04-19T06:40:43Z</time></trkpt><trkpt lat="36.87768505299943" lon="15.004778531719952"><ele>117.39999999999999</ele><time>2026-04-19T06:40:44Z</time></trkpt><trkpt lat="36.87776745359923" lon="15.004709947314844"><ele>117.79999999999998</ele><time>2026-04-19T06:40:45Z</time></trkpt><trkpt lat="36.877842528311156" lon="15.004647617490482"><ele>118.2</ele><time>2026-04-19T06:40:46Z</time></trkpt><trkpt lat="36.87792143679401" lon="15.004595179059745"><ele>118.6</ele><time>2026-04-19T06:40:47Z</time></trkpt><trkpt lat="36.87802218387945" lon="15.00456490137348"><ele>119.0</ele><time>2026-04-19T06:40:48Z</time></trkpt><trkpt lat="36.87813840871435" lon="15.004509329785462"><ele>119.0</ele><time>2026-04-19T06:40:49Z</time></trkpt><trkpt lat="36.87823868708515" lon="15.004428478960424"><ele>119.0</ele><time>2026-04-19T06:40:50Z</time></trkpt><trkpt lat="36.87834870219572" lon="15.004360239950017"><ele>119.0</ele><time>2026-04-19T06:40:51Z</time></trkpt><trkpt lat="36.87844888956929" lon="15.004317608809203"><ele>119.0</ele><time>2026-04-19T06:40:52Z</time></trkpt><trkpt lat="36.87856266174786" lon="15.004307423611827"><ele>120.2</ele><time>2026-04-19T06:40:53Z</time></trkpt><trkpt lat="36.87867246749423" lon="15.004284847765371"><ele>121.4</ele><time>2026-04-19T06:40:54Z</time></trkpt><trkpt lat="36.878781897497156" lon="15.004284252224636"><ele>122.6</ele><time>2026-04-19T06:40:55Z</time></trkpt><trkpt lat="36.87888679196712" lon="15.004254732865865"><ele>123.8</ele><time>2026-04-19T06:40:56Z</time></trkpt><trkpt lat="36.87897536168741" lon="15.004224282831533"><ele>125.0</ele><time>2026-04-19T06:40:57Z</time></trkpt><trkpt lat="36.87903752600224" lon="15.00416944534992"><ele>124.66666666666666</ele><time>2026-04-19T06:40:58Z</time></trkpt><trkpt lat="36.87909556267484" lon="15.004120549859245"><ele>124.33333333333333</ele><time>2026-04-19T06:40:59Z</time></trkpt><trkpt lat="36.87912995082196" lon="15.00402751883988"><ele>124.0</ele><time>2026-04-19T06:41:00Z</time></trkpt><trkpt lat="36.87918486796138" lon="15.00394662274346"><ele>123.66666666666666</ele><time>2026-04-19T06:41:01Z</time></trkpt><trkpt lat="36.87921643585477" lon="15.003850592159855"><ele>123.33333333333333</ele><time>2026-04-19T06:41:02Z</time></trkpt><trkpt lat="36.87927600765603" lon="15.003784843247706"><ele>123.0</ele><time>2026-04-19T06:41:03Z</time></trkpt><trkpt lat="36.87934306935452" lon="15.003735223534196"><ele>124.2</ele><time>2026-04-19T06:41:04Z</time></trkpt><trkpt lat="36.87941704489047" lon="15.003696661089412"><ele>125.4</ele><time>2026-04-19T06:41:05Z</time></trkpt><trkpt lat="36.87950174893067" lon="15.003664632024535"><ele>126.60000000000001</ele><time>2026-04-19T06:41:06Z</time></trkpt><trkpt lat="36.87960815695378" lon="15.00361110248942"><ele>127.80000000000001</ele><time>2026-04-19T06:41:07Z</time></trkpt><trkpt lat="36.87974857940649" lon="15.003564595331738"><ele>129.0</ele><time>2026-04-19T06:41:08Z</time></trkpt><trkpt lat="36.87986483419036" lon="15.003518088234014"><ele>129.0</ele><time>2026-04-19T06:41:09Z</time></trkpt><trkpt lat="36.87997378125742" lon="15.003504067807704"><ele>129.0</ele><time>2026-04-19T06:41:10Z</time></trkpt><trkpt lat="36.880056756178206" lon="15.003484501310819"><ele>129.0</ele><time>2026-04-19T06:41:11Z</time></trkpt><trkpt lat="36.88012753819802" lon="15.00349688607729"><ele>129.0</ele><time>2026-04-19T06:41:12Z</time></trkpt><trkpt lat="36.880206421379455" lon="15.003523860128459"><ele>129.0</ele><time>2026-04-19T06:41:13Z</time></trkpt><trkpt lat="36.88030436004809" lon="15.003542904872486"><ele>129.0</ele><time>2026-04-19T06:41:14Z</time></trkpt><trkpt lat="36.88039974918956" lon="15.003576620054272"><ele>129.66666666666666</ele><time>2026-04-19T06:41:15Z</time></trkpt><trkpt lat="36.88049020555995" lon="15.00359882039345"><ele>130.33333333333334</ele><time>2026-04-19T06:41:16Z</time></trkpt><trkpt lat="36.880580827570256" lon="15.00361298177541"><ele>131.0</ele><time>2026-04-19T06:41:17Z</time></trkpt><trkpt lat="36.88067272830677" lon="15.003621895438592"><ele>131.66666666666669</ele><time>2026-04-19T06:41:18Z</time></trkpt><trkpt lat="36.88076198067935" lon="15.003630792751357"><ele>132.33333333333334</ele><time>2026-04-19T06:41:19Z</time></trkpt><trkpt lat="36.88083382492855" lon="15.003633207945187"><ele>133.0</ele><time>2026-04-19T06:41:20Z</time></trkpt><trkpt lat="36.880971264103145" lon="15.00358513323286"><ele>133.0</ele><time>2026-04-19T06:41:22Z</time></trkpt><trkpt lat="36.8810608600971" lon="15.00354521612108"><ele>133.0</ele><time>2026-04-19T06:41:23Z</time></trkpt><trkpt lat="36.88115943696959" lon="15.003510686950934"><ele>133.0</ele><time>2026-04-19T06:41:24Z</time></trkpt><trkpt lat="36.88124743179715" lon="15.003472174027268"><ele>133.0</ele><time>2026-04-19T06:41:25Z</time></trkpt><trkpt lat="36.8813111252465" lon="15.003424225420167"><ele>133.0</ele><time>2026-04-19T06:41:26Z</time></trkpt><trkpt lat="36.881366292933734" lon="15.003379265117172"><ele>133.0</ele><time>2026-04-19T06:41:27Z</time></trkpt><trkpt lat="36.88146783031834" lon="15.003320323294771"><ele>134.5</ele><time>2026-04-19T06:41:29Z</time></trkpt><trkpt lat="36.881573740012826" lon="15.003304450019066"><ele>136.0</ele><time>2026-04-19T06:41:31Z</time></trkpt><trkpt lat="36.88163765168441" lon="15.003258786745082"><ele>137.5</ele><time>2026-04-19T06:41:32Z</time></trkpt><trkpt lat="36.881706179355824" lon="15.003227224486464"><ele>139.0</ele><time>2026-04-19T06:41:33Z</time></trkpt><trkpt lat="36.88178578298317" lon="15.003177695511063"><ele>140.5</ele><time>2026-04-19T06:41:36Z</time></trkpt><trkpt lat="36.88185046319297" lon="15.003112339831151"><ele>142.0</ele><time>2026-04-19T06:41:38Z</time></trkpt><trkpt lat="36.88194835794293" lon="15.00309942195522"><ele>142.0</ele><time>2026-04-19T06:41:40Z</time></trkpt><trkpt lat="36.88202121445818" lon="15.003105335153942"><ele>142.0</ele><time>2026-04-19T06:41:42Z</time></trkpt><trkpt lat="36.882058192013794" lon="15.003212921061355"><ele>142.0</ele><time>2026-04-19T06:41:43Z</time></trkpt><trkpt lat="36.882172527083206" lon="15.003099967715952"><ele>142.0</ele><time>2026-04-19T06:41:45Z</time></trkpt><trkpt lat="36.8822411455213" lon="15.00306312369008"><ele>142.0</ele><time>2026-04-19T06:41:46Z</time></trkpt><trkpt lat="36.88233839600391" lon="15.003076705892438"><ele>142.0</ele><time>2026-04-19T06:41:48Z</time></trkpt><trkpt lat="36.8824213893871" lon="15.00309834275404"><ele>142.0</ele><time>2026-04-19T06:41:50Z</time></trkpt><trkpt lat="36.88250881608373" lon="15.003204996172297"><ele>142.0</ele><time>2026-04-19T06:41:51Z</time></trkpt><trkpt lat="36.882570711516564" lon="15.00328232121971"><ele>142.0</ele><time>2026-04-19T06:41:52Z</time></trkpt><trkpt lat="36.88263341593866" lon="15.003320728660793"><ele>142.0</ele><time>2026-04-19T06:41:53Z</time></trkpt><trkpt lat="36.88269766734636" lon="15.003325456472833"><ele>142.0</ele><time>2026-04-19T06:41:54Z</time></trkpt><trkpt lat="36.88276441381634" lon="15.00332595336804"><ele>143.4</ele><time>2026-04-19T06:41:55Z</time></trkpt><trkpt lat="36.88287398903238" lon="15.003299734429413"><ele>144.79999999999998</ele><time>2026-04-19T06:41:57Z</time></trkpt><trkpt lat="36.88296631732257" lon="15.003298279811842"><ele>146.2</ele><time>2026-04-19T06:41:59Z</time></trkpt><trkpt lat="36.88304639757696" lon="15.003320722470026"><ele>147.6</ele><time>2026-04-19T06:42:01Z</time></trkpt><trkpt lat="36.88314452050141" lon="15.00334086551676"><ele>149.0</ele><time>2026-04-19T06:42:03Z</time></trkpt><trkpt lat="36.88324660719293" lon="15.003390809583111"><ele>150.0</ele><time>2026-04-19T06:42:05Z</time></trkpt><trkpt lat="36.88331347261198" lon="15.00343463944167"><ele>151.0</ele><time>2026-04-19T06:42:06Z</time></trkpt><trkpt lat="36.88335992471539" lon="15.00349881457888"><ele>152.0</ele><time>2026-04-19T06:42:07Z</time></trkpt><trkpt lat="36.883440513386404" lon="15.003570727625684"><ele>153.0</ele><time>2026-04-19T06:42:09Z</time></trkpt><trkpt lat="36.88350952323252" lon="15.003661989549322"><ele>154.0</ele><time>2026-04-19T06:42:11Z</time></trkpt><trkpt lat="36.883582270845594" lon="15.00376227108102"><ele>157.0</ele><time>2026-04-19T06:42:13Z</time></trkpt><trkpt lat="36.88361541562838" lon="15.00383050315259"><ele>160.0</ele><time>2026-04-19T06:42:14Z</time></trkpt><trkpt lat="36.883678652641144" lon="15.003934841412752"><ele>163.0</ele><time>2026-04-19T06:42:16Z</time></trkpt><trkpt lat="36.883727708359785" lon="15.003987087633519"><ele>166.0</ele><time>2026-04-19T06:42:18Z</time></trkpt><trkpt lat="36.88380536920443" lon="15.003889623939095"><ele>169.0</ele><time>2026-04-19T06:42:21Z</time></trkpt><trkpt lat="36.8838584363487" lon="15.003768542286416"><ele>169.0</ele><time>2026-04-19T06:42:23Z</time></trkpt><trkpt lat="36.883897584954916" lon="15.00364094182566"><ele>169.0</ele><time>2026-04-19T06:42:24.999Z</time></trkpt><trkpt lat="36.883964028925426" lon="15.00355300129146"><ele>169.0</ele><time>2026-04-19T06:42:26.999Z</time></trkpt><trkpt lat="36.884063245606804" lon="15.00343725326085"><ele>169.0</ele><time>2026-04-19T06:42:28.999Z</time></trkpt><trkpt lat="36.88411820461485" lon="15.003368972103377"><ele>169.0</ele><time>2026-04-19T06:42:29.999Z</time></trkpt><trkpt lat="36.88420096558843" lon="15.003289911813608"><ele>172.25</ele><time>2026-04-19T06:42:31.999Z</time></trkpt><trkpt lat="36.88431626168479" lon="15.003239916068615"><ele>175.5</ele><time>2026-04-19T06:42:33.999Z</time></trkpt><trkpt lat="36.88438484937493" lon="15.003218066528618"><ele>178.75</ele><time>2026-04-19T06:42:34.999Z</time></trkpt><trkpt lat="36.88450019201257" lon="15.003199592048176"><ele>182.0</ele><time>2026-04-19T06:42:36.999Z</time></trkpt><trkpt lat="36.88464360192777" lon="15.003230410927722"><ele>182.0</ele><time>2026-04-19T06:42:38.999Z</time></trkpt><trkpt lat="36.88472591098053" lon="15.00324791833636"><ele>182.0</ele><time>2026-04-19T06:42:39.999Z</time></trkpt><trkpt lat="36.88479617004051" lon="15.003277368365154"><ele>182.0</ele><time>2026-04-19T06:42:40.999Z</time></trkpt><trkpt lat="36.88489947382997" lon="15.003289518035768"><ele>182.0</ele><time>2026-04-19T06:42:42.999Z</time></trkpt><trkpt lat="36.88500016014182" lon="15.003349521659754"><ele>182.0</ele><time>2026-04-19T06:42:44.999Z</time></trkpt><trkpt lat="36.88506567060607" lon="15.003351710353941"><ele>182.0</ele><time>2026-04-19T06:43:08Z</time></trkpt><trkpt lat="36.88508937402561" lon="15.003448805210304"><ele>182.6</ele><time>2026-04-19T06:43:11Z</time></trkpt><trkpt lat="36.88505055384397" lon="15.003566019387929"><ele>183.2</ele><time>2026-04-19T06:43:13Z</time></trkpt><trkpt lat="36.88501655514696" lon="15.00368179736167"><ele>183.8</ele><time>2026-04-19T06:43:15Z</time></trkpt><trkpt lat="36.88504095254223" lon="15.003754406865873"><ele>184.4</ele><time>2026-04-19T06:43:18Z</time></trkpt><trkpt lat="36.88512044115477" lon="15.003800734968383"><ele>185.0</ele><time>2026-04-19T06:43:20Z</time></trkpt><trkpt lat="36.88525585370194" lon="15.003813550393728"><ele>188.0</ele><time>2026-04-19T06:43:22Z</time></trkpt><trkpt lat="36.88534193386886" lon="15.00383106876273"><ele>191.0</ele><time>2026-04-19T06:43:23Z</time></trkpt><trkpt lat="36.88541273073405" lon="15.003842283071778"><ele>194.0</ele><time>2026-04-19T06:43:24Z</time></trkpt><trkpt lat="36.88547670889208" lon="15.003848582375905"><ele>197.0</ele><time>2026-04-19T06:43:25Z</time></trkpt><trkpt lat="36.88560493907853" lon="15.003837473862708"><ele>200.00000000000003</ele><time>2026-04-19T06:43:27Z</time></trkpt><trkpt lat="36.885693219954895" lon="15.003791415397014"><ele>203.0</ele><time>2026-04-19T06:43:29Z</time></trkpt><trkpt lat="36.88578464402452" lon="15.003718322706119"><ele>203.0</ele><time>2026-04-19T06:43:31Z</time></trkpt><trkpt lat="36.88584448805938" lon="15.00368371696009"><ele>203.0</ele><time>2026-04-19T06:43:32Z</time></trkpt><trkpt lat="36.88590553020236" lon="15.00365193544425"><ele>203.0</ele><time>2026-04-19T06:43:33Z</time></trkpt><trkpt lat="36.88599973950033" lon="15.003567354362639"><ele>203.0</ele><time>2026-04-19T06:43:35Z</time></trkpt><trkpt lat="36.886082403330796" lon="15.00348323852731"><ele>203.0</ele><time>2026-04-19T06:43:37Z</time></trkpt><trkpt lat="36.88616819494858" lon="15.003403551153417"><ele>206.83333333333334</ele><time>2026-04-19T06:43:39Z</time></trkpt><trkpt lat="36.88622641951406" lon="15.00333378151114"><ele>210.66666666666669</ele><time>2026-04-19T06:43:40Z</time></trkpt><trkpt lat="36.8862903561917" lon="15.00325597082124"><ele>214.5</ele><time>2026-04-19T06:43:41Z</time></trkpt><trkpt lat="36.88634648158583" lon="15.003184617344212"><ele>218.33333333333331</ele><time>2026-04-19T06:43:42Z</time></trkpt><trkpt lat="36.886439110598126" lon="15.00308321012465"><ele>222.16666666666666</ele><time>2026-04-19T06:43:44Z</time></trkpt><trkpt lat="36.88649269917994" lon="15.003028433369998"><ele>226.0</ele><time>2026-04-19T06:43:45Z</time></trkpt><trkpt lat="36.88654483869552" lon="15.002955132927477"><ele>226.0</ele><time>2026-04-19T06:43:46Z</time></trkpt><trkpt lat="36.88659739802561" lon="15.002872443516335"><ele>226.00000000000003</ele><time>2026-04-19T06:43:47Z</time></trkpt><trkpt lat="36.886648513332844" lon="15.002798126277813"><ele>226.00000000000003</ele><time>2026-04-19T06:43:48Z</time></trkpt><trkpt lat="36.886696079964274" lon="15.002739362542703"><ele>226.0</ele><time>2026-04-19T06:43:49Z</time></trkpt><trkpt lat="36.886770908478326" lon="15.002651188148153"><ele>226.0</ele><time>2026-04-19T06:43:51Z</time></trkpt><trkpt lat="36.88688656994465" lon="15.002600390464933"><ele>231.25</ele><time>2026-04-19T06:43:53Z</time></trkpt><trkpt lat="36.88699272157809" lon="15.002556389659269"><ele>236.5</ele><time>2026-04-19T06:43:55Z</time></trkpt><trkpt lat="36.88710725996315" lon="15.002482879340816"><ele>241.75</ele><time>2026-04-19T06:43:57Z</time></trkpt><trkpt lat="36.887200166891255" lon="15.002415803915046"><ele>247.0</ele><time>2026-04-19T06:43:59Z</time></trkpt><trkpt lat="36.88724016421295" lon="15.002251667010846"><ele>247.0</ele><time>2026-04-19T06:44:01Z</time></trkpt><trkpt lat="36.887258279575086" lon="15.002171652401307"><ele>247.0</ele><time>2026-04-19T06:44:02Z</time></trkpt><trkpt lat="36.887436340204665" lon="15.00216081477457"><ele>247.0</ele><time>2026-04-19T06:44:03Z</time></trkpt><trkpt lat="36.887448312247706" lon="15.002059450541132"><ele>247.0</ele><time>2026-04-19T06:44:05Z</time></trkpt><trkpt lat="36.88746776640183" lon="15.001881633421327"><ele>247.0</ele><time>2026-04-19T06:44:07Z</time></trkpt><trkpt lat="36.887476456883036" lon="15.00175249361046"><ele>247.0</ele><time>2026-04-19T06:44:09Z</time></trkpt><trkpt lat="36.8874038679259" lon="15.001707418055304"><ele>247.0</ele><time>2026-04-19T06:44:47.999Z</time></trkpt><trkpt lat="36.88743729906065" lon="15.00161700958308"><ele>247.0</ele><time>2026-04-19T06:44:50.999Z</time></trkpt><trkpt lat="36.88749458040582" lon="15.0015104820878"><ele>247.0</ele><time>2026-04-19T06:44:52.999Z</time></trkpt><trkpt lat="36.88755834757594" lon="15.001398445163122"><ele>246.6</ele><time>2026-04-19T06:44:55Z</time></trkpt><trkpt lat="36.88764281243787" lon="15.001320138914284"><ele>246.2</ele><time>2026-04-19T06:44:57Z</time></trkpt><trkpt lat="36.88774592895734" lon="15.001240133814601"><ele>245.8</ele><time>2026-04-19T06:44:59Z</time></trkpt><trkpt lat="36.88782027236568" lon="15.001168625598348"><ele>245.4</ele><time>2026-04-19T06:45:01Z</time></trkpt><trkpt lat="36.88787508360186" lon="15.00112051379605"><ele>245.0</ele><time>2026-04-19T06:45:03Z</time></trkpt><trkpt lat="36.88796915534126" lon="15.001066653023448"><ele>245.00000000000003</ele><time>2026-04-19T06:45:06Z</time></trkpt><trkpt lat="36.888053225907214" lon="15.001020915002421"><ele>245.0</ele><time>2026-04-19T06:45:08Z</time></trkpt><trkpt lat="36.88814798008799" lon="15.0009637631045"><ele>245.0</ele><time>2026-04-19T06:45:10Z</time></trkpt><trkpt lat="36.88821195062074" lon="15.000941372711933"><ele>245.0</ele><time>2026-04-19T06:45:11Z</time></trkpt><trkpt lat="36.88826909489227" lon="15.000899580920265"><ele>245.00000000000003</ele><time>2026-04-19T06:45:12Z</time></trkpt><trkpt lat="36.88837236136799" lon="15.000824670615723"><ele>245.0</ele><time>2026-04-19T06:45:14Z</time></trkpt><trkpt lat="36.88847150659883" lon="15.000757160626042"><ele>246.0</ele><time>2026-04-19T06:45:16Z</time></trkpt><trkpt lat="36.88858516474192" lon="15.00069128305732"><ele>247.0</ele><time>2026-04-19T06:45:18Z</time></trkpt><trkpt lat="36.888699882009185" lon="15.000624865213249"><ele>248.0</ele><time>2026-04-19T06:45:20Z</time></trkpt><trkpt lat="36.88880363253755" lon="15.000564868513266"><ele>249.0</ele><time>2026-04-19T06:45:22Z</time></trkpt><trkpt lat="36.88891460256035" lon="15.000500696841971"><ele>249.0</ele><time>2026-04-19T06:45:24Z</time></trkpt><trkpt lat="36.88902187471687" lon="15.000438663630362"><ele>249.0</ele><time>2026-04-19T06:45:26Z</time></trkpt><trkpt lat="36.889126649098216" lon="15.000378074837323"><ele>249.0</ele><time>2026-04-19T06:45:28Z</time></trkpt><trkpt lat="36.88925060740477" lon="15.000304395339445"><ele>249.0</ele><time>2026-04-19T06:45:30Z</time></trkpt><trkpt lat="36.88932420822818" lon="15.000237376273962"><ele>250.66666666666666</ele><time>2026-04-19T06:45:31Z</time></trkpt><trkpt lat="36.8893839666084" lon="15.000199231419812"><ele>252.33333333333331</ele><time>2026-04-19T06:45:32Z</time></trkpt><trkpt lat="36.88948200964597" lon="15.000152777124303"><ele>254.0</ele><time>2026-04-19T06:45:34Z</time></trkpt><trkpt lat="36.88955155421094" lon="15.00010550836536"><ele>255.66666666666666</ele><time>2026-04-19T06:45:36Z</time></trkpt><trkpt lat="36.88964026666285" lon="15.000045007112059"><ele>257.3333333333333</ele><time>2026-04-19T06:45:38Z</time></trkpt><trkpt lat="36.88969575280155" lon="15.000006965941424"><ele>259.0</ele><time>2026-04-19T06:45:39Z</time></trkpt><trkpt lat="36.8898226618465" lon="14.99991995710544"><ele>259.0</ele><time>2026-04-19T06:45:41Z</time></trkpt><trkpt lat="36.88989284135052" lon="14.999871842005982"><ele>259.0</ele><time>2026-04-19T06:45:42Z</time></trkpt><trkpt lat="36.8899968676317" lon="14.999808829375462"><ele>259.0</ele><time>2026-04-19T06:45:44Z</time></trkpt><trkpt lat="36.89009287432478" lon="14.999729555141872"><ele>259.0</ele><time>2026-04-19T06:45:46Z</time></trkpt><trkpt lat="36.890152160341934" lon="14.999610065743711"><ele>259.0</ele><time>2026-04-19T06:45:48Z</time></trkpt><trkpt lat="36.89020422367812" lon="14.99953137723239"><ele>257.2</ele><time>2026-04-19T06:45:49Z</time></trkpt><trkpt lat="36.89025388828" lon="14.99943756219566"><ele>255.39999999999998</ele><time>2026-04-19T06:45:50Z</time></trkpt><trkpt lat="36.89030479678825" lon="14.999336126097804"><ele>253.6</ele><time>2026-04-19T06:45:51Z</time></trkpt><trkpt lat="36.89035254030737" lon="14.99923746017743"><ele>251.8</ele><time>2026-04-19T06:45:52Z</time></trkpt><trkpt lat="36.89039173059203" lon="14.999124665463034"><ele>250.0</ele><time>2026-04-19T06:45:53Z</time></trkpt><trkpt lat="36.89044115762337" lon="14.999017631877562"><ele>249.5</ele><time>2026-04-19T06:45:54Z</time></trkpt><trkpt lat="36.89050107911471" lon="14.998900828442988"><ele>249.0</ele><time>2026-04-19T06:45:55Z</time></trkpt><trkpt lat="36.89057391235151" lon="14.998766370281034"><ele>248.5</ele><time>2026-04-19T06:45:56Z</time></trkpt><trkpt lat="36.89065126728173" lon="14.9986267849729"><ele>248.0</ele><time>2026-04-19T06:45:57Z</time></trkpt><trkpt lat="36.890713562455936" lon="14.99851118777643"><ele>248.00000000000003</ele><time>2026-04-19T06:45:58Z</time></trkpt><trkpt lat="36.89076867798343" lon="14.99841215777087"><ele>248.0</ele><time>2026-04-19T06:45:59Z</time></trkpt><trkpt lat="36.89081468789338" lon="14.99832679979391"><ele>248.0</ele><time>2026-04-19T06:46:00Z</time></trkpt><trkpt lat="36.89086392494311" lon="14.998252225353822"><ele>248.0</ele><time>2026-04-19T06:46:01Z</time></trkpt><trkpt lat="36.89091359992413" lon="14.998172254249146"><ele>248.00000000000003</ele><time>2026-04-19T06:46:02Z</time></trkpt><trkpt lat="36.89096502707116" lon="14.998108285745337"><ele>248.0</ele><time>2026-04-19T06:46:03Z</time></trkpt><trkpt lat="36.89102000690581" lon="14.998051083578481"><ele>247.71428571428572</ele><time>2026-04-19T06:46:04Z</time></trkpt><trkpt lat="36.89107094526838" lon="14.997992859500547"><ele>247.42857142857144</ele><time>2026-04-19T06:46:05Z</time></trkpt><trkpt lat="36.891109652804545" lon="14.997930153749268"><ele>247.14285714285717</ele><time>2026-04-19T06:46:06Z</time></trkpt><trkpt lat="36.8911329682984" lon="14.997852601911168"><ele>246.8571428571429</ele><time>2026-04-19T06:46:07Z</time></trkpt><trkpt lat="36.89114370658579" lon="14.997749948304143"><ele>246.57142857142858</ele><time>2026-04-19T06:46:08Z</time></trkpt><trkpt lat="36.89114769317585" lon="14.997658893331623"><ele>246.28571428571433</ele><time>2026-04-19T06:46:09Z</time></trkpt><trkpt lat="36.89114778686297" lon="14.997563494877772"><ele>246.00000000000003</ele><time>2026-04-19T06:46:10Z</time></trkpt><trkpt lat="36.89116639352832" lon="14.997464613786741"><ele>246.0</ele><time>2026-04-19T06:46:11Z</time></trkpt><trkpt lat="36.89119717240838" lon="14.99737065163141"><ele>246.0</ele><time>2026-04-19T06:46:12Z</time></trkpt><trkpt lat="36.891263590663286" lon="14.99730286572598"><ele>246.0</ele><time>2026-04-19T06:46:13Z</time></trkpt><trkpt lat="36.891293300411796" lon="14.997211654949973"><ele>246.0</ele><time>2026-04-19T06:46:14Z</time></trkpt><trkpt lat="36.89132326042864" lon="14.997113142277746"><ele>246.0</ele><time>2026-04-19T06:46:15Z</time></trkpt><trkpt lat="36.89134828236983" lon="14.996975109863993"><ele>246.0</ele><time>2026-04-19T06:46:16Z</time></trkpt><trkpt lat="36.89138716034037" lon="14.996831039735055"><ele>246.0</ele><time>2026-04-19T06:46:17Z</time></trkpt><trkpt lat="36.89142520334458" lon="14.996684659203227"><ele>246.0</ele><time>2026-04-19T06:46:18Z</time></trkpt><trkpt lat="36.8914641436155" lon="14.996542192847636"><ele>246.0</ele><time>2026-04-19T06:46:19Z</time></trkpt><trkpt lat="36.891504566531424" lon="14.996396416128553"><ele>246.0</ele><time>2026-04-19T06:46:20Z</time></trkpt><trkpt lat="36.89154069311295" lon="14.996267882791802"><ele>246.16666666666666</ele><time>2026-04-19T06:46:21Z</time></trkpt><trkpt lat="36.8915716962508" lon="14.996153175674351"><ele>246.33333333333331</ele><time>2026-04-19T06:46:22Z</time></trkpt><trkpt lat="36.89159905425661" lon="14.996062498288946"><ele>246.5</ele><time>2026-04-19T06:46:23Z</time></trkpt><trkpt lat="36.891624729702755" lon="14.995989656183697"><ele>246.66666666666666</ele><time>2026-04-19T06:46:23.999Z</time></trkpt><trkpt lat="36.89173046691414" lon="14.995914880703886"><ele>246.83333333333331</ele><time>2026-04-19T06:46:25.999Z</time></trkpt><trkpt lat="36.89180980939146" lon="14.99587286528169"><ele>247.0</ele><time>2026-04-19T06:46:26.999Z</time></trkpt><trkpt lat="36.891870892607756" lon="14.995846644572998"><ele>247.8</ele><time>2026-04-19T06:46:27.999Z</time></trkpt><trkpt lat="36.89193308427084" lon="14.995745382312691"><ele>248.6</ele><time>2026-04-19T06:46:29.999Z</time></trkpt><trkpt lat="36.89196882461207" lon="14.995647536620874"><ele>249.40000000000003</ele><time>2026-04-19T06:46:31.999Z</time></trkpt><trkpt lat="36.892032659730546" lon="14.99565579169866"><ele>250.20000000000002</ele><time>2026-04-19T06:46:33.999Z</time></trkpt><trkpt lat="36.892128852780175" lon="14.995787087411632"><ele>251.0</ele><time>2026-04-19T06:46:35.999Z</time></trkpt><trkpt lat="36.89224551226531" lon="14.99579864741816"><ele>251.0</ele><time>2026-04-19T06:46:36.999Z</time></trkpt><trkpt lat="36.89237106003649" lon="14.995811384862842"><ele>251.00000000000003</ele><time>2026-04-19T06:46:37.999Z</time></trkpt><trkpt lat="36.892492779074466" lon="14.995850805409248"><ele>251.00000000000003</ele><time>2026-04-19T06:46:38.999Z</time></trkpt><trkpt lat="36.89257773791642" lon="14.99586723201097"><ele>251.0</ele><time>2026-04-19T06:46:39.999Z</time></trkpt><trkpt lat="36.892648852551226" lon="14.995856260187722"><ele>251.0</ele><time>2026-04-19T06:46:40.999Z</time></trkpt><trkpt lat="36.892768015575456" lon="14.995859943433086"><ele>250.8</ele><time>2026-04-19T06:46:42.999Z</time></trkpt><trkpt lat="36.89283510277399" lon="14.995864748055883"><ele>250.60000000000002</ele><time>2026-04-19T06:46:44.999Z</time></trkpt><trkpt lat="36.89279851220926" lon="14.995944252664295"><ele>250.4</ele><time>2026-04-19T06:47:04Z</time></trkpt><trkpt lat="36.892752339880666" lon="14.996025955938453"><ele>250.2</ele><time>2026-04-19T06:47:07Z</time></trkpt><trkpt lat="36.89269120956734" lon="14.996133568194328"><ele>250.0</ele><time>2026-04-19T06:47:09Z</time></trkpt><trkpt lat="36.89259877951189" lon="14.996245276258477"><ele>249.4</ele><time>2026-04-19T06:47:11Z</time></trkpt><trkpt lat="36.89254521345976" lon="14.996296299816672"><ele>248.8</ele><time>2026-04-19T06:47:12Z</time></trkpt><trkpt lat="36.892473798356384" lon="14.996383027564958"><ele>248.2</ele><time>2026-04-19T06:47:14Z</time></trkpt><trkpt lat="36.892480439888246" lon="14.99651533280769"><ele>247.6</ele><time>2026-04-19T06:47:16Z</time></trkpt><trkpt lat="36.892552885358576" lon="14.996629639455245"><ele>247.0</ele><time>2026-04-19T06:47:18Z</time></trkpt><trkpt lat="36.89258764064923" lon="14.996714067380335"><ele>248.5</ele><time>2026-04-19T06:47:19Z</time></trkpt><trkpt lat="36.89264745857431" lon="14.99681848578517"><ele>250.0</ele><time>2026-04-19T06:47:20Z</time></trkpt><trkpt lat="36.892719230242754" lon="14.996941733283844"><ele>251.5</ele><time>2026-04-19T06:47:21Z</time></trkpt><trkpt lat="36.89280014069483" lon="14.9970806739522"><ele>253.0</ele><time>2026-04-19T06:47:22Z</time></trkpt><trkpt lat="36.892874644244316" lon="14.99720861261535"><ele>253.0</ele><time>2026-04-19T06:47:23Z</time></trkpt><trkpt lat="36.89296199493518" lon="14.99735861254575"><ele>253.0</ele><time>2026-04-19T06:47:24Z</time></trkpt><trkpt lat="36.89306716440317" lon="14.997539211172302"><ele>253.0</ele><time>2026-04-19T06:47:25Z</time></trkpt><trkpt lat="36.89317548742441" lon="14.997726211136541"><ele>253.0</ele><time>2026-04-19T06:47:26Z</time></trkpt><trkpt lat="36.89326977729524" lon="14.99788970796067"><ele>253.0</ele><time>2026-04-19T06:47:27Z</time></trkpt><trkpt lat="36.89334666909056" lon="14.998025866712407"><ele>253.0</ele><time>2026-04-19T06:47:28Z</time></trkpt><trkpt lat="36.89340482655381" lon="14.998155636548477"><ele>253.0</ele><time>2026-04-19T06:47:29Z</time></trkpt><trkpt lat="36.89346022055042" lon="14.998288734128913"><ele>253.8</ele><time>2026-04-19T06:47:30Z</time></trkpt><trkpt lat="36.89350963244265" lon="14.99837534874872"><ele>254.60000000000002</ele><time>2026-04-19T06:47:31Z</time></trkpt><trkpt lat="36.89355391913227" lon="14.99843509313314"><ele>255.39999999999998</ele><time>2026-04-19T06:47:32Z</time></trkpt><trkpt lat="36.893663818892676" lon="14.998526578429516"><ele>256.2</ele><time>2026-04-19T06:47:34Z</time></trkpt><trkpt lat="36.89374762113186" lon="14.998608025625286"><ele>257.0</ele><time>2026-04-19T06:47:35Z</time></trkpt><trkpt lat="36.89384861289411" lon="14.99870936365179"><ele>257.0</ele><time>2026-04-19T06:47:36Z</time></trkpt><trkpt lat="36.89397442942213" lon="14.998835611586824"><ele>257.0</ele><time>2026-04-19T06:47:37Z</time></trkpt><trkpt lat="36.894125413339246" lon="14.998989636225284"><ele>257.0</ele><time>2026-04-19T06:47:38Z</time></trkpt><trkpt lat="36.89426124355007" lon="14.99912901546346"><ele>257.5</ele><time>2026-04-19T06:47:39Z</time></trkpt><trkpt lat="36.894374940968994" lon="14.999245683598037"><ele>258.0</ele><time>2026-04-19T06:47:40Z</time></trkpt><trkpt lat="36.89447658396921" lon="14.999349982536755"><ele>258.5</ele><time>2026-04-19T06:47:41Z</time></trkpt><trkpt lat="36.89459593535922" lon="14.999446984708136"><ele>259.0</ele><time>2026-04-19T06:47:42Z</time></trkpt><trkpt lat="36.89470662692911" lon="14.999565405962729"><ele>259.0</ele><time>2026-04-19T06:47:43Z</time></trkpt><trkpt lat="36.894806036409896" lon="14.999669069502724"><ele>259.0</ele><time>2026-04-19T06:47:44Z</time></trkpt><trkpt lat="36.89487204650192" lon="14.999776342935958"><ele>259.0</ele><time>2026-04-19T06:47:45Z</time></trkpt><trkpt lat="36.894912906608575" lon="14.999844494596514"><ele>259.0</ele><time>2026-04-19T06:47:46Z</time></trkpt><trkpt lat="36.89498832801441" lon="15.00003330362534"><ele>259.0</ele><time>2026-04-19T06:47:48Z</time></trkpt><trkpt lat="36.89504231720392" lon="15.000184423175483"><ele>259.0</ele><time>2026-04-19T06:47:49Z</time></trkpt><trkpt lat="36.89508989176348" lon="15.000305658925308"><ele>259.0</ele><time>2026-04-19T06:47:50Z</time></trkpt><trkpt lat="36.89512541872404" lon="15.00040806243361"><ele>259.0</ele><time>2026-04-19T06:47:51Z</time></trkpt><trkpt lat="36.89515468605318" lon="15.000512010812717"><ele>259.0</ele><time>2026-04-19T06:47:52Z</time></trkpt><trkpt lat="36.89516464088527" lon="15.000614711479964"><ele>260.25</ele><time>2026-04-19T06:47:53Z</time></trkpt><trkpt lat="36.89517038977707" lon="15.000739647231418"><ele>261.5</ele><time>2026-04-19T06:47:54Z</time></trkpt><trkpt lat="36.89517212721765" lon="15.00088248359174"><ele>262.75</ele><time>2026-04-19T06:47:55Z</time></trkpt><trkpt lat="36.8951768576927" lon="15.001041865799925"><ele>264.0</ele><time>2026-04-19T06:47:56Z</time></trkpt><trkpt lat="36.895206524774174" lon="15.001179367795524"><ele>264.0</ele><time>2026-04-19T06:47:57Z</time></trkpt><trkpt lat="36.89523152563477" lon="15.001293405020563"><ele>264.0</ele><time>2026-04-19T06:47:58Z</time></trkpt><trkpt lat="36.895246621322954" lon="15.001412386674343"><ele>264.0</ele><time>2026-04-19T06:47:59Z</time></trkpt><trkpt lat="36.89528704996493" lon="15.001559210967315"><ele>264.0</ele><time>2026-04-19T06:48:00Z</time></trkpt><trkpt lat="36.89534758653951" lon="15.001727566142465"><ele>263.25</ele><time>2026-04-19T06:48:01Z</time></trkpt><trkpt lat="36.89541327952877" lon="15.001872429631534"><ele>262.5</ele><time>2026-04-19T06:48:02Z</time></trkpt><trkpt lat="36.89548037698416" lon="15.002004717985734"><ele>261.75</ele><time>2026-04-19T06:48:03Z</time></trkpt><trkpt lat="36.89555856038671" lon="15.002095087192837"><ele>261.0</ele><time>2026-04-19T06:48:04Z</time></trkpt><trkpt lat="36.89561139703734" lon="15.002201481691205"><ele>261.0</ele><time>2026-04-19T06:48:05Z</time></trkpt><trkpt lat="36.89565366368571" lon="15.002280821762712"><ele>261.0</ele><time>2026-04-19T06:48:06Z</time></trkpt><trkpt lat="36.89577968352381" lon="15.002395250056361"><ele>261.0</ele><time>2026-04-19T06:48:08Z</time></trkpt><trkpt lat="36.8958424431433" lon="15.00245155673294"><ele>261.0</ele><time>2026-04-19T06:48:09Z</time></trkpt><trkpt lat="36.895909080975365" lon="15.002517877559963"><ele>261.0</ele><time>2026-04-19T06:48:10Z</time></trkpt><trkpt lat="36.895976877845726" lon="15.002573574833914"><ele>261.6</ele><time>2026-04-19T06:48:11Z</time></trkpt><trkpt lat="36.89603108085036" lon="15.002636341457078"><ele>262.20000000000005</ele><time>2026-04-19T06:48:12Z</time></trkpt><trkpt lat="36.89608497476181" lon="15.002688479887082"><ele>262.79999999999995</ele><time>2026-04-19T06:48:13Z</time></trkpt><trkpt lat="36.89616167533136" lon="15.002778980114327"><ele>263.4</ele><time>2026-04-19T06:48:15Z</time></trkpt><trkpt lat="36.89624109918418" lon="15.00288342027883"><ele>264.0</ele><time>2026-04-19T06:48:17Z</time></trkpt><trkpt lat="36.89630845551461" lon="15.002974981746364"><ele>264.0</ele><time>2026-04-19T06:48:19Z</time></trkpt><trkpt lat="36.896373872911795" lon="15.003041836111883"><ele>264.0</ele><time>2026-04-19T06:48:21Z</time></trkpt><trkpt lat="36.89644541315609" lon="15.003144915851083"><ele>264.0</ele><time>2026-04-19T06:48:23Z</time></trkpt><trkpt lat="36.896496911562394" lon="15.003191490121603"><ele>264.0</ele><time>2026-04-19T06:48:24Z</time></trkpt><trkpt lat="36.896559232279124" lon="15.003220102551037"><ele>264.0</ele><time>2026-04-19T06:48:25Z</time></trkpt><trkpt lat="36.89666215315236" lon="15.003279938684777"><ele>264.0</ele><time>2026-04-19T06:48:27Z</time></trkpt><trkpt lat="36.89676392802311" lon="15.003363831224021"><ele>260.8</ele><time>2026-04-19T06:48:29Z</time></trkpt><trkpt lat="36.89686747052712" lon="15.003442701850995"><ele>257.59999999999997</ele><time>2026-04-19T06:48:31Z</time></trkpt><trkpt lat="36.896950493552566" lon="15.003561262102004"><ele>254.4</ele><time>2026-04-19T06:48:33Z</time></trkpt><trkpt lat="36.896999676022936" lon="15.003619635433296"><ele>251.2</ele><time>2026-04-19T06:48:34Z</time></trkpt><trkpt lat="36.89705615941324" lon="15.003659330113162"><ele>248.0</ele><time>2026-04-19T06:48:35Z</time></trkpt><trkpt lat="36.897138011309586" lon="15.003760020530978"><ele>248.0</ele><time>2026-04-19T06:48:37Z</time></trkpt><trkpt lat="36.897224867221674" lon="15.003849417118616"><ele>248.0</ele><time>2026-04-19T06:48:39Z</time></trkpt><trkpt lat="36.897309015053345" lon="15.003895438193627"><ele>248.0</ele><time>2026-04-19T06:48:41Z</time></trkpt><trkpt lat="36.897385277699634" lon="15.003988936946998"><ele>248.0</ele><time>2026-04-19T06:48:43Z</time></trkpt><trkpt lat="36.89743270764563" lon="15.004059437176496"><ele>248.0</ele><time>2026-04-19T06:48:44Z</time></trkpt><trkpt lat="36.89747888616531" lon="15.00413018552296"><ele>245.0</ele><time>2026-04-19T06:48:45Z</time></trkpt><trkpt lat="36.897514420891774" lon="15.004199827133437"><ele>242.0</ele><time>2026-04-19T06:48:46Z</time></trkpt><trkpt lat="36.897566849452105" lon="15.004325095651517"><ele>239.0</ele><time>2026-04-19T06:48:47.999Z</time></trkpt><trkpt lat="36.89762535993847" lon="15.004432944003348"><ele>236.0</ele><time>2026-04-19T06:48:49.999Z</time></trkpt><trkpt lat="36.897669263231634" lon="15.004573769736426"><ele>233.0</ele><time>2026-04-19T06:48:51.999Z</time></trkpt><trkpt lat="36.897744291466374" lon="15.004685545904136"><ele>233.00000000000003</ele><time>2026-04-19T06:48:53.999Z</time></trkpt><trkpt lat="36.897803383936946" lon="15.00477855033605"><ele>233.0</ele><time>2026-04-19T06:48:55.999Z</time></trkpt><trkpt lat="36.89786537320859" lon="15.004849199801939"><ele>233.0</ele><time>2026-04-19T06:48:57.999Z</time></trkpt><trkpt lat="36.897903330893364" lon="15.004934368638247"><ele>233.0</ele><time>2026-04-19T06:48:59.999Z</time></trkpt><trkpt lat="36.897933614967876" lon="15.005044809292928"><ele>233.00000000000003</ele><time>2026-04-19T06:49:01.999Z</time></trkpt><trkpt lat="36.89794242336668" lon="15.005132971755069"><ele>233.0</ele><time>2026-04-19T06:49:02.999Z</time></trkpt><trkpt lat="36.89795467069966" lon="15.005234462769426"><ele>232.66666666666669</ele><time>2026-04-19T06:49:03.999Z</time></trkpt><trkpt lat="36.8979610377197" lon="15.005337857872608"><ele>232.33333333333334</ele><time>2026-04-19T06:49:04.999Z</time></trkpt><trkpt lat="36.8979789290782" lon="15.005437697794695"><ele>232.0</ele><time>2026-04-19T06:49:05.999Z</time></trkpt><trkpt lat="36.89798842627023" lon="15.00553622091964"><ele>231.66666666666669</ele><time>2026-04-19T06:49:07Z</time></trkpt><trkpt lat="36.89800199620559" lon="15.005622258199086"><ele>231.33333333333334</ele><time>2026-04-19T06:49:08Z</time></trkpt><trkpt lat="36.89801457175899" lon="15.005707188805816"><ele>231.0</ele><time>2026-04-19T06:49:09Z</time></trkpt><trkpt lat="36.89801365345306" lon="15.005799769323863"><ele>230.83333333333334</ele><time>2026-04-19T06:49:10Z</time></trkpt><trkpt lat="36.89803132189237" lon="15.005898618274227"><ele>230.66666666666669</ele><time>2026-04-19T06:49:11Z</time></trkpt><trkpt lat="36.89805745479311" lon="15.006002780634715"><ele>230.5</ele><time>2026-04-19T06:49:12Z</time></trkpt><trkpt lat="36.898085423905115" lon="15.006098289480102"><ele>230.33333333333334</ele><time>2026-04-19T06:49:13Z</time></trkpt><trkpt lat="36.898135979394446" lon="15.006210565549688"><ele>230.16666666666669</ele><time>2026-04-19T06:49:15Z</time></trkpt><trkpt lat="36.89814901696451" lon="15.006297125189606"><ele>230.0</ele><time>2026-04-19T06:49:18Z</time></trkpt><trkpt lat="36.89818712066563" lon="15.006375093138272"><ele>230.0</ele><time>2026-04-19T06:49:25Z</time></trkpt><trkpt lat="36.89823944195427" lon="15.006501770994658"><ele>230.0</ele><time>2026-04-19T06:49:28Z</time></trkpt><trkpt lat="36.898332721058736" lon="15.006673210613851"><ele>230.0</ele><time>2026-04-19T06:49:31Z</time></trkpt><trkpt lat="36.898403204868" lon="15.00677380027455"><ele>230.0</ele><time>2026-04-19T06:49:33Z</time></trkpt><trkpt lat="36.89845117359381" lon="15.006870392835443"><ele>231.4</ele><time>2026-04-19T06:49:35Z</time></trkpt><trkpt lat="36.89851121140622" lon="15.006955992454271"><ele>232.8</ele><time>2026-04-19T06:49:37Z</time></trkpt><trkpt lat="36.898578576316325" lon="15.007065409524749"><ele>234.2</ele><time>2026-04-19T06:49:39Z</time></trkpt><trkpt lat="36.898605397148906" lon="15.007168121705579"><ele>235.6</ele><time>2026-04-19T06:49:41Z</time></trkpt><trkpt lat="36.898645408110994" lon="15.007238140885528"><ele>237.0</ele><time>2026-04-19T06:49:43Z</time></trkpt><trkpt lat="36.89870276787442" lon="15.007331231653469"><ele>237.0</ele><time>2026-04-19T06:49:45Z</time></trkpt><trkpt lat="36.898778840106445" lon="15.007424360213424"><ele>237.0</ele><time>2026-04-19T06:49:47Z</time></trkpt><trkpt lat="36.898867801032814" lon="15.00750621590602"><ele>237.0</ele><time>2026-04-19T06:49:49Z</time></trkpt><trkpt lat="36.89893837928626" lon="15.007544315336753"><ele>237.0</ele><time>2026-04-19T06:49:51Z</time></trkpt><trkpt lat="36.89901865338595" lon="15.007595257159686"><ele>237.0</ele><time>2026-04-19T06:49:53Z</time></trkpt><trkpt lat="36.899072921379386" lon="15.007645722142279"><ele>236.83333333333334</ele><time>2026-04-19T06:49:56Z</time></trkpt><trkpt lat="36.8991928208511" lon="15.007697801546968"><ele>236.66666666666669</ele><time>2026-04-19T06:49:58Z</time></trkpt><trkpt lat="36.89925706544084" lon="15.007748545111742"><ele>236.5</ele><time>2026-04-19T06:50:03Z</time></trkpt><trkpt lat="36.89931492691131" lon="15.007792282206577"><ele>236.33333333333334</ele><time>2026-04-19T06:50:07Z</time></trkpt><trkpt lat="36.899382045112105" lon="15.007834486958185"><ele>236.16666666666669</ele><time>2026-04-19T06:50:10Z</time></trkpt><trkpt lat="36.899451162048784" lon="15.007930452342917"><ele>236.0</ele><time>2026-04-19T06:50:13Z</time></trkpt><trkpt lat="36.899497302987385" lon="15.008016996904342"><ele>236.00000000000003</ele><time>2026-04-19T06:50:15Z</time></trkpt><trkpt lat="36.899535511025015" lon="15.00809887106449"><ele>236.0</ele><time>2026-04-19T06:50:17Z</time></trkpt><trkpt lat="36.89958008486718" lon="15.008182799913893"><ele>236.0</ele><time>2026-04-19T06:50:19Z</time></trkpt><trkpt lat="36.89963373459304" lon="15.008292158640518"><ele>236.0</ele><time>2026-04-19T06:50:21Z</time></trkpt><trkpt lat="36.89966843742787" lon="15.008377527497645"><ele>236.00000000000003</ele><time>2026-04-19T06:50:24Z</time></trkpt><trkpt lat="36.89968642618972" lon="15.008468037195627"><ele>236.0</ele><time>2026-04-19T06:50:26Z</time></trkpt><trkpt lat="36.89969445556121" lon="15.00855457175315"><ele>235.33333333333334</ele><time>2026-04-19T06:50:28Z</time></trkpt><trkpt lat="36.899703623953584" lon="15.00864730036221"><ele>234.66666666666669</ele><time>2026-04-19T06:50:30Z</time></trkpt><trkpt lat="36.899736228093495" lon="15.00873692447975"><ele>234.0</ele><time>2026-04-19T06:50:32Z</time></trkpt><trkpt lat="36.899764309441665" lon="15.008824011768029"><ele>233.33333333333331</ele><time>2026-04-19T06:50:34Z</time></trkpt><trkpt lat="36.899791024799505" lon="15.008940557193734"><ele>232.66666666666666</ele><time>2026-04-19T06:50:35.999Z</time></trkpt><trkpt lat="36.89981838737684" lon="15.00904903043301"><ele>232.0</ele><time>2026-04-19T06:50:37.999Z</time></trkpt><trkpt lat="36.89984330082048" lon="15.0091419774081"><ele>230.39999999999998</ele><time>2026-04-19T06:50:39.999Z</time></trkpt><trkpt lat="36.899891186008304" lon="15.009234211349659"><ele>228.79999999999998</ele><time>2026-04-19T06:50:41.999Z</time></trkpt><trkpt lat="36.89992466866018" lon="15.009365774647245"><ele>227.2</ele><time>2026-04-19T06:50:43.999Z</time></trkpt><trkpt lat="36.89996801237411" lon="15.009482578509072"><ele>225.6</ele><time>2026-04-19T06:50:45.999Z</time></trkpt><trkpt lat="36.90000013357942" lon="15.009580622999604"><ele>224.0</ele><time>2026-04-19T06:50:47.999Z</time></trkpt><trkpt lat="36.90003699282388" lon="15.00964828680515"><ele>224.00000000000003</ele><time>2026-04-19T06:50:48.999Z</time></trkpt><trkpt lat="36.90006174845845" lon="15.00977706422474"><ele>224.0</ele><time>2026-04-19T06:50:50.999Z</time></trkpt><trkpt lat="36.90011918003059" lon="15.009853319734027"><ele>224.0</ele><time>2026-04-19T06:50:52.999Z</time></trkpt><trkpt lat="36.90015053041055" lon="15.009935738886007"><ele>224.0</ele><time>2026-04-19T06:50:56.999Z</time></trkpt><trkpt lat="36.90015003025447" lon="15.010022714619566"><ele>224.00000000000003</ele><time>2026-04-19T06:50:59.999Z</time></trkpt><trkpt lat="36.90015003025504" lon="15.010122401050427"><ele>224.0</ele><time>2026-04-19T06:51:01.999Z</time></trkpt><trkpt lat="36.900193205269375" lon="15.010226500722037"><ele>224.79999999999998</ele><time>2026-04-19T06:51:03.999Z</time></trkpt><trkpt lat="36.900213395275586" lon="15.010321335233511"><ele>225.59999999999997</ele><time>2026-04-19T06:51:05.999Z</time></trkpt><trkpt lat="36.90021993380888" lon="15.0104150638742"><ele>226.4</ele><time>2026-04-19T06:51:07.999Z</time></trkpt><trkpt lat="36.9002474083662" lon="15.01053755640672"><ele>227.2</ele><time>2026-04-19T06:51:09.999Z</time></trkpt><trkpt lat="36.90028713216108" lon="15.01063288854376"><ele>228.0</ele><time>2026-04-19T06:51:11.999Z</time></trkpt><trkpt lat="36.900312030596815" lon="15.010774178382697"><ele>228.16666666666666</ele><time>2026-04-19T06:51:14Z</time></trkpt><trkpt lat="36.900319996254474" lon="15.010888677692106"><ele>228.33333333333331</ele><time>2026-04-19T06:51:16Z</time></trkpt><trkpt lat="36.900313785881735" lon="15.010968084382322"><ele>228.5</ele><time>2026-04-19T06:51:18Z</time></trkpt><trkpt lat="36.90031683647597" lon="15.011054333962369"><ele>228.66666666666666</ele><time>2026-04-19T06:51:20Z</time></trkpt><trkpt lat="36.90031769914952" lon="15.01114585640766"><ele>228.83333333333331</ele><time>2026-04-19T06:51:22Z</time></trkpt><trkpt lat="36.90034136232984" lon="15.011231159939818"><ele>229.0</ele><time>2026-04-19T06:51:24Z</time></trkpt><trkpt lat="36.90037666866716" lon="15.011321685017275"><ele>228.99999999999997</ele><time>2026-04-19T06:51:27Z</time></trkpt><trkpt lat="36.90041358620316" lon="15.011419852446446"><ele>229.0</ele><time>2026-04-19T06:51:29Z</time></trkpt><trkpt lat="36.90044754492113" lon="15.011536037880738"><ele>229.0</ele><time>2026-04-19T06:51:31Z</time></trkpt><trkpt lat="36.90046247580567" lon="15.011628496227512"><ele>229.0</ele><time>2026-04-19T06:51:33Z</time></trkpt><trkpt lat="36.90046036151843" lon="15.011708272524066"><ele>228.99999999999997</ele><time>2026-04-19T06:51:35Z</time></trkpt><trkpt lat="36.900456402373074" lon="15.011840024167862"><ele>229.0</ele><time>2026-04-19T06:51:37Z</time></trkpt><trkpt lat="36.90046101312166" lon="15.011940953938375"><ele>228.83333333333331</ele><time>2026-04-19T06:51:39Z</time></trkpt><trkpt lat="36.90048250511406" lon="15.012030614342084"><ele>228.66666666666666</ele><time>2026-04-19T06:53:03.999Z</time></trkpt><trkpt lat="36.900507145654515" lon="15.012154829195227"><ele>228.5</ele><time>2026-04-19T06:53:05.999Z</time></trkpt><trkpt lat="36.900530496030925" lon="15.012284886305542"><ele>228.33333333333331</ele><time>2026-04-19T06:53:07.999Z</time></trkpt><trkpt lat="36.900550152715134" lon="15.012376794794191"><ele>228.16666666666666</ele><time>2026-04-19T06:53:08.999Z</time></trkpt><trkpt lat="36.900573007354176" lon="15.012483048765608"><ele>228.0</ele><time>2026-04-19T06:53:09.999Z</time></trkpt><trkpt lat="36.90058929260451" lon="15.012594109800627"><ele>228.33333333333334</ele><time>2026-04-19T06:53:10.999Z</time></trkpt><trkpt lat="36.90063656253248" lon="15.012684104669136"><ele>228.66666666666669</ele><time>2026-04-19T06:53:11.999Z</time></trkpt><trkpt lat="36.900663362635626" lon="15.012789056051528"><ele>229.0</ele><time>2026-04-19T06:53:12.999Z</time></trkpt><trkpt lat="36.90070767155921" lon="15.012885838676329"><ele>229.33333333333334</ele><time>2026-04-19T06:53:13.999Z</time></trkpt><trkpt lat="36.90075211519545" lon="15.01298439876924"><ele>229.66666666666669</ele><time>2026-04-19T06:53:14.999Z</time></trkpt><trkpt lat="36.9008093679999" lon="15.013077052287596"><ele>230.0</ele><time>2026-04-19T06:53:15.999Z</time></trkpt><trkpt lat="36.90084405162249" lon="15.013179814220916"><ele>230.00000000000003</ele><time>2026-04-19T06:53:16.999Z</time></trkpt><trkpt lat="36.900888662518625" lon="15.01327515394426"><ele>230.0</ele><time>2026-04-19T06:53:17.999Z</time></trkpt><trkpt lat="36.90093437875534" lon="15.013370243814197"><ele>230.0</ele><time>2026-04-19T06:53:19Z</time></trkpt><trkpt lat="36.90097982125036" lon="15.013464576047236"><ele>230.0</ele><time>2026-04-19T06:53:20Z</time></trkpt><trkpt lat="36.90102835148442" lon="15.013557013382004"><ele>230.00000000000003</ele><time>2026-04-19T06:53:21Z</time></trkpt><trkpt lat="36.90107912919755" lon="15.013651222748363"><ele>230.0</ele><time>2026-04-19T06:53:22Z</time></trkpt><trkpt lat="36.90111791437957" lon="15.013760475567926"><ele>231.0</ele><time>2026-04-19T06:53:23Z</time></trkpt><trkpt lat="36.901169477700385" lon="15.013855799737904"><ele>232.0</ele><time>2026-04-19T06:53:24Z</time></trkpt><trkpt lat="36.90122125493828" lon="15.013951519230694"><ele>233.0</ele><time>2026-04-19T06:53:25Z</time></trkpt><trkpt lat="36.90127543392659" lon="15.014052637947929"><ele>234.0</ele><time>2026-04-19T06:53:26Z</time></trkpt><trkpt lat="36.90134651169466" lon="15.014151003091193"><ele>235.0</ele><time>2026-04-19T06:53:27Z</time></trkpt><trkpt lat="36.901409168623026" lon="15.014281334414271"><ele>235.0</ele><time>2026-04-19T06:53:28Z</time></trkpt><trkpt lat="36.90148263989475" lon="15.01443132552972"><ele>235.0</ele><time>2026-04-19T06:53:29Z</time></trkpt><trkpt lat="36.90157703955243" lon="15.014618355056287"><ele>235.0</ele><time>2026-04-19T06:53:30Z</time></trkpt><trkpt lat="36.9016433984027" lon="15.014799704214942"><ele>235.0</ele><time>2026-04-19T06:53:31Z</time></trkpt><trkpt lat="36.90172952230392" lon="15.014932080912859"><ele>235.0</ele><time>2026-04-19T06:53:32Z</time></trkpt><trkpt lat="36.90180425689797" lon="15.015068362655299"><ele>235.0</ele><time>2026-04-19T06:53:33Z</time></trkpt><trkpt lat="36.90188182314664" lon="15.01520746844357"><ele>235.0</ele><time>2026-04-19T06:53:34Z</time></trkpt><trkpt lat="36.90195112993115" lon="15.015343834321943"><ele>235.4</ele><time>2026-04-19T06:53:35Z</time></trkpt><trkpt lat="36.902019222195186" lon="15.015466410420881"><ele>235.8</ele><time>2026-04-19T06:53:36Z</time></trkpt><trkpt lat="36.902081864548435" lon="15.015585308358782"><ele>236.2</ele><time>2026-04-19T06:53:37Z</time></trkpt><trkpt lat="36.90211916210255" lon="15.01569251657348"><ele>236.6</ele><time>2026-04-19T06:53:38Z</time></trkpt><trkpt lat="36.90216499953845" lon="15.015776272551406"><ele>237.0</ele><time>2026-04-19T06:53:39Z</time></trkpt><trkpt lat="36.90221447735626" lon="15.015833956571326"><ele>235.0</ele><time>2026-04-19T06:53:40Z</time></trkpt><trkpt lat="36.90230457542417" lon="15.015937557088128"><ele>233.0</ele><time>2026-04-19T06:53:42Z</time></trkpt><trkpt lat="36.90237277269734" lon="15.015976992764823"><ele>231.0</ele><time>2026-04-19T06:53:43Z</time></trkpt><trkpt lat="36.90244462690225" lon="15.016011867877735"><ele>229.0</ele><time>2026-04-19T06:53:44Z</time></trkpt><trkpt lat="36.902507421222005" lon="15.0160403734861"><ele>227.0</ele><time>2026-04-19T06:53:45Z</time></trkpt><trkpt lat="36.902576008302276" lon="15.01604383693991"><ele>225.0</ele><time>2026-04-19T06:53:46Z</time></trkpt><trkpt lat="36.902678276643734" lon="15.016039917562692"><ele>225.0</ele><time>2026-04-19T06:53:47Z</time></trkpt><trkpt lat="36.9027853171487" lon="15.016056270767262"><ele>225.0</ele><time>2026-04-19T06:53:48Z</time></trkpt><trkpt lat="36.90287973689846" lon="15.016091388462941"><ele>225.0</ele><time>2026-04-19T06:53:49Z</time></trkpt><trkpt lat="36.90295736457994" lon="15.016166981673464"><ele>225.0</ele><time>2026-04-19T06:53:50Z</time></trkpt><trkpt lat="36.90304053555997" lon="15.016241256928977"><ele>225.0</ele><time>2026-04-19T06:53:51Z</time></trkpt><trkpt lat="36.9031267874009" lon="15.016334569238268"><ele>225.0</ele><time>2026-04-19T06:53:52Z</time></trkpt><trkpt lat="36.90322049990032" lon="15.016448920016177"><ele>225.0</ele><time>2026-04-19T06:53:53Z</time></trkpt><trkpt lat="36.90332801806112" lon="15.016589462917832"><ele>225.0</ele><time>2026-04-19T06:53:54Z</time></trkpt><trkpt lat="36.90343093762111" lon="15.016720182937496"><ele>225.0</ele><time>2026-04-19T06:53:55Z</time></trkpt><trkpt lat="36.903537913865264" lon="15.01681698784323"><ele>224.0</ele><time>2026-04-19T06:53:56Z</time></trkpt><trkpt lat="36.903626396708404" lon="15.016914036960742"><ele>223.0</ele><time>2026-04-19T06:53:57Z</time></trkpt><trkpt lat="36.90370432593399" lon="15.017008124295796"><ele>222.0</ele><time>2026-04-19T06:53:58Z</time></trkpt><trkpt lat="36.90377261062977" lon="15.01708876862048"><ele>221.0</ele><time>2026-04-19T06:53:59Z</time></trkpt><trkpt lat="36.90383496645882" lon="15.017149429831445"><ele>220.0</ele><time>2026-04-19T06:54:00Z</time></trkpt><trkpt lat="36.90387025294428" lon="15.017250614907596"><ele>219.99999999999997</ele><time>2026-04-19T06:54:02Z</time></trkpt><trkpt lat="36.90382720168812" lon="15.017328549215103"><ele>220.0</ele><time>2026-04-19T06:54:04Z</time></trkpt><trkpt lat="36.903723493443955" lon="15.017362462686501"><ele>220.0</ele><time>2026-04-19T06:54:06Z</time></trkpt><trkpt lat="36.90365787925649" lon="15.017349114380064"><ele>220.0</ele><time>2026-04-19T06:54:07Z</time></trkpt><trkpt lat="36.90359585785317" lon="15.017327096928154"><ele>219.99999999999997</ele><time>2026-04-19T06:54:08Z</time></trkpt><trkpt lat="36.903532116965344" lon="15.017324756145385"><ele>220.0</ele><time>2026-04-19T06:54:09Z</time></trkpt><trkpt lat="36.903427134994274" lon="15.01734714897093"><ele>219.4</ele><time>2026-04-19T06:54:11Z</time></trkpt><trkpt lat="36.903374461094664" lon="15.017419872039554"><ele>218.8</ele><time>2026-04-19T06:54:13Z</time></trkpt><trkpt lat="36.90336687714082" lon="15.01750388202145"><ele>218.2</ele><time>2026-04-19T06:54:15Z</time></trkpt><trkpt lat="36.90352090329181" lon="15.017643663945329"><ele>217.6</ele><time>2026-04-19T06:54:18Z</time></trkpt><trkpt lat="36.90362713961626" lon="15.017674913572794"><ele>217.0</ele><time>2026-04-19T06:54:19Z</time></trkpt><trkpt lat="36.90377719582758" lon="15.017681836920072"><ele>218.39999999999998</ele><time>2026-04-19T06:54:20Z</time></trkpt><trkpt lat="36.903845104972476" lon="15.017702830067307"><ele>219.79999999999998</ele><time>2026-04-19T06:54:21Z</time></trkpt><trkpt lat="36.90390886828033" lon="15.017792380466846"><ele>221.2</ele><time>2026-04-19T06:54:23Z</time></trkpt><trkpt lat="36.90395003107003" lon="15.01789976731051"><ele>222.6</ele><time>2026-04-19T06:54:24Z</time></trkpt><trkpt lat="36.904066331821035" lon="15.01799902786368"><ele>224.0</ele><time>2026-04-19T06:54:25Z</time></trkpt><trkpt lat="36.90418002525989" lon="15.018087930173389"><ele>225.25</ele><time>2026-04-19T06:54:26Z</time></trkpt><trkpt lat="36.9042786702022" lon="15.018198873410691"><ele>226.5</ele><time>2026-04-19T06:54:27Z</time></trkpt><trkpt lat="36.90435749177424" lon="15.01830991539473"><ele>227.75</ele><time>2026-04-19T06:54:28Z</time></trkpt><trkpt lat="36.904388450787536" lon="15.01842217234668"><ele>229.0</ele><time>2026-04-19T06:54:29Z</time></trkpt><trkpt lat="36.90442563972171" lon="15.018552645779003"><ele>231.25</ele><time>2026-04-19T06:54:30Z</time></trkpt><trkpt lat="36.90446911271147" lon="15.018724748239535"><ele>233.5</ele><time>2026-04-19T06:54:31Z</time></trkpt><trkpt lat="36.904468901104806" lon="15.0188149759614"><ele>235.75</ele><time>2026-04-19T06:54:32Z</time></trkpt><trkpt lat="36.90440341064519" lon="15.01894310373782"><ele>238.0</ele><time>2026-04-19T06:54:34Z</time></trkpt><trkpt lat="36.90440975663587" lon="15.01910023439063"><ele>241.25</ele><time>2026-04-19T06:54:35Z</time></trkpt><trkpt lat="36.90441033732728" lon="15.0192661270732"><ele>244.5</ele><time>2026-04-19T06:54:36Z</time></trkpt><trkpt lat="36.90440879321876" lon="15.019429940791525"><ele>247.75</ele><time>2026-04-19T06:54:37Z</time></trkpt><trkpt lat="36.90439610734251" lon="15.019606764154219"><ele>251.0</ele><time>2026-04-19T06:54:38Z</time></trkpt><trkpt lat="36.90437700821585" lon="15.019817452285928"><ele>251.0</ele><time>2026-04-19T06:54:39Z</time></trkpt><trkpt lat="36.90435208867609" lon="15.019977158195342"><ele>251.00000000000003</ele><time>2026-04-19T06:54:40Z</time></trkpt><trkpt lat="36.90432425812055" lon="15.020089647532535"><ele>251.00000000000003</ele><time>2026-04-19T06:54:41Z</time></trkpt><trkpt lat="36.904273019055715" lon="15.020168917553994"><ele>251.0</ele><time>2026-04-19T06:54:42Z</time></trkpt><trkpt lat="36.90418896962828" lon="15.020259767401667"><ele>251.0</ele><time>2026-04-19T06:54:43Z</time></trkpt><trkpt lat="36.904102328700176" lon="15.0203628776644"><ele>251.4</ele><time>2026-04-19T06:54:44Z</time></trkpt><trkpt lat="36.904033898592736" lon="15.020442476872143"><ele>251.8</ele><time>2026-04-19T06:54:45Z</time></trkpt><trkpt lat="36.903984537948546" lon="15.020505181568035"><ele>252.20000000000002</ele><time>2026-04-19T06:54:46Z</time></trkpt><trkpt lat="36.90392500317002" lon="15.02060452997248"><ele>252.60000000000002</ele><time>2026-04-19T06:54:48Z</time></trkpt><trkpt lat="36.9038664663353" lon="15.02074486993998"><ele>253.0</ele><time>2026-04-19T06:54:50Z</time></trkpt><trkpt lat="36.90380935958452" lon="15.020846557491403"><ele>256.6</ele><time>2026-04-19T06:54:51Z</time></trkpt><trkpt lat="36.90373613234059" lon="15.02096624593703"><ele>260.20000000000005</ele><time>2026-04-19T06:54:52Z</time></trkpt><trkpt lat="36.90368226376554" lon="15.021087245436215"><ele>263.8</ele><time>2026-04-19T06:54:53Z</time></trkpt><trkpt lat="36.903648294176705" lon="15.021221057994508"><ele>267.40000000000003</ele><time>2026-04-19T06:54:54Z</time></trkpt><trkpt lat="36.903618992168795" lon="15.021346352587528"><ele>271.0</ele><time>2026-04-19T06:54:55Z</time></trkpt><trkpt lat="36.90360940482492" lon="15.021485592927869"><ele>271.0</ele><time>2026-04-19T06:54:56Z</time></trkpt><trkpt lat="36.90361652919219" lon="15.021623183850787"><ele>271.0</ele><time>2026-04-19T06:54:57Z</time></trkpt><trkpt lat="36.90363059462961" lon="15.021758420212196"><ele>271.0</ele><time>2026-04-19T06:54:58Z</time></trkpt><trkpt lat="36.90363839027991" lon="15.021895920692472"><ele>271.0</ele><time>2026-04-19T06:54:59Z</time></trkpt><trkpt lat="36.90364527483" lon="15.022026341675407"><ele>271.0</ele><time>2026-04-19T06:55:00Z</time></trkpt><trkpt lat="36.90365224259153" lon="15.022128426089171"><ele>273.40000000000003</ele><time>2026-04-19T06:55:01Z</time></trkpt><trkpt lat="36.90366841948064" lon="15.02223333799864"><ele>275.8</ele><time>2026-04-19T06:55:01.999Z</time></trkpt><trkpt lat="36.90369748192869" lon="15.022353522312732"><ele>278.20000000000005</ele><time>2026-04-19T06:55:02.999Z</time></trkpt><trkpt lat="36.90373782643763" lon="15.022486709501013"><ele>280.6</ele><time>2026-04-19T06:55:03.999Z</time></trkpt><trkpt lat="36.90378996532255" lon="15.022610995302271"><ele>283.0</ele><time>2026-04-19T06:55:04.999Z</time></trkpt><trkpt lat="36.90385494489875" lon="15.022719180988906"><ele>283.2</ele><time>2026-04-19T06:55:05.999Z</time></trkpt><trkpt lat="36.903933719857946" lon="15.022803287008951"><ele>283.4</ele><time>2026-04-19T06:55:06.999Z</time></trkpt><trkpt lat="36.90401718954786" lon="15.022870049853605"><ele>283.59999999999997</ele><time>2026-04-19T06:55:07.999Z</time></trkpt><trkpt lat="36.904111512098126" lon="15.02294105294014"><ele>283.8</ele><time>2026-04-19T06:55:08.999Z</time></trkpt><trkpt lat="36.90419657541983" lon="15.02303087075071"><ele>284.0</ele><time>2026-04-19T06:55:09.999Z</time></trkpt><trkpt lat="36.90429434035151" lon="15.023140450355076"><ele>285.0</ele><time>2026-04-19T06:55:10.999Z</time></trkpt><trkpt lat="36.904392508959305" lon="15.023229275480727"><ele>286.0</ele><time>2026-04-19T06:55:11.999Z</time></trkpt><trkpt lat="36.90447265508428" lon="15.023302383424022"><ele>287.0</ele><time>2026-04-19T06:55:12.999Z</time></trkpt><trkpt lat="36.904540013334746" lon="15.023370376759383"><ele>288.0</ele><time>2026-04-19T06:55:13.999Z</time></trkpt><trkpt lat="36.90458206715993" lon="15.023435786367202"><ele>289.0</ele><time>2026-04-19T06:55:14.999Z</time></trkpt><trkpt lat="36.904603442119665" lon="15.023590101571509"><ele>289.0</ele><time>2026-04-19T06:55:16.999Z</time></trkpt><trkpt lat="36.90460043423404" lon="15.023712124783193"><ele>289.0</ele><time>2026-04-19T06:55:17.999Z</time></trkpt><trkpt lat="36.904613065990944" lon="15.023861536944883"><ele>289.0</ele><time>2026-04-19T06:55:18.999Z</time></trkpt><trkpt lat="36.90461819561843" lon="15.02400337411968"><ele>289.0</ele><time>2026-04-19T06:55:19.999Z</time></trkpt><trkpt lat="36.90463818660697" lon="15.024134406466636"><ele>289.0</ele><time>2026-04-19T06:55:20.999Z</time></trkpt><trkpt lat="36.9046867179867" lon="15.024259032880602"><ele>288.59999999999997</ele><time>2026-04-19T06:55:21.999Z</time></trkpt><trkpt lat="36.90475991952424" lon="15.024367340129691"><ele>288.2</ele><time>2026-04-19T06:55:22.999Z</time></trkpt><trkpt lat="36.904841639658024" lon="15.024450372911911"><ele>287.79999999999995</ele><time>2026-04-19T06:55:23.999Z</time></trkpt><trkpt lat="36.90494386364307" lon="15.024502135665454"><ele>287.4</ele><time>2026-04-19T06:55:25Z</time></trkpt><trkpt lat="36.90504943766814" lon="15.024557982983566"><ele>287.0</ele><time>2026-04-19T06:55:26Z</time></trkpt><trkpt lat="36.90516591494708" lon="15.024632005078756"><ele>288.75</ele><time>2026-04-19T06:55:27Z</time></trkpt><trkpt lat="36.90527166083927" lon="15.02472203856863"><ele>290.5</ele><time>2026-04-19T06:55:28Z</time></trkpt><trkpt lat="36.905339407409805" lon="15.024827351670801"><ele>292.25</ele><time>2026-04-19T06:55:29Z</time></trkpt><trkpt lat="36.90540454423146" lon="15.024938685378302"><ele>294.0</ele><time>2026-04-19T06:55:30Z</time></trkpt><trkpt lat="36.90546919356195" lon="15.025066782000875"><ele>294.0</ele><time>2026-04-19T06:55:31Z</time></trkpt><trkpt lat="36.905551604762586" lon="15.025184107989599"><ele>294.0</ele><time>2026-04-19T06:55:32Z</time></trkpt><trkpt lat="36.905628869057864" lon="15.025301412465957"><ele>294.0</ele><time>2026-04-19T06:55:33Z</time></trkpt><trkpt lat="36.90572379118787" lon="15.025392669125432"><ele>294.0</ele><time>2026-04-19T06:55:34Z</time></trkpt><trkpt lat="36.905820427313856" lon="15.025468051506488"><ele>297.0</ele><time>2026-04-19T06:55:35Z</time></trkpt><trkpt lat="36.90592308917619" lon="15.025520088685374"><ele>300.0</ele><time>2026-04-19T06:55:36Z</time></trkpt><trkpt lat="36.90603785662709" lon="15.025564855211499"><ele>303.0</ele><time>2026-04-19T06:55:37Z</time></trkpt><trkpt lat="36.90615440185926" lon="15.025600476683973"><ele>306.0</ele><time>2026-04-19T06:55:38Z</time></trkpt><trkpt lat="36.90625626771185" lon="15.025617413547508"><ele>306.0</ele><time>2026-04-19T06:55:39Z</time></trkpt><trkpt lat="36.90634614853078" lon="15.025622196131998"><ele>306.0</ele><time>2026-04-19T06:55:40Z</time></trkpt><trkpt lat="36.90642516581541" lon="15.02561675215362"><ele>306.0</ele><time>2026-04-19T06:55:41Z</time></trkpt><trkpt lat="36.906497056492825" lon="15.02562215362596"><ele>306.0</ele><time>2026-04-19T06:55:42Z</time></trkpt><trkpt lat="36.90656503671932" lon="15.025658275443424"><ele>306.0</ele><time>2026-04-19T06:55:43Z</time></trkpt><trkpt lat="36.90661806635003" lon="15.025724285437354"><ele>306.0</ele><time>2026-04-19T06:55:44Z</time></trkpt><trkpt lat="36.90665711370124" lon="15.025818852848863"><ele>304.6666666666667</ele><time>2026-04-19T06:55:45Z</time></trkpt><trkpt lat="36.90668825744219" lon="15.025928530592088"><ele>303.3333333333333</ele><time>2026-04-19T06:55:46Z</time></trkpt><trkpt lat="36.90671938597387" lon="15.026031582627015"><ele>302.0</ele><time>2026-04-19T06:55:47Z</time></trkpt><trkpt lat="36.90676931581965" lon="15.026110782964569"><ele>300.66666666666663</ele><time>2026-04-19T06:55:48Z</time></trkpt><trkpt lat="36.90684092283358" lon="15.02617131567133"><ele>299.3333333333333</ele><time>2026-04-19T06:55:49Z</time></trkpt><trkpt lat="36.906926127919235" lon="15.026218054503175"><ele>298.0</ele><time>2026-04-19T06:55:50Z</time></trkpt><trkpt lat="36.90702366949041" lon="15.026249272163218"><ele>298.0</ele><time>2026-04-19T06:55:51Z</time></trkpt><trkpt lat="36.90713307146918" lon="15.026269302850164"><ele>298.0</ele><time>2026-04-19T06:55:52Z</time></trkpt><trkpt lat="36.90725216520624" lon="15.026279036164654"><ele>298.0</ele><time>2026-04-19T06:55:53Z</time></trkpt><trkpt lat="36.907371342840584" lon="15.026301981753994"><ele>298.0</ele><time>2026-04-19T06:55:54Z</time></trkpt><trkpt lat="36.90747290634626" lon="15.026318303495929"><ele>298.0</ele><time>2026-04-19T06:55:55Z</time></trkpt><trkpt lat="36.90756142199393" lon="15.026333053613378"><ele>298.0</ele><time>2026-04-19T06:55:56Z</time></trkpt><trkpt lat="36.907641803688314" lon="15.026335326782137"><ele>298.0</ele><time>2026-04-19T06:55:57Z</time></trkpt><trkpt lat="36.90771993814705" lon="15.026324910960682"><ele>298.0</ele><time>2026-04-19T06:55:58Z</time></trkpt><trkpt lat="36.90779253690599" lon="15.026295859838983"><ele>298.0</ele><time>2026-04-19T06:55:59Z</time></trkpt><trkpt lat="36.90788950864705" lon="15.026318166470304"><ele>298.0</ele><time>2026-04-19T06:56:01Z</time></trkpt><trkpt lat="36.90791743103222" lon="15.026459620075467"><ele>298.2</ele><time>2026-04-19T06:56:03Z</time></trkpt><trkpt lat="36.9078951703596" lon="15.026543387879812"><ele>298.4</ele><time>2026-04-19T06:56:04Z</time></trkpt><trkpt lat="36.907868230907596" lon="15.026667681826176"><ele>298.59999999999997</ele><time>2026-04-19T06:56:06Z</time></trkpt><trkpt lat="36.90785105169405" lon="15.026768058318012"><ele>298.8</ele><time>2026-04-19T06:56:07Z</time></trkpt><trkpt lat="36.907827123374986" lon="15.026886142425377"><ele>299.0</ele><time>2026-04-19T06:56:08Z</time></trkpt><trkpt lat="36.9077756236692" lon="15.026991889490679"><ele>299.0</ele><time>2026-04-19T06:56:09Z</time></trkpt><trkpt lat="36.90773973456268" lon="15.027081723641697"><ele>299.0</ele><time>2026-04-19T06:56:10Z</time></trkpt><trkpt lat="36.907708605529955" lon="15.027165201230748"><ele>299.0</ele><time>2026-04-19T06:56:11Z</time></trkpt><trkpt lat="36.90748207779714" lon="15.027118848041566"><ele>299.0</ele><time>2026-04-19T06:56:12Z</time></trkpt><trkpt lat="36.90744118187013" lon="15.027268275944554"><ele>296.1666666666667</ele><time>2026-04-19T06:56:13Z</time></trkpt><trkpt lat="36.90743086024733" lon="15.027366106715567"><ele>293.33333333333337</ele><time>2026-04-19T06:56:14Z</time></trkpt><trkpt lat="36.90742763988476" lon="15.027455534930363"><ele>290.5</ele><time>2026-04-19T06:56:15Z</time></trkpt><trkpt lat="36.90741837254235" lon="15.02761074428756"><ele>287.6666666666667</ele><time>2026-04-19T06:56:17Z</time></trkpt><trkpt lat="36.90740199344296" lon="15.027690239601839"><ele>284.8333333333333</ele><time>2026-04-19T06:56:18Z</time></trkpt><trkpt lat="36.90735036709999" lon="15.027792543844184"><ele>282.0</ele><time>2026-04-19T06:56:20Z</time></trkpt><trkpt lat="36.90755793840818" lon="15.028059122250955"><ele>280.6666666666667</ele><time>2026-04-19T06:56:21Z</time></trkpt><trkpt lat="36.90753244887032" lon="15.028163213113697"><ele>279.33333333333337</ele><time>2026-04-19T06:56:22Z</time></trkpt><trkpt lat="36.90722025372271" lon="15.028121753245102"><ele>278.0</ele><time>2026-04-19T06:56:23Z</time></trkpt><trkpt lat="36.90719498694403" lon="15.028201247633538"><ele>276.75</ele><time>2026-04-19T06:56:24Z</time></trkpt><trkpt lat="36.90714288626959" lon="15.028366154909628"><ele>275.5</ele><time>2026-04-19T06:56:26Z</time></trkpt><trkpt lat="36.90712047836654" lon="15.028454853250288"><ele>274.25</ele><time>2026-04-19T06:56:27Z</time></trkpt><trkpt lat="36.907113558896185" lon="15.028558232562677"><ele>273.0</ele><time>2026-04-19T06:56:28Z</time></trkpt><trkpt lat="36.90711903624296" lon="15.029016663183349"><ele>271.75</ele><time>2026-04-19T06:56:29Z</time></trkpt><trkpt lat="36.9072019904054" lon="15.029189901349316"><ele>270.5</ele><time>2026-04-19T06:56:30Z</time></trkpt><trkpt lat="36.907240767414386" lon="15.029257355898766"><ele>269.25</ele><time>2026-04-19T06:56:32Z</time></trkpt><trkpt lat="36.9073185662551" lon="15.029385663173416"><ele>268.0</ele><time>2026-04-19T06:56:34Z</time></trkpt><trkpt lat="36.90783989992372" lon="15.028903189086044"><ele>270.3333333333333</ele><time>2026-04-19T06:56:37Z</time></trkpt><trkpt lat="36.907905247384114" lon="15.028866963253034"><ele>272.66666666666663</ele><time>2026-04-19T06:56:38Z</time></trkpt><trkpt lat="36.90800584765332" lon="15.028836007448296"><ele>275.0</ele><time>2026-04-19T06:56:39Z</time></trkpt><trkpt lat="36.90808745122164" lon="15.02883113134131"><ele>277.3333333333333</ele><time>2026-04-19T06:56:40Z</time></trkpt><trkpt lat="36.90815791087385" lon="15.028847320483521"><ele>279.6666666666667</ele><time>2026-04-19T06:56:41Z</time></trkpt><trkpt lat="36.90826038227979" lon="15.028843765009993"><ele>282.0</ele><time>2026-04-19T06:56:43Z</time></trkpt><trkpt lat="36.90834155939071" lon="15.028808558561813"><ele>281.3333333333333</ele><time>2026-04-19T06:56:45Z</time></trkpt><trkpt lat="36.90842747520051" lon="15.028743362852955"><ele>280.6666666666667</ele><time>2026-04-19T06:56:47Z</time></trkpt><trkpt lat="36.90849844256355" lon="15.028690405629781"><ele>280.0</ele><time>2026-04-19T06:56:49Z</time></trkpt><trkpt lat="36.908572213973144" lon="15.028637689365551"><ele>279.33333333333337</ele><time>2026-04-19T06:57:05Z</time></trkpt><trkpt lat="36.90865656395907" lon="15.028583483927259"><ele>278.6666666666667</ele><time>2026-04-19T06:57:14.999Z</time></trkpt><trkpt lat="36.90871095921315" lon="15.02854244821398"><ele>278.0</ele><time>2026-04-19T06:57:15.999Z</time></trkpt><trkpt lat="36.908810360542965" lon="15.028439889323232"><ele>278.0</ele><time>2026-04-19T06:57:17.999Z</time></trkpt><trkpt lat="36.90886879133011" lon="15.028371941870176"><ele>278.0</ele><time>2026-04-19T06:57:18.999Z</time></trkpt><trkpt lat="36.90895976397221" lon="15.028281897962444"><ele>278.0</ele><time>2026-04-19T06:57:19.999Z</time></trkpt><trkpt lat="36.90904171399536" lon="15.028203910040169"><ele>278.0</ele><time>2026-04-19T06:57:20.999Z</time></trkpt><trkpt lat="36.90910095287443" lon="15.028136792891328"><ele>278.0</ele><time>2026-04-19T06:57:21.999Z</time></trkpt><trkpt lat="36.90914749008481" lon="15.028065689454301"><ele>280.33333333333337</ele><time>2026-04-19T06:57:22.999Z</time></trkpt><trkpt lat="36.909198064195074" lon="15.027993058948706"><ele>282.6666666666667</ele><time>2026-04-19T06:57:23.999Z</time></trkpt><trkpt lat="36.9092550842025" lon="15.027913992396575"><ele>285.0</ele><time>2026-04-19T06:57:24.999Z</time></trkpt><trkpt lat="36.90931464582693" lon="15.027847531537795"><ele>287.3333333333333</ele><time>2026-04-19T06:57:25.999Z</time></trkpt><trkpt lat="36.90938664470788" lon="15.027783439366763"><ele>289.66666666666663</ele><time>2026-04-19T06:57:26.999Z</time></trkpt><trkpt lat="36.90946268277962" lon="15.027723151240348"><ele>292.0</ele><time>2026-04-19T06:57:27.999Z</time></trkpt><trkpt lat="36.909539913257476" lon="15.027666676222532"><ele>292.0</ele><time>2026-04-19T06:57:28.999Z</time></trkpt><trkpt lat="36.909619148719095" lon="15.027649797899265"><ele>292.0</ele><time>2026-04-19T06:57:29.999Z</time></trkpt><trkpt lat="36.90968951530388" lon="15.02762931737362"><ele>292.0</ele><time>2026-04-19T06:57:31Z</time></trkpt><trkpt lat="36.909774459095004" lon="15.027637085747687"><ele>292.0</ele><time>2026-04-19T06:57:32Z</time></trkpt><trkpt lat="36.909874054251894" lon="15.02763703094372"><ele>292.0</ele><time>2026-04-19T06:57:33Z</time></trkpt><trkpt lat="36.9099909326046" lon="15.027613360848886"><ele>291.0</ele><time>2026-04-19T06:57:34Z</time></trkpt><trkpt lat="36.91013060401295" lon="15.027628681145085"><ele>290.0</ele><time>2026-04-19T06:57:35Z</time></trkpt><trkpt lat="36.910217510376405" lon="15.027625507406423"><ele>289.0</ele><time>2026-04-19T06:57:36Z</time></trkpt><trkpt lat="36.910293896201736" lon="15.027608140364759"><ele>288.0</ele><time>2026-04-19T06:57:37Z</time></trkpt><trkpt lat="36.91036737703924" lon="15.027602488700353"><ele>287.0</ele><time>2026-04-19T06:57:38Z</time></trkpt><trkpt lat="36.91043960242678" lon="15.027587835636186"><ele>287.0</ele><time>2026-04-19T06:57:39Z</time></trkpt><trkpt lat="36.910504526690346" lon="15.027552165260962"><ele>287.0</ele><time>2026-04-19T06:57:40Z</time></trkpt><trkpt lat="36.91056524637243" lon="15.027504069045726"><ele>287.0</ele><time>2026-04-19T06:57:41Z</time></trkpt><trkpt lat="36.910631932670626" lon="15.027453793890743"><ele>287.0</ele><time>2026-04-19T06:57:42Z</time></trkpt><trkpt lat="36.91069131687506" lon="15.02741276926446"><ele>287.0</ele><time>2026-04-19T06:57:43Z</time></trkpt><trkpt lat="36.91075835601181" lon="15.027367374943701"><ele>287.0</ele><time>2026-04-19T06:57:44Z</time></trkpt><trkpt lat="36.91082051730652" lon="15.02732279506093"><ele>287.0</ele><time>2026-04-19T06:57:45Z</time></trkpt><trkpt lat="36.91087939885482" lon="15.027265772640165"><ele>288.33333333333337</ele><time>2026-04-19T06:57:46Z</time></trkpt><trkpt lat="36.91093146492087" lon="15.027199674958098"><ele>289.6666666666667</ele><time>2026-04-19T06:57:47Z</time></trkpt><trkpt lat="36.910969610220434" lon="15.027127461842717"><ele>291.0</ele><time>2026-04-19T06:57:48Z</time></trkpt><trkpt lat="36.9110173330309" lon="15.02705926419773"><ele>292.3333333333333</ele><time>2026-04-19T06:57:49Z</time></trkpt><trkpt lat="36.91108313314843" lon="15.02699427013283"><ele>293.66666666666663</ele><time>2026-04-19T06:57:50Z</time></trkpt><trkpt lat="36.91115464181679" lon="15.026941205603876"><ele>295.0</ele><time>2026-04-19T06:57:51Z</time></trkpt><trkpt lat="36.911224275719285" lon="15.026897496214605"><ele>295.0</ele><time>2026-04-19T06:57:52Z</time></trkpt><trkpt lat="36.911293815380795" lon="15.026863352601747"><ele>295.0</ele><time>2026-04-19T06:57:53Z</time></trkpt><trkpt lat="36.911374490840664" lon="15.026834524614156"><ele>295.0</ele><time>2026-04-19T06:57:54Z</time></trkpt><trkpt lat="36.91146318441894" lon="15.026792729564782"><ele>295.0</ele><time>2026-04-19T06:57:55Z</time></trkpt><trkpt lat="36.911559652434406" lon="15.026754504013393"><ele>295.0</ele><time>2026-04-19T06:57:56Z</time></trkpt><trkpt lat="36.91166812992534" lon="15.026737246170681"><ele>294.75</ele><time>2026-04-19T06:57:57Z</time></trkpt><trkpt lat="36.91178570673012" lon="15.026751286455974"><ele>294.5</ele><time>2026-04-19T06:57:58Z</time></trkpt><trkpt lat="36.91190109917777" lon="15.026729724265584"><ele>294.25</ele><time>2026-04-19T06:57:59Z</time></trkpt><trkpt lat="36.912015353349545" lon="15.026724770827135"><ele>294.0</ele><time>2026-04-19T06:58:00Z</time></trkpt><trkpt lat="36.91212710851613" lon="15.026705859223775"><ele>294.0</ele><time>2026-04-19T06:58:01Z</time></trkpt><trkpt lat="36.912245485300616" lon="15.026683141335903"><ele>294.0</ele><time>2026-04-19T06:58:02Z</time></trkpt><trkpt lat="36.91237018483211" lon="15.02666291430564"><ele>294.0</ele><time>2026-04-19T06:58:03Z</time></trkpt><trkpt lat="36.91249723138888" lon="15.026626193102965"><ele>294.0</ele><time>2026-04-19T06:58:04Z</time></trkpt><trkpt lat="36.912622259082795" lon="15.026572783020736"><ele>298.5</ele><time>2026-04-19T06:58:05Z</time></trkpt><trkpt lat="36.912747710902536" lon="15.02651189407331"><ele>303.0</ele><time>2026-04-19T06:58:06Z</time></trkpt><trkpt lat="36.912851499441196" lon="15.026456135297073"><ele>307.5</ele><time>2026-04-19T06:58:07Z</time></trkpt><trkpt lat="36.91294920526579" lon="15.026404969853706"><ele>312.0</ele><time>2026-04-19T06:58:08Z</time></trkpt><trkpt lat="36.91305379521461" lon="15.02637964538794"><ele>312.0</ele><time>2026-04-19T06:58:09Z</time></trkpt><trkpt lat="36.91317135681058" lon="15.026326490733606"><ele>312.0</ele><time>2026-04-19T06:58:10Z</time></trkpt><trkpt lat="36.913284081991044" lon="15.0262807734311"><ele>312.0</ele><time>2026-04-19T06:58:11Z</time></trkpt><trkpt lat="36.913374550865356" lon="15.026242748062273"><ele>312.0</ele><time>2026-04-19T06:58:12Z</time></trkpt><trkpt lat="36.913453580714844" lon="15.026180107962615"><ele>312.0</ele><time>2026-04-19T06:58:13Z</time></trkpt><trkpt lat="36.91354715246566" lon="15.026124823757478"><ele>310.8</ele><time>2026-04-19T06:58:14Z</time></trkpt><trkpt lat="36.9136537820895" lon="15.026100167750958"><ele>309.6</ele><time>2026-04-19T06:58:15Z</time></trkpt><trkpt lat="36.913748935138564" lon="15.026067451795889"><ele>308.40000000000003</ele><time>2026-04-19T06:58:16Z</time></trkpt><trkpt lat="36.91384254400018" lon="15.026037830361837"><ele>307.2</ele><time>2026-04-19T06:58:17Z</time></trkpt><trkpt lat="36.913940442035724" lon="15.026011120500204"><ele>306.0</ele><time>2026-04-19T06:58:18Z</time></trkpt><trkpt lat="36.914033227681216" lon="15.025992954696045"><ele>306.0</ele><time>2026-04-19T06:58:19Z</time></trkpt><trkpt lat="36.91412903449908" lon="15.025976133266035"><ele>306.0</ele><time>2026-04-19T06:58:20Z</time></trkpt><trkpt lat="36.91423521095761" lon="15.025966865485955"><ele>306.0</ele><time>2026-04-19T06:58:21Z</time></trkpt><trkpt lat="36.914349746541056" lon="15.025958326493962"><ele>306.0</ele><time>2026-04-19T06:58:22Z</time></trkpt><trkpt lat="36.914453955715885" lon="15.025928389658596"><ele>306.0</ele><time>2026-04-19T06:58:23Z</time></trkpt><trkpt lat="36.914555953304856" lon="15.02591728179051"><ele>305.0</ele><time>2026-04-19T06:58:24Z</time></trkpt><trkpt lat="36.9146515033027" lon="15.025902812799497"><ele>304.0</ele><time>2026-04-19T06:58:25Z</time></trkpt><trkpt lat="36.914744599034314" lon="15.025879482140978"><ele>303.0</ele><time>2026-04-19T06:58:26Z</time></trkpt><trkpt lat="36.91483808537599" lon="15.025849694560659"><ele>302.0</ele><time>2026-04-19T06:58:27Z</time></trkpt><trkpt lat="36.914938529902344" lon="15.025842382489982"><ele>301.0</ele><time>2026-04-19T06:58:28Z</time></trkpt><trkpt lat="36.91503431453719" lon="15.025815556630723"><ele>304.6</ele><time>2026-04-19T06:58:29Z</time></trkpt><trkpt lat="36.91512797970851" lon="15.025771386068161"><ele>308.20000000000005</ele><time>2026-04-19T06:58:30Z</time></trkpt><trkpt lat="36.915255815525384" lon="15.02575042200419"><ele>311.79999999999995</ele><time>2026-04-19T06:58:31Z</time></trkpt><trkpt lat="36.9153666691821" lon="15.02575304495688"><ele>315.4</ele><time>2026-04-19T06:58:32Z</time></trkpt><trkpt lat="36.915472531864786" lon="15.025742621513396"><ele>319.0</ele><time>2026-04-19T06:58:33Z</time></trkpt><trkpt lat="36.91556631659372" lon="15.025727181378386"><ele>319.0</ele><time>2026-04-19T06:58:34Z</time></trkpt><trkpt lat="36.91565616560004" lon="15.025710708133474"><ele>319.0</ele><time>2026-04-19T06:58:35Z</time></trkpt><trkpt lat="36.91574414274801" lon="15.02569908211099"><ele>319.0</ele><time>2026-04-19T06:58:36Z</time></trkpt><trkpt lat="36.91582180655925" lon="15.025695658810516"><ele>319.0</ele><time>2026-04-19T06:58:37Z</time></trkpt><trkpt lat="36.91590253448677" lon="15.025694246233778"><ele>319.0</ele><time>2026-04-19T06:58:38Z</time></trkpt><trkpt lat="36.91598939315186" lon="15.025694028471037"><ele>319.0</ele><time>2026-04-19T06:58:39Z</time></trkpt><trkpt lat="36.91606308479741" lon="15.025701713977629"><ele>319.4</ele><time>2026-04-19T06:58:40Z</time></trkpt><trkpt lat="36.916128166075225" lon="15.02572318027854"><ele>319.79999999999995</ele><time>2026-04-19T06:58:41Z</time></trkpt><trkpt lat="36.91624233121406" lon="15.025758592283466"><ele>320.20000000000005</ele><time>2026-04-19T06:58:43Z</time></trkpt><trkpt lat="36.916366420881054" lon="15.025793200241901"><ele>320.6</ele><time>2026-04-19T06:58:45Z</time></trkpt><trkpt lat="36.916444326539235" lon="15.025805540958736"><ele>321.0</ele><time>2026-04-19T06:58:46Z</time></trkpt><trkpt lat="36.91655779955844" lon="15.025794931855616"><ele>317.40000000000003</ele><time>2026-04-19T06:58:48Z</time></trkpt><trkpt lat="36.91665875380125" lon="15.0258321818531"><ele>313.8</ele><time>2026-04-19T06:58:50Z</time></trkpt><trkpt lat="36.91674621036635" lon="15.025861818691759"><ele>310.20000000000005</ele><time>2026-04-19T06:58:52Z</time></trkpt><trkpt lat="36.91683002625061" lon="15.025884813158042"><ele>306.6</ele><time>2026-04-19T06:58:54Z</time></trkpt><trkpt lat="36.91690317679687" lon="15.02589556280643"><ele>303.0</ele><time>2026-04-19T06:58:56Z</time></trkpt><trkpt lat="36.91700412385621" lon="15.025886513119389"><ele>303.0</ele><time>2026-04-19T06:58:59Z</time></trkpt><trkpt lat="36.91711012766761" lon="15.025887186884555"><ele>303.0</ele><time>2026-04-19T06:59:01Z</time></trkpt><trkpt lat="36.91718983984687" lon="15.025877462961894"><ele>303.0</ele><time>2026-04-19T06:59:02.999Z</time></trkpt><trkpt lat="36.91725461792784" lon="15.025917451772287"><ele>303.0</ele><time>2026-04-19T06:59:04.999Z</time></trkpt><trkpt lat="36.917323408198534" lon="15.025940287170615"><ele>303.0</ele><time>2026-04-19T06:59:06.999Z</time></trkpt><trkpt lat="36.91739179770519" lon="15.025969037885384"><ele>303.0</ele><time>2026-04-19T06:59:08.999Z</time></trkpt><trkpt lat="36.917474202944135" lon="15.026002814277389"><ele>303.0</ele><time>2026-04-19T06:59:10.999Z</time></trkpt><trkpt lat="36.91754638236361" lon="15.0260267110794"><ele>303.0</ele><time>2026-04-19T06:59:12.999Z</time></trkpt><trkpt lat="36.91762396545263" lon="15.026045803940274"><ele>303.0</ele><time>2026-04-19T06:59:14.999Z</time></trkpt><trkpt lat="36.91772491817873" lon="15.026039091738335"><ele>303.0</ele><time>2026-04-19T06:59:16.999Z</time></trkpt><trkpt lat="36.91780833354862" lon="15.026040582635316"><ele>303.0</ele><time>2026-04-19T06:59:18.999Z</time></trkpt><trkpt lat="36.91788216182307" lon="15.026063673997314"><ele>303.0</ele><time>2026-04-19T06:59:20.999Z</time></trkpt><trkpt lat="36.91794742360866" lon="15.026111190233083"><ele>302.6</ele><time>2026-04-19T06:59:22.999Z</time></trkpt><trkpt lat="36.918023552582724" lon="15.0261262935411"><ele>302.20000000000005</ele><time>2026-04-19T06:59:24.999Z</time></trkpt><trkpt lat="36.91810596337257" lon="15.026160973449052"><ele>301.8</ele><time>2026-04-19T06:59:26.999Z</time></trkpt><trkpt lat="36.91819812700273" lon="15.026194214506393"><ele>301.40000000000003</ele><time>2026-04-19T06:59:28.999Z</time></trkpt><trkpt lat="36.91829646418705" lon="15.026205080241022"><ele>301.0</ele><time>2026-04-19T06:59:30.999Z</time></trkpt><trkpt lat="36.918397144448505" lon="15.02622880097333"><ele>300.5</ele><time>2026-04-19T06:59:32.999Z</time></trkpt><trkpt lat="36.918496571915796" lon="15.026235471589588"><ele>300.0</ele><time>2026-04-19T06:59:34.999Z</time></trkpt><trkpt lat="36.91861976916675" lon="15.026223845427946"><ele>299.5</ele><time>2026-04-19T06:59:37Z</time></trkpt><trkpt lat="36.9186894312021" lon="15.026219202923384"><ele>299.0</ele><time>2026-04-19T06:59:38Z</time></trkpt><trkpt lat="36.91875401668594" lon="15.026222596934739"><ele>298.5</ele><time>2026-04-19T06:59:39Z</time></trkpt><trkpt lat="36.91883090431811" lon="15.026226464062534"><ele>298.0</ele><time>2026-04-19T06:59:40Z</time></trkpt><trkpt lat="36.91890978934802" lon="15.026233746232476"><ele>298.0</ele><time>2026-04-19T06:59:41Z</time></trkpt><trkpt lat="36.91897716118946" lon="15.026222360507964"><ele>298.0</ele><time>2026-04-19T06:59:42Z</time></trkpt><trkpt lat="36.91906967966553" lon="15.026234504602717"><ele>298.0</ele><time>2026-04-19T06:59:44Z</time></trkpt><trkpt lat="36.919154390619504" lon="15.02619868978711"><ele>298.0</ele><time>2026-04-19T06:59:46Z</time></trkpt><trkpt lat="36.9192671254286" lon="15.026148958230744"><ele>298.0</ele><time>2026-04-19T06:59:48Z</time></trkpt><trkpt lat="36.91938306425335" lon="15.026116797480404"><ele>297.6</ele><time>2026-04-19T06:59:50Z</time></trkpt><trkpt lat="36.91948606152997" lon="15.026093609986518"><ele>297.20000000000005</ele><time>2026-04-19T06:59:52Z</time></trkpt><trkpt lat="36.91960991220797" lon="15.026096507669394"><ele>296.8</ele><time>2026-04-19T06:59:54Z</time></trkpt><trkpt lat="36.919685630654435" lon="15.026093687151452"><ele>296.40000000000003</ele><time>2026-04-19T06:59:55Z</time></trkpt><trkpt lat="36.91980884796639" lon="15.026062226760281"><ele>296.0</ele><time>2026-04-19T06:59:57Z</time></trkpt><trkpt lat="36.91985766520883" lon="15.025932444386688"><ele>296.0</ele><time>2026-04-19T06:59:58Z</time></trkpt><trkpt lat="36.919934828574036" lon="15.02589871863555"><ele>296.0</ele><time>2026-04-19T06:59:59Z</time></trkpt><trkpt lat="36.92000460949626" lon="15.025868219374207"><ele>296.0</ele><time>2026-04-19T07:00:00Z</time></trkpt><trkpt lat="36.92007442026802" lon="15.025838098097866"><ele>296.0</ele><time>2026-04-19T07:00:01Z</time></trkpt><trkpt lat="36.92018286159181" lon="15.02579229647461"><ele>296.0</ele><time>2026-04-19T07:00:03Z</time></trkpt><trkpt lat="36.9202887676715" lon="15.025747565633495"><ele>299.40000000000003</ele><time>2026-04-19T07:00:05Z</time></trkpt><trkpt lat="36.92035755999105" lon="15.02571851026147"><ele>302.8</ele><time>2026-04-19T07:00:06Z</time></trkpt><trkpt lat="36.920423319649956" lon="15.025690735817747"><ele>306.20000000000005</ele><time>2026-04-19T07:00:07Z</time></trkpt><trkpt lat="36.92052004258365" lon="15.025647378186413"><ele>309.6</ele><time>2026-04-19T07:00:09Z</time></trkpt><trkpt lat="36.92062574089594" lon="15.02559849595126"><ele>313.0</ele><time>2026-04-19T07:00:11Z</time></trkpt><trkpt lat="36.92069964951927" lon="15.025510599221114"><ele>313.0</ele><time>2026-04-19T07:00:14Z</time></trkpt><trkpt lat="36.92078403131019" lon="15.025445344767283"><ele>313.0</ele><time>2026-04-19T07:00:16Z</time></trkpt><trkpt lat="36.920802613616225" lon="15.025366333119118"><ele>313.0</ele><time>2026-04-19T07:00:19Z</time></trkpt><trkpt lat="36.92072512649675" lon="15.02537884962648"><ele>313.0</ele><time>2026-04-19T07:00:20Z</time></trkpt><trkpt lat="36.921189630459665" lon="15.025769122939769"><ele>309.0</ele><time>2026-04-19T07:00:21Z</time></trkpt><trkpt lat="36.92125635184196" lon="15.025716028304087"><ele>305.0</ele><time>2026-04-19T07:00:23Z</time></trkpt><trkpt lat="36.92131534275228" lon="15.025635705243058"><ele>301.0</ele><time>2026-04-19T07:00:25Z</time></trkpt><trkpt lat="36.92139118145846" lon="15.025590224860062"><ele>297.0</ele><time>2026-04-19T07:00:27Z</time></trkpt><trkpt lat="36.92146504519485" lon="15.02553817935769"><ele>293.0</ele><time>2026-04-19T07:00:29Z</time></trkpt><trkpt lat="36.92153853099955" lon="15.025464985788439"><ele>289.0</ele><time>2026-04-19T07:00:31Z</time></trkpt><trkpt lat="36.92160599971182" lon="15.025397733956206"><ele>289.0</ele><time>2026-04-19T07:00:33Z</time></trkpt><trkpt lat="36.921684669209895" lon="15.025327668202006"><ele>289.0</ele><time>2026-04-19T07:00:35Z</time></trkpt><trkpt lat="36.92175265578435" lon="15.02525451211583"><ele>289.0</ele><time>2026-04-19T07:00:37Z</time></trkpt><trkpt lat="36.92182134023191" lon="15.025156571408951"><ele>289.0</ele><time>2026-04-19T07:00:39Z</time></trkpt><trkpt lat="36.92189113512291" lon="15.025048108589088"><ele>289.0</ele><time>2026-04-19T07:00:41Z</time></trkpt><trkpt lat="36.92196168288144" lon="15.024976890736825"><ele>290.0</ele><time>2026-04-19T07:00:43Z</time></trkpt><trkpt lat="36.92205305848159" lon="15.024935724751428"><ele>291.0</ele><time>2026-04-19T07:00:45Z</time></trkpt><trkpt lat="36.92215900810481" lon="15.024904563464077"><ele>292.0</ele><time>2026-04-19T07:00:47Z</time></trkpt><trkpt lat="36.922223547945144" lon="15.02487092539042"><ele>293.0</ele><time>2026-04-19T07:00:48Z</time></trkpt><trkpt lat="36.92232740121589" lon="15.024841860466433"><ele>294.0</ele><time>2026-04-19T07:00:50Z</time></trkpt><trkpt lat="36.922395143955725" lon="15.02481412780179"><ele>294.0</ele><time>2026-04-19T07:00:51Z</time></trkpt><trkpt lat="36.92247110231511" lon="15.024778144045152"><ele>294.0</ele><time>2026-04-19T07:00:52Z</time></trkpt><trkpt lat="36.92253658482652" lon="15.024749154072722"><ele>294.0</ele><time>2026-04-19T07:00:53Z</time></trkpt><trkpt lat="36.9226388343113" lon="15.024727089347047"><ele>294.0</ele><time>2026-04-19T07:00:55Z</time></trkpt><trkpt lat="36.92271868239678" lon="15.024741848200698"><ele>294.0</ele><time>2026-04-19T07:00:57Z</time></trkpt><trkpt lat="36.92280135290582" lon="15.02474983187361"><ele>294.0</ele><time>2026-04-19T07:00:59Z</time></trkpt><trkpt lat="36.92288341171017" lon="15.024735009745735"><ele>291.1666666666667</ele><time>2026-04-19T07:01:01Z</time></trkpt><trkpt lat="36.92294970984477" lon="15.024735645683839"><ele>288.3333333333333</ele><time>2026-04-19T07:01:03Z</time></trkpt><trkpt lat="36.9230351475404" lon="15.024765061515309"><ele>285.5</ele><time>2026-04-19T07:01:06Z</time></trkpt><trkpt lat="36.92312779477577" lon="15.024762942281987"><ele>282.66666666666663</ele><time>2026-04-19T07:01:09Z</time></trkpt><trkpt lat="36.92317888626981" lon="15.024682539036231"><ele>279.8333333333333</ele><time>2026-04-19T07:01:11Z</time></trkpt><trkpt lat="36.92323425476009" lon="15.02456307518359"><ele>277.0</ele><time>2026-04-19T07:01:13Z</time></trkpt><trkpt lat="36.92330368110901" lon="15.024522768928213"><ele>277.0</ele><time>2026-04-19T07:01:15Z</time></trkpt><trkpt lat="36.9233935760382" lon="15.024516334054779"><ele>277.0</ele><time>2026-04-19T07:01:17Z</time></trkpt><trkpt lat="36.923487604438556" lon="15.024535821978949"><ele>277.0</ele><time>2026-04-19T07:01:19Z</time></trkpt><trkpt lat="36.923590651114054" lon="15.024502236026727"><ele>277.0</ele><time>2026-04-19T07:01:21Z</time></trkpt><trkpt lat="36.923652558638494" lon="15.02447022331626"><ele>277.0</ele><time>2026-04-19T07:01:22Z</time></trkpt><trkpt lat="36.92372198179013" lon="15.0244417362889"><ele>277.0</ele><time>2026-04-19T07:01:23Z</time></trkpt><trkpt lat="36.92378723873696" lon="15.024409362122254"><ele>273.2</ele><time>2026-04-19T07:01:24Z</time></trkpt><trkpt lat="36.923890967615534" lon="15.024362036019124"><ele>269.4</ele><time>2026-04-19T07:01:26Z</time></trkpt><trkpt lat="36.92397625990003" lon="15.02431207058874"><ele>265.6</ele><time>2026-04-19T07:01:28Z</time></trkpt><trkpt lat="36.92406066573592" lon="15.024281483182177"><ele>261.8</ele><time>2026-04-19T07:01:30Z</time></trkpt><trkpt lat="36.92414973644049" lon="15.024292682664871"><ele>258.0</ele><time>2026-04-19T07:01:32Z</time></trkpt><trkpt lat="36.92424847497044" lon="15.024309046548877"><ele>255.2</ele><time>2026-04-19T07:01:33.999Z</time></trkpt><trkpt lat="36.92433679828619" lon="15.024296648419183"><ele>252.4</ele><time>2026-04-19T07:01:35.999Z</time></trkpt><trkpt lat="36.924426019137" lon="15.02430036490522"><ele>249.59999999999997</ele><time>2026-04-19T07:01:37.999Z</time></trkpt><trkpt lat="36.92451178581168" lon="15.024318204550417"><ele>246.79999999999998</ele><time>2026-04-19T07:01:39.999Z</time></trkpt><trkpt lat="36.92461083756029" lon="15.024324338922742"><ele>244.0</ele><time>2026-04-19T07:01:41.999Z</time></trkpt><trkpt lat="36.92469748176982" lon="15.024333644574131"><ele>244.0</ele><time>2026-04-19T07:01:44Z</time></trkpt><trkpt lat="36.92478852319167" lon="15.024352217518617"><ele>244.0</ele><time>2026-04-19T07:01:46Z</time></trkpt><trkpt lat="36.92487989219785" lon="15.024354818170561"><ele>244.0</ele><time>2026-04-19T07:01:48Z</time></trkpt><trkpt lat="36.92507644953926" lon="15.024338779480704"><ele>244.0</ele><time>2026-04-19T07:01:51Z</time></trkpt><trkpt lat="36.92519728699205" lon="15.024350255678131"><ele>241.6</ele><time>2026-04-19T07:01:53Z</time></trkpt><trkpt lat="36.92530163594604" lon="15.02438070011121"><ele>239.2</ele><time>2026-04-19T07:01:55Z</time></trkpt><trkpt lat="36.92538962221541" lon="15.024395648961933"><ele>236.79999999999998</ele><time>2026-04-19T07:01:57Z</time></trkpt><trkpt lat="36.925486936838595" lon="15.024396457707295"><ele>234.39999999999998</ele><time>2026-04-19T07:01:59Z</time></trkpt><trkpt lat="36.92559042283512" lon="15.024372590034083"><ele>232.0</ele><time>2026-04-19T07:02:01Z</time></trkpt><trkpt lat="36.92569556429607" lon="15.024374085642844"><ele>231.99999999999997</ele><time>2026-04-19T07:02:03Z</time></trkpt><trkpt lat="36.92580242605287" lon="15.024370390077857"><ele>232.0</ele><time>2026-04-19T07:02:05Z</time></trkpt><trkpt lat="36.92588375251759" lon="15.024347015097208"><ele>232.0</ele><time>2026-04-19T07:02:07Z</time></trkpt><trkpt lat="36.92596762660221" lon="15.024404495321765"><ele>232.0</ele><time>2026-04-19T07:02:08Z</time></trkpt><trkpt lat="36.92603718180974" lon="15.024356202734602"><ele>231.99999999999997</ele><time>2026-04-19T07:02:10Z</time></trkpt><trkpt lat="36.9260983761124" lon="15.024317930110344"><ele>232.0</ele><time>2026-04-19T07:02:12Z</time></trkpt><trkpt lat="36.92595927061423" lon="15.024391556949105"><ele>231.99999999999997</ele><time>2026-04-19T07:07:09Z</time></trkpt><trkpt lat="36.925877965298284" lon="15.024461117078333"><ele>232.0</ele><time>2026-04-19T07:07:10Z</time></trkpt><trkpt lat="36.92582279320572" lon="15.024530032324744"><ele>232.0</ele><time>2026-04-19T07:07:11Z</time></trkpt><trkpt lat="36.925766451332485" lon="15.024593415224833"><ele>232.0</ele><time>2026-04-19T07:07:12Z</time></trkpt><trkpt lat="36.925697544939595" lon="15.024646302345847"><ele>231.99999999999997</ele><time>2026-04-19T07:07:13Z</time></trkpt><trkpt lat="36.92563970308659" lon="15.02471135897352"><ele>232.0</ele><time>2026-04-19T07:07:14Z</time></trkpt><trkpt lat="36.925583202934234" lon="15.024760389384635"><ele>231.99999999999997</ele><time>2026-04-19T07:07:15Z</time></trkpt><trkpt lat="36.92552469937854" lon="15.024801201013188"><ele>232.0</ele><time>2026-04-19T07:07:16Z</time></trkpt><trkpt lat="36.92545741863856" lon="15.024825565446761"><ele>232.0</ele><time>2026-04-19T07:07:17Z</time></trkpt><trkpt lat="36.92539861160676" lon="15.024871507524804"><ele>232.0</ele><time>2026-04-19T07:07:18Z</time></trkpt><trkpt lat="36.92532096062568" lon="15.024948453508658"><ele>231.99999999999997</ele><time>2026-04-19T07:07:19Z</time></trkpt><trkpt lat="36.925223657177995" lon="15.025010452173904"><ele>232.0</ele><time>2026-04-19T07:07:20Z</time></trkpt><trkpt lat="36.92512756692659" lon="15.025074163760976"><ele>230.39999999999998</ele><time>2026-04-19T07:07:21Z</time></trkpt><trkpt lat="36.925039502718384" lon="15.025143771390578"><ele>228.79999999999998</ele><time>2026-04-19T07:07:22Z</time></trkpt><trkpt lat="36.92495267946297" lon="15.025199030498058"><ele>227.2</ele><time>2026-04-19T07:07:23Z</time></trkpt><trkpt lat="36.924860024785396" lon="15.025208881121829"><ele>225.6</ele><time>2026-04-19T07:07:24Z</time></trkpt><trkpt lat="36.92477341109986" lon="15.025219322893076"><ele>224.0</ele><time>2026-04-19T07:07:25Z</time></trkpt><trkpt lat="36.92468851165125" lon="15.025248605018755"><ele>224.0</ele><time>2026-04-19T07:07:26Z</time></trkpt><trkpt lat="36.924614340458234" lon="15.025269751107945"><ele>223.99999999999997</ele><time>2026-04-19T07:07:27Z</time></trkpt><trkpt lat="36.924520230347305" lon="15.025313625737562"><ele>223.99999999999997</ele><time>2026-04-19T07:07:28Z</time></trkpt><trkpt lat="36.92440842238114" lon="15.025340507964435"><ele>224.0</ele><time>2026-04-19T07:07:29Z</time></trkpt><trkpt lat="36.92430865661066" lon="15.025371448844894"><ele>224.0</ele><time>2026-04-19T07:07:30Z</time></trkpt><trkpt lat="36.924203608197864" lon="15.025374053962638"><ele>225.2</ele><time>2026-04-19T07:07:31Z</time></trkpt><trkpt lat="36.92411656971742" lon="15.025407650276762"><ele>226.39999999999998</ele><time>2026-04-19T07:07:32Z</time></trkpt><trkpt lat="36.92401688160655" lon="15.025398572514668"><ele>227.6</ele><time>2026-04-19T07:07:33Z</time></trkpt><trkpt lat="36.92390421150367" lon="15.02537601713164"><ele>228.8</ele><time>2026-04-19T07:07:34Z</time></trkpt><trkpt lat="36.92381253370354" lon="15.025347021537916"><ele>230.0</ele><time>2026-04-19T07:07:35Z</time></trkpt><trkpt lat="36.92372742503133" lon="15.0253437319561"><ele>230.0</ele><time>2026-04-19T07:07:36Z</time></trkpt><trkpt lat="36.923634491658994" lon="15.025339504164927"><ele>230.0</ele><time>2026-04-19T07:07:37Z</time></trkpt><trkpt lat="36.92354571360854" lon="15.025434022428847"><ele>230.0</ele><time>2026-04-19T07:07:38Z</time></trkpt><trkpt lat="36.923450597482756" lon="15.025517498470162"><ele>230.0</ele><time>2026-04-19T07:07:39Z</time></trkpt><trkpt lat="36.923361931846856" lon="15.025607064501795"><ele>230.0</ele><time>2026-04-19T07:07:40Z</time></trkpt><trkpt lat="36.92329805108988" lon="15.025683933137048"><ele>229.2</ele><time>2026-04-19T07:07:41Z</time></trkpt><trkpt lat="36.92320357024946" lon="15.025740436423074"><ele>228.4</ele><time>2026-04-19T07:07:42Z</time></trkpt><trkpt lat="36.92312597356129" lon="15.0257477417012"><ele>227.60000000000002</ele><time>2026-04-19T07:07:43Z</time></trkpt><trkpt lat="36.92304189978105" lon="15.025779845280052"><ele>226.8</ele><time>2026-04-19T07:07:44Z</time></trkpt><trkpt lat="36.922955391742335" lon="15.025813774585483"><ele>226.0</ele><time>2026-04-19T07:07:45Z</time></trkpt><trkpt lat="36.92287143223468" lon="15.025870200348583"><ele>226.0</ele><time>2026-04-19T07:07:46Z</time></trkpt><trkpt lat="36.922786919770125" lon="15.025905125269198"><ele>226.00000000000003</ele><time>2026-04-19T07:07:47Z</time></trkpt><trkpt lat="36.922704692852854" lon="15.025954397359913"><ele>226.00000000000003</ele><time>2026-04-19T07:07:48Z</time></trkpt><trkpt lat="36.92263236846753" lon="15.026030554059039"><ele>226.0</ele><time>2026-04-19T07:07:49Z</time></trkpt><trkpt lat="36.92254594554901" lon="15.026128634240514"><ele>226.0</ele><time>2026-04-19T07:07:50Z</time></trkpt><trkpt lat="36.922455685407705" lon="15.0262385003342"><ele>230.33333333333331</ele><time>2026-04-19T07:07:51Z</time></trkpt><trkpt lat="36.9223554366046" lon="15.026379869201577"><ele>234.66666666666669</ele><time>2026-04-19T07:07:52Z</time></trkpt><trkpt lat="36.922250120421445" lon="15.026524019298556"><ele>239.0</ele><time>2026-04-19T07:07:53Z</time></trkpt><trkpt lat="36.922149377706475" lon="15.026650316680211"><ele>239.0</ele><time>2026-04-19T07:07:53.999Z</time></trkpt><trkpt lat="36.92205182935626" lon="15.026769729509951"><ele>239.0</ele><time>2026-04-19T07:07:54.999Z</time></trkpt><trkpt lat="36.921949609341276" lon="15.026870582204362"><ele>239.0</ele><time>2026-04-19T07:07:55.999Z</time></trkpt><trkpt lat="36.921881362156775" lon="15.027003914118097"><ele>239.0</ele><time>2026-04-19T07:07:56.999Z</time></trkpt><trkpt lat="36.92180668374234" lon="15.027115794670278"><ele>237.75</ele><time>2026-04-19T07:07:57.999Z</time></trkpt><trkpt lat="36.92170599775473" lon="15.02719370883288"><ele>236.5</ele><time>2026-04-19T07:07:58.999Z</time></trkpt><trkpt lat="36.92159426438619" lon="15.027275062432587"><ele>235.25</ele><time>2026-04-19T07:07:59.999Z</time></trkpt><trkpt lat="36.92146169243355" lon="15.027378284535146"><ele>234.0</ele><time>2026-04-19T07:08:01Z</time></trkpt><trkpt lat="36.921354322741394" lon="15.027474044054218"><ele>232.25</ele><time>2026-04-19T07:08:02Z</time></trkpt><trkpt lat="36.921249285200595" lon="15.02755843269646"><ele>230.5</ele><time>2026-04-19T07:08:03Z</time></trkpt><trkpt lat="36.92112819507967" lon="15.027635013995898"><ele>228.75</ele><time>2026-04-19T07:08:04Z</time></trkpt><trkpt lat="36.92099346119779" lon="15.027695512743884"><ele>227.0</ele><time>2026-04-19T07:08:05Z</time></trkpt><trkpt lat="36.9208776622648" lon="15.02775933567702"><ele>226.25</ele><time>2026-04-19T07:08:06Z</time></trkpt><trkpt lat="36.920755344203315" lon="15.027822679653793"><ele>225.5</ele><time>2026-04-19T07:08:07Z</time></trkpt><trkpt lat="36.920630634153866" lon="15.027886804412175"><ele>224.75</ele><time>2026-04-19T07:08:08Z</time></trkpt><trkpt lat="36.92052122098166" lon="15.027936377703076"><ele>224.0</ele><time>2026-04-19T07:08:09Z</time></trkpt><trkpt lat="36.920432766387265" lon="15.027974409182772"><ele>224.0</ele><time>2026-04-19T07:08:10Z</time></trkpt><trkpt lat="36.920337860178826" lon="15.027982485190071"><ele>223.99999999999997</ele><time>2026-04-19T07:08:11Z</time></trkpt><trkpt lat="36.92022784170455" lon="15.027981908804902"><ele>223.99999999999997</ele><time>2026-04-19T07:08:12Z</time></trkpt><trkpt lat="36.92011359976495" lon="15.027974907997839"><ele>224.0</ele><time>2026-04-19T07:08:13Z</time></trkpt><trkpt lat="36.91999184404762" lon="15.027953358507604"><ele>224.0</ele><time>2026-04-19T07:08:14Z</time></trkpt><trkpt lat="36.919861537812274" lon="15.02789359892733"><ele>224.25</ele><time>2026-04-19T07:08:15Z</time></trkpt><trkpt lat="36.91972188791381" lon="15.027833692745332"><ele>224.5</ele><time>2026-04-19T07:08:16Z</time></trkpt><trkpt lat="36.91959595910887" lon="15.027778146802381"><ele>224.75</ele><time>2026-04-19T07:08:17Z</time></trkpt><trkpt lat="36.919469094222606" lon="15.02775368844194"><ele>225.0</ele><time>2026-04-19T07:08:18Z</time></trkpt><trkpt lat="36.919323360593744" lon="15.027791759533434"><ele>225.33333333333331</ele><time>2026-04-19T07:08:19Z</time></trkpt><trkpt lat="36.919180356578174" lon="15.027854891550312"><ele>225.66666666666666</ele><time>2026-04-19T07:08:20Z</time></trkpt><trkpt lat="36.91900884629923" lon="15.027885712057566"><ele>226.0</ele><time>2026-04-19T07:08:21Z</time></trkpt><trkpt lat="36.91885293824392" lon="15.027939316749327"><ele>226.0</ele><time>2026-04-19T07:08:22Z</time></trkpt><trkpt lat="36.918705618351396" lon="15.027995326567837"><ele>226.0</ele><time>2026-04-19T07:08:23Z</time></trkpt><trkpt lat="36.91856098380759" lon="15.028052633359483"><ele>226.0</ele><time>2026-04-19T07:08:24Z</time></trkpt><trkpt lat="36.918427244184016" lon="15.028130694162774"><ele>225.0</ele><time>2026-04-19T07:08:25Z</time></trkpt><trkpt lat="36.918295828688095" lon="15.028184747860683"><ele>224.0</ele><time>2026-04-19T07:08:26Z</time></trkpt><trkpt lat="36.918164197236855" lon="15.028190726829015"><ele>223.0</ele><time>2026-04-19T07:08:27Z</time></trkpt><trkpt lat="36.91803697917619" lon="15.028192004080458"><ele>222.0</ele><time>2026-04-19T07:08:28Z</time></trkpt><trkpt lat="36.917915062844635" lon="15.028201680266701"><ele>222.0</ele><time>2026-04-19T07:08:29Z</time></trkpt><trkpt lat="36.917800828176745" lon="15.02825223510384"><ele>222.0</ele><time>2026-04-19T07:08:30Z</time></trkpt><trkpt lat="36.91771730874675" lon="15.02837287221664"><ele>222.0</ele><time>2026-04-19T07:08:31Z</time></trkpt><trkpt lat="36.91760373120659" lon="15.028493453912334"><ele>222.0</ele><time>2026-04-19T07:08:32Z</time></trkpt><trkpt lat="36.91749298064034" lon="15.028608515093987"><ele>216.25</ele><time>2026-04-19T07:08:33Z</time></trkpt><trkpt lat="36.91738228932985" lon="15.028704399200107"><ele>210.5</ele><time>2026-04-19T07:08:34Z</time></trkpt><trkpt lat="36.91727199335594" lon="15.02878814246179"><ele>204.75</ele><time>2026-04-19T07:08:35Z</time></trkpt><trkpt lat="36.91714996745342" lon="15.028864935004046"><ele>199.0</ele><time>2026-04-19T07:08:36Z</time></trkpt><trkpt lat="36.917009992081525" lon="15.028946816237433"><ele>199.0</ele><time>2026-04-19T07:08:37Z</time></trkpt><trkpt lat="36.91688046807682" lon="15.029022510178363"><ele>199.0</ele><time>2026-04-19T07:08:38Z</time></trkpt><trkpt lat="36.916766111317" lon="15.029096169825005"><ele>199.0</ele><time>2026-04-19T07:08:39Z</time></trkpt><trkpt lat="36.916656305889894" lon="15.02916875643249"><ele>199.0</ele><time>2026-04-19T07:08:40Z</time></trkpt><trkpt lat="36.91653427305729" lon="15.029204603809317"><ele>195.5</ele><time>2026-04-19T07:08:41Z</time></trkpt><trkpt lat="36.91639043747517" lon="15.029253907749558"><ele>192.0</ele><time>2026-04-19T07:08:42Z</time></trkpt><trkpt lat="36.916258195560786" lon="15.02929545335865"><ele>188.5</ele><time>2026-04-19T07:08:43Z</time></trkpt><trkpt lat="36.91614908955522" lon="15.029349343194687"><ele>185.0</ele><time>2026-04-19T07:08:44Z</time></trkpt><trkpt lat="36.916056770585534" lon="15.029398270482138"><ele>185.0</ele><time>2026-04-19T07:08:45Z</time></trkpt><trkpt lat="36.91596648034111" lon="15.029443635403839"><ele>185.0</ele><time>2026-04-19T07:08:46Z</time></trkpt><trkpt lat="36.9158812878057" lon="15.029507810482515"><ele>185.0</ele><time>2026-04-19T07:08:47Z</time></trkpt><trkpt lat="36.9157942074748" lon="15.029584869047381"><ele>185.0</ele><time>2026-04-19T07:08:48Z</time></trkpt><trkpt lat="36.91572423288332" lon="15.029658146257365"><ele>185.0</ele><time>2026-04-19T07:08:49Z</time></trkpt><trkpt lat="36.9156634429941" lon="15.02974626472326"><ele>185.0</ele><time>2026-04-19T07:08:50Z</time></trkpt><trkpt lat="36.91558471182212" lon="15.029843901792248"><ele>185.0</ele><time>2026-04-19T07:08:51Z</time></trkpt><trkpt lat="36.91550285681889" lon="15.029955166974407"><ele>185.0</ele><time>2026-04-19T07:08:52Z</time></trkpt><trkpt lat="36.91541896319578" lon="15.030060945962758"><ele>185.0</ele><time>2026-04-19T07:08:53Z</time></trkpt><trkpt lat="36.91534284998106" lon="15.03016988131829"><ele>182.5</ele><time>2026-04-19T07:08:54Z</time></trkpt><trkpt lat="36.9152628536997" lon="15.030274368008138"><ele>180.0</ele><time>2026-04-19T07:08:55Z</time></trkpt><trkpt lat="36.91518115229948" lon="15.030409482801755"><ele>177.5</ele><time>2026-04-19T07:08:56Z</time></trkpt><trkpt lat="36.91511423112014" lon="15.030550865174229"><ele>175.0</ele><time>2026-04-19T07:08:57Z</time></trkpt><trkpt lat="36.915038257543614" lon="15.030668595879654"><ele>175.0</ele><time>2026-04-19T07:08:58Z</time></trkpt><trkpt lat="36.91495492275886" lon="15.030790765825737"><ele>175.0</ele><time>2026-04-19T07:08:59Z</time></trkpt><trkpt lat="36.91486670965844" lon="15.030899883213502"><ele>175.0</ele><time>2026-04-19T07:09:00Z</time></trkpt><trkpt lat="36.914757078324335" lon="15.03097193551589"><ele>175.0</ele><time>2026-04-19T07:09:01Z</time></trkpt><trkpt lat="36.91466690000769" lon="15.031047122737993"><ele>173.0</ele><time>2026-04-19T07:09:02Z</time></trkpt><trkpt lat="36.91459098422751" lon="15.031110417154999"><ele>171.0</ele><time>2026-04-19T07:09:03Z</time></trkpt><trkpt lat="36.91452809809234" lon="15.031165159560715"><ele>169.0</ele><time>2026-04-19T07:09:04Z</time></trkpt><trkpt lat="36.914463681969366" lon="15.031230691246822"><ele>167.0</ele><time>2026-04-19T07:09:05Z</time></trkpt><trkpt lat="36.9144186299565" lon="15.031294434708213"><ele>165.0</ele><time>2026-04-19T07:09:06Z</time></trkpt><trkpt lat="36.91437998376887" lon="15.031421325370706"><ele>163.0</ele><time>2026-04-19T07:09:08Z</time></trkpt><trkpt lat="36.91437333016388" lon="15.031530917914713"><ele>163.0</ele><time>2026-04-19T07:09:10Z</time></trkpt><trkpt lat="36.914404677718444" lon="15.031615765841629"><ele>163.0</ele><time>2026-04-19T07:09:12Z</time></trkpt><trkpt lat="36.91442328294407" lon="15.031771132840264"><ele>163.0</ele><time>2026-04-19T07:09:14Z</time></trkpt><trkpt lat="36.91443864212471" lon="15.031851891520251"><ele>163.0</ele><time>2026-04-19T07:09:16Z</time></trkpt><trkpt lat="36.914452188455876" lon="15.031994879431576"><ele>163.0</ele><time>2026-04-19T07:09:35Z</time></trkpt><trkpt lat="36.914469274883416" lon="15.032096517472214"><ele>163.0</ele><time>2026-04-19T07:09:36Z</time></trkpt><trkpt lat="36.91448690505594" lon="15.032208482764792"><ele>163.0</ele><time>2026-04-19T07:09:37Z</time></trkpt><trkpt lat="36.91448929016565" lon="15.032311297191468"><ele>163.0</ele><time>2026-04-19T07:09:38Z</time></trkpt><trkpt lat="36.91446651212628" lon="15.03239787012374"><ele>163.0</ele><time>2026-04-19T07:09:39Z</time></trkpt><trkpt lat="36.91441683818084" lon="15.032475456242958"><ele>163.0</ele><time>2026-04-19T07:09:40Z</time></trkpt><trkpt lat="36.91431797952852" lon="15.032518908791426"><ele>163.0</ele><time>2026-04-19T07:09:41Z</time></trkpt><trkpt lat="36.91423866150924" lon="15.032633004999044"><ele>162.33333333333334</ele><time>2026-04-19T07:09:42Z</time></trkpt><trkpt lat="36.91413136171269" lon="15.032755625147994"><ele>161.66666666666666</ele><time>2026-04-19T07:09:43Z</time></trkpt><trkpt lat="36.913995705916925" lon="15.032914546097606"><ele>161.0</ele><time>2026-04-19T07:09:44Z</time></trkpt><trkpt lat="36.91381480371816" lon="15.033055814477956"><ele>161.0</ele><time>2026-04-19T07:09:45Z</time></trkpt><trkpt lat="36.91368024468755" lon="15.033238029486116"><ele>161.0</ele><time>2026-04-19T07:09:46Z</time></trkpt><trkpt lat="36.913552119021055" lon="15.033375687723364"><ele>161.0</ele><time>2026-04-19T07:09:47Z</time></trkpt><trkpt lat="36.91344010231393" lon="15.033543794953484"><ele>163.0</ele><time>2026-04-19T07:09:48Z</time></trkpt><trkpt lat="36.91331929227233" lon="15.03370257526297"><ele>165.0</ele><time>2026-04-19T07:09:49Z</time></trkpt><trkpt lat="36.913191775837184" lon="15.033810631556495"><ele>167.0</ele><time>2026-04-19T07:09:50Z</time></trkpt><trkpt lat="36.91308540691753" lon="15.033945983387879"><ele>167.0</ele><time>2026-04-19T07:09:51Z</time></trkpt><trkpt lat="36.912971884854414" lon="15.034069027797427"><ele>167.0</ele><time>2026-04-19T07:09:51.999Z</time></trkpt><trkpt lat="36.91287119411403" lon="15.03419283616021"><ele>167.0</ele><time>2026-04-19T07:09:52.999Z</time></trkpt><trkpt lat="36.9127753135696" lon="15.03432187707363"><ele>167.0</ele><time>2026-04-19T07:09:53.999Z</time></trkpt><trkpt lat="36.912688105695686" lon="15.034454515868191"><ele>166.75</ele><time>2026-04-19T07:09:54.999Z</time></trkpt><trkpt lat="36.912607956791554" lon="15.034573390186706"><ele>166.5</ele><time>2026-04-19T07:09:55.999Z</time></trkpt><trkpt lat="36.912528254857136" lon="15.034685371575137"><ele>166.25</ele><time>2026-04-19T07:09:56.999Z</time></trkpt><trkpt lat="36.91244800308434" lon="15.034785602772626"><ele>166.0</ele><time>2026-04-19T07:09:57.999Z</time></trkpt><trkpt lat="36.912349334763604" lon="15.034893458625088"><ele>171.0</ele><time>2026-04-19T07:09:58.999Z</time></trkpt><trkpt lat="36.91224128992741" lon="15.03500542182074"><ele>176.0</ele><time>2026-04-19T07:09:59.999Z</time></trkpt><trkpt lat="36.912117367327646" lon="15.035129507893885"><ele>181.0</ele><time>2026-04-19T07:10:00.999Z</time></trkpt><trkpt lat="36.911984038644576" lon="15.035258528797252"><ele>181.0</ele><time>2026-04-19T07:10:01.999Z</time></trkpt><trkpt lat="36.911863955024394" lon="15.035375313810471"><ele>181.0</ele><time>2026-04-19T07:10:02.999Z</time></trkpt><trkpt lat="36.91174640812193" lon="15.035489664579524"><ele>181.0</ele><time>2026-04-19T07:10:03.999Z</time></trkpt><trkpt lat="36.911626785176935" lon="15.035616063841747"><ele>180.0</ele><time>2026-04-19T07:10:04.999Z</time></trkpt><trkpt lat="36.91151862881655" lon="15.035747848655252"><ele>179.0</ele><time>2026-04-19T07:10:05.999Z</time></trkpt><trkpt lat="36.9114120097967" lon="15.035877393787866"><ele>178.0</ele><time>2026-04-19T07:10:07Z</time></trkpt><trkpt lat="36.91129837967673" lon="15.036004829258475"><ele>178.0</ele><time>2026-04-19T07:10:08Z</time></trkpt><trkpt lat="36.91119345075806" lon="15.036118368295284"><ele>178.0</ele><time>2026-04-19T07:10:09Z</time></trkpt><trkpt lat="36.911098228031385" lon="15.03622469686346"><ele>178.0</ele><time>2026-04-19T07:10:10Z</time></trkpt><trkpt lat="36.91099525310585" lon="15.036303708659002"><ele>178.0</ele><time>2026-04-19T07:10:11Z</time></trkpt><trkpt lat="36.91091375990286" lon="15.036392880310352"><ele>176.8</ele><time>2026-04-19T07:10:12Z</time></trkpt><trkpt lat="36.91084972299636" lon="15.036485855432277"><ele>175.60000000000002</ele><time>2026-04-19T07:10:13Z</time></trkpt><trkpt lat="36.91076910859415" lon="15.036566241461236"><ele>174.39999999999998</ele><time>2026-04-19T07:10:14Z</time></trkpt><trkpt lat="36.91068639514712" lon="15.036673644681528"><ele>173.2</ele><time>2026-04-19T07:10:15Z</time></trkpt><trkpt lat="36.91061502142683" lon="15.036803365371744"><ele>172.0</ele><time>2026-04-19T07:10:16Z</time></trkpt><trkpt lat="36.91057011167272" lon="15.036936204021542"><ele>172.0</ele><time>2026-04-19T07:10:17Z</time></trkpt><trkpt lat="36.91052937290638" lon="15.037068488197106"><ele>172.0</ele><time>2026-04-19T07:10:18Z</time></trkpt><trkpt lat="36.91048492357754" lon="15.03720729389786"><ele>172.0</ele><time>2026-04-19T07:10:19Z</time></trkpt><trkpt lat="36.910436792943884" lon="15.03737157378343"><ele>172.0</ele><time>2026-04-19T07:10:20Z</time></trkpt><trkpt lat="36.910391854127425" lon="15.037530692449081"><ele>172.6</ele><time>2026-04-19T07:10:21Z</time></trkpt><trkpt lat="36.9103513595457" lon="15.037671178849806"><ele>173.2</ele><time>2026-04-19T07:10:22Z</time></trkpt><trkpt lat="36.91031324168521" lon="15.03780424830342"><ele>173.8</ele><time>2026-04-19T07:10:23Z</time></trkpt><trkpt lat="36.9102765377639" lon="15.037932453518858"><ele>174.4</ele><time>2026-04-19T07:10:24Z</time></trkpt><trkpt lat="36.910240245756185" lon="15.038058092559234"><ele>175.0</ele><time>2026-04-19T07:10:25Z</time></trkpt><trkpt lat="36.9102042643093" lon="15.038178203195091"><ele>175.0</ele><time>2026-04-19T07:10:26Z</time></trkpt><trkpt lat="36.91017247885161" lon="15.038283945092859"><ele>175.0</ele><time>2026-04-19T07:10:27Z</time></trkpt><trkpt lat="36.91014163562947" lon="15.038376699718967"><ele>175.0</ele><time>2026-04-19T07:10:28Z</time></trkpt><trkpt lat="36.91011694794194" lon="15.038455921243624"><ele>175.0</ele><time>2026-04-19T07:10:29Z</time></trkpt><trkpt lat="36.910080799503994" lon="15.038562602819999"><ele>175.0</ele><time>2026-04-19T07:10:31Z</time></trkpt><trkpt lat="36.91021566812903" lon="15.038644122757391"><ele>175.0</ele><time>2026-04-19T07:10:33Z</time></trkpt><trkpt lat="36.91028160643636" lon="15.038655654054967"><ele>175.0</ele><time>2026-04-19T07:10:34Z</time></trkpt><trkpt lat="36.91036139774757" lon="15.038660586427254"><ele>175.0</ele><time>2026-04-19T07:10:36Z</time></trkpt><trkpt lat="36.910377569510096" lon="15.038517950285966"><ele>175.0</ele><time>2026-04-19T07:10:38Z</time></trkpt><trkpt lat="36.91037831693582" lon="15.038429752947412"><ele>175.0</ele><time>2026-04-19T07:10:39Z</time></trkpt><trkpt lat="36.91038068675035" lon="15.038338094278405"><ele>175.0</ele><time>2026-04-19T07:10:40Z</time></trkpt><trkpt lat="36.91038930609748" lon="15.038253003380955"><ele>175.0</ele><time>2026-04-19T07:10:41Z</time></trkpt><trkpt lat="36.91039704173292" lon="15.03815271014693"><ele>175.0</ele><time>2026-04-19T07:10:42Z</time></trkpt><trkpt lat="36.91044743051619" lon="15.03802448737264"><ele>175.0</ele><time>2026-04-19T07:10:43Z</time></trkpt><trkpt lat="36.910478397185045" lon="15.037873840946911"><ele>175.0</ele><time>2026-04-19T07:10:44Z</time></trkpt><trkpt lat="36.910480764981216" lon="15.037735637539976"><ele>175.0</ele><time>2026-04-19T07:10:45Z</time></trkpt><trkpt lat="36.91053193563663" lon="15.03761218663929"><ele>175.0</ele><time>2026-04-19T07:10:46Z</time></trkpt><trkpt lat="36.91058500942332" lon="15.037475086810776"><ele>175.0</ele><time>2026-04-19T07:10:47Z</time></trkpt><trkpt lat="36.91064267969454" lon="15.03729922540067"><ele>175.0</ele><time>2026-04-19T07:10:48Z</time></trkpt><trkpt lat="36.91072379615876" lon="15.037118810387636"><ele>175.0</ele><time>2026-04-19T07:10:49Z</time></trkpt><trkpt lat="36.910824625658016" lon="15.036953042567106"><ele>175.75</ele><time>2026-04-19T07:10:50Z</time></trkpt><trkpt lat="36.91091300191047" lon="15.036803739679014"><ele>176.5</ele><time>2026-04-19T07:10:51Z</time></trkpt><trkpt lat="36.91098399200563" lon="15.03666085757695"><ele>177.25</ele><time>2026-04-19T07:10:52Z</time></trkpt><trkpt lat="36.91105241298755" lon="15.036559943962056"><ele>178.0</ele><time>2026-04-19T07:10:53Z</time></trkpt><trkpt lat="36.91111130715766" lon="15.036486801053504"><ele>178.0</ele><time>2026-04-19T07:10:54Z</time></trkpt><trkpt lat="36.9111957537327" lon="15.03644797760214"><ele>178.0</ele><time>2026-04-19T07:10:55Z</time></trkpt><trkpt lat="36.911292872017846" lon="15.036373203197744"><ele>178.0</ele><time>2026-04-19T07:10:56Z</time></trkpt><trkpt lat="36.911409132998195" lon="15.036311018634608"><ele>178.0</ele><time>2026-04-19T07:10:57Z</time></trkpt><trkpt lat="36.91155101074231" lon="15.036219125887476"><ele>178.0</ele><time>2026-04-19T07:10:58Z</time></trkpt><trkpt lat="36.91169747062085" lon="15.036114664073574"><ele>178.0</ele><time>2026-04-19T07:10:59Z</time></trkpt><trkpt lat="36.91182796929442" lon="15.036008023711519"><ele>178.0</ele><time>2026-04-19T07:11:00Z</time></trkpt><trkpt lat="36.911963152615904" lon="15.035876572436273"><ele>178.60000000000002</ele><time>2026-04-19T07:11:01Z</time></trkpt><trkpt lat="36.91208941521094" lon="15.035776585973103"><ele>179.20000000000002</ele><time>2026-04-19T07:11:02Z</time></trkpt><trkpt lat="36.912197584187346" lon="15.03570473525827"><ele>179.8</ele><time>2026-04-19T07:11:03Z</time></trkpt><trkpt lat="36.912274778648616" lon="15.03568701064761"><ele>180.4</ele><time>2026-04-19T07:11:04Z</time></trkpt><trkpt lat="36.91223439365674" lon="15.035799492690591"><ele>181.0</ele><time>2026-04-19T07:11:09Z</time></trkpt><trkpt lat="36.91217953450232" lon="15.035866669029947"><ele>187.5</ele><time>2026-04-19T07:11:10Z</time></trkpt><trkpt lat="36.91211488505252" lon="15.03596809106922"><ele>194.0</ele><time>2026-04-19T07:11:11Z</time></trkpt><trkpt lat="36.91202561831018" lon="15.036078405051123"><ele>200.5</ele><time>2026-04-19T07:11:12Z</time></trkpt><trkpt lat="36.911936375349676" lon="15.03622505129435"><ele>207.0</ele><time>2026-04-19T07:11:13Z</time></trkpt><trkpt lat="36.911843990005096" lon="15.036390903570544"><ele>207.0</ele><time>2026-04-19T07:11:14Z</time></trkpt><trkpt lat="36.9117559742776" lon="15.036564025997167"><ele>207.0</ele><time>2026-04-19T07:11:15Z</time></trkpt><trkpt lat="36.91168546186343" lon="15.036728934318399"><ele>207.0</ele><time>2026-04-19T07:11:16Z</time></trkpt><trkpt lat="36.91164642131477" lon="15.036887912614509"><ele>207.0</ele><time>2026-04-19T07:11:17Z</time></trkpt><trkpt lat="36.91163250971826" lon="15.037057493905534"><ele>207.25</ele><time>2026-04-19T07:11:18Z</time></trkpt><trkpt lat="36.91163855399385" lon="15.037238312032386"><ele>207.5</ele><time>2026-04-19T07:11:19Z</time></trkpt><trkpt lat="36.91166780366041" lon="15.037391157818737"><ele>207.75</ele><time>2026-04-19T07:11:20Z</time></trkpt><trkpt lat="36.91172134776187" lon="15.037524175459048"><ele>208.0</ele><time>2026-04-19T07:11:21Z</time></trkpt><trkpt lat="36.91178410565256" lon="15.037603017122414"><ele>215.5</ele><time>2026-04-19T07:11:22Z</time></trkpt><trkpt lat="36.91187367965417" lon="15.037654070617268"><ele>223.0</ele><time>2026-04-19T07:11:23Z</time></trkpt><trkpt lat="36.91199148664765" lon="15.037710215828755"><ele>230.5</ele><time>2026-04-19T07:11:24Z</time></trkpt><trkpt lat="36.912120557714765" lon="15.037762577824523"><ele>238.0</ele><time>2026-04-19T07:11:25Z</time></trkpt><trkpt lat="36.912269126221815" lon="15.037816265138861"><ele>238.0</ele><time>2026-04-19T07:11:26Z</time></trkpt><trkpt lat="36.912431931562374" lon="15.037871463154955"><ele>238.0</ele><time>2026-04-19T07:11:27Z</time></trkpt><trkpt lat="36.91259120789057" lon="15.037912933950077"><ele>238.0</ele><time>2026-04-19T07:11:28Z</time></trkpt><trkpt lat="36.91273590168197" lon="15.0379550228607"><ele>242.5</ele><time>2026-04-19T07:11:29Z</time></trkpt><trkpt lat="36.912855631353295" lon="15.038013575841124"><ele>247.0</ele><time>2026-04-19T07:11:30Z</time></trkpt><trkpt lat="36.91297151421145" lon="15.038062315312835"><ele>251.5</ele><time>2026-04-19T07:11:31Z</time></trkpt><trkpt lat="36.913101427874835" lon="15.03811652337018"><ele>256.0</ele><time>2026-04-19T07:11:32Z</time></trkpt><trkpt lat="36.91322378048714" lon="15.038200264353984"><ele>256.0</ele><time>2026-04-19T07:11:33Z</time></trkpt><trkpt lat="36.91335032547376" lon="15.038285343386356"><ele>256.0</ele><time>2026-04-19T07:11:34Z</time></trkpt><trkpt lat="36.91349002157981" lon="15.038357356581448"><ele>256.0</ele><time>2026-04-19T07:11:35Z</time></trkpt><trkpt lat="36.91364541902915" lon="15.038417541158665"><ele>256.66666666666663</ele><time>2026-04-19T07:11:36Z</time></trkpt><trkpt lat="36.91381292243252" lon="15.03846508127241"><ele>257.3333333333333</ele><time>2026-04-19T07:11:37Z</time></trkpt><trkpt lat="36.913987521817475" lon="15.038495370998621"><ele>258.0</ele><time>2026-04-19T07:11:38Z</time></trkpt><trkpt lat="36.9141704378194" lon="15.038524811726274"><ele>263.0</ele><time>2026-04-19T07:11:39Z</time></trkpt><trkpt lat="36.91435184427865" lon="15.03853987234065"><ele>268.0</ele><time>2026-04-19T07:11:40Z</time></trkpt><trkpt lat="36.914503477428" lon="15.038556512661977"><ele>273.0</ele><time>2026-04-19T07:11:41Z</time></trkpt><trkpt lat="36.91465878748805" lon="15.038577245813258"><ele>273.0</ele><time>2026-04-19T07:11:42Z</time></trkpt><trkpt lat="36.91479785965638" lon="15.038604537580518"><ele>273.0</ele><time>2026-04-19T07:11:42.999Z</time></trkpt><trkpt lat="36.914925708162684" lon="15.038633534010362"><ele>273.0</ele><time>2026-04-19T07:11:43.999Z</time></trkpt><trkpt lat="36.915043195320145" lon="15.038646263074117"><ele>273.0</ele><time>2026-04-19T07:11:44.999Z</time></trkpt><trkpt lat="36.91513860171653" lon="15.038614690980834"><ele>273.0</ele><time>2026-04-19T07:11:45.999Z</time></trkpt><trkpt lat="36.91521387690709" lon="15.038594814489393"><ele>273.0</ele><time>2026-04-19T07:11:46.999Z</time></trkpt><trkpt lat="36.91527650377567" lon="15.038606136083631"><ele>273.0</ele><time>2026-04-19T07:11:47.999Z</time></trkpt><trkpt lat="36.91534401926974" lon="15.038596059254102"><ele>273.0</ele><time>2026-04-19T07:11:48.999Z</time></trkpt><trkpt lat="36.915430829079035" lon="15.038627629620128"><ele>273.0</ele><time>2026-04-19T07:11:49.999Z</time></trkpt><trkpt lat="36.91557504764243" lon="15.038363949088689"><ele>280.0</ele><time>2026-04-19T07:11:50.999Z</time></trkpt><trkpt lat="36.91570753187669" lon="15.038295120915132"><ele>287.0</ele><time>2026-04-19T07:11:51.999Z</time></trkpt><trkpt lat="36.91581164017837" lon="15.038247613127792"><ele>294.0</ele><time>2026-04-19T07:11:52.999Z</time></trkpt><trkpt lat="36.91591459689343" lon="15.038223374973096"><ele>301.0</ele><time>2026-04-19T07:11:53.999Z</time></trkpt><trkpt lat="36.916054797969785" lon="15.038201795927026"><ele>303.3333333333333</ele><time>2026-04-19T07:11:54.999Z</time></trkpt><trkpt lat="36.91622044233409" lon="15.038163358669056"><ele>305.6666666666667</ele><time>2026-04-19T07:11:55.999Z</time></trkpt><trkpt lat="36.91638297241153" lon="15.038117042637609"><ele>308.0</ele><time>2026-04-19T07:11:56.999Z</time></trkpt><trkpt lat="36.916548619440604" lon="15.038076172773964"><ele>308.0</ele><time>2026-04-19T07:11:57.999Z</time></trkpt><trkpt lat="36.916682843883216" lon="15.03804813771197"><ele>308.0</ele><time>2026-04-19T07:11:58.999Z</time></trkpt><trkpt lat="36.91680372847977" lon="15.0380417971252"><ele>308.0</ele><time>2026-04-19T07:11:59.999Z</time></trkpt><trkpt lat="36.916915978302285" lon="15.038045852918982"><ele>308.0</ele><time>2026-04-19T07:12:00.999Z</time></trkpt><trkpt lat="36.91701309243967" lon="15.03806376914733"><ele>305.25</ele><time>2026-04-19T07:12:01.999Z</time></trkpt><trkpt lat="36.91708283188975" lon="15.038106482020101"><ele>302.5</ele><time>2026-04-19T07:12:02.999Z</time></trkpt><trkpt lat="36.91715895093876" lon="15.038187689205513"><ele>299.75</ele><time>2026-04-19T07:12:03.999Z</time></trkpt><trkpt lat="36.9172633187311" lon="15.03831761903526"><ele>297.0</ele><time>2026-04-19T07:12:04.999Z</time></trkpt><trkpt lat="36.91737812459161" lon="15.03843544739373"><ele>297.0</ele><time>2026-04-19T07:12:05.999Z</time></trkpt><trkpt lat="36.91748817029731" lon="15.038540963223072"><ele>297.0</ele><time>2026-04-19T07:12:06.999Z</time></trkpt><trkpt lat="36.91759067770732" lon="15.03863981572037"><ele>297.0</ele><time>2026-04-19T07:12:07.999Z</time></trkpt><trkpt lat="36.91767879763504" lon="15.038731689162624"><ele>297.0</ele><time>2026-04-19T07:12:08.999Z</time></trkpt><trkpt lat="36.91776242611333" lon="15.038820470746519"><ele>303.6666666666667</ele><time>2026-04-19T07:12:09.999Z</time></trkpt><trkpt lat="36.91782560927222" lon="15.038885442251475"><ele>310.3333333333333</ele><time>2026-04-19T07:12:10.999Z</time></trkpt><trkpt lat="36.91787820854595" lon="15.038931766186208"><ele>317.0</ele><time>2026-04-19T07:12:11.999Z</time></trkpt><trkpt lat="36.91794650314269" lon="15.038936280495593"><ele>323.66666666666663</ele><time>2026-04-19T07:12:47Z</time></trkpt><trkpt lat="36.91806742326656" lon="15.038981817340787"><ele>330.3333333333333</ele><time>2026-04-19T07:12:49Z</time></trkpt><trkpt lat="36.91814546533841" lon="15.039011557279064"><ele>337.0</ele><time>2026-04-19T07:12:50Z</time></trkpt><trkpt lat="36.91824982344753" lon="15.03904231034754"><ele>337.0</ele><time>2026-04-19T07:12:51Z</time></trkpt><trkpt lat="36.91837142640222" lon="15.039068653756622"><ele>337.0</ele><time>2026-04-19T07:12:52Z</time></trkpt><trkpt lat="36.91852500836787" lon="15.039098323588213"><ele>337.0</ele><time>2026-04-19T07:12:53Z</time></trkpt><trkpt lat="36.918702280616294" lon="15.03913694394489"><ele>330.0</ele><time>2026-04-19T07:12:54Z</time></trkpt><trkpt lat="36.91887316460779" lon="15.03916135587794"><ele>323.0</ele><time>2026-04-19T07:12:55Z</time></trkpt><trkpt lat="36.919054661630845" lon="15.039191656021247"><ele>316.0</ele><time>2026-04-19T07:12:56Z</time></trkpt><trkpt lat="36.919216416717354" lon="15.039220592707933"><ele>322.0</ele><time>2026-04-19T07:12:57Z</time></trkpt><trkpt lat="36.91935102774801" lon="15.039251285032716"><ele>328.0</ele><time>2026-04-19T07:12:58Z</time></trkpt><trkpt lat="36.91945843768465" lon="15.039290425027593"><ele>334.0</ele><time>2026-04-19T07:12:59Z</time></trkpt><trkpt lat="36.91955296593678" lon="15.039363188693562"><ele>340.0</ele><time>2026-04-19T07:13:00Z</time></trkpt><trkpt lat="36.91963901766301" lon="15.039436135108398"><ele>340.0</ele><time>2026-04-19T07:13:01Z</time></trkpt><trkpt lat="36.91972672756457" lon="15.039514432879834"><ele>340.0</ele><time>2026-04-19T07:13:02Z</time></trkpt><trkpt lat="36.91984334514741" lon="15.039610161956942"><ele>340.0</ele><time>2026-04-19T07:13:03Z</time></trkpt><trkpt lat="36.91993856178993" lon="15.03969384576883"><ele>340.0</ele><time>2026-04-19T07:13:04Z</time></trkpt><trkpt lat="36.920011398490466" lon="15.039755404888448"><ele>340.0</ele><time>2026-04-19T07:13:05Z</time></trkpt><trkpt lat="36.92005790799459" lon="15.03981106614637"><ele>340.0</ele><time>2026-04-19T07:13:06Z</time></trkpt><trkpt lat="36.920086862585606" lon="15.039882587871762"><ele>340.0</ele><time>2026-04-19T07:13:08Z</time></trkpt><trkpt lat="36.920151149410835" lon="15.039874177246372"><ele>340.0</ele><time>2026-04-19T07:13:11Z</time></trkpt><trkpt lat="36.92021498255591" lon="15.039849971736992"><ele>340.0</ele><time>2026-04-19T07:13:17Z</time></trkpt><trkpt lat="36.920289046207266" lon="15.039819797242412"><ele>340.0</ele><time>2026-04-19T07:13:20Z</time></trkpt><trkpt lat="36.92038381726117" lon="15.039724334272334"><ele>340.4</ele><time>2026-04-19T07:13:22Z</time></trkpt><trkpt lat="36.92043275516457" lon="15.039647210796726"><ele>340.8</ele><time>2026-04-19T07:13:23Z</time></trkpt><trkpt lat="36.92049132886126" lon="15.039542556941537"><ele>341.20000000000005</ele><time>2026-04-19T07:13:24Z</time></trkpt><trkpt lat="36.92055451893366" lon="15.03942647417185"><ele>341.6</ele><time>2026-04-19T07:13:25Z</time></trkpt><trkpt lat="36.92060288456581" lon="15.039325993737933"><ele>342.0</ele><time>2026-04-19T07:13:26Z</time></trkpt><trkpt lat="36.920666804255426" lon="15.039199846596492"><ele>343.6666666666667</ele><time>2026-04-19T07:13:27Z</time></trkpt><trkpt lat="36.92071618634492" lon="15.039098111976156"><ele>345.3333333333333</ele><time>2026-04-19T07:13:28Z</time></trkpt><trkpt lat="36.920742140216106" lon="15.039007689920808"><ele>347.0</ele><time>2026-04-19T07:13:29Z</time></trkpt><trkpt lat="36.9207522180599" lon="15.038921329281997"><ele>348.66666666666663</ele><time>2026-04-19T07:13:30Z</time></trkpt><trkpt lat="36.920766344341395" lon="15.038806427942006"><ele>350.3333333333333</ele><time>2026-04-19T07:13:31Z</time></trkpt><trkpt lat="36.92079879319005" lon="15.038670714382798"><ele>352.0</ele><time>2026-04-19T07:13:32Z</time></trkpt><trkpt lat="36.92084217172137" lon="15.038529539315885"><ele>352.0</ele><time>2026-04-19T07:13:33Z</time></trkpt><trkpt lat="36.92089719249568" lon="15.038378044198716"><ele>352.0</ele><time>2026-04-19T07:13:34Z</time></trkpt><trkpt lat="36.92097141065515" lon="15.038194189023379"><ele>352.0</ele><time>2026-04-19T07:13:35Z</time></trkpt><trkpt lat="36.92103081786015" lon="15.038061460667292"><ele>352.0</ele><time>2026-04-19T07:13:36Z</time></trkpt><trkpt lat="36.92107888386398" lon="15.037984492148544"><ele>352.0</ele><time>2026-04-19T07:13:37Z</time></trkpt><trkpt lat="36.921137268345916" lon="15.037926075037715"><ele>352.0</ele><time>2026-04-19T07:13:38Z</time></trkpt><trkpt lat="36.92122022128792" lon="15.037867494201594"><ele>352.0</ele><time>2026-04-19T07:13:39Z</time></trkpt><trkpt lat="36.92130185625538" lon="15.037799356095435"><ele>352.0</ele><time>2026-04-19T07:13:40Z</time></trkpt><trkpt lat="36.92137655981662" lon="15.03772941370556"><ele>352.0</ele><time>2026-04-19T07:13:41Z</time></trkpt><trkpt lat="36.92145418859883" lon="15.037661779439697"><ele>352.0</ele><time>2026-04-19T07:13:42Z</time></trkpt><trkpt lat="36.921544505803205" lon="15.037602076301766"><ele>352.0</ele><time>2026-04-19T07:13:43Z</time></trkpt><trkpt lat="36.921646503951834" lon="15.03756240675091"><ele>352.0</ele><time>2026-04-19T07:13:44Z</time></trkpt><trkpt lat="36.921752901994964" lon="15.037545043151962"><ele>352.0</ele><time>2026-04-19T07:13:45Z</time></trkpt><trkpt lat="36.92186299860289" lon="15.037533313043019"><ele>352.0</ele><time>2026-04-19T07:13:46Z</time></trkpt><trkpt lat="36.92198384382689" lon="15.037522461409754"><ele>353.75</ele><time>2026-04-19T07:13:47Z</time></trkpt><trkpt lat="36.92210477143942" lon="15.037511609276649"><ele>355.5</ele><time>2026-04-19T07:13:48Z</time></trkpt><trkpt lat="36.92221606680813" lon="15.037496473794455"><ele>357.25</ele><time>2026-04-19T07:13:48.999Z</time></trkpt><trkpt lat="36.922325347680676" lon="15.037478566416596"><ele>359.0</ele><time>2026-04-19T07:13:49.999Z</time></trkpt><trkpt lat="36.922434707153236" lon="15.03748245978572"><ele>359.0</ele><time>2026-04-19T07:13:50.999Z</time></trkpt><trkpt lat="36.922553763908034" lon="15.037492499876489"><ele>359.0</ele><time>2026-04-19T07:13:51.999Z</time></trkpt><trkpt lat="36.92268231260525" lon="15.037490313328195"><ele>359.0</ele><time>2026-04-19T07:13:52.999Z</time></trkpt><trkpt lat="36.92281747352206" lon="15.037478055731"><ele>359.0</ele><time>2026-04-19T07:13:53.999Z</time></trkpt><trkpt lat="36.92296380978275" lon="15.037455269954282"><ele>358.5</ele><time>2026-04-19T07:13:54.999Z</time></trkpt><trkpt lat="36.92310527502854" lon="15.037436415426223"><ele>358.0</ele><time>2026-04-19T07:13:55.999Z</time></trkpt><trkpt lat="36.92323184236388" lon="15.037421379849459"><ele>357.5</ele><time>2026-04-19T07:13:56.999Z</time></trkpt><trkpt lat="36.92336704557308" lon="15.037405699448048"><ele>357.0</ele><time>2026-04-19T07:13:57.999Z</time></trkpt><trkpt lat="36.92348863219092" lon="15.037398927300702"><ele>357.0</ele><time>2026-04-19T07:13:58.999Z</time></trkpt><trkpt lat="36.923596405445856" lon="15.037398884294511"><ele>357.0</ele><time>2026-04-19T07:13:59.999Z</time></trkpt><trkpt lat="36.923694728557656" lon="15.037397725950715"><ele>357.0</ele><time>2026-04-19T07:14:00.999Z</time></trkpt><trkpt lat="36.923798664548436" lon="15.037399009061481"><ele>357.0</ele><time>2026-04-19T07:14:01.999Z</time></trkpt><trkpt lat="36.92391016504814" lon="15.037406661773055"><ele>357.0</ele><time>2026-04-19T07:14:02.999Z</time></trkpt><trkpt lat="36.92402230258933" lon="15.037419666693335"><ele>357.0</ele><time>2026-04-19T07:14:03.999Z</time></trkpt><trkpt lat="36.92413526293365" lon="15.037427820513791"><ele>357.0</ele><time>2026-04-19T07:14:04.999Z</time></trkpt><trkpt lat="36.924245505913696" lon="15.037431278827041"><ele>357.0</ele><time>2026-04-19T07:14:05.999Z</time></trkpt><trkpt lat="36.92435105910274" lon="15.037423320464926"><ele>357.0</ele><time>2026-04-19T07:14:06.999Z</time></trkpt><trkpt lat="36.9244630726412" lon="15.037411632166986"><ele>357.0</ele><time>2026-04-19T07:14:07.999Z</time></trkpt><trkpt lat="36.92457624940615" lon="15.037410659357855"><ele>357.6</ele><time>2026-04-19T07:14:08.999Z</time></trkpt><trkpt lat="36.92468961657489" lon="15.037401033014145"><ele>358.20000000000005</ele><time>2026-04-19T07:14:09.999Z</time></trkpt><trkpt lat="36.92480070409641" lon="15.037387954612495"><ele>358.8</ele><time>2026-04-19T07:14:10.999Z</time></trkpt><trkpt lat="36.92490636477531" lon="15.037363821453733"><ele>359.4</ele><time>2026-04-19T07:14:11.999Z</time></trkpt><trkpt lat="36.925018568645996" lon="15.03732982693842"><ele>360.0</ele><time>2026-04-19T07:14:12.999Z</time></trkpt><trkpt lat="36.92512207513276" lon="15.037297542227819"><ele>360.0</ele><time>2026-04-19T07:14:13.999Z</time></trkpt><trkpt lat="36.92521812414747" lon="15.037261303530004"><ele>360.0</ele><time>2026-04-19T07:14:14.999Z</time></trkpt><trkpt lat="36.925324724644824" lon="15.037214741042739"><ele>360.0</ele><time>2026-04-19T07:14:15.999Z</time></trkpt><trkpt lat="36.925430983123256" lon="15.037158578101915"><ele>360.0</ele><time>2026-04-19T07:14:16.999Z</time></trkpt><trkpt lat="36.925532107103635" lon="15.03710056503826"><ele>360.0</ele><time>2026-04-19T07:14:17.999Z</time></trkpt><trkpt lat="36.92563092466776" lon="15.037034936721541"><ele>360.0</ele><time>2026-04-19T07:14:19Z</time></trkpt><trkpt lat="36.92572133754326" lon="15.036972950349117"><ele>360.0</ele><time>2026-04-19T07:14:20Z</time></trkpt><trkpt lat="36.92582004331687" lon="15.036895542132752"><ele>360.0</ele><time>2026-04-19T07:14:21Z</time></trkpt><trkpt lat="36.92590441185767" lon="15.036825052246513"><ele>360.0</ele><time>2026-04-19T07:14:22Z</time></trkpt><trkpt lat="36.92598587876568" lon="15.03675739115834"><ele>360.0</ele><time>2026-04-19T07:14:23Z</time></trkpt><trkpt lat="36.92608998393724" lon="15.036671531652507"><ele>360.5</ele><time>2026-04-19T07:14:24Z</time></trkpt><trkpt lat="36.92618313795168" lon="15.036595599700096"><ele>361.0</ele><time>2026-04-19T07:14:25Z</time></trkpt><trkpt lat="36.926280889681664" lon="15.036527837730723"><ele>361.5</ele><time>2026-04-19T07:14:26Z</time></trkpt><trkpt lat="36.92638892045313" lon="15.03646795429388"><ele>362.0</ele><time>2026-04-19T07:14:27Z</time></trkpt><trkpt lat="36.92650623091187" lon="15.036404054799648"><ele>362.0</ele><time>2026-04-19T07:14:28Z</time></trkpt><trkpt lat="36.926643876091475" lon="15.036316071654026"><ele>362.0</ele><time>2026-04-19T07:14:29Z</time></trkpt><trkpt lat="36.92677338435807" lon="15.036223403621792"><ele>362.0</ele><time>2026-04-19T07:14:30Z</time></trkpt><trkpt lat="36.92688538587331" lon="15.036161590311623"><ele>362.0</ele><time>2026-04-19T07:14:31Z</time></trkpt><trkpt lat="36.92699783556109" lon="15.036117279556544"><ele>362.0</ele><time>2026-04-19T07:14:32Z</time></trkpt><trkpt lat="36.92711346436187" lon="15.036074006094331"><ele>362.0</ele><time>2026-04-19T07:14:33Z</time></trkpt><trkpt lat="36.9272275370013" lon="15.03601671854507"><ele>362.0</ele><time>2026-04-19T07:14:34Z</time></trkpt><trkpt lat="36.92735172673549" lon="15.035943072692891"><ele>362.0</ele><time>2026-04-19T07:14:35Z</time></trkpt><trkpt lat="36.927478520200225" lon="15.03587463736477"><ele>362.0</ele><time>2026-04-19T07:14:36Z</time></trkpt><trkpt lat="36.92761757378907" lon="15.03579273178545"><ele>362.0</ele><time>2026-04-19T07:14:37Z</time></trkpt><trkpt lat="36.92775426480899" lon="15.03571233762787"><ele>362.0</ele><time>2026-04-19T07:14:38Z</time></trkpt><trkpt lat="36.92788097540673" lon="15.035645121459076"><ele>362.0</ele><time>2026-04-19T07:14:39Z</time></trkpt><trkpt lat="36.92801644537116" lon="15.035602261659596"><ele>362.0</ele><time>2026-04-19T07:14:40Z</time></trkpt><trkpt lat="36.92811761548373" lon="15.03553506455233"><ele>362.0</ele><time>2026-04-19T07:14:41Z</time></trkpt><trkpt lat="36.928234156200936" lon="15.035474798297143"><ele>362.0</ele><time>2026-04-19T07:14:42Z</time></trkpt><trkpt lat="36.92837273814474" lon="15.035401413686316"><ele>362.0</ele><time>2026-04-19T07:14:43Z</time></trkpt><trkpt lat="36.92850463119932" lon="15.035328965844965"><ele>362.5</ele><time>2026-04-19T07:14:44Z</time></trkpt><trkpt lat="36.92862038915221" lon="15.035265380871785"><ele>363.0</ele><time>2026-04-19T07:14:45Z</time></trkpt><trkpt lat="36.92873552585226" lon="15.03520196300189"><ele>363.5</ele><time>2026-04-19T07:14:46Z</time></trkpt><trkpt lat="36.928834879903214" lon="15.03514578418866"><ele>364.0</ele><time>2026-04-19T07:14:47Z</time></trkpt><trkpt lat="36.92892608059111" lon="15.03509161651175"><ele>364.0</ele><time>2026-04-19T07:14:48Z</time></trkpt><trkpt lat="36.92900055322611" lon="15.03502676880378"><ele>364.0</ele><time>2026-04-19T07:14:49Z</time></trkpt><trkpt lat="36.929089804194575" lon="15.03499875005768"><ele>364.0</ele><time>2026-04-19T07:14:50Z</time></trkpt><trkpt lat="36.92917901284901" lon="15.034952103349035"><ele>364.0</ele><time>2026-04-19T07:14:51Z</time></trkpt><trkpt lat="36.92924944099998" lon="15.034909437182197"><ele>364.0</ele><time>2026-04-19T07:14:52Z</time></trkpt><trkpt lat="36.92930922304509" lon="15.034864372947528"><ele>364.0</ele><time>2026-04-19T07:14:53Z</time></trkpt><trkpt lat="36.929351769301185" lon="15.03480436186245"><ele>363.6</ele><time>2026-04-19T07:14:54Z</time></trkpt><trkpt lat="36.929396229608976" lon="15.034747722372666"><ele>363.2</ele><time>2026-04-19T07:14:55Z</time></trkpt><trkpt lat="36.929484261231636" lon="15.034677912632764"><ele>362.8</ele><time>2026-04-19T07:14:56Z</time></trkpt><trkpt lat="36.92957368655991" lon="15.034588589022528"><ele>362.40000000000003</ele><time>2026-04-19T07:14:57Z</time></trkpt><trkpt lat="36.92965117663415" lon="15.034509503276107"><ele>362.0</ele><time>2026-04-19T07:14:58Z</time></trkpt><trkpt lat="36.92972869555231" lon="15.034428079587325"><ele>362.0</ele><time>2026-04-19T07:14:59Z</time></trkpt><trkpt lat="36.929790848779874" lon="15.034331805106765"><ele>362.0</ele><time>2026-04-19T07:15:00Z</time></trkpt><trkpt lat="36.929865925261225" lon="15.034247750391895"><ele>362.0</ele><time>2026-04-19T07:15:01Z</time></trkpt><trkpt lat="36.92994863023955" lon="15.034149079840953"><ele>362.0</ele><time>2026-04-19T07:15:02Z</time></trkpt><trkpt lat="36.93002508278516" lon="15.034058971775927"><ele>362.0</ele><time>2026-04-19T07:15:03Z</time></trkpt><trkpt lat="36.93009626753312" lon="15.033976152683383"><ele>361.20000000000005</ele><time>2026-04-19T07:15:04Z</time></trkpt><trkpt lat="36.93015990308464" lon="15.033910691679893"><ele>360.4</ele><time>2026-04-19T07:15:05Z</time></trkpt><trkpt lat="36.930215975176885" lon="15.03384314430366"><ele>359.6</ele><time>2026-04-19T07:15:06Z</time></trkpt><trkpt lat="36.93027624742909" lon="15.033764655026877"><ele>358.79999999999995</ele><time>2026-04-19T07:15:07Z</time></trkpt><trkpt lat="36.93036467504823" lon="15.03368917674111"><ele>358.0</ele><time>2026-04-19T07:15:08Z</time></trkpt><trkpt lat="36.93044912171568" lon="15.033598717270802"><ele>358.0</ele><time>2026-04-19T07:15:09Z</time></trkpt><trkpt lat="36.93052852024915" lon="15.033518330834532"><ele>358.0</ele><time>2026-04-19T07:15:10Z</time></trkpt><trkpt lat="36.930606774101285" lon="15.033441262932984"><ele>358.0</ele><time>2026-04-19T07:15:11Z</time></trkpt><trkpt lat="36.930683955057546" lon="15.033374736544495"><ele>358.0</ele><time>2026-04-19T07:15:12Z</time></trkpt><trkpt lat="36.93075766150934" lon="15.033312088776944"><ele>358.0</ele><time>2026-04-19T07:15:13Z</time></trkpt><trkpt lat="36.930832842261644" lon="15.033243035496952"><ele>357.66666666666663</ele><time>2026-04-19T07:15:14Z</time></trkpt><trkpt lat="36.93089138615188" lon="15.033175393595979"><ele>357.3333333333333</ele><time>2026-04-19T07:15:15Z</time></trkpt><trkpt lat="36.93092350689817" lon="15.033088595691023"><ele>357.0</ele><time>2026-04-19T07:15:16Z</time></trkpt><trkpt lat="36.93099144694591" lon="15.03302649203065"><ele>356.6666666666667</ele><time>2026-04-19T07:15:17Z</time></trkpt><trkpt lat="36.93105075012067" lon="15.032963255024807"><ele>356.33333333333337</ele><time>2026-04-19T07:15:18Z</time></trkpt><trkpt lat="36.9310902169209" lon="15.032895746393903"><ele>356.0</ele><time>2026-04-19T07:15:19Z</time></trkpt><trkpt lat="36.931171406021456" lon="15.032825069709897"><ele>356.0</ele><time>2026-04-19T07:15:21Z</time></trkpt><trkpt lat="36.931232610256004" lon="15.032780057120577"><ele>356.0</ele><time>2026-04-19T07:17:45Z</time></trkpt><trkpt lat="36.93130987785522" lon="15.032726622721988"><ele>356.0</ele><time>2026-04-19T07:17:46Z</time></trkpt><trkpt lat="36.93140654412951" lon="15.03264938243335"><ele>356.0</ele><time>2026-04-19T07:17:47Z</time></trkpt><trkpt lat="36.931528519522445" lon="15.032601691613907"><ele>356.0</ele><time>2026-04-19T07:17:48Z</time></trkpt><trkpt lat="36.931623064270944" lon="15.032553738133677"><ele>356.6</ele><time>2026-04-19T07:17:49Z</time></trkpt><trkpt lat="36.931729768009625" lon="15.032510127607587"><ele>357.20000000000005</ele><time>2026-04-19T07:17:50Z</time></trkpt><trkpt lat="36.93184679852345" lon="15.032470903942285"><ele>357.79999999999995</ele><time>2026-04-19T07:17:51Z</time></trkpt><trkpt lat="36.93195581059631" lon="15.032443492512872"><ele>358.4</ele><time>2026-04-19T07:17:52Z</time></trkpt><trkpt lat="36.932057553253514" lon="15.032420244146149"><ele>359.0</ele><time>2026-04-19T07:17:53Z</time></trkpt><trkpt lat="36.932147056400694" lon="15.032414404390005"><ele>359.83333333333337</ele><time>2026-04-19T07:17:54Z</time></trkpt><trkpt lat="36.93222006347453" lon="15.032401099874141"><ele>360.6666666666667</ele><time>2026-04-19T07:17:55Z</time></trkpt><trkpt lat="36.932278248705686" lon="15.032369143136437"><ele>361.5</ele><time>2026-04-19T07:17:56Z</time></trkpt><trkpt lat="36.93237200242801" lon="15.032314314009108"><ele>362.3333333333333</ele><time>2026-04-19T07:17:58Z</time></trkpt><trkpt lat="36.93244134122587" lon="15.032289869013299"><ele>363.16666666666663</ele><time>2026-04-19T07:17:59Z</time></trkpt><trkpt lat="36.93251009031152" lon="15.032251302428818"><ele>364.0</ele><time>2026-04-19T07:18:00Z</time></trkpt><trkpt lat="36.9326157781917" lon="15.032192848925604"><ele>365.0</ele><time>2026-04-19T07:18:02Z</time></trkpt><trkpt lat="36.93268156561591" lon="15.032163176527812"><ele>366.0</ele><time>2026-04-19T07:18:03Z</time></trkpt><trkpt lat="36.932802169094046" lon="15.03216282873318"><ele>367.0</ele><time>2026-04-19T07:18:05Z</time></trkpt><trkpt lat="36.93291281397558" lon="15.03214228068819"><ele>368.0</ele><time>2026-04-19T07:18:06.999Z</time></trkpt><trkpt lat="36.93302554179797" lon="15.032096617621033"><ele>369.0</ele><time>2026-04-19T07:18:08.999Z</time></trkpt><trkpt lat="36.93309436337398" lon="15.032058204997838"><ele>369.0</ele><time>2026-04-19T07:18:09.999Z</time></trkpt><trkpt lat="36.933160914224295" lon="15.03203420954073"><ele>369.0</ele><time>2026-04-19T07:18:10.999Z</time></trkpt><trkpt lat="36.93324046819892" lon="15.031962826279738"><ele>369.0</ele><time>2026-04-19T07:18:11.999Z</time></trkpt><trkpt lat="36.93334616448504" lon="15.031859385585411"><ele>369.0</ele><time>2026-04-19T07:18:12.999Z</time></trkpt><trkpt lat="36.93346502609375" lon="15.031746065869203"><ele>368.75</ele><time>2026-04-19T07:18:13.999Z</time></trkpt><trkpt lat="36.933571540217635" lon="15.031643892556032"><ele>368.5</ele><time>2026-04-19T07:18:14.999Z</time></trkpt><trkpt lat="36.93368595951631" lon="15.031529778904838"><ele>368.25</ele><time>2026-04-19T07:18:15.999Z</time></trkpt><trkpt lat="36.933768681571095" lon="15.031416777160723"><ele>368.0</ele><time>2026-04-19T07:18:16.999Z</time></trkpt><trkpt lat="36.9338633956041" lon="15.031344067847039"><ele>367.25</ele><time>2026-04-19T07:18:17.999Z</time></trkpt><trkpt lat="36.93394831605059" lon="15.031259471292293"><ele>366.5</ele><time>2026-04-19T07:18:18.999Z</time></trkpt><trkpt lat="36.93404155010583" lon="15.031169223546105"><ele>365.75</ele><time>2026-04-19T07:18:19.999Z</time></trkpt><trkpt lat="36.93413749642317" lon="15.031079427693125"><ele>365.0</ele><time>2026-04-19T07:18:20.999Z</time></trkpt><trkpt lat="36.93422043049969" lon="15.030995793501953"><ele>365.4</ele><time>2026-04-19T07:18:21.999Z</time></trkpt><trkpt lat="36.93428549452962" lon="15.030912973213852"><ele>365.8</ele><time>2026-04-19T07:18:22.999Z</time></trkpt><trkpt lat="36.93436674382318" lon="15.030879470912794"><ele>366.20000000000005</ele><time>2026-04-19T07:18:23.999Z</time></trkpt><trkpt lat="36.93444556491338" lon="15.030860064710142"><ele>366.6</ele><time>2026-04-19T07:18:24.999Z</time></trkpt><trkpt lat="36.93453685012805" lon="15.03084250316796"><ele>367.0</ele><time>2026-04-19T07:18:25.999Z</time></trkpt><trkpt lat="36.93464676688683" lon="15.030831447299834"><ele>367.0</ele><time>2026-04-19T07:18:26.999Z</time></trkpt><trkpt lat="36.934765867349306" lon="15.030821944566954"><ele>367.0</ele><time>2026-04-19T07:18:27.999Z</time></trkpt><trkpt lat="36.93488564923144" lon="15.030818564130358"><ele>367.0</ele><time>2026-04-19T07:18:28.999Z</time></trkpt><trkpt lat="36.93499857161739" lon="15.030819726729058"><ele>367.0</ele><time>2026-04-19T07:18:29.999Z</time></trkpt><trkpt lat="36.93510087018218" lon="15.030829416203096"><ele>366.5</ele><time>2026-04-19T07:18:31Z</time></trkpt><trkpt lat="36.935207168128734" lon="15.030854861497023"><ele>366.0</ele><time>2026-04-19T07:18:32Z</time></trkpt><trkpt lat="36.93533394330056" lon="15.030915104955907"><ele>365.5</ele><time>2026-04-19T07:18:33Z</time></trkpt><trkpt lat="36.935487579188916" lon="15.03098502090727"><ele>365.0</ele><time>2026-04-19T07:18:34Z</time></trkpt><trkpt lat="36.935641876119945" lon="15.031054696240155"><ele>365.0</ele><time>2026-04-19T07:18:35Z</time></trkpt><trkpt lat="36.93578746469396" lon="15.031118604495349"><ele>365.0</ele><time>2026-04-19T07:18:36Z</time></trkpt><trkpt lat="36.9359294746928" lon="15.031173933168958"><ele>365.0</ele><time>2026-04-19T07:18:37Z</time></trkpt><trkpt lat="36.93606716482458" lon="15.03120924854098"><ele>365.0</ele><time>2026-04-19T07:18:38Z</time></trkpt><trkpt lat="36.93619292611717" lon="15.031219394590146"><ele>365.8</ele><time>2026-04-19T07:18:39Z</time></trkpt><trkpt lat="36.936296829561996" lon="15.031264249535253"><ele>366.6</ele><time>2026-04-19T07:18:40Z</time></trkpt><trkpt lat="36.93639104181215" lon="15.031290358355506"><ele>367.4</ele><time>2026-04-19T07:18:41Z</time></trkpt><trkpt lat="36.93646752307325" lon="15.0312734988494"><ele>368.2</ele><time>2026-04-19T07:18:42Z</time></trkpt><trkpt lat="36.93653274882866" lon="15.031240545217832"><ele>369.0</ele><time>2026-04-19T07:18:44Z</time></trkpt><trkpt lat="36.936588329221934" lon="15.03113757376499"><ele>369.0</ele><time>2026-04-19T07:18:46Z</time></trkpt><trkpt lat="36.936649093685084" lon="15.031047382511726"><ele>369.0</ele><time>2026-04-19T07:18:47Z</time></trkpt><trkpt lat="36.93674383826264" lon="15.030964106298415"><ele>369.0</ele><time>2026-04-19T07:18:48Z</time></trkpt><trkpt lat="36.93681857963798" lon="15.030872134711595"><ele>369.0</ele><time>2026-04-19T07:18:49Z</time></trkpt><trkpt lat="36.93689124874733" lon="15.03081543376036"><ele>369.0</ele><time>2026-04-19T07:18:50Z</time></trkpt><trkpt lat="36.93696552947675" lon="15.030782786537968"><ele>369.79999999999995</ele><time>2026-04-19T07:18:51Z</time></trkpt><trkpt lat="36.93704401710755" lon="15.030784328162545"><ele>370.59999999999997</ele><time>2026-04-19T07:18:52Z</time></trkpt><trkpt lat="36.93713035593332" lon="15.030770313935994"><ele>371.4</ele><time>2026-04-19T07:18:53Z</time></trkpt><trkpt lat="36.93723109841807" lon="15.030741063007932"><ele>372.2</ele><time>2026-04-19T07:18:54Z</time></trkpt><trkpt lat="36.937343340129" lon="15.030703288097682"><ele>373.0</ele><time>2026-04-19T07:18:55Z</time></trkpt><trkpt lat="36.93745073251617" lon="15.03066885901562"><ele>375.75</ele><time>2026-04-19T07:18:56Z</time></trkpt><trkpt lat="36.937564704748866" lon="15.03063916456017"><ele>378.5</ele><time>2026-04-19T07:18:57Z</time></trkpt><trkpt lat="36.93769271500396" lon="15.03060575845643"><ele>381.25</ele><time>2026-04-19T07:18:58Z</time></trkpt><trkpt lat="36.937813507267784" lon="15.030574235956442"><ele>384.0</ele><time>2026-04-19T07:18:59Z</time></trkpt><trkpt lat="36.93793431150152" lon="15.030542710392972"><ele>384.0</ele><time>2026-04-19T07:19:00Z</time></trkpt><trkpt lat="36.938032935220605" lon="15.030513794556486"><ele>384.0</ele><time>2026-04-19T07:19:01Z</time></trkpt><trkpt lat="36.938108770092924" lon="15.030467212888391"><ele>384.0</ele><time>2026-04-19T07:19:02Z</time></trkpt><trkpt lat="36.938216151533524" lon="15.0304090114966"><ele>384.0</ele><time>2026-04-19T07:19:04Z</time></trkpt><trkpt lat="36.9383163356391" lon="15.030335787324217"><ele>384.0</ele><time>2026-04-19T07:19:06Z</time></trkpt><trkpt lat="36.938439076334504" lon="15.030349941736938"><ele>384.75</ele><time>2026-04-19T07:19:08Z</time></trkpt><trkpt lat="36.93852520670056" lon="15.03037631217582"><ele>385.5</ele><time>2026-04-19T07:19:09Z</time></trkpt><trkpt lat="36.93862275068621" lon="15.030343023880588"><ele>386.25</ele><time>2026-04-19T07:19:10Z</time></trkpt><trkpt lat="36.93874004407959" lon="15.030337280359891"><ele>387.0</ele><time>2026-04-19T07:19:11Z</time></trkpt><trkpt lat="36.93888159959418" lon="15.030313853912498"><ele>387.0</ele><time>2026-04-19T07:19:12Z</time></trkpt><trkpt lat="36.93902179089213" lon="15.03028756723706"><ele>387.0</ele><time>2026-04-19T07:19:13Z</time></trkpt><trkpt lat="36.93913479236122" lon="15.030244325860041"><ele>387.0</ele><time>2026-04-19T07:19:14Z</time></trkpt><trkpt lat="36.93922318965353" lon="15.030224255263239"><ele>387.0</ele><time>2026-04-19T07:19:15Z</time></trkpt><trkpt lat="36.93929205531916" lon="15.030238009921462"><ele>387.0</ele><time>2026-04-19T07:19:16Z</time></trkpt><trkpt lat="36.93934034443176" lon="15.030302718425304"><ele>388.6</ele><time>2026-04-19T07:19:18Z</time></trkpt><trkpt lat="36.93943672417142" lon="15.030338191792133"><ele>390.20000000000005</ele><time>2026-04-19T07:19:20Z</time></trkpt><trkpt lat="36.939532045190056" lon="15.030316605065243"><ele>391.8</ele><time>2026-04-19T07:19:22Z</time></trkpt><trkpt lat="36.93961011631121" lon="15.030277833137212"><ele>393.4</ele><time>2026-04-19T07:19:23Z</time></trkpt><trkpt lat="36.9397042760967" lon="15.030219435609638"><ele>395.0</ele><time>2026-04-19T07:19:24Z</time></trkpt><trkpt lat="36.93981582930905" lon="15.030159363597605"><ele>395.0</ele><time>2026-04-19T07:19:25Z</time></trkpt><trkpt lat="36.93994404632287" lon="15.0300903097995"><ele>395.0</ele><time>2026-04-19T07:19:26Z</time></trkpt><trkpt lat="36.94008166376411" lon="15.03002071194"><ele>395.0</ele><time>2026-04-19T07:19:27Z</time></trkpt><trkpt lat="36.940194992040595" lon="15.029955577896652"><ele>395.0</ele><time>2026-04-19T07:19:28Z</time></trkpt><trkpt lat="36.94029893399312" lon="15.029893588157783"><ele>395.2</ele><time>2026-04-19T07:19:29Z</time></trkpt><trkpt lat="36.94039876715828" lon="15.02983815431961"><ele>395.4</ele><time>2026-04-19T07:19:30Z</time></trkpt><trkpt lat="36.94050250230022" lon="15.029786050311623"><ele>395.6</ele><time>2026-04-19T07:19:31Z</time></trkpt><trkpt lat="36.94060278371132" lon="15.029738315564293"><ele>395.8</ele><time>2026-04-19T07:19:32Z</time></trkpt><trkpt lat="36.9406980684281" lon="15.029691438464443"><ele>396.0</ele><time>2026-04-19T07:19:33Z</time></trkpt><trkpt lat="36.940804168808526" lon="15.029630319459457"><ele>396.0</ele><time>2026-04-19T07:19:34Z</time></trkpt><trkpt lat="36.94090432669321" lon="15.029574556128754"><ele>396.0</ele><time>2026-04-19T07:19:35Z</time></trkpt><trkpt lat="36.94098954127288" lon="15.029522458426682"><ele>396.0</ele><time>2026-04-19T07:19:36Z</time></trkpt><trkpt lat="36.9410646141334" lon="15.029453547461808"><ele>396.0</ele><time>2026-04-19T07:19:37Z</time></trkpt><trkpt lat="36.94112486972016" lon="15.02938228052623"><ele>396.0</ele><time>2026-04-19T07:19:38Z</time></trkpt><trkpt lat="36.941181551736406" lon="15.029311708220398"><ele>396.0</ele><time>2026-04-19T07:19:39Z</time></trkpt><trkpt lat="36.94123715711197" lon="15.029246732496162"><ele>396.0</ele><time>2026-04-19T07:19:40Z</time></trkpt><trkpt lat="36.94129190350369" lon="15.029180417916251"><ele>396.0</ele><time>2026-04-19T07:19:41Z</time></trkpt><trkpt lat="36.94137163751016" lon="15.029117772188716"><ele>396.0</ele><time>2026-04-19T07:19:42Z</time></trkpt><trkpt lat="36.94144221901717" lon="15.029025317730895"><ele>396.0</ele><time>2026-04-19T07:19:43Z</time></trkpt><trkpt lat="36.94149271900645" lon="15.028914464549766"><ele>395.6666666666667</ele><time>2026-04-19T07:19:44Z</time></trkpt><trkpt lat="36.94154662242223" lon="15.028825991100536"><ele>395.33333333333337</ele><time>2026-04-19T07:19:45Z</time></trkpt><trkpt lat="36.941596489873135" lon="15.02874059666623"><ele>395.0</ele><time>2026-04-19T07:19:46Z</time></trkpt><trkpt lat="36.941667284308686" lon="15.02868054656704"><ele>394.6666666666667</ele><time>2026-04-19T07:19:47Z</time></trkpt><trkpt lat="36.94173936770143" lon="15.028621059220457"><ele>394.33333333333337</ele><time>2026-04-19T07:19:48Z</time></trkpt><trkpt lat="36.94181218676383" lon="15.028552397448287"><ele>394.0</ele><time>2026-04-19T07:19:49Z</time></trkpt><trkpt lat="36.94187885566284" lon="15.028485803509758"><ele>394.00000000000006</ele><time>2026-04-19T07:19:50Z</time></trkpt><trkpt lat="36.94194543651653" lon="15.028412513857571"><ele>394.0</ele><time>2026-04-19T07:19:51Z</time></trkpt><trkpt lat="36.94199658089288" lon="15.028319828409888"><ele>394.0</ele><time>2026-04-19T07:19:52Z</time></trkpt><trkpt lat="36.94204236707108" lon="15.028240826161069"><ele>394.0</ele><time>2026-04-19T07:19:53Z</time></trkpt><trkpt lat="36.94209263314398" lon="15.028158508880814"><ele>394.00000000000006</ele><time>2026-04-19T07:19:54Z</time></trkpt><trkpt lat="36.942151695263775" lon="15.028056441994927"><ele>394.0</ele><time>2026-04-19T07:19:55Z</time></trkpt><trkpt lat="36.94221242416684" lon="15.027942690549322"><ele>396.0</ele><time>2026-04-19T07:19:56Z</time></trkpt><trkpt lat="36.94227398462685" lon="15.027837986355024"><ele>398.0</ele><time>2026-04-19T07:19:57Z</time></trkpt><trkpt lat="36.942348889130166" lon="15.02776250489735"><ele>400.0</ele><time>2026-04-19T07:19:58Z</time></trkpt><trkpt lat="36.94241479905908" lon="15.027678196200194"><ele>402.0</ele><time>2026-04-19T07:19:59Z</time></trkpt><trkpt lat="36.942479674725455" lon="15.027561641753733"><ele>404.0</ele><time>2026-04-19T07:20:00Z</time></trkpt><trkpt lat="36.942541121296465" lon="15.027487503821371"><ele>404.6</ele><time>2026-04-19T07:20:01Z</time></trkpt><trkpt lat="36.94257572118925" lon="15.027402345523846"><ele>405.2</ele><time>2026-04-19T07:20:02Z</time></trkpt><trkpt lat="36.94260650959418" lon="15.027288994030974"><ele>405.8</ele><time>2026-04-19T07:20:03Z</time></trkpt><trkpt lat="36.94268468893946" lon="15.027202500302899"><ele>406.40000000000003</ele><time>2026-04-19T07:20:04Z</time></trkpt><trkpt lat="36.94273893121577" lon="15.027084788495925"><ele>407.0</ele><time>2026-04-19T07:20:05Z</time></trkpt><trkpt lat="36.94278985472478" lon="15.026983275869819"><ele>407.0</ele><time>2026-04-19T07:20:06Z</time></trkpt><trkpt lat="36.942845454404456" lon="15.02692936613605"><ele>407.0</ele><time>2026-04-19T07:20:07Z</time></trkpt><trkpt lat="36.942906925436326" lon="15.02688346972949"><ele>407.0</ele><time>2026-04-19T07:20:08Z</time></trkpt><trkpt lat="36.942994850232225" lon="15.026810740224592"><ele>407.0</ele><time>2026-04-19T07:20:09Z</time></trkpt><trkpt lat="36.94309176313566" lon="15.02672371323712"><ele>407.0</ele><time>2026-04-19T07:20:10Z</time></trkpt><trkpt lat="36.94317824327183" lon="15.02662883039411"><ele>405.8</ele><time>2026-04-19T07:20:11Z</time></trkpt><trkpt lat="36.94325961719544" lon="15.026532275643449"><ele>404.6</ele><time>2026-04-19T07:20:12Z</time></trkpt><trkpt lat="36.943332086124556" lon="15.02644458341324"><ele>403.40000000000003</ele><time>2026-04-19T07:20:13Z</time></trkpt><trkpt lat="36.94338173903935" lon="15.026357419480046"><ele>402.20000000000005</ele><time>2026-04-19T07:20:14Z</time></trkpt><trkpt lat="36.9434403295585" lon="15.02627727475369"><ele>401.0</ele><time>2026-04-19T07:20:15Z</time></trkpt><trkpt lat="36.94350081182246" lon="15.026175557241503"><ele>400.99999999999994</ele><time>2026-04-19T07:20:16Z</time></trkpt><trkpt lat="36.94358279229998" lon="15.026093228887834"><ele>401.0</ele><time>2026-04-19T07:20:17Z</time></trkpt><trkpt lat="36.94364470786735" lon="15.02601514591565"><ele>401.0</ele><time>2026-04-19T07:20:18Z</time></trkpt><trkpt lat="36.94370531768454" lon="15.025948504422196"><ele>401.0</ele><time>2026-04-19T07:20:19Z</time></trkpt><trkpt lat="36.94376664385498" lon="15.025900714528182"><ele>400.99999999999994</ele><time>2026-04-19T07:20:20Z</time></trkpt><trkpt lat="36.943835365578174" lon="15.025909758276589"><ele>401.0</ele><time>2026-04-19T07:20:21Z</time></trkpt><trkpt lat="36.943915843527115" lon="15.025884811946296"><ele>400.99999999999994</ele><time>2026-04-19T07:20:22Z</time></trkpt><trkpt lat="36.94400794563149" lon="15.025861037669218"><ele>401.0</ele><time>2026-04-19T07:20:22.999Z</time></trkpt><trkpt lat="36.944092086308856" lon="15.02584311046255"><ele>401.0</ele><time>2026-04-19T07:20:23.999Z</time></trkpt><trkpt lat="36.94416303891013" lon="15.02582886999519"><ele>401.0</ele><time>2026-04-19T07:20:24.999Z</time></trkpt><trkpt lat="36.944266397766555" lon="15.025810562525846"><ele>400.99999999999994</ele><time>2026-04-19T07:20:26.999Z</time></trkpt><trkpt lat="36.944333221006275" lon="15.025787808369525"><ele>401.0</ele><time>2026-04-19T07:20:52Z</time></trkpt><trkpt lat="36.944396607123984" lon="15.025807934454622"><ele>401.0</ele><time>2026-04-19T07:21:17Z</time></trkpt><trkpt lat="36.944495252793324" lon="15.025869826247856"><ele>401.0</ele><time>2026-04-19T07:22:01Z</time></trkpt><trkpt lat="36.94456373408695" lon="15.025944706020358"><ele>401.0</ele><time>2026-04-19T07:22:02Z</time></trkpt><trkpt lat="36.94464626291503" lon="15.02602574300234"><ele>401.0</ele><time>2026-04-19T07:22:03Z</time></trkpt><trkpt lat="36.94473443808894" lon="15.02611259003095"><ele>401.0</ele><time>2026-04-19T07:22:04Z</time></trkpt><trkpt lat="36.94483100190934" lon="15.026201548736736"><ele>401.0</ele><time>2026-04-19T07:22:05Z</time></trkpt><trkpt lat="36.944922566741724" lon="15.026288848155973"><ele>401.0</ele><time>2026-04-19T07:22:06Z</time></trkpt><trkpt lat="36.94501388455426" lon="15.026380872192307"><ele>401.0</ele><time>2026-04-19T07:22:07Z</time></trkpt><trkpt lat="36.94510460634817" lon="15.026476480996719"><ele>401.0</ele><time>2026-04-19T07:22:08Z</time></trkpt><trkpt lat="36.94520288481757" lon="15.026579048942226"><ele>403.5</ele><time>2026-04-19T07:22:09Z</time></trkpt><trkpt lat="36.94530573530869" lon="15.026679457059531"><ele>406.0</ele><time>2026-04-19T07:22:10Z</time></trkpt><trkpt lat="36.94540208357248" lon="15.026783830287657"><ele>408.5</ele><time>2026-04-19T07:22:11Z</time></trkpt><trkpt lat="36.94550369346333" lon="15.026882474777238"><ele>411.0</ele><time>2026-04-19T07:22:12Z</time></trkpt><trkpt lat="36.94560395499502" lon="15.026977711431655"><ele>411.0</ele><time>2026-04-19T07:22:13Z</time></trkpt><trkpt lat="36.94569178893621" lon="15.0270663887869"><ele>411.0</ele><time>2026-04-19T07:22:14Z</time></trkpt><trkpt lat="36.94577733585078" lon="15.027140539284247"><ele>411.0</ele><time>2026-04-19T07:22:15Z</time></trkpt><trkpt lat="36.945850893915875" lon="15.027213468701776"><ele>411.0</ele><time>2026-04-19T07:22:16Z</time></trkpt><trkpt lat="36.94595214174754" lon="15.027212521839061"><ele>411.0</ele><time>2026-04-19T07:22:17Z</time></trkpt><trkpt lat="36.946078037614384" lon="15.027206882339781"><ele>411.0</ele><time>2026-04-19T07:22:18Z</time></trkpt><trkpt lat="36.94623359104299" lon="15.02718079530623"><ele>411.0</ele><time>2026-04-19T07:22:19Z</time></trkpt><trkpt lat="36.94639597129547" lon="15.027172642324405"><ele>411.0</ele><time>2026-04-19T07:22:20Z</time></trkpt><trkpt lat="36.94656141430335" lon="15.027167125150699"><ele>410.0</ele><time>2026-04-19T07:22:21Z</time></trkpt><trkpt lat="36.94673744448344" lon="15.027152798649785"><ele>409.0</ele><time>2026-04-19T07:22:22Z</time></trkpt><trkpt lat="36.946923024136716" lon="15.027136482623138"><ele>408.0</ele><time>2026-04-19T07:22:23Z</time></trkpt><trkpt lat="36.947095715149274" lon="15.027127707679051"><ele>408.0</ele><time>2026-04-19T07:22:24Z</time></trkpt><trkpt lat="36.94727432370374" lon="15.027148657950296"><ele>408.0</ele><time>2026-04-19T07:22:25Z</time></trkpt><trkpt lat="36.94745847433511" lon="15.027138007563423"><ele>408.0</ele><time>2026-04-19T07:22:26Z</time></trkpt><trkpt lat="36.9476259454708" lon="15.02712431540793"><ele>408.66666666666663</ele><time>2026-04-19T07:22:27Z</time></trkpt><trkpt lat="36.9477805274479" lon="15.027114316575616"><ele>409.3333333333333</ele><time>2026-04-19T07:22:28Z</time></trkpt><trkpt lat="36.94793281953085" lon="15.027110360340048"><ele>410.0</ele><time>2026-04-19T07:22:29Z</time></trkpt><trkpt lat="36.948084274310716" lon="15.027100058820192"><ele>410.0</ele><time>2026-04-19T07:22:30Z</time></trkpt><trkpt lat="36.948228136164936" lon="15.027088840995134"><ele>410.0</ele><time>2026-04-19T07:22:31Z</time></trkpt><trkpt lat="36.948349172795524" lon="15.027079403010662"><ele>410.0</ele><time>2026-04-19T07:22:32Z</time></trkpt><trkpt lat="36.94846263753752" lon="15.027071732391228"><ele>410.0</ele><time>2026-04-19T07:22:32.999Z</time></trkpt><trkpt lat="36.9485769972708" lon="15.027066214434479"><ele>411.0</ele><time>2026-04-19T07:22:33.999Z</time></trkpt><trkpt lat="36.94867348712001" lon="15.027047176704125"><ele>412.0</ele><time>2026-04-19T07:22:34.999Z</time></trkpt><trkpt lat="36.94875833969444" lon="15.027045375499677"><ele>413.0</ele><time>2026-04-19T07:22:35.999Z</time></trkpt><trkpt lat="36.9488366478216" lon="15.027019823586073"><ele>414.0</ele><time>2026-04-19T07:22:36.999Z</time></trkpt><trkpt lat="36.94891462915111" lon="15.026959205910089"><ele>415.0</ele><time>2026-04-19T07:22:37.999Z</time></trkpt><trkpt lat="36.94899277314797" lon="15.026860359288136"><ele>415.0</ele><time>2026-04-19T07:22:38.999Z</time></trkpt><trkpt lat="36.94909255694888" lon="15.026756634889953"><ele>415.0</ele><time>2026-04-19T07:22:39.999Z</time></trkpt><trkpt lat="36.949178516921855" lon="15.02665146975169"><ele>415.0</ele><time>2026-04-19T07:22:40.999Z</time></trkpt><trkpt lat="36.94924574976272" lon="15.026552837593234"><ele>415.0</ele><time>2026-04-19T07:22:41.999Z</time></trkpt><trkpt lat="36.94932679766042" lon="15.026483297901445"><ele>414.75</ele><time>2026-04-19T07:22:43Z</time></trkpt><trkpt lat="36.94942812579171" lon="15.026457195815633"><ele>414.5</ele><time>2026-04-19T07:22:44Z</time></trkpt><trkpt lat="36.94952861520607" lon="15.026429379988196"><ele>414.25</ele><time>2026-04-19T07:22:45Z</time></trkpt><trkpt lat="36.94966754113803" lon="15.026403622771378"><ele>414.0</ele><time>2026-04-19T07:22:46Z</time></trkpt><trkpt lat="36.94983719911865" lon="15.02637463161502"><ele>414.0</ele><time>2026-04-19T07:22:47Z</time></trkpt><trkpt lat="36.94999023782949" lon="15.026345525191982"><ele>414.0</ele><time>2026-04-19T07:22:48Z</time></trkpt><trkpt lat="36.95009934212307" lon="15.026326935133813"><ele>414.0</ele><time>2026-04-19T07:22:49Z</time></trkpt><trkpt lat="36.950178099621695" lon="15.02631503342666"><ele>414.0</ele><time>2026-04-19T07:22:50Z</time></trkpt><trkpt lat="36.95025736055753" lon="15.026304922799426"><ele>414.0</ele><time>2026-04-19T07:22:52Z</time></trkpt><trkpt lat="36.95032595582601" lon="15.026277478522937"><ele>415.6</ele><time>2026-04-19T07:23:17Z</time></trkpt><trkpt lat="36.95042928700407" lon="15.026284743287885"><ele>417.2</ele><time>2026-04-19T07:23:18Z</time></trkpt><trkpt lat="36.95052635667908" lon="15.026315685557462"><ele>418.8</ele><time>2026-04-19T07:23:19Z</time></trkpt><trkpt lat="36.95057654007634" lon="15.02639189204452"><ele>420.40000000000003</ele><time>2026-04-19T07:23:20Z</time></trkpt><trkpt lat="36.95063270534551" lon="15.026454642598944"><ele>422.0</ele><time>2026-04-19T07:23:23Z</time></trkpt><trkpt lat="36.95071371404079" lon="15.026527505194407"><ele>421.99999999999994</ele><time>2026-04-19T07:23:26Z</time></trkpt><trkpt lat="36.95076836382115" lon="15.0265683565097"><ele>422.0</ele><time>2026-04-19T07:23:27Z</time></trkpt><trkpt lat="36.95084840085946" lon="15.02665846577097"><ele>422.0</ele><time>2026-04-19T07:23:29Z</time></trkpt><trkpt lat="36.950923594710154" lon="15.026705408868624"><ele>422.0</ele><time>2026-04-19T07:23:31Z</time></trkpt><trkpt lat="36.950985598678145" lon="15.02675209610599"><ele>421.99999999999994</ele><time>2026-04-19T07:23:33Z</time></trkpt><trkpt lat="36.951059681632415" lon="15.026813432907323"><ele>422.0</ele><time>2026-04-19T07:23:35Z</time></trkpt><trkpt lat="36.95117520202526" lon="15.026908313083714"><ele>420.8</ele><time>2026-04-19T07:23:37Z</time></trkpt><trkpt lat="36.95124489669637" lon="15.026973505793814"><ele>419.6</ele><time>2026-04-19T07:23:38Z</time></trkpt><trkpt lat="36.951319160579565" lon="15.027059330175474"><ele>418.40000000000003</ele><time>2026-04-19T07:23:39Z</time></trkpt><trkpt lat="36.951396116679966" lon="15.027156142896294"><ele>417.20000000000005</ele><time>2026-04-19T07:23:40Z</time></trkpt><trkpt lat="36.95147528706598" lon="15.027254094520252"><ele>416.0</ele><time>2026-04-19T07:23:41Z</time></trkpt><trkpt lat="36.95155537082253" lon="15.027347031347846"><ele>416.0</ele><time>2026-04-19T07:23:42Z</time></trkpt><trkpt lat="36.9516311094084" lon="15.02744873093089"><ele>416.0</ele><time>2026-04-19T07:23:43Z</time></trkpt><trkpt lat="36.951717576374755" lon="15.027548911732474"><ele>416.0</ele><time>2026-04-19T07:23:44Z</time></trkpt><trkpt lat="36.95178678358224" lon="15.027656829736484"><ele>416.0</ele><time>2026-04-19T07:23:45Z</time></trkpt><trkpt lat="36.95184878551274" lon="15.02776600822938"><ele>416.0</ele><time>2026-04-19T07:23:46Z</time></trkpt><trkpt lat="36.951909725197154" lon="15.027877800134595"><ele>415.5</ele><time>2026-04-19T07:23:47Z</time></trkpt><trkpt lat="36.951957155899926" lon="15.028015193411296"><ele>415.0</ele><time>2026-04-19T07:23:48Z</time></trkpt><trkpt lat="36.95200539538417" lon="15.028166664276249"><ele>414.5</ele><time>2026-04-19T07:23:49Z</time></trkpt><trkpt lat="36.95205165200939" lon="15.028331329149037"><ele>414.0</ele><time>2026-04-19T07:23:50Z</time></trkpt><trkpt lat="36.952089983770946" lon="15.028500588327024"><ele>412.75</ele><time>2026-04-19T07:23:51Z</time></trkpt><trkpt lat="36.952136951826255" lon="15.028680440930057"><ele>411.5</ele><time>2026-04-19T07:23:52Z</time></trkpt><trkpt lat="36.9521651437039" lon="15.028864032442026"><ele>410.25</ele><time>2026-04-19T07:23:53Z</time></trkpt><trkpt lat="36.9521950893307" lon="15.0290312841008"><ele>409.0</ele><time>2026-04-19T07:23:54Z</time></trkpt><trkpt lat="36.95222892006946" lon="15.029197009858882"><ele>408.75</ele><time>2026-04-19T07:23:55Z</time></trkpt><trkpt lat="36.95225988579787" lon="15.029356586643974"><ele>408.5</ele><time>2026-04-19T07:23:56Z</time></trkpt><trkpt lat="36.95229307757386" lon="15.029517871227126"><ele>408.25</ele><time>2026-04-19T07:23:57Z</time></trkpt><trkpt lat="36.95233748006873" lon="15.029674590958487"><ele>408.0</ele><time>2026-04-19T07:23:58Z</time></trkpt><trkpt lat="36.95238583444096" lon="15.029810651634744"><ele>408.0</ele><time>2026-04-19T07:23:59Z</time></trkpt><trkpt lat="36.95243533818291" lon="15.029932375749574"><ele>408.0</ele><time>2026-04-19T07:24:00Z</time></trkpt><trkpt lat="36.95249625892926" lon="15.030027004494187"><ele>408.0</ele><time>2026-04-19T07:24:01Z</time></trkpt><trkpt lat="36.95255931122085" lon="15.030083414035198"><ele>408.0</ele><time>2026-04-19T07:24:02Z</time></trkpt><trkpt lat="36.95263696203401" lon="15.030101652535667"><ele>408.0</ele><time>2026-04-19T07:24:03Z</time></trkpt><trkpt lat="36.9527357126241" lon="15.030096103878682"><ele>407.25</ele><time>2026-04-19T07:24:04Z</time></trkpt><trkpt lat="36.95285627528736" lon="15.030084505097998"><ele>406.5</ele><time>2026-04-19T07:24:05Z</time></trkpt><trkpt lat="36.95298043340708" lon="15.030099624493417"><ele>405.75</ele><time>2026-04-19T07:24:06Z</time></trkpt><trkpt lat="36.95308537134734" lon="15.030145103286186"><ele>405.0</ele><time>2026-04-19T07:24:07Z</time></trkpt><trkpt lat="36.953158498314735" lon="15.03023921727515"><ele>405.0</ele><time>2026-04-19T07:24:08Z</time></trkpt><trkpt lat="36.953253939819454" lon="15.030319461732622"><ele>405.0</ele><time>2026-04-19T07:24:09Z</time></trkpt><trkpt lat="36.95334300705149" lon="15.030438640482632"><ele>405.0</ele><time>2026-04-19T07:24:10Z</time></trkpt><trkpt lat="36.9534366197953" lon="15.03055058143561"><ele>405.0</ele><time>2026-04-19T07:24:11Z</time></trkpt><trkpt lat="36.95353131943258" lon="15.03066513915991"><ele>405.75</ele><time>2026-04-19T07:24:12Z</time></trkpt><trkpt lat="36.953628696051396" lon="15.03077525421482"><ele>406.5</ele><time>2026-04-19T07:24:13Z</time></trkpt><trkpt lat="36.9537358295898" lon="15.030875971866283"><ele>407.25</ele><time>2026-04-19T07:24:14Z</time></trkpt><trkpt lat="36.95385573812678" lon="15.030949029319656"><ele>408.0</ele><time>2026-04-19T07:24:15Z</time></trkpt><trkpt lat="36.95398270727338" lon="15.030992735446855"><ele>403.75</ele><time>2026-04-19T07:24:16Z</time></trkpt><trkpt lat="36.95411338193947" lon="15.031011604596232"><ele>399.5</ele><time>2026-04-19T07:24:17Z</time></trkpt><trkpt lat="36.95424755599788" lon="15.03101172257235"><ele>395.25</ele><time>2026-04-19T07:24:18Z</time></trkpt><trkpt lat="36.95437966280661" lon="15.031008158632973"><ele>391.0</ele><time>2026-04-19T07:24:19Z</time></trkpt><trkpt lat="36.95451170100561" lon="15.031004749287588"><ele>390.0</ele><time>2026-04-19T07:24:20Z</time></trkpt><trkpt lat="36.95464716546817" lon="15.030991028985868"><ele>389.0</ele><time>2026-04-19T07:24:21Z</time></trkpt><trkpt lat="36.954780339904396" lon="15.03095997691373"><ele>388.0</ele><time>2026-04-19T07:24:22Z</time></trkpt><trkpt lat="36.954912674955594" lon="15.03092063604535"><ele>387.0</ele><time>2026-04-19T07:24:23Z</time></trkpt><trkpt lat="36.9550436548225" lon="15.03087848482822"><ele>385.5</ele><time>2026-04-19T07:24:24Z</time></trkpt><trkpt lat="36.95517699458118" lon="15.0308423512367"><ele>384.0</ele><time>2026-04-19T07:24:25Z</time></trkpt><trkpt lat="36.95530221901873" lon="15.030811792383144"><ele>382.5</ele><time>2026-04-19T07:24:26Z</time></trkpt><trkpt lat="36.95542147585414" lon="15.030821954597078"><ele>381.0</ele><time>2026-04-19T07:24:27Z</time></trkpt><trkpt lat="36.95553815370549" lon="15.030819461272825"><ele>382.5</ele><time>2026-04-19T07:24:28Z</time></trkpt><trkpt lat="36.95564835647361" lon="15.030791348471812"><ele>384.0</ele><time>2026-04-19T07:24:29Z</time></trkpt><trkpt lat="36.95576146773984" lon="15.030762930368342"><ele>385.5</ele><time>2026-04-19T07:24:30Z</time></trkpt><trkpt lat="36.95589095381234" lon="15.030738473207707"><ele>387.0</ele><time>2026-04-19T07:24:30.999Z</time></trkpt><trkpt lat="36.956020722409036" lon="15.03071445864623"><ele>387.0</ele><time>2026-04-19T07:24:31.999Z</time></trkpt><trkpt lat="36.956138398331156" lon="15.030692681813521"><ele>387.0</ele><time>2026-04-19T07:24:32.999Z</time></trkpt><trkpt lat="36.95625597241395" lon="15.030670923823072"><ele>387.0</ele><time>2026-04-19T07:24:33.999Z</time></trkpt><trkpt lat="36.956364499910215" lon="15.0306348476512"><ele>387.0</ele><time>2026-04-19T07:24:34.999Z</time></trkpt><trkpt lat="36.956466863416836" lon="15.030620074346766"><ele>387.0</ele><time>2026-04-19T07:24:35.999Z</time></trkpt><trkpt lat="36.95656171136169" lon="15.030608573232966"><ele>387.0</ele><time>2026-04-19T07:24:36.999Z</time></trkpt><trkpt lat="36.95662931300528" lon="15.030574988467938"><ele>387.0</ele><time>2026-04-19T07:24:37.999Z</time></trkpt><trkpt lat="36.95667350715779" lon="15.030505785960333"><ele>387.0</ele><time>2026-04-19T07:24:38.999Z</time></trkpt><trkpt lat="36.95670854293787" lon="15.030403684243149"><ele>387.0</ele><time>2026-04-19T07:24:39.999Z</time></trkpt><trkpt lat="36.95671163266032" lon="15.030291681020874"><ele>387.0</ele><time>2026-04-19T07:24:40.999Z</time></trkpt><trkpt lat="36.95673790311664" lon="15.03017876014382"><ele>388.0</ele><time>2026-04-19T07:24:41.999Z</time></trkpt><trkpt lat="36.95676830670674" lon="15.030056390339919"><ele>389.0</ele><time>2026-04-19T07:24:42.999Z</time></trkpt><trkpt lat="36.956807100747994" lon="15.029949155005129"><ele>390.0</ele><time>2026-04-19T07:24:43.999Z</time></trkpt><trkpt lat="36.95686746850328" lon="15.029849392432347"><ele>391.0</ele><time>2026-04-19T07:24:44.999Z</time></trkpt><trkpt lat="36.956931783316605" lon="15.029746752968142"><ele>392.0</ele><time>2026-04-19T07:24:45.999Z</time></trkpt><trkpt lat="36.95698647666492" lon="15.02966334122155"><ele>393.0</ele><time>2026-04-19T07:24:46.999Z</time></trkpt><trkpt lat="36.95705385844734" lon="15.029606792241191"><ele>394.0</ele><time>2026-04-19T07:24:47.999Z</time></trkpt><trkpt lat="36.95713820275211" lon="15.029579847393563"><ele>395.0</ele><time>2026-04-19T07:24:49Z</time></trkpt><trkpt lat="36.95721454605187" lon="15.02958786114115"><ele>396.0</ele><time>2026-04-19T07:24:50Z</time></trkpt><trkpt lat="36.95729696641488" lon="15.029722444330531"><ele>397.0</ele><time>2026-04-19T07:24:52Z</time></trkpt><trkpt lat="36.95728213940509" lon="15.02987732260932"><ele>397.00000000000006</ele><time>2026-04-19T07:24:54Z</time></trkpt><trkpt lat="36.95722418361848" lon="15.029958973734391"><ele>397.0</ele><time>2026-04-19T07:24:55Z</time></trkpt><trkpt lat="36.957182961127735" lon="15.0300411122266"><ele>397.0</ele><time>2026-04-19T07:24:56Z</time></trkpt><trkpt lat="36.95716297526352" lon="15.030116674500487"><ele>397.0</ele><time>2026-04-19T07:24:57Z</time></trkpt><trkpt lat="36.957182576427996" lon="15.03026572646063"><ele>397.00000000000006</ele><time>2026-04-19T07:24:59Z</time></trkpt><trkpt lat="36.95722966216761" lon="15.030354977646262"><ele>397.0</ele><time>2026-04-19T07:25:00Z</time></trkpt><trkpt lat="36.95729767157016" lon="15.030437284483739"><ele>396.1666666666667</ele><time>2026-04-19T07:25:01Z</time></trkpt><trkpt lat="36.95736543650278" lon="15.030519824746909"><ele>395.33333333333337</ele><time>2026-04-19T07:25:02Z</time></trkpt><trkpt lat="36.95741356072837" lon="15.030616378350352"><ele>394.5</ele><time>2026-04-19T07:25:03Z</time></trkpt><trkpt lat="36.957456192583805" lon="15.030717001746154"><ele>393.66666666666663</ele><time>2026-04-19T07:25:04Z</time></trkpt><trkpt lat="36.95749601945043" lon="15.030806403193978"><ele>392.8333333333333</ele><time>2026-04-19T07:25:05Z</time></trkpt><trkpt lat="36.95752499426202" lon="15.03089302215731"><ele>392.0</ele><time>2026-04-19T07:25:06Z</time></trkpt><trkpt lat="36.95749906107793" lon="15.030985917682596"><ele>389.0</ele><time>2026-04-19T07:25:07Z</time></trkpt><trkpt lat="36.95749019810107" lon="15.031103313601417"><ele>386.0</ele><time>2026-04-19T07:25:08Z</time></trkpt><trkpt lat="36.95746350955715" lon="15.031242799465005"><ele>383.0</ele><time>2026-04-19T07:25:09Z</time></trkpt><trkpt lat="36.9574392030076" lon="15.03138581415928"><ele>380.0</ele><time>2026-04-19T07:25:10Z</time></trkpt><trkpt lat="36.95741769111402" lon="15.031503033265391"><ele>377.0</ele><time>2026-04-19T07:25:11Z</time></trkpt><trkpt lat="36.957379448180816" lon="15.031582134767216"><ele>377.0</ele><time>2026-04-19T07:25:12Z</time></trkpt><trkpt lat="36.95730764360851" lon="15.031629979856904"><ele>377.0</ele><time>2026-04-19T07:25:13Z</time></trkpt><trkpt lat="36.957211274219965" lon="15.031603609304318"><ele>377.0</ele><time>2026-04-19T07:25:14Z</time></trkpt><trkpt lat="36.957124959183055" lon="15.031619472916281"><ele>377.0</ele><time>2026-04-19T07:25:15Z</time></trkpt><trkpt lat="36.95703670901569" lon="15.031640122264859"><ele>377.0</ele><time>2026-04-19T07:25:16Z</time></trkpt><trkpt lat="36.956956421444325" lon="15.031709085316031"><ele>377.0</ele><time>2026-04-19T07:25:17Z</time></trkpt><trkpt lat="36.95688404872468" lon="15.031801009507"><ele>377.0</ele><time>2026-04-19T07:25:18Z</time></trkpt><trkpt lat="36.95681908208461" lon="15.031897884812073"><ele>377.0</ele><time>2026-04-19T07:25:19Z</time></trkpt><trkpt lat="36.95675521206253" lon="15.032010869192142"><ele>377.0</ele><time>2026-04-19T07:25:20Z</time></trkpt><trkpt lat="36.95669279780472" lon="15.032154057572813"><ele>377.0</ele><time>2026-04-19T07:25:21Z</time></trkpt><trkpt lat="36.95663364025971" lon="15.03229094869664"><ele>375.8</ele><time>2026-04-19T07:25:22Z</time></trkpt><trkpt lat="36.95656586708852" lon="15.032414923848492"><ele>374.6</ele><time>2026-04-19T07:25:23Z</time></trkpt><trkpt lat="36.95650775873226" lon="15.032530015987978"><ele>373.40000000000003</ele><time>2026-04-19T07:25:24Z</time></trkpt><trkpt lat="36.95646221182621" lon="15.032632968200408"><ele>372.20000000000005</ele><time>2026-04-19T07:25:25Z</time></trkpt><trkpt lat="36.95641186819509" lon="15.032733177093277"><ele>371.0</ele><time>2026-04-19T07:25:26Z</time></trkpt><trkpt lat="36.95636230979526" lon="15.032820922734505"><ele>373.33333333333337</ele><time>2026-04-19T07:25:27Z</time></trkpt><trkpt lat="36.956321900827206" lon="15.032903976062594"><ele>375.6666666666667</ele><time>2026-04-19T07:25:28Z</time></trkpt><trkpt lat="36.956284353310494" lon="15.032986307362304"><ele>378.0</ele><time>2026-04-19T07:25:29Z</time></trkpt><trkpt lat="36.9562409043831" lon="15.033081376065594"><ele>380.33333333333337</ele><time>2026-04-19T07:25:31Z</time></trkpt><trkpt lat="36.95614082203209" lon="15.033136545817793"><ele>382.6666666666667</ele><time>2026-04-19T07:25:50Z</time></trkpt><trkpt lat="36.95607206132496" lon="15.033118411423976"><ele>385.0</ele><time>2026-04-19T07:26:07Z</time></trkpt><trkpt lat="36.956012765733476" lon="15.033088052578112"><ele>385.00000000000006</ele><time>2026-04-19T07:26:12Z</time></trkpt><trkpt lat="36.9559370441868" lon="15.033059488045089"><ele>385.0</ele><time>2026-04-19T07:27:39Z</time></trkpt><trkpt lat="36.95596192741149" lon="15.033143468036185"><ele>385.0</ele><time>2026-04-19T07:28:07Z</time></trkpt><trkpt lat="36.9559006278266" lon="15.033219066308101"><ele>385.0</ele><time>2026-04-19T07:28:11Z</time></trkpt><trkpt lat="36.955818007787535" lon="15.033177448441633"><ele>385.00000000000006</ele><time>2026-04-19T07:28:14Z</time></trkpt><trkpt lat="36.95572872004122" lon="15.03315331936764"><ele>385.0</ele><time>2026-04-19T07:28:18Z</time></trkpt><trkpt lat="36.95568420976054" lon="15.033064572370346"><ele>383.75</ele><time>2026-04-19T07:28:22Z</time></trkpt><trkpt lat="36.95562030495538" lon="15.03299313004456"><ele>382.5</ele><time>2026-04-19T07:28:26Z</time></trkpt><trkpt lat="36.9555567322693" lon="15.033023187456067"><ele>381.25</ele><time>2026-04-19T07:28:28Z</time></trkpt><trkpt lat="36.95537783598786" lon="15.033049862420217"><ele>380.0</ele><time>2026-04-19T07:28:30Z</time></trkpt><trkpt lat="36.95528361749675" lon="15.033134302699786"><ele>380.0</ele><time>2026-04-19T07:28:32Z</time></trkpt><trkpt lat="36.955193378142496" lon="15.033216465138022"><ele>380.0</ele><time>2026-04-19T07:28:34Z</time></trkpt><trkpt lat="36.9551085495483" lon="15.033334332754897"><ele>380.0</ele><time>2026-04-19T07:28:36Z</time></trkpt><trkpt lat="36.95506373866513" lon="15.033392681593686"><ele>380.0</ele><time>2026-04-19T07:28:37Z</time></trkpt><trkpt lat="36.95497219036159" lon="15.033473811746715"><ele>380.0</ele><time>2026-04-19T07:28:39Z</time></trkpt><trkpt lat="36.95489496664003" lon="15.033554354832818"><ele>381.0</ele><time>2026-04-19T07:28:41Z</time></trkpt><trkpt lat="36.954807322352536" lon="15.033640242652728"><ele>382.0</ele><time>2026-04-19T07:28:43Z</time></trkpt><trkpt lat="36.954735255784435" lon="15.033724512424069"><ele>383.0</ele><time>2026-04-19T07:28:44.999Z</time></trkpt><trkpt lat="36.95464269839619" lon="15.03379736576502"><ele>384.0</ele><time>2026-04-19T07:28:46.999Z</time></trkpt><trkpt lat="36.9545697598538" lon="15.033863038141845"><ele>385.0</ele><time>2026-04-19T07:28:48.999Z</time></trkpt><trkpt lat="36.954479300346854" lon="15.033948347765955"><ele>385.0</ele><time>2026-04-19T07:28:50.999Z</time></trkpt><trkpt lat="36.95439279191158" lon="15.03402381325545"><ele>385.0</ele><time>2026-04-19T07:28:52.999Z</time></trkpt><trkpt lat="36.954314651487415" lon="15.034114158680161"><ele>385.0</ele><time>2026-04-19T07:28:54.999Z</time></trkpt><trkpt lat="36.954247818762035" lon="15.03419092883729"><ele>385.0</ele><time>2026-04-19T07:28:56.999Z</time></trkpt><trkpt lat="36.954143118451896" lon="15.034224793971145"><ele>385.0</ele><time>2026-04-19T07:28:58.999Z</time></trkpt><trkpt lat="36.95406601995002" lon="15.034258426747401"><ele>384.2857142857143</ele><time>2026-04-19T07:29:01Z</time></trkpt><trkpt lat="36.95400130680989" lon="15.034256275154837"><ele>383.57142857142856</ele><time>2026-04-19T07:29:03Z</time></trkpt><trkpt lat="36.953940898980484" lon="15.034280319004877"><ele>382.8571428571429</ele><time>2026-04-19T07:29:12Z</time></trkpt><trkpt lat="36.95387244388878" lon="15.03429593743427"><ele>382.1428571428571</ele><time>2026-04-19T07:29:16Z</time></trkpt><trkpt lat="36.95381130531591" lon="15.034315821328644"><ele>381.42857142857144</ele><time>2026-04-19T07:29:37Z</time></trkpt><trkpt lat="36.95372028297195" lon="15.034320189739105"><ele>380.7142857142857</ele><time>2026-04-19T07:29:39Z</time></trkpt><trkpt lat="36.95363377544467" lon="15.0343202647983"><ele>380.0</ele><time>2026-04-19T07:29:41Z</time></trkpt><trkpt lat="36.953533926961384" lon="15.03436975207939"><ele>380.0</ele><time>2026-04-19T07:29:43Z</time></trkpt><trkpt lat="36.95341577747246" lon="15.0344240723253"><ele>380.0</ele><time>2026-04-19T07:29:45Z</time></trkpt><trkpt lat="36.95330994460755" lon="15.034467283925968"><ele>380.0</ele><time>2026-04-19T07:29:47Z</time></trkpt><trkpt lat="36.95325953563009" lon="15.034519841058588"><ele>380.0</ele><time>2026-04-19T07:29:48Z</time></trkpt><trkpt lat="36.953208127424034" lon="15.034582135289156"><ele>380.0</ele><time>2026-04-19T07:29:49Z</time></trkpt><trkpt lat="36.95315713319484" lon="15.034635708611608"><ele>380.0</ele><time>2026-04-19T07:29:50Z</time></trkpt><trkpt lat="36.95310063030959" lon="15.034675180096132"><ele>379.6666666666667</ele><time>2026-04-19T07:29:51Z</time></trkpt><trkpt lat="36.95304395524016" lon="15.03471577172113"><ele>379.33333333333337</ele><time>2026-04-19T07:29:52Z</time></trkpt><trkpt lat="36.952981021627934" lon="15.034764136894745"><ele>379.0</ele><time>2026-04-19T07:29:53Z</time></trkpt><trkpt lat="36.952920291770425" lon="15.034814945176471"><ele>378.6666666666667</ele><time>2026-04-19T07:29:54Z</time></trkpt><trkpt lat="36.952836514443845" lon="15.034901993286486"><ele>378.3333333333333</ele><time>2026-04-19T07:29:56Z</time></trkpt><trkpt lat="36.95274654588598" lon="15.034982644147204"><ele>378.0</ele><time>2026-04-19T07:29:58Z</time></trkpt><trkpt lat="36.95268650457845" lon="15.035030334723274"><ele>377.4</ele><time>2026-04-19T07:29:59Z</time></trkpt><trkpt lat="36.95260192705463" lon="15.035127849516826"><ele>376.79999999999995</ele><time>2026-04-19T07:30:01Z</time></trkpt><trkpt lat="36.95254182013646" lon="15.035255167734535"><ele>376.2</ele><time>2026-04-19T07:30:03Z</time></trkpt><trkpt lat="36.95247856474228" lon="15.035394988009235"><ele>375.6</ele><time>2026-04-19T07:30:05Z</time></trkpt><trkpt lat="36.95244508424887" lon="15.035479255349683"><ele>375.0</ele><time>2026-04-19T07:30:06Z</time></trkpt><trkpt lat="36.952417777707346" lon="15.035558891818283"><ele>374.8333333333333</ele><time>2026-04-19T07:30:07Z</time></trkpt><trkpt lat="36.952388331680815" lon="15.035639882961595"><ele>374.6666666666667</ele><time>2026-04-19T07:30:08Z</time></trkpt><trkpt lat="36.95235947540355" lon="15.035772913294167"><ele>374.5</ele><time>2026-04-19T07:30:10Z</time></trkpt><trkpt lat="36.952344196434" lon="15.03586273552935"><ele>374.33333333333337</ele><time>2026-04-19T07:30:12Z</time></trkpt><trkpt lat="36.95233071690348" lon="15.035947653344111"><ele>374.1666666666667</ele><time>2026-04-19T07:30:14Z</time></trkpt><trkpt lat="36.95231323105401" lon="15.036054515821059"><ele>374.0</ele><time>2026-04-19T07:30:17Z</time></trkpt><trkpt lat="36.95230351501343" lon="15.036141582861646"><ele>372.79999999999995</ele><time>2026-04-19T07:30:20Z</time></trkpt><trkpt lat="36.95227380647048" lon="15.036258207848478"><ele>371.59999999999997</ele><time>2026-04-19T07:30:23Z</time></trkpt><trkpt lat="36.95222897663753" lon="15.036349730502137"><ele>370.4</ele><time>2026-04-19T07:30:25Z</time></trkpt><trkpt lat="36.95219292568057" lon="15.036451166347955"><ele>369.2</ele><time>2026-04-19T07:30:27Z</time></trkpt><trkpt lat="36.95215713163949" lon="15.03655218361579"><ele>368.0</ele><time>2026-04-19T07:30:29Z</time></trkpt><trkpt lat="36.952098040402475" lon="15.036674167416354"><ele>366.59999999999997</ele><time>2026-04-19T07:30:31Z</time></trkpt><trkpt lat="36.95206201807276" lon="15.036812307165292"><ele>365.2</ele><time>2026-04-19T07:30:33Z</time></trkpt><trkpt lat="36.952017450530334" lon="15.036916987713127"><ele>363.8</ele><time>2026-04-19T07:30:35Z</time></trkpt><trkpt lat="36.9519644583113" lon="15.037023514203876"><ele>362.4</ele><time>2026-04-19T07:30:37Z</time></trkpt><trkpt lat="36.95193376734208" lon="15.037123872570957"><ele>361.0</ele><time>2026-04-19T07:30:39Z</time></trkpt><trkpt lat="36.951901485766484" lon="15.037198275153893"><ele>361.0</ele><time>2026-04-19T07:30:41Z</time></trkpt><trkpt lat="36.95185398351376" lon="15.037280530532097"><ele>361.0</ele><time>2026-04-19T07:30:43Z</time></trkpt><trkpt lat="36.951805462160756" lon="15.037382002745646"><ele>361.0</ele><time>2026-04-19T07:30:45Z</time></trkpt><trkpt lat="36.95177148255386" lon="15.03745310987508"><ele>361.0</ele><time>2026-04-19T07:30:47Z</time></trkpt><trkpt lat="36.95172507761786" lon="15.037524323826082"><ele>361.0</ele><time>2026-04-19T07:31:20Z</time></trkpt><trkpt lat="36.95170012656892" lon="15.037607783473312"><ele>361.0</ele><time>2026-04-19T07:31:32Z</time></trkpt><trkpt lat="36.951649177531976" lon="15.037667079979594"><ele>360.16666666666663</ele><time>2026-04-19T07:31:34Z</time></trkpt><trkpt lat="36.95160335153672" lon="15.037746939693047"><ele>359.3333333333333</ele><time>2026-04-19T07:31:38Z</time></trkpt><trkpt lat="36.951542570932894" lon="15.037816651102926"><ele>358.5</ele><time>2026-04-19T07:31:41Z</time></trkpt><trkpt lat="36.95149453296871" lon="15.037906998731248"><ele>357.6666666666667</ele><time>2026-04-19T07:31:43Z</time></trkpt><trkpt lat="36.95145733429994" lon="15.037972541776533"><ele>356.83333333333337</ele><time>2026-04-19T07:31:45Z</time></trkpt><trkpt lat="36.95139895611011" lon="15.038054521482024"><ele>356.0</ele><time>2026-04-19T07:31:49Z</time></trkpt><trkpt lat="36.95134957647749" lon="15.038104030767837"><ele>355.99999999999994</ele><time>2026-04-19T07:31:52Z</time></trkpt><trkpt lat="36.95127331743745" lon="15.038110316795951"><ele>356.0</ele><time>2026-04-19T07:31:56Z</time></trkpt><trkpt lat="36.95120234395097" lon="15.03809340743778"><ele>356.0</ele><time>2026-04-19T07:32:00Z</time></trkpt><trkpt lat="36.951142793928376" lon="15.03812573237869"><ele>356.0</ele><time>2026-04-19T07:32:48Z</time></trkpt><trkpt lat="36.95107403001629" lon="15.038173843966723"><ele>356.0</ele><time>2026-04-19T07:32:54Z</time></trkpt><trkpt lat="36.95101958084605" lon="15.038219391168589"><ele>355.99999999999994</ele><time>2026-04-19T07:33:04.999Z</time></trkpt><trkpt lat="36.95094907607215" lon="15.038256509955856"><ele>356.0</ele><time>2026-04-19T07:33:09.999Z</time></trkpt><trkpt lat="36.950888134426634" lon="15.038281488127373"><ele>355.1666666666667</ele><time>2026-04-19T07:33:14Z</time></trkpt><trkpt lat="36.95082527481569" lon="15.038320447924654"><ele>354.33333333333337</ele><time>2026-04-19T07:33:22Z</time></trkpt><trkpt lat="36.950757553216185" lon="15.038342255155161"><ele>353.5</ele><time>2026-04-19T07:33:28Z</time></trkpt><trkpt lat="36.95067499397547" lon="15.03835436541136"><ele>352.6666666666667</ele><time>2026-04-19T07:33:36Z</time></trkpt><trkpt lat="36.95061924115152" lon="15.03840407894316"><ele>351.8333333333333</ele><time>2026-04-19T07:33:40Z</time></trkpt><trkpt lat="36.950542833562075" lon="15.038433505762654"><ele>351.0</ele><time>2026-04-19T07:33:44Z</time></trkpt><trkpt lat="36.95047514289291" lon="15.038482634364893"><ele>351.00000000000006</ele><time>2026-04-19T07:33:48Z</time></trkpt><trkpt lat="36.95041798288211" lon="15.038533244297664"><ele>351.0</ele><time>2026-04-19T07:33:51Z</time></trkpt><trkpt lat="36.95034646761067" lon="15.038569880980935"><ele>351.0</ele><time>2026-04-19T07:33:54Z</time></trkpt><trkpt lat="36.95028777776151" lon="15.038602798888487"><ele>351.0</ele><time>2026-04-19T07:33:57Z</time></trkpt><trkpt lat="36.9502190697849" lon="15.038637448191446"><ele>351.0</ele><time>2026-04-19T07:34:00Z</time></trkpt><trkpt lat="36.95015056914659" lon="15.038631047697338"><ele>351.00000000000006</ele><time>2026-04-19T07:34:03Z</time></trkpt><trkpt lat="36.95008283943302" lon="15.038602013708495"><ele>351.0</ele><time>2026-04-19T07:34:06Z</time></trkpt><trkpt lat="36.95000978549153" lon="15.038625151692022"><ele>350.5714285714286</ele><time>2026-04-19T07:34:09Z</time></trkpt><trkpt lat="36.949948324379484" lon="15.038647183046933"><ele>350.14285714285717</ele><time>2026-04-19T07:34:16Z</time></trkpt><trkpt lat="36.94988371005899" lon="15.038677738234078"><ele>349.7142857142857</ele><time>2026-04-19T07:34:28Z</time></trkpt><trkpt lat="36.94981679567277" lon="15.038702078497305"><ele>349.28571428571433</ele><time>2026-04-19T07:34:33Z</time></trkpt><trkpt lat="36.949745336873704" lon="15.038731545609517"><ele>348.8571428571429</ele><time>2026-04-19T07:34:38Z</time></trkpt><trkpt lat="36.94968720494748" lon="15.038789039097349"><ele>348.42857142857144</ele><time>2026-04-19T07:34:42Z</time></trkpt><trkpt lat="36.94961597752713" lon="15.038827984486916"><ele>348.0</ele><time>2026-04-19T07:35:33Z</time></trkpt><trkpt lat="36.94960678080968" lon="15.038908361255801"><ele>348.0</ele><time>2026-04-19T07:35:41Z</time></trkpt><trkpt lat="36.94962052798983" lon="15.038997944192172"><ele>348.0</ele><time>2026-04-19T07:35:45Z</time></trkpt><trkpt lat="36.9496223607295" lon="15.039136706276354"><ele>348.0</ele><time>2026-04-19T07:35:47Z</time></trkpt><trkpt lat="36.94961796943646" lon="15.03922320947386"><ele>348.0</ele><time>2026-04-19T07:35:48Z</time></trkpt><trkpt lat="36.94959844580953" lon="15.039313541079473"><ele>348.0</ele><time>2026-04-19T07:35:49Z</time></trkpt><trkpt lat="36.9495720674916" lon="15.039398199454272"><ele>348.0</ele><time>2026-04-19T07:35:50Z</time></trkpt><trkpt lat="36.94954588260022" lon="15.039521907320795"><ele>348.1666666666667</ele><time>2026-04-19T07:35:52Z</time></trkpt><trkpt lat="36.94960525412734" lon="15.039653731507624"><ele>348.3333333333333</ele><time>2026-04-19T07:35:54Z</time></trkpt><trkpt lat="36.949642217914096" lon="15.03972216379353"><ele>348.5</ele><time>2026-04-19T07:35:55Z</time></trkpt><trkpt lat="36.94966789966245" lon="15.039813795215691"><ele>348.66666666666663</ele><time>2026-04-19T07:35:56Z</time></trkpt><trkpt lat="36.949717788301" lon="15.039882389359265"><ele>348.8333333333333</ele><time>2026-04-19T07:35:57Z</time></trkpt><trkpt lat="36.949753624793026" lon="15.039973084789953"><ele>349.0</ele><time>2026-04-19T07:35:58Z</time></trkpt><trkpt lat="36.94979431169101" lon="15.04006194837226"><ele>349.0</ele><time>2026-04-19T07:35:59Z</time></trkpt><trkpt lat="36.94981619960175" lon="15.04015530469577"><ele>349.0</ele><time>2026-04-19T07:36:00Z</time></trkpt><trkpt lat="36.94985245968519" lon="15.04024183197729"><ele>349.0</ele><time>2026-04-19T07:36:01Z</time></trkpt><trkpt lat="36.949890263963" lon="15.040330796062047"><ele>349.0</ele><time>2026-04-19T07:36:02Z</time></trkpt><trkpt lat="36.94994209307175" lon="15.040415060769181"><ele>349.0</ele><time>2026-04-19T07:36:03Z</time></trkpt><trkpt lat="36.949981902189315" lon="15.040510150271976"><ele>349.0</ele><time>2026-04-19T07:36:04Z</time></trkpt><trkpt lat="36.95002050946572" lon="15.040607129462867"><ele>349.0</ele><time>2026-04-19T07:36:05Z</time></trkpt><trkpt lat="36.95003016935269" lon="15.040716036369883"><ele>349.0</ele><time>2026-04-19T07:36:06Z</time></trkpt><trkpt lat="36.95004062888023" lon="15.040823117747099"><ele>349.0</ele><time>2026-04-19T07:36:07Z</time></trkpt><trkpt lat="36.95005865932256" lon="15.040935500238707"><ele>349.0</ele><time>2026-04-19T07:36:08Z</time></trkpt><trkpt lat="36.95006192223216" lon="15.041045175558232"><ele>349.0</ele><time>2026-04-19T07:36:09Z</time></trkpt><trkpt lat="36.950065560244724" lon="15.041158841293832"><ele>349.0</ele><time>2026-04-19T07:36:10Z</time></trkpt><trkpt lat="36.95007115596887" lon="15.041269860084034"><ele>349.4</ele><time>2026-04-19T07:36:11Z</time></trkpt><trkpt lat="36.95007691910488" lon="15.041383302523478"><ele>349.79999999999995</ele><time>2026-04-19T07:36:12Z</time></trkpt><trkpt lat="36.95008422291144" lon="15.04149843311481"><ele>350.20000000000005</ele><time>2026-04-19T07:36:13Z</time></trkpt><trkpt lat="36.950094141538486" lon="15.041611155954904"><ele>350.6</ele><time>2026-04-19T07:36:14Z</time></trkpt><trkpt lat="36.9500987559693" lon="15.041731305893624"><ele>351.0</ele><time>2026-04-19T07:36:15Z</time></trkpt><trkpt lat="36.95008537124667" lon="15.041849730909847"><ele>351.0</ele><time>2026-04-19T07:36:16Z</time></trkpt><trkpt lat="36.95007266834879" lon="15.041970397158083"><ele>351.0</ele><time>2026-04-19T07:36:17Z</time></trkpt><trkpt lat="36.95006308592608" lon="15.042092616128649"><ele>351.0</ele><time>2026-04-19T07:36:18Z</time></trkpt><trkpt lat="36.95005173766822" lon="15.042214163848701"><ele>351.0</ele><time>2026-04-19T07:36:19Z</time></trkpt><trkpt lat="36.95004624212402" lon="15.042335934614517"><ele>351.0</ele><time>2026-04-19T07:36:20Z</time></trkpt><trkpt lat="36.95003931890084" lon="15.0424609059004"><ele>350.0</ele><time>2026-04-19T07:36:21Z</time></trkpt><trkpt lat="36.950030504406236" lon="15.042590541698953"><ele>349.0</ele><time>2026-04-19T07:36:22Z</time></trkpt><trkpt lat="36.95001980585431" lon="15.042727445604642"><ele>348.0</ele><time>2026-04-19T07:36:23Z</time></trkpt><trkpt lat="36.95000921780299" lon="15.042862741138519"><ele>347.0</ele><time>2026-04-19T07:36:24Z</time></trkpt><trkpt lat="36.94999629971503" lon="15.042998321422784"><ele>346.0</ele><time>2026-04-19T07:36:25Z</time></trkpt><trkpt lat="36.94998822285853" lon="15.043134214715318"><ele>346.0</ele><time>2026-04-19T07:36:26Z</time></trkpt><trkpt lat="36.94997919537479" lon="15.043272770736992"><ele>346.0</ele><time>2026-04-19T07:36:27Z</time></trkpt><trkpt lat="36.94996917843787" lon="15.043408524530022"><ele>346.0</ele><time>2026-04-19T07:36:28Z</time></trkpt><trkpt lat="36.94996398332627" lon="15.043549802799548"><ele>346.0</ele><time>2026-04-19T07:36:29Z</time></trkpt><trkpt lat="36.949970152758006" lon="15.043688520185372"><ele>346.0</ele><time>2026-04-19T07:36:30Z</time></trkpt><trkpt lat="36.94998623651525" lon="15.043823333536436"><ele>346.16666666666663</ele><time>2026-04-19T07:36:31Z</time></trkpt><trkpt lat="36.949993118031784" lon="15.043947109379959"><ele>346.3333333333333</ele><time>2026-04-19T07:36:32Z</time></trkpt><trkpt lat="36.94999224520359" lon="15.044056033828985"><ele>346.5</ele><time>2026-04-19T07:36:33Z</time></trkpt><trkpt lat="36.949990238375484" lon="15.044155395566296"><ele>346.6666666666667</ele><time>2026-04-19T07:36:34Z</time></trkpt><trkpt lat="36.949989466793106" lon="15.044251649881344"><ele>346.83333333333337</ele><time>2026-04-19T07:36:35Z</time></trkpt><trkpt lat="36.94998595192278" lon="15.044343669451628"><ele>347.0</ele><time>2026-04-19T07:36:36Z</time></trkpt><trkpt lat="36.949984350724364" lon="15.04442705313548"><ele>347.0</ele><time>2026-04-19T07:36:37Z</time></trkpt><trkpt lat="36.949968989608" lon="15.044566125849537"><ele>347.0</ele><time>2026-04-19T07:36:39Z</time></trkpt><trkpt lat="36.94997154847478" lon="15.044685628226777"><ele>347.0</ele><time>2026-04-19T07:36:41Z</time></trkpt><trkpt lat="36.94995243134465" lon="15.044769607274123"><ele>347.0</ele><time>2026-04-19T07:36:45Z</time></trkpt><trkpt lat="36.950044210215665" lon="15.044815999352938"><ele>347.0</ele><time>2026-04-19T07:36:53Z</time></trkpt><trkpt lat="36.95011855629563" lon="15.044821404457709"><ele>347.83333333333337</ele><time>2026-04-19T07:36:55Z</time></trkpt><trkpt lat="36.95020226124331" lon="15.044817570925975"><ele>348.6666666666667</ele><time>2026-04-19T07:36:57Z</time></trkpt><trkpt lat="36.950270972056934" lon="15.044806883126336"><ele>349.5</ele><time>2026-04-19T07:36:59Z</time></trkpt><trkpt lat="36.95034415603058" lon="15.044801242826146"><ele>350.3333333333333</ele><time>2026-04-19T07:37:01Z</time></trkpt><trkpt lat="36.950419916633045" lon="15.044790994158593"><ele>351.16666666666663</ele><time>2026-04-19T07:37:03Z</time></trkpt><trkpt lat="36.95051450976402" lon="15.044796828883449"><ele>352.0</ele><time>2026-04-19T07:37:05Z</time></trkpt><trkpt lat="36.950608353630976" lon="15.04481664211783"><ele>352.0</ele><time>2026-04-19T07:37:07Z</time></trkpt><trkpt lat="36.95074920233192" lon="15.044859142804379"><ele>352.0</ele><time>2026-04-19T07:37:10Z</time></trkpt><trkpt lat="36.950792726719584" lon="15.044926750807193"><ele>352.0</ele><time>2026-04-19T07:37:12Z</time></trkpt><trkpt lat="36.9508408317855" lon="15.04500578598922"><ele>352.0</ele><time>2026-04-19T07:37:14Z</time></trkpt><trkpt lat="36.950896630089865" lon="15.045057533368164"><ele>352.0</ele><time>2026-04-19T07:37:16Z</time></trkpt><trkpt lat="36.950969759567194" lon="15.045069037592357"><ele>352.0</ele><time>2026-04-19T07:37:28Z</time></trkpt><trkpt lat="36.95102776308578" lon="15.045120258147596"><ele>354.8</ele><time>2026-04-19T07:37:30Z</time></trkpt><trkpt lat="36.951084965802565" lon="15.04522688404898"><ele>357.6</ele><time>2026-04-19T07:37:32Z</time></trkpt><trkpt lat="36.95115489790382" lon="15.045231259028816"><ele>360.40000000000003</ele><time>2026-04-19T07:37:34Z</time></trkpt><trkpt lat="36.95125493146895" lon="15.045209718460775"><ele>363.20000000000005</ele><time>2026-04-19T07:37:36Z</time></trkpt><trkpt lat="36.951315659613584" lon="15.045167138460332"><ele>366.0</ele><time>2026-04-19T07:37:38Z</time></trkpt><trkpt lat="36.95143100121122" lon="15.04510050593056"><ele>366.0</ele><time>2026-04-19T07:37:39Z</time></trkpt><trkpt lat="36.951492534000685" lon="15.045045193166029"><ele>366.0</ele><time>2026-04-19T07:37:40Z</time></trkpt><trkpt lat="36.951580528375324" lon="15.045020737310724"><ele>366.0</ele><time>2026-04-19T07:37:42Z</time></trkpt><trkpt lat="36.951680093684026" lon="15.045015674370001"><ele>366.0</ele><time>2026-04-19T07:37:44Z</time></trkpt><trkpt lat="36.95173728292987" lon="15.044953099410057"><ele>366.0</ele><time>2026-04-19T07:37:46Z</time></trkpt><trkpt lat="36.951812298339966" lon="15.044898131730452"><ele>366.0</ele><time>2026-04-19T07:37:48Z</time></trkpt><trkpt lat="36.95186940476439" lon="15.044844427185902"><ele>366.0</ele><time>2026-04-19T07:37:50Z</time></trkpt><trkpt lat="36.95192376007282" lon="15.044900889512908"><ele>366.0</ele><time>2026-04-19T07:39:49Z</time></trkpt><trkpt lat="36.95196547152557" lon="15.044982491986284"><ele>366.0</ele><time>2026-04-19T07:39:51Z</time></trkpt><trkpt lat="36.95203163531765" lon="15.045051503769164"><ele>366.0</ele><time>2026-04-19T07:39:53Z</time></trkpt><trkpt lat="36.95206949065506" lon="15.045118496781626"><ele>366.0</ele><time>2026-04-19T07:39:55Z</time></trkpt><trkpt lat="36.95211296636487" lon="15.045191761177453"><ele>366.0</ele><time>2026-04-19T07:39:57Z</time></trkpt><trkpt lat="36.95217747609741" lon="15.045256971716492"><ele>366.0</ele><time>2026-04-19T07:41:04Z</time></trkpt><trkpt lat="36.95223926558374" lon="15.045241290860066"><ele>366.0</ele><time>2026-04-19T07:41:07Z</time></trkpt><trkpt lat="36.952283726363774" lon="15.045136305612582"><ele>366.0</ele><time>2026-04-19T07:41:30Z</time></trkpt><trkpt lat="36.95233079800131" lon="15.045050924658817"><ele>366.0</ele><time>2026-04-19T07:41:31Z</time></trkpt><trkpt lat="36.952393993749034" lon="15.044958849279851"><ele>366.0</ele><time>2026-04-19T07:41:31.999Z</time></trkpt><trkpt lat="36.95248022137137" lon="15.044867085521828"><ele>365.0</ele><time>2026-04-19T07:41:32.999Z</time></trkpt><trkpt lat="36.95254577833401" lon="15.044758883790388"><ele>364.0</ele><time>2026-04-19T07:41:33.999Z</time></trkpt><trkpt lat="36.952600240205555" lon="15.044668946301304"><ele>363.0</ele><time>2026-04-19T07:41:34.999Z</time></trkpt><trkpt lat="36.952644401458535" lon="15.044596019006422"><ele>362.0</ele><time>2026-04-19T07:41:36Z</time></trkpt><trkpt lat="36.95268363246412" lon="15.044531403976588"><ele>361.0</ele><time>2026-04-19T07:41:37Z</time></trkpt><trkpt lat="36.95272288379735" lon="15.044467094532457"><ele>360.0</ele><time>2026-04-19T07:41:38Z</time></trkpt><trkpt lat="36.95276871324674" lon="15.044392007336938"><ele>360.0</ele><time>2026-04-19T07:41:39Z</time></trkpt><trkpt lat="36.952821159245055" lon="15.044306079524738"><ele>360.0</ele><time>2026-04-19T07:41:40Z</time></trkpt><trkpt lat="36.95287186622655" lon="15.044223001028305"><ele>360.0</ele><time>2026-04-19T07:41:41Z</time></trkpt><trkpt lat="36.95291909750664" lon="15.0441456169649"><ele>360.0</ele><time>2026-04-19T07:41:42Z</time></trkpt><trkpt lat="36.95297105363903" lon="15.044060491585757"><ele>360.0</ele><time>2026-04-19T07:41:43Z</time></trkpt><trkpt lat="36.95302436241977" lon="15.043973150434724"><ele>360.0</ele><time>2026-04-19T07:41:44Z</time></trkpt><trkpt lat="36.95308119449729" lon="15.04388003633418"><ele>360.0</ele><time>2026-04-19T07:41:45Z</time></trkpt><trkpt lat="36.95314035996185" lon="15.043783099534236"><ele>360.0</ele><time>2026-04-19T07:41:46Z</time></trkpt><trkpt lat="36.95319954351891" lon="15.04368616690504"><ele>360.0</ele><time>2026-04-19T07:41:47Z</time></trkpt><trkpt lat="36.9532610452786" lon="15.043585569984623"><ele>360.0</ele><time>2026-04-19T07:41:48Z</time></trkpt><trkpt lat="36.95332557820627" lon="15.043480014984878"><ele>360.0</ele><time>2026-04-19T07:41:49Z</time></trkpt><trkpt lat="36.953393263107756" lon="15.043369304377666"><ele>360.25</ele><time>2026-04-19T07:41:50Z</time></trkpt><trkpt lat="36.95346015835291" lon="15.043259885396214"><ele>360.5</ele><time>2026-04-19T07:41:51Z</time></trkpt><trkpt lat="36.95352847653216" lon="15.043148493265154"><ele>360.75</ele><time>2026-04-19T07:41:52Z</time></trkpt><trkpt lat="36.953599203708066" lon="15.043033844315602"><ele>361.0</ele><time>2026-04-19T07:41:53Z</time></trkpt><trkpt lat="36.953670437839314" lon="15.042918373337322"><ele>361.0</ele><time>2026-04-19T07:41:54Z</time></trkpt><trkpt lat="36.95373963706486" lon="15.042806201375468"><ele>361.0</ele><time>2026-04-19T07:41:55Z</time></trkpt><trkpt lat="36.95381061824784" lon="15.042691140643301"><ele>361.0</ele><time>2026-04-19T07:41:56Z</time></trkpt><trkpt lat="36.95388719871412" lon="15.04257230130762"><ele>361.0</ele><time>2026-04-19T07:41:57Z</time></trkpt><trkpt lat="36.953972742097065" lon="15.042459959577817"><ele>360.0</ele><time>2026-04-19T07:41:58Z</time></trkpt><trkpt lat="36.954075390876326" lon="15.042355860657985"><ele>359.0</ele><time>2026-04-19T07:41:59Z</time></trkpt><trkpt lat="36.95420614830927" lon="15.042239707377513"><ele>358.0</ele><time>2026-04-19T07:42:00Z</time></trkpt><trkpt lat="36.95433943250851" lon="15.04212380821414"><ele>360.0</ele><time>2026-04-19T07:42:01Z</time></trkpt><trkpt lat="36.95447904732551" lon="15.042003674596975"><ele>362.0</ele><time>2026-04-19T07:42:02Z</time></trkpt><trkpt lat="36.95461324107326" lon="15.041888205503865"><ele>364.0</ele><time>2026-04-19T07:42:03Z</time></trkpt><trkpt lat="36.95472125190669" lon="15.041770340085565"><ele>364.0</ele><time>2026-04-19T07:42:04Z</time></trkpt><trkpt lat="36.95483563548517" lon="15.041695813597633"><ele>364.0</ele><time>2026-04-19T07:42:05Z</time></trkpt><trkpt lat="36.95492645494184" lon="15.04161258182501"><ele>364.0</ele><time>2026-04-19T07:42:06Z</time></trkpt><trkpt lat="36.95499152404662" lon="15.041516560785729"><ele>364.0</ele><time>2026-04-19T07:42:07Z</time></trkpt><trkpt lat="36.955038140917196" lon="15.041440426083215"><ele>364.0</ele><time>2026-04-19T07:42:08Z</time></trkpt><trkpt lat="36.95509107966881" lon="15.041353159642659"><ele>366.16666666666663</ele><time>2026-04-19T07:42:10Z</time></trkpt><trkpt lat="36.955138578251336" lon="15.0414338514425"><ele>368.3333333333333</ele><time>2026-04-19T07:42:12Z</time></trkpt><trkpt lat="36.95518908460934" lon="15.041515069601763"><ele>370.5</ele><time>2026-04-19T07:42:13Z</time></trkpt><trkpt lat="36.955250694046455" lon="15.041614015095922"><ele>372.6666666666667</ele><time>2026-04-19T07:42:14Z</time></trkpt><trkpt lat="36.955299580120254" lon="15.041692526925027"><ele>374.83333333333337</ele><time>2026-04-19T07:42:15Z</time></trkpt><trkpt lat="36.95534804113749" lon="15.041770355933412"><ele>377.0</ele><time>2026-04-19T07:42:16Z</time></trkpt><trkpt lat="36.95538779178703" lon="15.041837570244201"><ele>377.0</ele><time>2026-04-19T07:42:17Z</time></trkpt><trkpt lat="36.9554451964174" lon="15.041961135342893"><ele>377.0</ele><time>2026-04-19T07:42:19Z</time></trkpt><trkpt lat="36.955467683079476" lon="15.042037742258383"><ele>377.0</ele><time>2026-04-19T07:42:20Z</time></trkpt><trkpt lat="36.95552246151925" lon="15.042172886906837"><ele>377.0</ele><time>2026-04-19T07:42:22Z</time></trkpt><trkpt lat="36.955559935357044" lon="15.042240089509841"><ele>377.0</ele><time>2026-04-19T07:42:23Z</time></trkpt><trkpt lat="36.95560638411424" lon="15.04230733984788"><ele>377.0</ele><time>2026-04-19T07:42:24Z</time></trkpt><trkpt lat="36.9556710348988" lon="15.042340363994715"><ele>377.0</ele><time>2026-04-19T07:42:25Z</time></trkpt><trkpt lat="36.95574664229054" lon="15.042366220921012"><ele>377.0</ele><time>2026-04-19T07:42:26Z</time></trkpt><trkpt lat="36.95580864108705" lon="15.04239734843744"><ele>377.0</ele><time>2026-04-19T07:42:27Z</time></trkpt><trkpt lat="36.9558936456582" lon="15.042500479865208"><ele>377.0</ele><time>2026-04-19T07:42:29Z</time></trkpt><trkpt lat="36.955943172789006" lon="15.042583168534616"><ele>377.0</ele><time>2026-04-19T07:42:30Z</time></trkpt><trkpt lat="36.95600569482527" lon="15.042663227610907"><ele>377.0</ele><time>2026-04-19T07:42:31Z</time></trkpt><trkpt lat="36.956022632658176" lon="15.04276076242232"><ele>376.33333333333337</ele><time>2026-04-19T07:42:32Z</time></trkpt><trkpt lat="36.95604315803156" lon="15.042842356193852"><ele>375.6666666666667</ele><time>2026-04-19T07:42:33Z</time></trkpt><trkpt lat="36.95605921063486" lon="15.042930831613667"><ele>375.0</ele><time>2026-04-19T07:42:34Z</time></trkpt><trkpt lat="36.95608307456185" lon="15.043042484268481"><ele>374.3333333333333</ele><time>2026-04-19T07:42:35Z</time></trkpt><trkpt lat="36.95607494315855" lon="15.043164546636161"><ele>373.66666666666663</ele><time>2026-04-19T07:42:36Z</time></trkpt><trkpt lat="36.95606011556169" lon="15.043275255751443"><ele>373.0</ele><time>2026-04-19T07:42:37Z</time></trkpt><trkpt lat="36.95605049270427" lon="15.043384191593915"><ele>372.2</ele><time>2026-04-19T07:42:38Z</time></trkpt><trkpt lat="36.95604717991404" lon="15.043504517134213"><ele>371.4</ele><time>2026-04-19T07:42:39Z</time></trkpt><trkpt lat="36.956044901900846" lon="15.043636148018086"><ele>370.59999999999997</ele><time>2026-04-19T07:42:40Z</time></trkpt><trkpt lat="36.95604056026526" lon="15.043756131434217"><ele>369.79999999999995</ele><time>2026-04-19T07:42:41Z</time></trkpt><trkpt lat="36.95601034805223" lon="15.043865211354008"><ele>369.0</ele><time>2026-04-19T07:42:42Z</time></trkpt><trkpt lat="36.95599656562538" lon="15.043985402387733"><ele>369.0</ele><time>2026-04-19T07:42:43Z</time></trkpt><trkpt lat="36.955948140317545" lon="15.044106328843027"><ele>369.0</ele><time>2026-04-19T07:42:44Z</time></trkpt><trkpt lat="36.9558970995892" lon="15.044233209865807"><ele>369.0</ele><time>2026-04-19T07:42:45Z</time></trkpt><trkpt lat="36.955851728316155" lon="15.044342942825825"><ele>369.0</ele><time>2026-04-19T07:42:46Z</time></trkpt><trkpt lat="36.95581279976637" lon="15.044430969973536"><ele>369.0</ele><time>2026-04-19T07:42:47Z</time></trkpt><trkpt lat="36.955781524997825" lon="15.044512215259614"><ele>369.4</ele><time>2026-04-19T07:42:48Z</time></trkpt><trkpt lat="36.95576351565934" lon="15.044595398076307"><ele>369.79999999999995</ele><time>2026-04-19T07:42:49Z</time></trkpt><trkpt lat="36.955789025008905" lon="15.044765009553107"><ele>370.20000000000005</ele><time>2026-04-19T07:42:51Z</time></trkpt><trkpt lat="36.95583300340279" lon="15.044872960463122"><ele>370.6</ele><time>2026-04-19T07:42:52Z</time></trkpt><trkpt lat="36.95586680075485" lon="15.044998680443078"><ele>371.0</ele><time>2026-04-19T07:42:53Z</time></trkpt><trkpt lat="36.955925705920066" lon="15.04510436709457"><ele>371.0</ele><time>2026-04-19T07:42:54Z</time></trkpt><trkpt lat="36.95597299453652" lon="15.045185807312704"><ele>371.0</ele><time>2026-04-19T07:42:55Z</time></trkpt><trkpt lat="36.956030071090645" lon="15.04523938376776"><ele>371.0</ele><time>2026-04-19T07:42:56Z</time></trkpt><trkpt lat="36.95611578438197" lon="15.045285711127095"><ele>371.0</ele><time>2026-04-19T07:42:57Z</time></trkpt><trkpt lat="36.956236094520094" lon="15.04536216857151"><ele>371.0</ele><time>2026-04-19T07:42:58Z</time></trkpt><trkpt lat="36.956309707514414" lon="15.045456766806756"><ele>371.0</ele><time>2026-04-19T07:42:59Z</time></trkpt><trkpt lat="36.956371683223665" lon="15.04553061117543"><ele>371.0</ele><time>2026-04-19T07:43:00Z</time></trkpt><trkpt lat="36.956427313821216" lon="15.045581791482398"><ele>371.0</ele><time>2026-04-19T07:43:01Z</time></trkpt><trkpt lat="36.9564819514097" lon="15.045640658883316"><ele>371.0</ele><time>2026-04-19T07:43:03Z</time></trkpt><trkpt lat="36.95663084997247" lon="15.045583502965462"><ele>371.0</ele><time>2026-04-19T07:43:05Z</time></trkpt><trkpt lat="36.95670173328732" lon="15.045511487949323"><ele>371.1666666666667</ele><time>2026-04-19T07:43:07Z</time></trkpt><trkpt lat="36.95671631156556" lon="15.045431647181896"><ele>371.33333333333337</ele><time>2026-04-19T07:43:08Z</time></trkpt><trkpt lat="36.956757527300724" lon="15.04529159807331"><ele>371.5</ele><time>2026-04-19T07:43:10Z</time></trkpt><trkpt lat="36.956799030783976" lon="15.045198851750294"><ele>371.6666666666667</ele><time>2026-04-19T07:43:11Z</time></trkpt><trkpt lat="36.95683374236288" lon="15.045107798903686"><ele>371.8333333333333</ele><time>2026-04-19T07:43:12Z</time></trkpt><trkpt lat="36.95688035705047" lon="15.045018846521439"><ele>372.0</ele><time>2026-04-19T07:43:14Z</time></trkpt><trkpt lat="36.95693321308632" lon="15.044937062417043"><ele>372.0</ele><time>2026-04-19T07:43:16Z</time></trkpt><trkpt lat="36.957016456173854" lon="15.044841911172538"><ele>372.0</ele><time>2026-04-19T07:43:18Z</time></trkpt><trkpt lat="36.95710783524854" lon="15.04479156077588"><ele>372.0</ele><time>2026-04-19T07:43:20Z</time></trkpt><trkpt lat="36.95721483960156" lon="15.044717481276274"><ele>372.0</ele><time>2026-04-19T07:43:22Z</time></trkpt><trkpt lat="36.95731814399054" lon="15.04468937095718"><ele>372.0</ele><time>2026-04-19T07:43:24Z</time></trkpt><trkpt lat="36.95738827719623" lon="15.044657404679048"><ele>372.0</ele><time>2026-04-19T07:43:26Z</time></trkpt><trkpt lat="36.95744941677912" lon="15.044629537637125"><ele>372.0</ele><time>2026-04-19T07:43:28Z</time></trkpt><trkpt lat="36.95749835624716" lon="15.044415142742377"><ele>372.0</ele><time>2026-04-19T07:43:30Z</time></trkpt><trkpt lat="36.9576062084804" lon="15.044382707702482"><ele>372.0</ele><time>2026-04-19T07:43:32Z</time></trkpt><trkpt lat="36.957684899075836" lon="15.044342615938449"><ele>372.0</ele><time>2026-04-19T07:43:34Z</time></trkpt><trkpt lat="36.95774947438641" lon="15.044259524000475"><ele>373.20000000000005</ele><time>2026-04-19T07:43:36Z</time></trkpt><trkpt lat="36.95783757174906" lon="15.044229660046662"><ele>374.4</ele><time>2026-04-19T07:43:39.999Z</time></trkpt><trkpt lat="36.95795565701537" lon="15.044170981344145"><ele>375.6</ele><time>2026-04-19T07:43:43Z</time></trkpt><trkpt lat="36.95802042740187" lon="15.044128665681646"><ele>376.79999999999995</ele><time>2026-04-19T07:43:46Z</time></trkpt><trkpt lat="36.95806677315179" lon="15.044051263864576"><ele>378.0</ele><time>2026-04-19T07:43:49Z</time></trkpt><trkpt lat="36.95809724159676" lon="15.043953175053726"><ele>378.0</ele><time>2026-04-19T07:43:52Z</time></trkpt><trkpt lat="36.95817400647665" lon="15.043828229268236"><ele>378.0</ele><time>2026-04-19T07:43:53Z</time></trkpt><trkpt lat="36.95822137894739" lon="15.043713699504556"><ele>378.0</ele><time>2026-04-19T07:43:55Z</time></trkpt><trkpt lat="36.95825753681923" lon="15.04358354902941"><ele>378.0</ele><time>2026-04-19T07:43:57Z</time></trkpt><trkpt lat="36.95830493282196" lon="15.0434771462994"><ele>378.0</ele><time>2026-04-19T07:43:59Z</time></trkpt><trkpt lat="36.95835845698352" lon="15.043378743776419"><ele>378.6666666666667</ele><time>2026-04-19T07:44:01Z</time></trkpt><trkpt lat="36.95839586077814" lon="15.043288898323686"><ele>379.3333333333333</ele><time>2026-04-19T07:44:03Z</time></trkpt><trkpt lat="36.95844045262007" lon="15.04318012457748"><ele>380.0</ele><time>2026-04-19T07:44:06Z</time></trkpt><trkpt lat="36.95845425589122" lon="15.043102955003466"><ele>380.66666666666663</ele><time>2026-04-19T07:44:08Z</time></trkpt><trkpt lat="36.958483806519695" lon="15.043028656531538"><ele>381.3333333333333</ele><time>2026-04-19T07:44:10Z</time></trkpt><trkpt lat="36.95852578830779" lon="15.042941948491057"><ele>382.0</ele><time>2026-04-19T07:44:12Z</time></trkpt><trkpt lat="36.9585471370433" lon="15.042843872903978"><ele>382.0</ele><time>2026-04-19T07:44:14Z</time></trkpt><trkpt lat="36.958580016281964" lon="15.04277059495542"><ele>382.0</ele><time>2026-04-19T07:44:17Z</time></trkpt><trkpt lat="36.95861491008566" lon="15.042686699315903"><ele>382.0</ele><time>2026-04-19T07:44:23Z</time></trkpt><trkpt lat="36.95866910653324" lon="15.04260562755182"><ele>382.0</ele><time>2026-04-19T07:44:27Z</time></trkpt><trkpt lat="36.95874241817609" lon="15.042619119869629"><ele>382.0</ele><time>2026-04-19T07:44:30Z</time></trkpt><trkpt lat="36.95880584848198" lon="15.0426542002767"><ele>382.0</ele><time>2026-04-19T07:44:35Z</time></trkpt><trkpt lat="36.958858512468645" lon="15.042710638768385"><ele>382.0</ele><time>2026-04-19T07:44:38Z</time></trkpt><trkpt lat="36.95892184724168" lon="15.042738509294418"><ele>382.0</ele><time>2026-04-19T07:44:40Z</time></trkpt><trkpt lat="36.9589962260539" lon="15.042722897623985"><ele>382.0</ele><time>2026-04-19T07:48:50Z</time></trkpt><trkpt lat="36.959057486560965" lon="15.042704229430669"><ele>382.0</ele><time>2026-04-19T07:48:53Z</time></trkpt><trkpt lat="36.95910422709702" lon="15.042651312100203"><ele>382.0</ele><time>2026-04-19T07:48:55Z</time></trkpt><trkpt lat="36.959137843679265" lon="15.042577535073491"><ele>382.0</ele><time>2026-04-19T07:48:57Z</time></trkpt><trkpt lat="36.95921212148021" lon="15.042511778989233"><ele>382.0</ele><time>2026-04-19T07:48:59Z</time></trkpt><trkpt lat="36.95930779449358" lon="15.042455484836115"><ele>385.8</ele><time>2026-04-19T07:49:01Z</time></trkpt><trkpt lat="36.959405407967715" lon="15.042405651127726"><ele>389.6</ele><time>2026-04-19T07:49:03Z</time></trkpt><trkpt lat="36.95948403775259" lon="15.042337749555966"><ele>393.40000000000003</ele><time>2026-04-19T07:49:05Z</time></trkpt><trkpt lat="36.9595277861294" lon="15.042260481484341"><ele>397.20000000000005</ele><time>2026-04-19T07:49:08Z</time></trkpt><trkpt lat="36.95956729836689" lon="15.042177709007383"><ele>401.0</ele><time>2026-04-19T07:49:12Z</time></trkpt><trkpt lat="36.95965518222825" lon="15.042086443566543"><ele>400.99999999999994</ele><time>2026-04-19T07:49:14Z</time></trkpt><trkpt lat="36.959703522952914" lon="15.04203216808792"><ele>401.0</ele><time>2026-04-19T07:49:16Z</time></trkpt><trkpt lat="36.95975389469852" lon="15.04195790224332"><ele>401.0</ele><time>2026-04-19T07:49:18Z</time></trkpt><trkpt lat="36.95980277821385" lon="15.041892124266889"><ele>401.0</ele><time>2026-04-19T07:49:20Z</time></trkpt><trkpt lat="36.95985460861144" lon="15.041842529990065"><ele>400.99999999999994</ele><time>2026-04-19T07:49:22Z</time></trkpt><trkpt lat="36.95992640672299" lon="15.041756404358779"><ele>401.0</ele><time>2026-04-19T07:49:25Z</time></trkpt><trkpt lat="36.959975210909725" lon="15.041683951991692"><ele>401.16666666666663</ele><time>2026-04-19T07:49:27Z</time></trkpt><trkpt lat="36.9600261320185" lon="15.041623877618836"><ele>401.3333333333333</ele><time>2026-04-19T07:49:29Z</time></trkpt><trkpt lat="36.96007564712787" lon="15.041553214048886"><ele>401.5</ele><time>2026-04-19T07:49:31Z</time></trkpt><trkpt lat="36.96013162658497" lon="15.04150175733724"><ele>401.66666666666663</ele><time>2026-04-19T07:49:33Z</time></trkpt><trkpt lat="36.96019776726769" lon="15.041459310921661"><ele>401.8333333333333</ele><time>2026-04-19T07:49:35Z</time></trkpt><trkpt lat="36.96026592336696" lon="15.041394336670335"><ele>402.0</ele><time>2026-04-19T07:49:39Z</time></trkpt><trkpt lat="36.96042699873894" lon="15.041282941171675"><ele>402.8</ele><time>2026-04-19T07:49:41Z</time></trkpt><trkpt lat="36.96050299173153" lon="15.041187560041296"><ele>403.6</ele><time>2026-04-19T07:49:43Z</time></trkpt><trkpt lat="36.960590512686075" lon="15.041113545171749"><ele>404.40000000000003</ele><time>2026-04-19T07:49:45Z</time></trkpt><trkpt lat="36.960677317133374" lon="15.041040216444381"><ele>405.20000000000005</ele><time>2026-04-19T07:49:47Z</time></trkpt><trkpt lat="36.960751665225004" lon="15.040964750033202"><ele>406.0</ele><time>2026-04-19T07:49:49Z</time></trkpt><trkpt lat="36.96079865899235" lon="15.040885781553733"><ele>405.8</ele><time>2026-04-19T07:49:51Z</time></trkpt><trkpt lat="36.960818843740164" lon="15.040756494798764"><ele>405.6</ele><time>2026-04-19T07:49:53Z</time></trkpt><trkpt lat="36.960881975701966" lon="15.040647471643036"><ele>405.4</ele><time>2026-04-19T07:49:55Z</time></trkpt><trkpt lat="36.9608748956149" lon="15.040528683152116"><ele>405.2</ele><time>2026-04-19T07:49:57Z</time></trkpt><trkpt lat="36.96086562839041" lon="15.040442432443708"><ele>405.0</ele><time>2026-04-19T07:49:58Z</time></trkpt><trkpt lat="36.960857523842556" lon="15.04034225513965"><ele>404.8</ele><time>2026-04-19T07:49:59Z</time></trkpt><trkpt lat="36.96086666621346" lon="15.040233566708508"><ele>404.6</ele><time>2026-04-19T07:50:00Z</time></trkpt><trkpt lat="36.9608697228143" lon="15.040124672371801"><ele>404.4</ele><time>2026-04-19T07:50:01Z</time></trkpt><trkpt lat="36.96086817807577" lon="15.04003207080156"><ele>404.2</ele><time>2026-04-19T07:50:02Z</time></trkpt><trkpt lat="36.960882938385694" lon="15.039864034705541"><ele>404.0</ele><time>2026-04-19T07:50:04Z</time></trkpt><trkpt lat="36.96090140889359" lon="15.039735681815461"><ele>405.0</ele><time>2026-04-19T07:50:05Z</time></trkpt><trkpt lat="36.96092195080432" lon="15.039625972220835"><ele>406.0</ele><time>2026-04-19T07:50:06Z</time></trkpt><trkpt lat="36.960933194662196" lon="15.039525559090205"><ele>407.0</ele><time>2026-04-19T07:50:07Z</time></trkpt><trkpt lat="36.96094520363798" lon="15.039430108243163"><ele>408.0</ele><time>2026-04-19T07:50:08Z</time></trkpt><trkpt lat="36.96094586823517" lon="15.039292442932561"><ele>409.0</ele><time>2026-04-19T07:50:10Z</time></trkpt><trkpt lat="36.960899961176416" lon="15.039168205118449"><ele>409.4</ele><time>2026-04-19T07:50:12Z</time></trkpt><trkpt lat="36.96090135596722" lon="15.039045359256322"><ele>409.79999999999995</ele><time>2026-04-19T07:50:14Z</time></trkpt><trkpt lat="36.96098114364678" lon="15.03893960253464"><ele>410.20000000000005</ele><time>2026-04-19T07:50:16Z</time></trkpt><trkpt lat="36.961061796450124" lon="15.038914518190545"><ele>410.6</ele><time>2026-04-19T07:50:17Z</time></trkpt><trkpt lat="36.961118799146846" lon="15.038839308050008"><ele>411.0</ele><time>2026-04-19T07:50:18Z</time></trkpt><trkpt lat="36.961177544347606" lon="15.038767344184116"><ele>411.0</ele><time>2026-04-19T07:50:19Z</time></trkpt><trkpt lat="36.96125183043806" lon="15.038682271476013"><ele>411.0</ele><time>2026-04-19T07:50:20Z</time></trkpt><trkpt lat="36.96131532449386" lon="15.038611119932638"><ele>411.0</ele><time>2026-04-19T07:50:21Z</time></trkpt><trkpt lat="36.961388188161195" lon="15.038536157052423"><ele>411.0</ele><time>2026-04-19T07:50:22Z</time></trkpt><trkpt lat="36.96147059284111" lon="15.038458806334216"><ele>411.0</ele><time>2026-04-19T07:50:23Z</time></trkpt><trkpt lat="36.96153504024723" lon="15.038402876462776"><ele>411.0</ele><time>2026-04-19T07:50:24Z</time></trkpt><trkpt lat="36.96159917324177" lon="15.038349340909441"><ele>411.0</ele><time>2026-04-19T07:50:25Z</time></trkpt><trkpt lat="36.96166161545991" lon="15.038298551979008"><ele>411.0</ele><time>2026-04-19T07:50:26Z</time></trkpt><trkpt lat="36.96172051539785" lon="15.038250644256571"><ele>411.0</ele><time>2026-04-19T07:50:27Z</time></trkpt><trkpt lat="36.96177441020731" lon="15.038185457443978"><ele>411.0</ele><time>2026-04-19T07:50:28Z</time></trkpt><trkpt lat="36.96185490847904" lon="15.03815270288339"><ele>411.0</ele><time>2026-04-19T07:50:29Z</time></trkpt><trkpt lat="36.96191330912684" lon="15.038096318803511"><ele>411.8</ele><time>2026-04-19T07:50:30Z</time></trkpt><trkpt lat="36.96198126815941" lon="15.0380647851359"><ele>412.6</ele><time>2026-04-19T07:50:31Z</time></trkpt><trkpt lat="36.96208379293813" lon="15.038052001725013"><ele>413.4</ele><time>2026-04-19T07:50:32Z</time></trkpt><trkpt lat="36.962191942414364" lon="15.03800517278492"><ele>414.2</ele><time>2026-04-19T07:50:33Z</time></trkpt><trkpt lat="36.96229459850822" lon="15.037988579800881"><ele>415.0</ele><time>2026-04-19T07:50:34Z</time></trkpt><trkpt lat="36.962387308580645" lon="15.037953452746276"><ele>415.0</ele><time>2026-04-19T07:50:35Z</time></trkpt><trkpt lat="36.96245955528335" lon="15.03792005174489"><ele>415.0</ele><time>2026-04-19T07:50:36Z</time></trkpt><trkpt lat="36.96255330439009" lon="15.03787583551291"><ele>415.0</ele><time>2026-04-19T07:50:38Z</time></trkpt><trkpt lat="36.96261438175839" lon="15.037854091900309"><ele>415.0</ele><time>2026-04-19T07:50:41Z</time></trkpt><trkpt lat="36.962685614288304" lon="15.037735206515705"><ele>415.0</ele><time>2026-04-19T07:50:47Z</time></trkpt><trkpt lat="36.9627909299058" lon="15.037697141686351"><ele>415.50000000000006</ele><time>2026-04-19T07:50:49Z</time></trkpt><trkpt lat="36.96285285750894" lon="15.037664152179005"><ele>416.0</ele><time>2026-04-19T07:50:50Z</time></trkpt><trkpt lat="36.96291209409857" lon="15.037632596170043"><ele>416.5</ele><time>2026-04-19T07:50:51Z</time></trkpt><trkpt lat="36.9629699776219" lon="15.037565051861884"><ele>417.0</ele><time>2026-04-19T07:50:52Z</time></trkpt><trkpt lat="36.963032936124456" lon="15.037494150674721"><ele>417.50000000000006</ele><time>2026-04-19T07:50:53Z</time></trkpt><trkpt lat="36.96311248809078" lon="15.037402773803525"><ele>418.0</ele><time>2026-04-19T07:50:54Z</time></trkpt><trkpt lat="36.963192381039505" lon="15.037306937178698"><ele>418.50000000000006</ele><time>2026-04-19T07:50:55Z</time></trkpt><trkpt lat="36.9632376231461" lon="15.037220641907567"><ele>419.0</ele><time>2026-04-19T07:50:56Z</time></trkpt><trkpt lat="36.96329511887987" lon="15.037150886901292"><ele>419.5</ele><time>2026-04-19T07:50:57Z</time></trkpt><trkpt lat="36.963348828088826" lon="15.037081982821755"><ele>420.0</ele><time>2026-04-19T07:50:58Z</time></trkpt><trkpt lat="36.963416892995994" lon="15.037031488373373"><ele>420.50000000000006</ele><time>2026-04-19T07:50:59Z</time></trkpt><trkpt lat="36.96346545830137" lon="15.036952256786165"><ele>421.0</ele><time>2026-04-19T07:51:00Z</time></trkpt><trkpt lat="36.963516993855876" lon="15.03689299370714"><ele>421.6666666666667</ele><time>2026-04-19T07:51:01Z</time></trkpt><trkpt lat="36.963576356791165" lon="15.036843981926616"><ele>422.33333333333337</ele><time>2026-04-19T07:51:02Z</time></trkpt><trkpt lat="36.96363420838406" lon="15.036766396105397"><ele>423.0</ele><time>2026-04-19T07:51:03Z</time></trkpt><trkpt lat="36.96369747376601" lon="15.036673896303837"><ele>423.66666666666663</ele><time>2026-04-19T07:51:04Z</time></trkpt><trkpt lat="36.963766677421134" lon="15.036566650797543"><ele>424.3333333333333</ele><time>2026-04-19T07:51:05Z</time></trkpt><trkpt lat="36.96382147751181" lon="15.036495699041858"><ele>425.0</ele><time>2026-04-19T07:51:06Z</time></trkpt><trkpt lat="36.96387534925391" lon="15.036426623497674"><ele>426.16666666666663</ele><time>2026-04-19T07:51:07Z</time></trkpt><trkpt lat="36.963940890371255" lon="15.036339087338094"><ele>427.3333333333333</ele><time>2026-04-19T07:51:08Z</time></trkpt><trkpt lat="36.96398975742726" lon="15.03626970780591"><ele>428.5</ele><time>2026-04-19T07:51:09Z</time></trkpt><trkpt lat="36.96403792755786" lon="15.036200299652062"><ele>429.66666666666663</ele><time>2026-04-19T07:51:10Z</time></trkpt><trkpt lat="36.96406787315771" lon="15.036125711412597"><ele>430.8333333333333</ele><time>2026-04-19T07:51:11Z</time></trkpt><trkpt lat="36.964128670553556" lon="15.036046916752754"><ele>432.0</ele><time>2026-04-19T07:51:12Z</time></trkpt><trkpt lat="36.964188593060726" lon="15.035954821360457"><ele>432.1666666666667</ele><time>2026-04-19T07:51:13Z</time></trkpt><trkpt lat="36.96426907645793" lon="15.035870210584642"><ele>432.33333333333337</ele><time>2026-04-19T07:51:14Z</time></trkpt><trkpt lat="36.96433444700463" lon="15.035781455222486"><ele>432.5</ele><time>2026-04-19T07:51:15Z</time></trkpt><trkpt lat="36.96439360810626" lon="15.03571163570346"><ele>432.6666666666667</ele><time>2026-04-19T07:51:16Z</time></trkpt><trkpt lat="36.96445022400813" lon="15.03564940935112"><ele>432.83333333333337</ele><time>2026-04-19T07:51:17Z</time></trkpt><trkpt lat="36.96451281036109" lon="15.035581726909259"><ele>433.0</ele><time>2026-04-19T07:51:18Z</time></trkpt><trkpt lat="36.964575898334594" lon="15.035512645719772"><ele>433.6666666666667</ele><time>2026-04-19T07:51:19Z</time></trkpt><trkpt lat="36.96463428384814" lon="15.035422200133253"><ele>434.33333333333337</ele><time>2026-04-19T07:51:20Z</time></trkpt><trkpt lat="36.96471448111925" lon="15.035374639610188"><ele>435.0</ele><time>2026-04-19T07:51:21Z</time></trkpt><trkpt lat="36.96478457041169" lon="15.035324148608593"><ele>435.66666666666663</ele><time>2026-04-19T07:51:22Z</time></trkpt><trkpt lat="36.96486762174185" lon="15.035276513878761"><ele>436.3333333333333</ele><time>2026-04-19T07:51:23Z</time></trkpt><trkpt lat="36.964951605685165" lon="15.035228150061267"><ele>437.0</ele><time>2026-04-19T07:51:24Z</time></trkpt><trkpt lat="36.965056876518766" lon="15.035160276921545"><ele>437.0</ele><time>2026-04-19T07:51:25Z</time></trkpt><trkpt lat="36.96516784131961" lon="15.035081598863538"><ele>437.0</ele><time>2026-04-19T07:51:26Z</time></trkpt><trkpt lat="36.96528623631263" lon="15.034997417698344"><ele>437.0</ele><time>2026-04-19T07:51:27Z</time></trkpt><trkpt lat="36.96539303185607" lon="15.03492684626298"><ele>437.0</ele><time>2026-04-19T07:51:28Z</time></trkpt><trkpt lat="36.96548619722967" lon="15.034871601759637"><ele>437.16666666666663</ele><time>2026-04-19T07:51:29Z</time></trkpt><trkpt lat="36.965571266433365" lon="15.03482338815165"><ele>437.3333333333333</ele><time>2026-04-19T07:51:30Z</time></trkpt><trkpt lat="36.96564189017672" lon="15.034784311111272"><ele>437.5</ele><time>2026-04-19T07:51:31Z</time></trkpt><trkpt lat="36.96571058253451" lon="15.034745543357293"><ele>437.66666666666663</ele><time>2026-04-19T07:51:32Z</time></trkpt><trkpt lat="36.965774487945666" lon="15.034702504822034"><ele>437.8333333333333</ele><time>2026-04-19T07:51:33Z</time></trkpt><trkpt lat="36.96582674228907" lon="15.034650625388883"><ele>438.0</ele><time>2026-04-19T07:51:34Z</time></trkpt><trkpt lat="36.965905600733514" lon="15.034549328811918"><ele>438.0</ele><time>2026-04-19T07:51:36Z</time></trkpt><trkpt lat="36.965888605538964" lon="15.034464910338661"><ele>438.0</ele><time>2026-04-19T07:51:37Z</time></trkpt><trkpt lat="36.96579165715226" lon="15.034315828364965"><ele>438.0</ele><time>2026-04-19T07:51:40Z</time></trkpt><trkpt lat="36.96578725579167" lon="15.03446973130524"><ele>438.0</ele><time>2026-04-19T07:51:43Z</time></trkpt><trkpt lat="36.96590552325144" lon="15.034714688352476"><ele>438.0</ele><time>2026-04-19T07:51:48Z</time></trkpt><trkpt lat="36.965952824245335" lon="15.034855094158956"><ele>438.0</ele><time>2026-04-19T07:51:50Z</time></trkpt><trkpt lat="36.96599023748736" lon="15.03492925668641"><ele>438.0</ele><time>2026-04-19T07:51:51Z</time></trkpt><trkpt lat="36.9660371006714" lon="15.03499806212179"><ele>438.0</ele><time>2026-04-19T07:51:52Z</time></trkpt><trkpt lat="36.966089850029434" lon="15.035064164397136"><ele>438.0</ele><time>2026-04-19T07:51:53Z</time></trkpt><trkpt lat="36.966146499992306" lon="15.035141764310694"><ele>438.0</ele><time>2026-04-19T07:51:54Z</time></trkpt><trkpt lat="36.96619899881335" lon="15.035216395871757"><ele>437.8571428571429</ele><time>2026-04-19T07:51:55Z</time></trkpt><trkpt lat="36.96624263005503" lon="15.035288767556903"><ele>437.71428571428567</ele><time>2026-04-19T07:51:56Z</time></trkpt><trkpt lat="36.96628848747284" lon="15.03535205932408"><ele>437.57142857142856</ele><time>2026-04-19T07:51:57Z</time></trkpt><trkpt lat="36.96633836513346" lon="15.03541275184974"><ele>437.42857142857144</ele><time>2026-04-19T07:51:58Z</time></trkpt><trkpt lat="36.966394382593684" lon="15.03547264226264"><ele>437.28571428571433</ele><time>2026-04-19T07:51:59Z</time></trkpt><trkpt lat="36.96645851767604" lon="15.035528682895619"><ele>437.1428571428571</ele><time>2026-04-19T07:52:00Z</time></trkpt><trkpt lat="36.966526002277185" lon="15.035579203759907"><ele>437.0</ele><time>2026-04-19T07:52:01Z</time></trkpt><trkpt lat="36.96660162354599" lon="15.035614179622135"><ele>436.99999999999994</ele><time>2026-04-19T07:52:02Z</time></trkpt><trkpt lat="36.966687075897156" lon="15.035636491849752"><ele>437.0</ele><time>2026-04-19T07:52:02.999Z</time></trkpt><trkpt lat="36.966773430240984" lon="15.03564437653898"><ele>437.0</ele><time>2026-04-19T07:52:03.999Z</time></trkpt><trkpt lat="36.966864306194104" lon="15.035650547603886"><ele>437.0</ele><time>2026-04-19T07:52:04.999Z</time></trkpt><trkpt lat="36.96694702132523" lon="15.035658587331431"><ele>436.99999999999994</ele><time>2026-04-19T07:52:05.999Z</time></trkpt><trkpt lat="36.967027702325844" lon="15.035675002759007"><ele>437.0</ele><time>2026-04-19T07:52:07Z</time></trkpt><trkpt lat="36.96711377341199" lon="15.035699077411142"><ele>436.40000000000003</ele><time>2026-04-19T07:52:08Z</time></trkpt><trkpt lat="36.96721051128009" lon="15.03571754728974"><ele>435.80000000000007</ele><time>2026-04-19T07:52:09Z</time></trkpt><trkpt lat="36.96731426392067" lon="15.035732761858682"><ele>435.2</ele><time>2026-04-19T07:52:10Z</time></trkpt><trkpt lat="36.96741804755404" lon="15.035744948879762"><ele>434.6</ele><time>2026-04-19T07:52:11Z</time></trkpt><trkpt lat="36.9675192211041" lon="15.035757098042332"><ele>434.0</ele><time>2026-04-19T07:52:12Z</time></trkpt><trkpt lat="36.96762225103167" lon="15.03578147106871"><ele>433.0</ele><time>2026-04-19T07:52:13Z</time></trkpt><trkpt lat="36.96771994587515" lon="15.03582251192733"><ele>432.0</ele><time>2026-04-19T07:52:14Z</time></trkpt><trkpt lat="36.96781596536251" lon="15.035863086307494"><ele>431.0</ele><time>2026-04-19T07:52:15Z</time></trkpt><trkpt lat="36.967912243409806" lon="15.035913716403517"><ele>430.0</ele><time>2026-04-19T07:52:16Z</time></trkpt><trkpt lat="36.968005208406346" lon="15.035966520279088"><ele>429.0</ele><time>2026-04-19T07:52:17Z</time></trkpt><trkpt lat="36.968082056810616" lon="15.036019205385898"><ele>429.0</ele><time>2026-04-19T07:52:18Z</time></trkpt><trkpt lat="36.9681564504845" lon="15.03607176552266"><ele>429.0</ele><time>2026-04-19T07:52:19Z</time></trkpt><trkpt lat="36.968235234769956" lon="15.036136321958423"><ele>429.0</ele><time>2026-04-19T07:52:20Z</time></trkpt><trkpt lat="36.96831051078423" lon="15.0362025968778"><ele>429.0</ele><time>2026-04-19T07:52:21Z</time></trkpt><trkpt lat="36.96838524210644" lon="15.03626486282422"><ele>429.0</ele><time>2026-04-19T07:52:22Z</time></trkpt><trkpt lat="36.96846018581769" lon="15.036330852020768"><ele>429.6</ele><time>2026-04-19T07:52:23Z</time></trkpt><trkpt lat="36.96853480257586" lon="15.036411301405437"><ele>430.2</ele><time>2026-04-19T07:52:24Z</time></trkpt><trkpt lat="36.96861045854047" lon="15.03649782835923"><ele>430.80000000000007</ele><time>2026-04-19T07:52:25Z</time></trkpt><trkpt lat="36.968688767506706" lon="15.036584683291505"><ele>431.40000000000003</ele><time>2026-04-19T07:52:26Z</time></trkpt><trkpt lat="36.96877588918197" lon="15.036673707986761"><ele>432.0</ele><time>2026-04-19T07:52:27Z</time></trkpt><trkpt lat="36.968851851001254" lon="15.036757598309473"><ele>431.40000000000003</ele><time>2026-04-19T07:52:28Z</time></trkpt><trkpt lat="36.96892750245949" lon="15.036857208241893"><ele>430.80000000000007</ele><time>2026-04-19T07:52:29Z</time></trkpt><trkpt lat="36.96899708831643" lon="15.03695773925664"><ele>430.2</ele><time>2026-04-19T07:52:30Z</time></trkpt><trkpt lat="36.96906919207123" lon="15.037055897245244"><ele>429.6</ele><time>2026-04-19T07:52:31Z</time></trkpt><trkpt lat="36.969141345702944" lon="15.03715519777987"><ele>429.0</ele><time>2026-04-19T07:52:32Z</time></trkpt><trkpt lat="36.969208381123366" lon="15.037247975705586"><ele>429.0</ele><time>2026-04-19T07:52:33Z</time></trkpt><trkpt lat="36.96927278072512" lon="15.037327687950125"><ele>429.0</ele><time>2026-04-19T07:52:34Z</time></trkpt><trkpt lat="36.96934402314701" lon="15.037390862301779"><ele>429.0</ele><time>2026-04-19T07:52:35Z</time></trkpt><trkpt lat="36.96942656883216" lon="15.037448590311428"><ele>429.0</ele><time>2026-04-19T07:52:36Z</time></trkpt><trkpt lat="36.96951920419499" lon="15.037507100610476"><ele>429.0</ele><time>2026-04-19T07:52:37Z</time></trkpt><trkpt lat="36.96961682274267" lon="15.037567085787893"><ele>429.0</ele><time>2026-04-19T07:52:38Z</time></trkpt><trkpt lat="36.96971740026786" lon="15.037619335114437"><ele>429.0</ele><time>2026-04-19T07:52:39Z</time></trkpt><trkpt lat="36.96981662478114" lon="15.03765218792591"><ele>429.0</ele><time>2026-04-19T07:52:40Z</time></trkpt><trkpt lat="36.969914843820874" lon="15.037687083307745"><ele>429.0</ele><time>2026-04-19T07:52:41Z</time></trkpt><trkpt lat="36.970007816266836" lon="15.037724483013239"><ele>429.0</ele><time>2026-04-19T07:52:42Z</time></trkpt><trkpt lat="36.970096716390685" lon="15.037756903332589"><ele>429.0</ele><time>2026-04-19T07:52:43Z</time></trkpt><trkpt lat="36.97018150190642" lon="15.037781794226564"><ele>429.0</ele><time>2026-04-19T07:52:44Z</time></trkpt><trkpt lat="36.970257993756086" lon="15.037802055812747"><ele>429.0</ele><time>2026-04-19T07:52:45Z</time></trkpt><trkpt lat="36.97033974075381" lon="15.037826972317534"><ele>429.0</ele><time>2026-04-19T07:52:46Z</time></trkpt><trkpt lat="36.97042286735219" lon="15.037852783399693"><ele>429.0</ele><time>2026-04-19T07:52:47Z</time></trkpt><trkpt lat="36.970497991650525" lon="15.037880274691418"><ele>429.0</ele><time>2026-04-19T07:52:48Z</time></trkpt><trkpt lat="36.97059056045084" lon="15.037909512383925"><ele>429.0</ele><time>2026-04-19T07:52:49Z</time></trkpt><trkpt lat="36.97068337743377" lon="15.037939999423072"><ele>429.0</ele><time>2026-04-19T07:52:50Z</time></trkpt><trkpt lat="36.97076288845397" lon="15.037962847108721"><ele>429.0</ele><time>2026-04-19T07:52:51Z</time></trkpt><trkpt lat="36.97083566798857" lon="15.03798739346214"><ele>429.0</ele><time>2026-04-19T07:52:52Z</time></trkpt><trkpt lat="36.97091007457148" lon="15.038019771049445"><ele>429.0</ele><time>2026-04-19T07:52:53Z</time></trkpt><trkpt lat="36.97098732376025" lon="15.03805063545245"><ele>429.0</ele><time>2026-04-19T07:52:54Z</time></trkpt><trkpt lat="36.971063677734186" lon="15.038078143607844"><ele>429.0</ele><time>2026-04-19T07:52:55Z</time></trkpt><trkpt lat="36.97113313516508" lon="15.038108407296193"><ele>429.0</ele><time>2026-04-19T07:52:56Z</time></trkpt><trkpt lat="36.971197395099274" lon="15.038142251915684"><ele>429.0</ele><time>2026-04-19T07:52:57Z</time></trkpt><trkpt lat="36.97126342366567" lon="15.038175025799314"><ele>429.0</ele><time>2026-04-19T07:52:58Z</time></trkpt><trkpt lat="36.971337191718426" lon="15.038215347439206"><ele>429.0</ele><time>2026-04-19T07:52:59Z</time></trkpt><trkpt lat="36.971412183003544" lon="15.038249663461627"><ele>429.0</ele><time>2026-04-19T07:53:00Z</time></trkpt><trkpt lat="36.97148613648147" lon="15.038278429468859"><ele>429.0</ele><time>2026-04-19T07:53:01Z</time></trkpt><trkpt lat="36.97155850772742" lon="15.038298787623923"><ele>429.0</ele><time>2026-04-19T07:53:02Z</time></trkpt><trkpt lat="36.971628639296235" lon="15.038305432264421"><ele>429.0</ele><time>2026-04-19T07:53:03Z</time></trkpt><trkpt lat="36.971702868702344" lon="15.03830979006328"><ele>429.0</ele><time>2026-04-19T07:53:04Z</time></trkpt><trkpt lat="36.971792996874335" lon="15.038326907157048"><ele>429.0</ele><time>2026-04-19T07:53:05Z</time></trkpt><trkpt lat="36.97187568564779" lon="15.038344564913444"><ele>429.0</ele><time>2026-04-19T07:53:06Z</time></trkpt><trkpt lat="36.97195015935625" lon="15.038352743416917"><ele>428.4</ele><time>2026-04-19T07:53:07Z</time></trkpt><trkpt lat="36.97202340964663" lon="15.038355403129886"><ele>427.79999999999995</ele><time>2026-04-19T07:53:08Z</time></trkpt><trkpt lat="36.97208774500531" lon="15.038349971498127"><ele>427.20000000000005</ele><time>2026-04-19T07:53:09Z</time></trkpt><trkpt lat="36.972186859221814" lon="15.038292850447132"><ele>426.6</ele><time>2026-04-19T07:53:11Z</time></trkpt><trkpt lat="36.972279729086026" lon="15.03819910762859"><ele>426.0</ele><time>2026-04-19T07:53:13Z</time></trkpt><trkpt lat="36.972351907819636" lon="15.038145846287476"><ele>426.0</ele><time>2026-04-19T07:53:14Z</time></trkpt><trkpt lat="36.97243517418643" lon="15.038081614726302"><ele>426.0</ele><time>2026-04-19T07:53:15Z</time></trkpt><trkpt lat="36.97250668815592" lon="15.03801191442818"><ele>426.0</ele><time>2026-04-19T07:53:16Z</time></trkpt><trkpt lat="36.97258439644722" lon="15.03794282922634"><ele>426.0</ele><time>2026-04-19T07:53:17Z</time></trkpt><trkpt lat="36.972649789094916" lon="15.037875271060196"><ele>426.0</ele><time>2026-04-19T07:53:18Z</time></trkpt><trkpt lat="36.972707566591176" lon="15.03781740536638"><ele>426.0</ele><time>2026-04-19T07:53:19Z</time></trkpt><trkpt lat="36.972766623457964" lon="15.037766241504487"><ele>426.0</ele><time>2026-04-19T07:53:20Z</time></trkpt><trkpt lat="36.97283434675694" lon="15.037716475644638"><ele>426.0</ele><time>2026-04-19T07:53:21Z</time></trkpt><trkpt lat="36.9729073563836" lon="15.037670362919584"><ele>426.0</ele><time>2026-04-19T07:53:22Z</time></trkpt><trkpt lat="36.972967370114176" lon="15.037634161633033"><ele>426.0</ele><time>2026-04-19T07:53:23Z</time></trkpt><trkpt lat="36.973086346123985" lon="15.037610222914411"><ele>426.0</ele><time>2026-04-19T07:53:25Z</time></trkpt><trkpt lat="36.97317577557538" lon="15.037674103130678"><ele>425.99999999999994</ele><time>2026-04-19T07:53:27Z</time></trkpt><trkpt lat="36.97321878213862" lon="15.037734704804722"><ele>426.0</ele><time>2026-04-19T07:53:29Z</time></trkpt><trkpt lat="36.97329439457372" lon="15.037781370559232"><ele>426.0</ele><time>2026-04-19T07:53:32Z</time></trkpt><trkpt lat="36.97333395216259" lon="15.037872445739673"><ele>426.0</ele><time>2026-04-19T07:53:36Z</time></trkpt><trkpt lat="36.973371385829076" lon="15.037953740558724"><ele>426.0</ele><time>2026-04-19T07:53:40Z</time></trkpt><trkpt lat="36.97342700995029" lon="15.037999824777895"><ele>425.99999999999994</ele><time>2026-04-19T07:53:45Z</time></trkpt><trkpt lat="36.97347214332733" lon="15.03805791389551"><ele>426.0</ele><time>2026-04-19T07:53:48Z</time></trkpt><trkpt lat="36.973490810066394" lon="15.038151085631906"><ele>426.99999999999994</ele><time>2026-04-19T07:53:55Z</time></trkpt><trkpt lat="36.973509562944564" lon="15.038230294413323"><ele>428.0</ele><time>2026-04-19T07:54:04Z</time></trkpt><trkpt lat="36.97352717008026" lon="15.038312653500869"><ele>429.0</ele><time>2026-04-19T07:54:13Z</time></trkpt><trkpt lat="36.9735142867855" lon="15.038398191511408"><ele>430.0</ele><time>2026-04-19T07:54:19Z</time></trkpt><trkpt lat="36.97353127689313" lon="15.038493772700212"><ele>431.0</ele><time>2026-04-19T07:54:24Z</time></trkpt><trkpt lat="36.97353150843286" lon="15.038574841057207"><ele>431.99999999999994</ele><time>2026-04-19T07:54:32Z</time></trkpt><trkpt lat="36.97352668911416" lon="15.03866185803176"><ele>433.0</ele><time>2026-04-19T07:54:36Z</time></trkpt><trkpt lat="36.97353901470592" lon="15.038749684849963"><ele>433.83333333333337</ele><time>2026-04-19T07:54:39Z</time></trkpt><trkpt lat="36.973531864987294" lon="15.038828080287518"><ele>434.6666666666667</ele><time>2026-04-19T07:55:23Z</time></trkpt><trkpt lat="36.97354051934047" lon="15.038943905134417"><ele>435.5</ele><time>2026-04-19T07:55:26Z</time></trkpt><trkpt lat="36.97355311899408" lon="15.039040541849408"><ele>436.33333333333337</ele><time>2026-04-19T07:55:29Z</time></trkpt><trkpt lat="36.973567530274416" lon="15.039150800012989"><ele>437.1666666666667</ele><time>2026-04-19T07:55:33Z</time></trkpt><trkpt lat="36.97359481377997" lon="15.039239244891034"><ele>438.0</ele><time>2026-04-19T07:55:37Z</time></trkpt><trkpt lat="36.97361316372349" lon="15.039336355668585"><ele>438.0</ele><time>2026-04-19T07:55:41Z</time></trkpt><trkpt lat="36.97363180050301" lon="15.039420878139582"><ele>438.0</ele><time>2026-04-19T07:55:45Z</time></trkpt><trkpt lat="36.973627895565166" lon="15.039510966664924"><ele>438.0</ele><time>2026-04-19T07:55:49Z</time></trkpt><trkpt lat="36.97363023138494" lon="15.039592381751994"><ele>438.0</ele><time>2026-04-19T07:55:55Z</time></trkpt><trkpt lat="36.97367456047757" lon="15.039684912120537"><ele>438.0</ele><time>2026-04-19T07:55:58Z</time></trkpt><trkpt lat="36.973665096149446" lon="15.03979726581656"><ele>438.0</ele><time>2026-04-19T07:56:01Z</time></trkpt><trkpt lat="36.97366656667491" lon="15.039888237996491"><ele>437.7142857142857</ele><time>2026-04-19T07:56:09Z</time></trkpt><trkpt lat="36.9736728034437" lon="15.03997856357934"><ele>437.4285714285714</ele><time>2026-04-19T07:56:24Z</time></trkpt><trkpt lat="36.97370553352326" lon="15.040049073722944"><ele>437.1428571428571</ele><time>2026-04-19T07:56:27Z</time></trkpt><trkpt lat="36.973725014034194" lon="15.04013627608314"><ele>436.8571428571429</ele><time>2026-04-19T07:56:31Z</time></trkpt><trkpt lat="36.973730166090974" lon="15.040218297986511"><ele>436.57142857142856</ele><time>2026-04-19T07:56:36Z</time></trkpt><trkpt lat="36.973705589274694" lon="15.040296773634424"><ele>436.2857142857143</ele><time>2026-04-19T08:00:52Z</time></trkpt><trkpt lat="36.97376672871433" lon="15.040380116130757"><ele>436.0</ele><time>2026-04-19T08:00:56Z</time></trkpt><trkpt lat="36.973767064928424" lon="15.040465784867044"><ele>436.00000000000006</ele><time>2026-04-19T08:00:59Z</time></trkpt><trkpt lat="36.97378627179642" lon="15.040541131688451"><ele>436.0</ele><time>2026-04-19T08:01:03Z</time></trkpt><trkpt lat="36.9738342674694" lon="15.040602520104782"><ele>436.0</ele><time>2026-04-19T08:01:07Z</time></trkpt><trkpt lat="36.97386572000319" lon="15.040684458975736"><ele>436.0</ele><time>2026-04-19T08:01:24Z</time></trkpt><trkpt lat="36.97391174852146" lon="15.04079494470303"><ele>436.00000000000006</ele><time>2026-04-19T08:01:26Z</time></trkpt><trkpt lat="36.973969726713854" lon="15.040906760043896"><ele>436.0</ele><time>2026-04-19T08:01:28Z</time></trkpt><trkpt lat="36.97403592520679" lon="15.041004816591826"><ele>435.6</ele><time>2026-04-19T08:01:30Z</time></trkpt><trkpt lat="36.97408735826054" lon="15.041094536350316"><ele>435.20000000000005</ele><time>2026-04-19T08:01:32Z</time></trkpt><trkpt lat="36.97416611163874" lon="15.041189660747259"><ele>434.79999999999995</ele><time>2026-04-19T08:01:34Z</time></trkpt><trkpt lat="36.974227911334" lon="15.04128226856861"><ele>434.4</ele><time>2026-04-19T08:01:36Z</time></trkpt><trkpt lat="36.974288067451035" lon="15.041386739287528"><ele>434.0</ele><time>2026-04-19T08:01:38Z</time></trkpt><trkpt lat="36.97436268239462" lon="15.041471762706175"><ele>433.3333333333333</ele><time>2026-04-19T08:01:40Z</time></trkpt><trkpt lat="36.97446164199332" lon="15.041564838167846"><ele>432.66666666666663</ele><time>2026-04-19T08:01:42Z</time></trkpt><trkpt lat="36.974523822839124" lon="15.041615307508618"><ele>432.0</ele><time>2026-04-19T08:01:43Z</time></trkpt><trkpt lat="36.974589383918016" lon="15.04166506141955"><ele>431.33333333333337</ele><time>2026-04-19T08:01:44Z</time></trkpt><trkpt lat="36.97464331228583" lon="15.041705855350855"><ele>430.6666666666667</ele><time>2026-04-19T08:01:45Z</time></trkpt><trkpt lat="36.97473088451735" lon="15.041760996985929"><ele>430.0</ele><time>2026-04-19T08:01:47Z</time></trkpt><trkpt lat="36.97477262715804" lon="15.04183956629185"><ele>430.0</ele><time>2026-04-19T08:01:49Z</time></trkpt><trkpt lat="36.974835760357095" lon="15.041833270747912"><ele>430.0</ele><time>2026-04-19T08:01:53Z</time></trkpt><trkpt lat="36.974865828836045" lon="15.041613226484357"><ele>430.0</ele><time>2026-04-19T08:01:54Z</time></trkpt><trkpt lat="36.974885994908355" lon="15.041502454478403"><ele>430.0</ele><time>2026-04-19T08:01:55Z</time></trkpt><trkpt lat="36.974919194830505" lon="15.041368640467821"><ele>430.0</ele><time>2026-04-19T08:01:56Z</time></trkpt><trkpt lat="36.97495604558555" lon="15.0412351457285"><ele>430.0</ele><time>2026-04-19T08:01:57Z</time></trkpt><trkpt lat="36.974995591105866" lon="15.041100864443203"><ele>430.0</ele><time>2026-04-19T08:01:58Z</time></trkpt><trkpt lat="36.97503346163691" lon="15.040957240018798"><ele>430.0</ele><time>2026-04-19T08:01:59Z</time></trkpt><trkpt lat="36.97507784919692" lon="15.04078894605038"><ele>430.0</ele><time>2026-04-19T08:02:00Z</time></trkpt><trkpt lat="36.97513233185153" lon="15.040616787355658"><ele>428.5</ele><time>2026-04-19T08:02:01Z</time></trkpt><trkpt lat="36.97518808219274" lon="15.040449742433616"><ele>427.0</ele><time>2026-04-19T08:02:02Z</time></trkpt><trkpt lat="36.97524089199471" lon="15.040300017607299"><ele>425.5</ele><time>2026-04-19T08:02:03Z</time></trkpt><trkpt lat="36.975303168910735" lon="15.040159322032624"><ele>424.0</ele><time>2026-04-19T08:02:04Z</time></trkpt><trkpt lat="36.975371081976284" lon="15.040023690735334"><ele>425.25</ele><time>2026-04-19T08:02:05Z</time></trkpt><trkpt lat="36.975433446494655" lon="15.039879041926026"><ele>426.5</ele><time>2026-04-19T08:02:06Z</time></trkpt><trkpt lat="36.975505052163" lon="15.03973599241839"><ele>427.75</ele><time>2026-04-19T08:02:07Z</time></trkpt><trkpt lat="36.97557755692148" lon="15.039588296821098"><ele>429.0</ele><time>2026-04-19T08:02:08Z</time></trkpt><trkpt lat="36.975647083806955" lon="15.03943738369685"><ele>429.0</ele><time>2026-04-19T08:02:09Z</time></trkpt><trkpt lat="36.9757097703888" lon="15.039290111603712"><ele>429.0</ele><time>2026-04-19T08:02:10Z</time></trkpt><trkpt lat="36.97577655944297" lon="15.03914364721947"><ele>429.0</ele><time>2026-04-19T08:02:11Z</time></trkpt><trkpt lat="36.97584371936597" lon="15.03899623492468"><ele>429.0</ele><time>2026-04-19T08:02:12Z</time></trkpt><trkpt lat="36.97590829783711" lon="15.038845270775944"><ele>429.25</ele><time>2026-04-19T08:02:13Z</time></trkpt><trkpt lat="36.97597839346549" lon="15.038690873195296"><ele>429.5</ele><time>2026-04-19T08:02:14Z</time></trkpt><trkpt lat="36.976047287245784" lon="15.038540562661378"><ele>429.75</ele><time>2026-04-19T08:02:15Z</time></trkpt><trkpt lat="36.976121130914265" lon="15.038398051466974"><ele>430.0</ele><time>2026-04-19T08:02:16Z</time></trkpt><trkpt lat="36.97621168550722" lon="15.038268107692096"><ele>430.0</ele><time>2026-04-19T08:02:17Z</time></trkpt><trkpt lat="36.97629906505337" lon="15.038142376885625"><ele>430.0</ele><time>2026-04-19T08:02:18Z</time></trkpt><trkpt lat="36.976382393628136" lon="15.03800265790218"><ele>430.0</ele><time>2026-04-19T08:02:19Z</time></trkpt><trkpt lat="36.97648064576505" lon="15.037884182126827"><ele>430.0</ele><time>2026-04-19T08:02:20Z</time></trkpt><trkpt lat="36.976584371591656" lon="15.037784477696464"><ele>430.0</ele><time>2026-04-19T08:02:21Z</time></trkpt><trkpt lat="36.97668131077684" lon="15.037672809807447"><ele>430.0</ele><time>2026-04-19T08:02:22Z</time></trkpt><trkpt lat="36.976776369503234" lon="15.037549953939179"><ele>430.0</ele><time>2026-04-19T08:02:23Z</time></trkpt><trkpt lat="36.976890569815936" lon="15.03744564956159"><ele>430.0</ele><time>2026-04-19T08:02:24Z</time></trkpt><trkpt lat="36.97700220056378" lon="15.037344142526154"><ele>429.75</ele><time>2026-04-19T08:02:25Z</time></trkpt><trkpt lat="36.977113942018235" lon="15.037237264894026"><ele>429.5</ele><time>2026-04-19T08:02:26Z</time></trkpt><trkpt lat="36.97722374595234" lon="15.037127373767055"><ele>429.25</ele><time>2026-04-19T08:02:27Z</time></trkpt><trkpt lat="36.97732857797584" lon="15.037015668465548"><ele>429.0</ele><time>2026-04-19T08:02:28Z</time></trkpt><trkpt lat="36.97743555566357" lon="15.036900290618664"><ele>428.0</ele><time>2026-04-19T08:02:29Z</time></trkpt><trkpt lat="36.977543553124086" lon="15.036785972485642"><ele>427.0</ele><time>2026-04-19T08:02:30Z</time></trkpt><trkpt lat="36.977648716094606" lon="15.036668815808172"><ele>426.0</ele><time>2026-04-19T08:02:31Z</time></trkpt><trkpt lat="36.977750968137286" lon="15.036550240499524"><ele>425.0</ele><time>2026-04-19T08:02:32Z</time></trkpt><trkpt lat="36.9778514746769" lon="15.036434331025747"><ele>425.0</ele><time>2026-04-19T08:02:33Z</time></trkpt><trkpt lat="36.9779514027344" lon="15.036317273541988"><ele>425.0</ele><time>2026-04-19T08:02:34Z</time></trkpt><trkpt lat="36.97804425651427" lon="15.036187362279039"><ele>425.0</ele><time>2026-04-19T08:02:35Z</time></trkpt><trkpt lat="36.97812767917171" lon="15.036026889627049"><ele>425.0</ele><time>2026-04-19T08:02:36Z</time></trkpt><trkpt lat="36.978228287198476" lon="15.035867102743435"><ele>424.66666666666663</ele><time>2026-04-19T08:02:37Z</time></trkpt><trkpt lat="36.97831354567285" lon="15.035695166226292"><ele>424.33333333333337</ele><time>2026-04-19T08:02:38Z</time></trkpt><trkpt lat="36.978380359375834" lon="15.035521620215915"><ele>424.0</ele><time>2026-04-19T08:02:39Z</time></trkpt><trkpt lat="36.978457218931645" lon="15.03537444825296"><ele>424.0</ele><time>2026-04-19T08:02:40Z</time></trkpt><trkpt lat="36.978528892197595" lon="15.035223517255542"><ele>424.0</ele><time>2026-04-19T08:02:41Z</time></trkpt><trkpt lat="36.978615817106736" lon="15.035085927768591"><ele>424.0</ele><time>2026-04-19T08:02:42Z</time></trkpt><trkpt lat="36.978685330693395" lon="15.034947919254634"><ele>424.0</ele><time>2026-04-19T08:02:43Z</time></trkpt><trkpt lat="36.978751994630585" lon="15.034820280155001"><ele>425.25</ele><time>2026-04-19T08:02:44Z</time></trkpt><trkpt lat="36.978817492510174" lon="15.034707328267144"><ele>426.5</ele><time>2026-04-19T08:02:45Z</time></trkpt><trkpt lat="36.97889749616703" lon="15.034578208005945"><ele>427.75</ele><time>2026-04-19T08:02:46Z</time></trkpt><trkpt lat="36.97897536781685" lon="15.034455239129882"><ele>429.0</ele><time>2026-04-19T08:02:47Z</time></trkpt><trkpt lat="36.9790299286316" lon="15.034328237159823"><ele>429.0</ele><time>2026-04-19T08:02:48Z</time></trkpt><trkpt lat="36.979098634845016" lon="15.034211578055126"><ele>429.0</ele><time>2026-04-19T08:02:49Z</time></trkpt><trkpt lat="36.979166015701615" lon="15.034085483776723"><ele>429.0</ele><time>2026-04-19T08:02:50Z</time></trkpt><trkpt lat="36.97923477191061" lon="15.03395301261987"><ele>429.0</ele><time>2026-04-19T08:02:51Z</time></trkpt><trkpt lat="36.979306004829205" lon="15.033820559929962"><ele>429.0</ele><time>2026-04-19T08:02:52Z</time></trkpt><trkpt lat="36.9793828704702" lon="15.033686258624998"><ele>429.0</ele><time>2026-04-19T08:02:53Z</time></trkpt><trkpt lat="36.97945120716426" lon="15.03354324283087"><ele>429.0</ele><time>2026-04-19T08:02:54Z</time></trkpt><trkpt lat="36.97950494706845" lon="15.033391756426573"><ele>429.0</ele><time>2026-04-19T08:02:55Z</time></trkpt><trkpt lat="36.97954161620971" lon="15.033242588751763"><ele>429.0</ele><time>2026-04-19T08:02:56Z</time></trkpt><trkpt lat="36.97956564363586" lon="15.03310493364932"><ele>429.0</ele><time>2026-04-19T08:02:57Z</time></trkpt><trkpt lat="36.979589794403616" lon="15.032973434042448"><ele>429.0</ele><time>2026-04-19T08:02:58Z</time></trkpt><trkpt lat="36.97960711196025" lon="15.032823103920187"><ele>429.0</ele><time>2026-04-19T08:02:59Z</time></trkpt><trkpt lat="36.97961232247355" lon="15.03265121930693"><ele>430.33333333333337</ele><time>2026-04-19T08:03:00Z</time></trkpt><trkpt lat="36.979639872953555" lon="15.032469314141535"><ele>431.6666666666667</ele><time>2026-04-19T08:03:01Z</time></trkpt><trkpt lat="36.97965532279969" lon="15.032275918098332"><ele>433.0</ele><time>2026-04-19T08:03:02Z</time></trkpt><trkpt lat="36.97967106194496" lon="15.032080248279257"><ele>433.0</ele><time>2026-04-19T08:03:03Z</time></trkpt><trkpt lat="36.97968639919915" lon="15.031889574663031"><ele>433.0</ele><time>2026-04-19T08:03:04Z</time></trkpt><trkpt lat="36.97970014703253" lon="15.031724991945438"><ele>433.0</ele><time>2026-04-19T08:03:05Z</time></trkpt><trkpt lat="36.979701741422325" lon="15.03158028080404"><ele>433.0</ele><time>2026-04-19T08:03:06Z</time></trkpt><trkpt lat="36.979724587678135" lon="15.031454658529718"><ele>433.79999999999995</ele><time>2026-04-19T08:03:07Z</time></trkpt><trkpt lat="36.979749586528406" lon="15.031335302847655"><ele>434.59999999999997</ele><time>2026-04-19T08:03:08Z</time></trkpt><trkpt lat="36.9797727161302" lon="15.031221799409163"><ele>435.40000000000003</ele><time>2026-04-19T08:03:09Z</time></trkpt><trkpt lat="36.979793706521825" lon="15.03111373325251"><ele>436.20000000000005</ele><time>2026-04-19T08:03:10Z</time></trkpt><trkpt lat="36.97981084085585" lon="15.031021102844312"><ele>437.0</ele><time>2026-04-19T08:03:11Z</time></trkpt><trkpt lat="36.979836000227294" lon="15.030884938151202"><ele>436.99999999999994</ele><time>2026-04-19T08:03:13Z</time></trkpt><trkpt lat="36.97986235276522" lon="15.030803589870198"><ele>437.0</ele><time>2026-04-19T08:03:28Z</time></trkpt><trkpt lat="36.97992785688053" lon="15.030727518733377"><ele>437.0</ele><time>2026-04-19T08:03:30Z</time></trkpt><trkpt lat="36.98000896766237" lon="15.03069461632496"><ele>437.0</ele><time>2026-04-19T08:03:31Z</time></trkpt><trkpt lat="36.98008763138594" lon="15.030664330224285"><ele>436.99999999999994</ele><time>2026-04-19T08:03:32Z</time></trkpt><trkpt lat="36.98015049507532" lon="15.030626740409252"><ele>437.0</ele><time>2026-04-19T08:03:33Z</time></trkpt><trkpt lat="36.98020916134509" lon="15.030585011467421"><ele>436.99999999999994</ele><time>2026-04-19T08:03:34Z</time></trkpt><trkpt lat="36.98027343541674" lon="15.030542749911602"><ele>437.0</ele><time>2026-04-19T08:03:35Z</time></trkpt><trkpt lat="36.98034901579357" lon="15.03049197576629"><ele>437.0</ele><time>2026-04-19T08:03:36Z</time></trkpt><trkpt lat="36.98043494289099" lon="15.030429773623618"><ele>437.0</ele><time>2026-04-19T08:03:37Z</time></trkpt><trkpt lat="36.98051907598288" lon="15.030372685673516"><ele>436.99999999999994</ele><time>2026-04-19T08:03:38Z</time></trkpt><trkpt lat="36.980594792392225" lon="15.030326792551188"><ele>437.0</ele><time>2026-04-19T08:03:39Z</time></trkpt><trkpt lat="36.98066256861617" lon="15.030282939126488"><ele>436.99999999999994</ele><time>2026-04-19T08:03:40Z</time></trkpt><trkpt lat="36.98073005894852" lon="15.03023731654955"><ele>437.0</ele><time>2026-04-19T08:03:41Z</time></trkpt><trkpt lat="36.980799502120476" lon="15.030191232635428"><ele>437.0</ele><time>2026-04-19T08:03:42Z</time></trkpt><trkpt lat="36.98087658611081" lon="15.030141267436106"><ele>437.0</ele><time>2026-04-19T08:03:43Z</time></trkpt><trkpt lat="36.98095093291143" lon="15.030085243350875"><ele>436.99999999999994</ele><time>2026-04-19T08:03:44Z</time></trkpt><trkpt lat="36.98102473895161" lon="15.030039259422457"><ele>437.0</ele><time>2026-04-19T08:03:45Z</time></trkpt><trkpt lat="36.98110116623629" lon="15.029989688356485"><ele>436.66666666666663</ele><time>2026-04-19T08:03:46Z</time></trkpt><trkpt lat="36.981181046188766" lon="15.029938259034283"><ele>436.3333333333333</ele><time>2026-04-19T08:03:47Z</time></trkpt><trkpt lat="36.98125632795363" lon="15.029886795338175"><ele>436.0</ele><time>2026-04-19T08:03:48Z</time></trkpt><trkpt lat="36.98132488603805" lon="15.029841148948128"><ele>435.66666666666663</ele><time>2026-04-19T08:03:49Z</time></trkpt><trkpt lat="36.98139821817132" lon="15.029792477172444"><ele>435.3333333333333</ele><time>2026-04-19T08:03:50Z</time></trkpt><trkpt lat="36.98147360411367" lon="15.029743191539156"><ele>435.0</ele><time>2026-04-19T08:03:51Z</time></trkpt><trkpt lat="36.981542240975536" lon="15.029694192986929"><ele>435.0</ele><time>2026-04-19T08:03:52Z</time></trkpt><trkpt lat="36.981611002537015" lon="15.029656064118466"><ele>435.0</ele><time>2026-04-19T08:03:53Z</time></trkpt><trkpt lat="36.98168199372281" lon="15.02960634313084"><ele>435.0</ele><time>2026-04-19T08:03:54Z</time></trkpt><trkpt lat="36.98176180948839" lon="15.029554920046175"><ele>435.0</ele><time>2026-04-19T08:03:55Z</time></trkpt><trkpt lat="36.981843637641845" lon="15.029502345024278"><ele>435.0</ele><time>2026-04-19T08:03:56Z</time></trkpt><trkpt lat="36.98192353162244" lon="15.02944296988194"><ele>435.0</ele><time>2026-04-19T08:03:57Z</time></trkpt><trkpt lat="36.98203041650829" lon="15.029385486569728"><ele>434.75</ele><time>2026-04-19T08:03:58Z</time></trkpt><trkpt lat="36.98214550994061" lon="15.029309119602837"><ele>434.5</ele><time>2026-04-19T08:03:59Z</time></trkpt><trkpt lat="36.98227618607625" lon="15.029221966067224"><ele>434.25</ele><time>2026-04-19T08:04:00Z</time></trkpt><trkpt lat="36.982417640710885" lon="15.029126335049733"><ele>434.0</ele><time>2026-04-19T08:04:01Z</time></trkpt><trkpt lat="36.9825474749909" lon="15.02904046640493"><ele>434.0</ele><time>2026-04-19T08:04:02Z</time></trkpt><trkpt lat="36.982659663684075" lon="15.028962749008308"><ele>434.0</ele><time>2026-04-19T08:04:03Z</time></trkpt><trkpt lat="36.98277896730169" lon="15.028891437941711"><ele>434.0</ele><time>2026-04-19T08:04:04Z</time></trkpt><trkpt lat="36.98291735088455" lon="15.028821062797897"><ele>434.0</ele><time>2026-04-19T08:04:05Z</time></trkpt><trkpt lat="36.98305443307725" lon="15.028772702298802"><ele>434.0</ele><time>2026-04-19T08:04:06Z</time></trkpt><trkpt lat="36.98318888994539" lon="15.028725378523534"><ele>434.0</ele><time>2026-04-19T08:04:07Z</time></trkpt><trkpt lat="36.98331814542869" lon="15.0286818049579"><ele>434.0</ele><time>2026-04-19T08:04:08Z</time></trkpt><trkpt lat="36.98345291472559" lon="15.028637432178302"><ele>434.0</ele><time>2026-04-19T08:04:09Z</time></trkpt><trkpt lat="36.98359142630911" lon="15.02858409995947"><ele>433.75</ele><time>2026-04-19T08:04:10Z</time></trkpt><trkpt lat="36.98372912988839" lon="15.028532263856746"><ele>433.5</ele><time>2026-04-19T08:04:11Z</time></trkpt><trkpt lat="36.983861160664496" lon="15.028488591318073"><ele>433.25</ele><time>2026-04-19T08:04:12Z</time></trkpt><trkpt lat="36.9839893751489" lon="15.028443574709916"><ele>433.0</ele><time>2026-04-19T08:04:13Z</time></trkpt><trkpt lat="36.984116330974786" lon="15.028398885054349"><ele>433.25</ele><time>2026-04-19T08:04:14Z</time></trkpt><trkpt lat="36.98424450116005" lon="15.028353540140827"><ele>433.5</ele><time>2026-04-19T08:04:15Z</time></trkpt><trkpt lat="36.984376556843166" lon="15.028302510681282"><ele>433.75</ele><time>2026-04-19T08:04:16Z</time></trkpt><trkpt lat="36.98452342504623" lon="15.02824978096317"><ele>434.0</ele><time>2026-04-19T08:04:17Z</time></trkpt><trkpt lat="36.98466090695007" lon="15.028202078960996"><ele>434.0</ele><time>2026-04-19T08:04:18Z</time></trkpt><trkpt lat="36.98478796159308" lon="15.028158031355108"><ele>434.0</ele><time>2026-04-19T08:04:19Z</time></trkpt><trkpt lat="36.98490696856729" lon="15.028115849587154"><ele>434.0</ele><time>2026-04-19T08:04:20Z</time></trkpt><trkpt lat="36.98502423859691" lon="15.02807533008484"><ele>434.0</ele><time>2026-04-19T08:04:21Z</time></trkpt><trkpt lat="36.98514391553288" lon="15.028033071008997"><ele>432.25</ele><time>2026-04-19T08:04:22Z</time></trkpt><trkpt lat="36.985266142186234" lon="15.027990069082936"><ele>430.5</ele><time>2026-04-19T08:04:23Z</time></trkpt><trkpt lat="36.98538807383525" lon="15.027944372519169"><ele>428.75</ele><time>2026-04-19T08:04:24Z</time></trkpt><trkpt lat="36.98550569006514" lon="15.02788906788461"><ele>427.0</ele><time>2026-04-19T08:04:25Z</time></trkpt><trkpt lat="36.98561367348664" lon="15.027803703475268"><ele>427.0</ele><time>2026-04-19T08:04:26Z</time></trkpt><trkpt lat="36.985706126543" lon="15.027696389701138"><ele>427.00000000000006</ele><time>2026-04-19T08:04:27Z</time></trkpt><trkpt lat="36.98577803519317" lon="15.027586311316977"><ele>427.00000000000006</ele><time>2026-04-19T08:04:28Z</time></trkpt><trkpt lat="36.98583779372984" lon="15.02748647175187"><ele>427.0</ele><time>2026-04-19T08:04:29Z</time></trkpt><trkpt lat="36.98588801746644" lon="15.027390953134118"><ele>427.0</ele><time>2026-04-19T08:04:30Z</time></trkpt><trkpt lat="36.98592650950222" lon="15.027297881448662"><ele>425.83333333333337</ele><time>2026-04-19T08:04:31Z</time></trkpt><trkpt lat="36.98596444403626" lon="15.027205501209002"><ele>424.6666666666667</ele><time>2026-04-19T08:04:32Z</time></trkpt><trkpt lat="36.9859933761384" lon="15.027115209498495"><ele>423.5</ele><time>2026-04-19T08:04:33Z</time></trkpt><trkpt lat="36.986013548128696" lon="15.027027282922333"><ele>422.33333333333337</ele><time>2026-04-19T08:04:34Z</time></trkpt><trkpt lat="36.98604765317557" lon="15.026918961701341"><ele>421.1666666666667</ele><time>2026-04-19T08:04:36Z</time></trkpt><trkpt lat="36.98608196828014" lon="15.026849034049967"><ele>420.0</ele><time>2026-04-19T08:04:39Z</time></trkpt><trkpt lat="36.986018575508105" lon="15.026781012592735"><ele>420.0</ele><time>2026-04-19T08:04:41Z</time></trkpt><trkpt lat="36.98594494456325" lon="15.026701039109465"><ele>420.0</ele><time>2026-04-19T08:04:45Z</time></trkpt><trkpt lat="36.985880503186145" lon="15.02661682101712"><ele>420.0</ele><time>2026-04-19T08:04:47Z</time></trkpt><trkpt lat="36.985804637515976" lon="15.026531299371852"><ele>420.0</ele><time>2026-04-19T08:04:49Z</time></trkpt><trkpt lat="36.98570773061807" lon="15.026436799734697"><ele>420.0</ele><time>2026-04-19T08:04:51Z</time></trkpt><trkpt lat="36.985652956223326" lon="15.026391485948105"><ele>421.6666666666667</ele><time>2026-04-19T08:04:52Z</time></trkpt><trkpt lat="36.98559238206965" lon="15.026344793524856"><ele>423.33333333333337</ele><time>2026-04-19T08:04:53Z</time></trkpt><trkpt lat="36.98552714408487" lon="15.02629447504058"><ele>425.0</ele><time>2026-04-19T08:04:54Z</time></trkpt><trkpt lat="36.985461662599135" lon="15.026241627259564"><ele>426.6666666666667</ele><time>2026-04-19T08:04:55Z</time></trkpt><trkpt lat="36.98537312825875" lon="15.026181526064807"><ele>428.33333333333337</ele><time>2026-04-19T08:04:56Z</time></trkpt><trkpt lat="36.98528932112556" lon="15.026115600838954"><ele>430.0</ele><time>2026-04-19T08:04:57Z</time></trkpt><trkpt lat="36.985211688978694" lon="15.026049296695385"><ele>430.0</ele><time>2026-04-19T08:04:58Z</time></trkpt><trkpt lat="36.98513160993888" lon="15.025988483324218"><ele>430.0</ele><time>2026-04-19T08:04:59Z</time></trkpt><trkpt lat="36.98505057696617" lon="15.025915026391809"><ele>430.0</ele><time>2026-04-19T08:05:00Z</time></trkpt><trkpt lat="36.984969307908905" lon="15.025832110389004"><ele>430.0</ele><time>2026-04-19T08:05:01Z</time></trkpt><trkpt lat="36.984895713109374" lon="15.025756229365122"><ele>430.0</ele><time>2026-04-19T08:05:02Z</time></trkpt><trkpt lat="36.98482050429484" lon="15.025693374750029"><ele>430.8</ele><time>2026-04-19T08:05:03Z</time></trkpt><trkpt lat="36.98474596759061" lon="15.025640597253473"><ele>431.6</ele><time>2026-04-19T08:05:04Z</time></trkpt><trkpt lat="36.98466305556151" lon="15.02557337280153"><ele>432.4</ele><time>2026-04-19T08:05:05Z</time></trkpt><trkpt lat="36.98458437816202" lon="15.025509465007664"><ele>433.2</ele><time>2026-04-19T08:05:06Z</time></trkpt><trkpt lat="36.98451837504117" lon="15.025436634393186"><ele>434.0</ele><time>2026-04-19T08:05:07Z</time></trkpt><trkpt lat="36.984453758320896" lon="15.025361956283712"><ele>434.0</ele><time>2026-04-19T08:05:08Z</time></trkpt><trkpt lat="36.98438238119171" lon="15.02528978397793"><ele>434.0</ele><time>2026-04-19T08:05:09Z</time></trkpt><trkpt lat="36.98430861418799" lon="15.025223865625431"><ele>434.0</ele><time>2026-04-19T08:05:10Z</time></trkpt><trkpt lat="36.98423375452139" lon="15.025155625558396"><ele>434.0</ele><time>2026-04-19T08:05:11Z</time></trkpt><trkpt lat="36.98416090363354" lon="15.025091207078964"><ele>434.0</ele><time>2026-04-19T08:05:12Z</time></trkpt><trkpt lat="36.984087285424835" lon="15.02502575628635"><ele>434.2</ele><time>2026-04-19T08:05:13Z</time></trkpt><trkpt lat="36.98401099540103" lon="15.024963285521133"><ele>434.4</ele><time>2026-04-19T08:05:14Z</time></trkpt><trkpt lat="36.98393166868388" lon="15.024904017147563"><ele>434.6</ele><time>2026-04-19T08:05:15Z</time></trkpt><trkpt lat="36.983854916655794" lon="15.024846313912121"><ele>434.8</ele><time>2026-04-19T08:05:16Z</time></trkpt><trkpt lat="36.983775732362794" lon="15.024787014510782"><ele>435.0</ele><time>2026-04-19T08:05:17Z</time></trkpt><trkpt lat="36.98369927579087" lon="15.024732548997585"><ele>435.0</ele><time>2026-04-19T08:05:18Z</time></trkpt><trkpt lat="36.983620239502045" lon="15.024674196955099"><ele>435.0</ele><time>2026-04-19T08:05:19Z</time></trkpt><trkpt lat="36.983541083087474" lon="15.02461046010379"><ele>435.0</ele><time>2026-04-19T08:05:20Z</time></trkpt><trkpt lat="36.98345880908021" lon="15.024544623636764"><ele>435.0</ele><time>2026-04-19T08:05:21Z</time></trkpt><trkpt lat="36.983382804667656" lon="15.02448313328174"><ele>435.0</ele><time>2026-04-19T08:05:22Z</time></trkpt><trkpt lat="36.983309548913255" lon="15.024425497987972"><ele>435.5714285714286</ele><time>2026-04-19T08:05:23Z</time></trkpt><trkpt lat="36.983234879792484" lon="15.024373515646937"><ele>436.14285714285717</ele><time>2026-04-19T08:05:24Z</time></trkpt><trkpt lat="36.983170651086894" lon="15.024320903854768"><ele>436.7142857142857</ele><time>2026-04-19T08:05:25Z</time></trkpt><trkpt lat="36.9831084695261" lon="15.024273119338792"><ele>437.28571428571433</ele><time>2026-04-19T08:05:26Z</time></trkpt><trkpt lat="36.98304521353934" lon="15.02422386132072"><ele>437.85714285714283</ele><time>2026-04-19T08:05:27Z</time></trkpt><trkpt lat="36.982983097489125" lon="15.024173939473835"><ele>438.42857142857144</ele><time>2026-04-19T08:05:28Z</time></trkpt><trkpt lat="36.98293035646975" lon="15.024127381165869"><ele>439.0</ele><time>2026-04-19T08:05:29Z</time></trkpt><trkpt lat="36.98286805245546" lon="15.024086369283307"><ele>439.1666666666667</ele><time>2026-04-19T08:05:30Z</time></trkpt><trkpt lat="36.98280017359402" lon="15.02405126978635"><ele>439.33333333333337</ele><time>2026-04-19T08:05:31Z</time></trkpt><trkpt lat="36.98273209621565" lon="15.02401673559331"><ele>439.5</ele><time>2026-04-19T08:05:32Z</time></trkpt><trkpt lat="36.98265134129865" lon="15.023980246861962"><ele>439.66666666666663</ele><time>2026-04-19T08:05:33Z</time></trkpt><trkpt lat="36.98257550786495" lon="15.023945271603575"><ele>439.8333333333333</ele><time>2026-04-19T08:05:34Z</time></trkpt><trkpt lat="36.98249132416493" lon="15.023915304377818"><ele>440.0</ele><time>2026-04-19T08:05:35Z</time></trkpt><trkpt lat="36.9824179588832" lon="15.023881054821539"><ele>439.99999999999994</ele><time>2026-04-19T08:05:36Z</time></trkpt><trkpt lat="36.98234463379933" lon="15.023838820929347"><ele>440.0</ele><time>2026-04-19T08:05:37Z</time></trkpt><trkpt lat="36.98227754026993" lon="15.023803281364799"><ele>440.0</ele><time>2026-04-19T08:05:38Z</time></trkpt><trkpt lat="36.98219265130675" lon="15.023782548696625"><ele>440.0</ele><time>2026-04-19T08:05:39Z</time></trkpt><trkpt lat="36.98209703454386" lon="15.023769529168156"><ele>439.99999999999994</ele><time>2026-04-19T08:05:40Z</time></trkpt><trkpt lat="36.98199505144005" lon="15.02375320338816"><ele>440.0</ele><time>2026-04-19T08:05:41Z</time></trkpt><trkpt lat="36.981907713092006" lon="15.023741080848117"><ele>439.99999999999994</ele><time>2026-04-19T08:05:42Z</time></trkpt><trkpt lat="36.981831395611195" lon="15.0237381165196"><ele>440.0</ele><time>2026-04-19T08:05:43Z</time></trkpt><trkpt lat="36.98174120370545" lon="15.023749379324222"><ele>440.0</ele><time>2026-04-19T08:05:44Z</time></trkpt><trkpt lat="36.98165081222717" lon="15.023759100883519"><ele>440.0</ele><time>2026-04-19T08:05:45Z</time></trkpt><trkpt lat="36.98156441876807" lon="15.023759179178022"><ele>439.99999999999994</ele><time>2026-04-19T08:05:46Z</time></trkpt><trkpt lat="36.98146847584317" lon="15.023748437688635"><ele>440.0</ele><time>2026-04-19T08:05:47Z</time></trkpt><trkpt lat="36.98137921167553" lon="15.023721626034385"><ele>441.16666666666663</ele><time>2026-04-19T08:05:48Z</time></trkpt><trkpt lat="36.98128371443637" lon="15.023684592216824"><ele>442.3333333333333</ele><time>2026-04-19T08:05:49Z</time></trkpt><trkpt lat="36.98119265367686" lon="15.023647417378982"><ele>443.5</ele><time>2026-04-19T08:05:50Z</time></trkpt><trkpt lat="36.98111628859204" lon="15.02361189226834"><ele>444.66666666666663</ele><time>2026-04-19T08:05:51Z</time></trkpt><trkpt lat="36.981043402814294" lon="15.023576912600761"><ele>445.8333333333333</ele><time>2026-04-19T08:05:52Z</time></trkpt><trkpt lat="36.98098082745594" lon="15.023518790800141"><ele>447.0</ele><time>2026-04-19T08:05:53Z</time></trkpt><trkpt lat="36.98092392929992" lon="15.02345494257703"><ele>447.0</ele><time>2026-04-19T08:05:54Z</time></trkpt><trkpt lat="36.98087015161927" lon="15.023394077873352"><ele>447.0</ele><time>2026-04-19T08:05:55Z</time></trkpt><trkpt lat="36.980783194691355" lon="15.02331448718033"><ele>447.0</ele><time>2026-04-19T08:05:57Z</time></trkpt><trkpt lat="36.980694110753504" lon="15.023300026070977"><ele>447.0</ele><time>2026-04-19T08:05:59Z</time></trkpt><trkpt lat="36.9806162726003" lon="15.02330761943599"><ele>447.0</ele><time>2026-04-19T08:06:00Z</time></trkpt><trkpt lat="36.980548361470234" lon="15.02330466775421"><ele>447.0</ele><time>2026-04-19T08:06:01Z</time></trkpt><trkpt lat="36.98044215813832" lon="15.023229943448538"><ele>450.0</ele><time>2026-04-19T08:06:03Z</time></trkpt><trkpt lat="36.98037742113957" lon="15.023166344919218"><ele>453.00000000000006</ele><time>2026-04-19T08:06:04Z</time></trkpt><trkpt lat="36.98029352346005" lon="15.02308719958415"><ele>456.00000000000006</ele><time>2026-04-19T08:06:05Z</time></trkpt><trkpt lat="36.98019934974602" lon="15.023016230153056"><ele>459.0</ele><time>2026-04-19T08:06:06Z</time></trkpt><trkpt lat="36.98008731414582" lon="15.022944312232642"><ele>462.0</ele><time>2026-04-19T08:06:07Z</time></trkpt><trkpt lat="36.979987457719346" lon="15.022895066716217"><ele>463.20000000000005</ele><time>2026-04-19T08:06:08Z</time></trkpt><trkpt lat="36.979895008008576" lon="15.022856478489327"><ele>464.40000000000003</ele><time>2026-04-19T08:06:09Z</time></trkpt><trkpt lat="36.97982308541396" lon="15.022820035912234"><ele>465.59999999999997</ele><time>2026-04-19T08:06:10Z</time></trkpt><trkpt lat="36.979728799586006" lon="15.022720213822968"><ele>466.79999999999995</ele><time>2026-04-19T08:06:12Z</time></trkpt><trkpt lat="36.97969332058398" lon="15.022619318785514"><ele>468.0</ele><time>2026-04-19T08:06:13Z</time></trkpt><trkpt lat="36.979638482461326" lon="15.022531123736394"><ele>468.3333333333333</ele><time>2026-04-19T08:06:14Z</time></trkpt><trkpt lat="36.97959472599093" lon="15.022463047966804"><ele>468.66666666666663</ele><time>2026-04-19T08:06:15Z</time></trkpt><trkpt lat="36.97952143052553" lon="15.022396776763664"><ele>469.0</ele><time>2026-04-19T08:06:16Z</time></trkpt><trkpt lat="36.97943490612614" lon="15.022331660461136"><ele>469.3333333333333</ele><time>2026-04-19T08:06:17Z</time></trkpt><trkpt lat="36.979360941798646" lon="15.022267515218006"><ele>469.66666666666663</ele><time>2026-04-19T08:06:18Z</time></trkpt><trkpt lat="36.979299474882275" lon="15.022195676508126"><ele>470.0</ele><time>2026-04-19T08:06:19Z</time></trkpt><trkpt lat="36.979242200410006" lon="15.022112666871836"><ele>469.49999999999994</ele><time>2026-04-19T08:06:20Z</time></trkpt><trkpt lat="36.979181020709504" lon="15.022031441741957"><ele>469.0</ele><time>2026-04-19T08:06:21Z</time></trkpt><trkpt lat="36.97911546264851" lon="15.02195444479003"><ele>468.5</ele><time>2026-04-19T08:06:22Z</time></trkpt><trkpt lat="36.979082576166164" lon="15.02185397487141"><ele>468.0</ele><time>2026-04-19T08:06:23Z</time></trkpt><trkpt lat="36.97903010549879" lon="15.0217980065692"><ele>467.49999999999994</ele><time>2026-04-19T08:06:24Z</time></trkpt><trkpt lat="36.97894641086292" lon="15.021708733027607"><ele>467.0</ele><time>2026-04-19T08:06:26Z</time></trkpt><trkpt lat="36.97884533753194" lon="15.021661319230171"><ele>466.40000000000003</ele><time>2026-04-19T08:06:28Z</time></trkpt><trkpt lat="36.97876798850556" lon="15.02156423950398"><ele>465.80000000000007</ele><time>2026-04-19T08:06:30Z</time></trkpt><trkpt lat="36.97869186412587" lon="15.021455724870533"><ele>465.2</ele><time>2026-04-19T08:06:32Z</time></trkpt><trkpt lat="36.978640923379395" lon="15.021401622248046"><ele>464.6</ele><time>2026-04-19T08:06:33Z</time></trkpt><trkpt lat="36.978552555163745" lon="15.021331137276976"><ele>464.0</ele><time>2026-04-19T08:06:35Z</time></trkpt><trkpt lat="36.978465256157776" lon="15.021245872857063"><ele>464.0</ele><time>2026-04-19T08:06:38Z</time></trkpt><trkpt lat="36.97839632710965" lon="15.021193095655052"><ele>464.0</ele><time>2026-04-19T08:06:39Z</time></trkpt><trkpt lat="36.9783013437332" lon="15.021112744441474"><ele>464.0</ele><time>2026-04-19T08:06:41Z</time></trkpt><trkpt lat="36.97821912188065" lon="15.021046764537855"><ele>464.0</ele><time>2026-04-19T08:06:43Z</time></trkpt><trkpt lat="36.978123530955656" lon="15.020975663303409"><ele>464.0</ele><time>2026-04-19T08:06:45Z</time></trkpt><trkpt lat="36.978023206499245" lon="15.020897898664149"><ele>463.4</ele><time>2026-04-19T08:06:47Z</time></trkpt><trkpt lat="36.97797430828372" lon="15.020847947882272"><ele>462.79999999999995</ele><time>2026-04-19T08:06:48Z</time></trkpt><trkpt lat="36.977924222908115" lon="15.020799591069563"><ele>462.20000000000005</ele><time>2026-04-19T08:06:49Z</time></trkpt><trkpt lat="36.97781611988842" lon="15.020733741099557"><ele>461.6</ele><time>2026-04-19T08:06:51Z</time></trkpt><trkpt lat="36.977727841551804" lon="15.020658653636268"><ele>461.0</ele><time>2026-04-19T08:06:53Z</time></trkpt><trkpt lat="36.97763613273894" lon="15.020576799799958"><ele>460.8</ele><time>2026-04-19T08:06:55Z</time></trkpt><trkpt lat="36.97756846407508" lon="15.020527522992802"><ele>460.6</ele><time>2026-04-19T08:06:57Z</time></trkpt><trkpt lat="36.97746986407329" lon="15.020502572135126"><ele>460.4</ele><time>2026-04-19T08:06:59Z</time></trkpt><trkpt lat="36.97739136122082" lon="15.020489483883184"><ele>460.2</ele><time>2026-04-19T08:07:01Z</time></trkpt><trkpt lat="36.97729149116907" lon="15.020469916431853"><ele>460.0</ele><time>2026-04-19T08:07:03Z</time></trkpt><trkpt lat="36.97720172766655" lon="15.020507979738479"><ele>461.1428571428571</ele><time>2026-04-19T08:07:05Z</time></trkpt><trkpt lat="36.97713232014707" lon="15.020514499027033"><ele>462.2857142857143</ele><time>2026-04-19T08:07:07Z</time></trkpt><trkpt lat="36.97706354324794" lon="15.020502631292114"><ele>463.42857142857144</ele><time>2026-04-19T08:07:09Z</time></trkpt><trkpt lat="36.97699435539439" lon="15.02051105234508"><ele>464.57142857142856</ele><time>2026-04-19T08:07:11Z</time></trkpt><trkpt lat="36.97692019259465" lon="15.020507605962623"><ele>465.7142857142858</ele><time>2026-04-19T08:07:14Z</time></trkpt><trkpt lat="36.976831375315314" lon="15.020499588059023"><ele>466.8571428571429</ele><time>2026-04-19T08:07:17Z</time></trkpt><trkpt lat="36.976765368754954" lon="15.020480753088615"><ele>468.0</ele><time>2026-04-19T08:07:20Z</time></trkpt><trkpt lat="36.976695641521594" lon="15.020480344766428"><ele>469.0</ele><time>2026-04-19T08:07:24Z</time></trkpt><trkpt lat="36.97662808255019" lon="15.020473621033648"><ele>470.00000000000006</ele><time>2026-04-19T08:08:51Z</time></trkpt><trkpt lat="36.97656551978531" lon="15.020463308921945"><ele>471.0</ele><time>2026-04-19T08:08:57Z</time></trkpt><trkpt lat="36.97649892673878" lon="15.020468974125178"><ele>472.0</ele><time>2026-04-19T08:09:03Z</time></trkpt><trkpt lat="36.976436400181264" lon="15.020426568097047"><ele>473.00000000000006</ele><time>2026-04-19T08:09:08Z</time></trkpt><trkpt lat="36.97637039204258" lon="15.020413487108605"><ele>474.0</ele><time>2026-04-19T08:09:10Z</time></trkpt><trkpt lat="36.97630933661272" lon="15.020357702076662"><ele>475.0</ele><time>2026-04-19T08:09:14Z</time></trkpt><trkpt lat="36.976248471743865" lon="15.020284607105078"><ele>475.0</ele><time>2026-04-19T08:09:18Z</time></trkpt><trkpt lat="36.976194970249" lon="15.02021410264193"><ele>475.00000000000006</ele><time>2026-04-19T08:09:23Z</time></trkpt><trkpt lat="36.97614005432063" lon="15.020166243228672"><ele>475.0</ele><time>2026-04-19T08:09:27Z</time></trkpt><trkpt lat="36.976089191946315" lon="15.020118056972017"><ele>475.0</ele><time>2026-04-19T08:09:31Z</time></trkpt><trkpt lat="36.97602798245068" lon="15.020065865139241"><ele>475.00000000000006</ele><time>2026-04-19T08:09:35Z</time></trkpt><trkpt lat="36.9759721661757" lon="15.020026126954873"><ele>475.0</ele><time>2026-04-19T08:09:39Z</time></trkpt><trkpt lat="36.97591352867999" lon="15.019961311451885"><ele>475.0</ele><time>2026-04-19T08:09:43Z</time></trkpt><trkpt lat="36.97588252066875" lon="15.019870813809062"><ele>476.00000000000006</ele><time>2026-04-19T08:09:46Z</time></trkpt><trkpt lat="36.97582160235342" lon="15.019760924550532"><ele>477.0</ele><time>2026-04-19T08:09:49Z</time></trkpt><trkpt lat="36.97577655924334" lon="15.019690883324676"><ele>478.0</ele><time>2026-04-19T08:09:52Z</time></trkpt><trkpt lat="36.975736042053136" lon="15.019624458133313"><ele>479.0</ele><time>2026-04-19T08:09:55Z</time></trkpt><trkpt lat="36.97568759114675" lon="15.019541941816923"><ele>480.00000000000006</ele><time>2026-04-19T08:10:00Z</time></trkpt><trkpt lat="36.97567569911886" lon="15.019464190939903"><ele>481.0</ele><time>2026-04-19T08:10:07Z</time></trkpt><trkpt lat="36.97562659321143" lon="15.019411989008237"><ele>481.00000000000006</ele><time>2026-04-19T08:10:11Z</time></trkpt><trkpt lat="36.97558675269323" lon="15.019331608755305"><ele>481.0</ele><time>2026-04-19T08:10:16Z</time></trkpt><trkpt lat="36.97554949739693" lon="15.01924949982099"><ele>481.0</ele><time>2026-04-19T08:10:20Z</time></trkpt><trkpt lat="36.97550421594048" lon="15.019185915813358"><ele>481.0</ele><time>2026-04-19T08:10:23Z</time></trkpt><trkpt lat="36.97545885922635" lon="15.019110963670613"><ele>481.00000000000006</ele><time>2026-04-19T08:10:26Z</time></trkpt><trkpt lat="36.975380941224294" lon="15.019006326937388"><ele>481.0</ele><time>2026-04-19T08:10:28Z</time></trkpt><trkpt lat="36.97532977138192" lon="15.018945123606068"><ele>481.00000000000006</ele><time>2026-04-19T08:10:31Z</time></trkpt><trkpt lat="36.97528067719381" lon="15.018890322919507"><ele>481.0</ele><time>2026-04-19T08:10:33Z</time></trkpt><trkpt lat="36.97520929301493" lon="15.01881914001995"><ele>481.0</ele><time>2026-04-19T08:10:36Z</time></trkpt><trkpt lat="36.97515676563991" lon="15.018754607077724"><ele>481.0</ele><time>2026-04-19T08:10:40Z</time></trkpt><trkpt lat="36.97511067938327" lon="15.018697936359397"><ele>481.00000000000006</ele><time>2026-04-19T08:10:43Z</time></trkpt><trkpt lat="36.97505195868149" lon="15.018630376744053"><ele>481.0</ele><time>2026-04-19T08:10:46Z</time></trkpt><trkpt lat="36.97498930667166" lon="15.01857090734914"><ele>481.1666666666667</ele><time>2026-04-19T08:10:50Z</time></trkpt><trkpt lat="36.974935949820896" lon="15.018506115918715"><ele>481.33333333333337</ele><time>2026-04-19T08:10:54Z</time></trkpt><trkpt lat="36.974869002718094" lon="15.018458247686706"><ele>481.5</ele><time>2026-04-19T08:10:57Z</time></trkpt><trkpt lat="36.9748035849464" lon="15.018393882227755"><ele>481.66666666666663</ele><time>2026-04-19T08:11:00Z</time></trkpt><trkpt lat="36.97472335354333" lon="15.018317149449693"><ele>481.8333333333333</ele><time>2026-04-19T08:11:01Z</time></trkpt><trkpt lat="36.974640471544724" lon="15.018244832326285"><ele>482.0</ele><time>2026-04-19T08:11:03Z</time></trkpt><trkpt lat="36.974570425604" lon="15.018176030757273"><ele>482.0</ele><time>2026-04-19T08:11:05Z</time></trkpt><trkpt lat="36.97452395369044" lon="15.018118208832796"><ele>482.00000000000006</ele><time>2026-04-19T08:11:06Z</time></trkpt><trkpt lat="36.97446824920037" lon="15.018069312897254"><ele>482.0</ele><time>2026-04-19T08:11:08Z</time></trkpt><trkpt lat="36.97440359751852" lon="15.018045431461468"><ele>482.0</ele><time>2026-04-19T08:11:09Z</time></trkpt><trkpt lat="36.9743473036356" lon="15.018009742109124"><ele>482.00000000000006</ele><time>2026-04-19T08:11:10Z</time></trkpt><trkpt lat="36.9742886119161" lon="15.017969494085984"><ele>482.0</ele><time>2026-04-19T08:11:12Z</time></trkpt><trkpt lat="36.974212466247934" lon="15.017948611789521"><ele>482.0</ele><time>2026-04-19T08:11:15Z</time></trkpt><trkpt lat="36.9741548853428" lon="15.017910529073733"><ele>481.8571428571429</ele><time>2026-04-19T08:11:20Z</time></trkpt><trkpt lat="36.97409842257327" lon="15.01785983162374"><ele>481.7142857142858</ele><time>2026-04-19T08:13:04Z</time></trkpt><trkpt lat="36.974053463361" lon="15.017801739733148"><ele>481.57142857142856</ele><time>2026-04-19T08:13:12Z</time></trkpt><trkpt lat="36.97398989575114" lon="15.017771761562733"><ele>481.42857142857144</ele><time>2026-04-19T08:14:09Z</time></trkpt><trkpt lat="36.97394198585785" lon="15.017702474743801"><ele>481.2857142857143</ele><time>2026-04-19T08:14:37Z</time></trkpt><trkpt lat="36.97390419335855" lon="15.017625792121503"><ele>481.1428571428571</ele><time>2026-04-19T08:15:00Z</time></trkpt><trkpt lat="36.973870095745056" lon="15.017544732516797"><ele>480.99999999999994</ele><time>2026-04-19T08:15:11Z</time></trkpt><trkpt lat="36.97382607407791" lon="15.017486535783986"><ele>482.6666666666667</ele><time>2026-04-19T08:15:13Z</time></trkpt><trkpt lat="36.97378780565772" lon="15.017410071250406"><ele>484.33333333333337</ele><time>2026-04-19T08:15:16Z</time></trkpt><trkpt lat="36.97374685454671" lon="15.017311493679316"><ele>486.0</ele><time>2026-04-19T08:15:20Z</time></trkpt><trkpt lat="36.97370040206248" lon="15.017226829767276"><ele>487.66666666666663</ele><time>2026-04-19T08:15:23Z</time></trkpt><trkpt lat="36.97364980696756" lon="15.01715203105908"><ele>489.3333333333333</ele><time>2026-04-19T08:15:26Z</time></trkpt><trkpt lat="36.973620344230035" lon="15.01705922962006"><ele>491.0</ele><time>2026-04-19T08:15:30Z</time></trkpt><trkpt lat="36.97358658539962" lon="15.016986857413452"><ele>490.99999999999994</ele><time>2026-04-19T08:15:34Z</time></trkpt><trkpt lat="36.973548711252455" lon="15.01691314423997"><ele>491.0</ele><time>2026-04-19T08:15:37Z</time></trkpt><trkpt lat="36.97348773703236" lon="15.016809625209884"><ele>491.0</ele><time>2026-04-19T08:15:40Z</time></trkpt><trkpt lat="36.97345276057697" lon="15.016735417686093"><ele>491.0</ele><time>2026-04-19T08:15:44Z</time></trkpt><trkpt lat="36.973419562921336" lon="15.016658639715617"><ele>490.99999999999994</ele><time>2026-04-19T08:15:47Z</time></trkpt><trkpt lat="36.97338253002114" lon="15.016570347002718"><ele>491.0</ele><time>2026-04-19T08:15:50Z</time></trkpt><trkpt lat="36.97335219328278" lon="15.016494732237131"><ele>490.3333333333333</ele><time>2026-04-19T08:15:53Z</time></trkpt><trkpt lat="36.973292451576086" lon="15.016398956498989"><ele>489.66666666666663</ele><time>2026-04-19T08:15:56Z</time></trkpt><trkpt lat="36.97327624760847" lon="15.016293099130838"><ele>489.0</ele><time>2026-04-19T08:16:00Z</time></trkpt><trkpt lat="36.97323925604362" lon="15.016222079679764"><ele>488.33333333333337</ele><time>2026-04-19T08:16:04Z</time></trkpt><trkpt lat="36.97318738922916" lon="15.016152075618475"><ele>487.6666666666667</ele><time>2026-04-19T08:16:08Z</time></trkpt><trkpt lat="36.973160879387144" lon="15.016054024308902"><ele>487.0</ele><time>2026-04-19T08:16:12Z</time></trkpt><trkpt lat="36.97312516595439" lon="15.01596917875339"><ele>487.00000000000006</ele><time>2026-04-19T08:16:15Z</time></trkpt><trkpt lat="36.97307128969067" lon="15.015895714703246"><ele>487.0</ele><time>2026-04-19T08:16:19Z</time></trkpt><trkpt lat="36.97301325603859" lon="15.015839636855347"><ele>487.0</ele><time>2026-04-19T08:16:22Z</time></trkpt><trkpt lat="36.97295406267888" lon="15.015787071025306"><ele>487.0</ele><time>2026-04-19T08:16:25Z</time></trkpt><trkpt lat="36.97287155887045" lon="15.015752850235286"><ele>487.00000000000006</ele><time>2026-04-19T08:16:29Z</time></trkpt><trkpt lat="36.97280720255187" lon="15.015686311183215"><ele>487.0</ele><time>2026-04-19T08:16:32Z</time></trkpt><trkpt lat="36.972754594593674" lon="15.015628346633662"><ele>487.28571428571433</ele><time>2026-04-19T08:16:37Z</time></trkpt><trkpt lat="36.97269861797923" lon="15.015568821877583"><ele>487.57142857142856</ele><time>2026-04-19T08:20:00Z</time></trkpt><trkpt lat="36.97264072483756" lon="15.01550889419954"><ele>487.8571428571429</ele><time>2026-04-19T08:20:47Z</time></trkpt><trkpt lat="36.97260884840528" lon="15.015427774075409"><ele>488.14285714285717</ele><time>2026-04-19T08:21:07Z</time></trkpt><trkpt lat="36.97255130464744" lon="15.015372085485037"><ele>488.42857142857144</ele><time>2026-04-19T08:21:17Z</time></trkpt><trkpt lat="36.97249394784791" lon="15.015331339481806"><ele>488.7142857142857</ele><time>2026-04-19T08:21:22Z</time></trkpt><trkpt lat="36.97243308839658" lon="15.01528176414316"><ele>489.0</ele><time>2026-04-19T08:21:27Z</time></trkpt><trkpt lat="36.972366537003104" lon="15.015262903762231"><ele>489.0</ele><time>2026-04-19T08:21:31Z</time></trkpt><trkpt lat="36.97228926997745" lon="15.015233738151078"><ele>489.00000000000006</ele><time>2026-04-19T08:21:36Z</time></trkpt><trkpt lat="36.972218596255594" lon="15.015199127919221"><ele>489.0</ele><time>2026-04-19T08:21:55Z</time></trkpt><trkpt lat="36.97214222192046" lon="15.015163111894335"><ele>489.0</ele><time>2026-04-19T08:21:58Z</time></trkpt><trkpt lat="36.97207556173199" lon="15.015154883292004"><ele>489.00000000000006</ele><time>2026-04-19T08:22:02Z</time></trkpt><trkpt lat="36.97201402718604" lon="15.015124805812292"><ele>489.0</ele><time>2026-04-19T08:22:05Z</time></trkpt><trkpt lat="36.971949947324276" lon="15.01509977127247"><ele>489.0</ele><time>2026-04-19T08:22:08Z</time></trkpt><trkpt lat="36.971888355923575" lon="15.015062123413214"><ele>489.0</ele><time>2026-04-19T08:22:10Z</time></trkpt><trkpt lat="36.971827617570284" lon="15.015035801789592"><ele>489.00000000000006</ele><time>2026-04-19T08:22:14Z</time></trkpt><trkpt lat="36.97174768092236" lon="15.015002120247148"><ele>489.0</ele><time>2026-04-19T08:22:18Z</time></trkpt><trkpt lat="36.971684503208934" lon="15.01498491907621"><ele>489.0</ele><time>2026-04-19T08:22:21Z</time></trkpt><trkpt lat="36.97161645164059" lon="15.014953772018035"><ele>489.00000000000006</ele><time>2026-04-19T08:22:24Z</time></trkpt><trkpt lat="36.9715397976473" lon="15.014923486490439"><ele>489.0</ele><time>2026-04-19T08:22:28Z</time></trkpt><trkpt lat="36.971480121830034" lon="15.014883347850315"><ele>489.0</ele><time>2026-04-19T08:22:31Z</time></trkpt><trkpt lat="36.97137952595201" lon="15.01485678108172"><ele>488.8333333333333</ele><time>2026-04-19T08:22:34Z</time></trkpt><trkpt lat="36.97131250505514" lon="15.014834125685987"><ele>488.66666666666663</ele><time>2026-04-19T08:22:36Z</time></trkpt><trkpt lat="36.971239349863055" lon="15.014843733048133"><ele>488.5</ele><time>2026-04-19T08:22:38Z</time></trkpt><trkpt lat="36.971155760352765" lon="15.014860987234629"><ele>488.3333333333333</ele><time>2026-04-19T08:22:40Z</time></trkpt><trkpt lat="36.97108153516382" lon="15.014861939398267"><ele>488.16666666666663</ele><time>2026-04-19T08:22:42Z</time></trkpt><trkpt lat="36.97102221873561" lon="15.014888656031294"><ele>488.0</ele><time>2026-04-19T08:22:44Z</time></trkpt><trkpt lat="36.97093564460639" lon="15.0148942108247"><ele>487.99999999999994</ele><time>2026-04-19T08:22:49Z</time></trkpt><trkpt lat="36.9708603199798" lon="15.014911478078455"><ele>488.0</ele><time>2026-04-19T08:22:52Z</time></trkpt><trkpt lat="36.970789132620766" lon="15.014903809894363"><ele>488.0</ele><time>2026-04-19T08:22:56Z</time></trkpt><trkpt lat="36.97070585217684" lon="15.01492503276381"><ele>488.0</ele><time>2026-04-19T08:23:01Z</time></trkpt><trkpt lat="36.97063912811634" lon="15.014958733223862"><ele>487.99999999999994</ele><time>2026-04-19T08:23:04Z</time></trkpt><trkpt lat="36.970606680679936" lon="15.014885984279468"><ele>488.0</ele><time>2026-04-19T08:23:11Z</time></trkpt><trkpt lat="36.970673953309834" lon="15.014836295712048"><ele>489.4</ele><time>2026-04-19T08:28:59Z</time></trkpt><trkpt lat="36.97072539976365" lon="15.014776667129455"><ele>490.79999999999995</ele><time>2026-04-19T08:29:02Z</time></trkpt><trkpt lat="36.970775120224864" lon="15.014692480118413"><ele>492.2</ele><time>2026-04-19T08:29:55Z</time></trkpt><trkpt lat="36.97076602835976" lon="15.014580095679374"><ele>493.6</ele><time>2026-04-19T08:31:30Z</time></trkpt><trkpt lat="36.97067657591242" lon="15.014555130375806"><ele>495.0</ele><time>2026-04-19T08:31:32Z</time></trkpt><trkpt lat="36.97056523189141" lon="15.014696275424361"><ele>495.0</ele><time>2026-04-19T08:31:37Z</time></trkpt><trkpt lat="36.97045547997835" lon="15.014803417526036"><ele>495.0</ele><time>2026-04-19T08:31:38Z</time></trkpt><trkpt lat="36.9703447308826" lon="15.014867129268687"><ele>495.0</ele><time>2026-04-19T08:31:39Z</time></trkpt><trkpt lat="36.97022780625977" lon="15.014885920968538"><ele>495.0</ele><time>2026-04-19T08:31:40Z</time></trkpt><trkpt lat="36.970088346882655" lon="15.014880123696148"><ele>495.0</ele><time>2026-04-19T08:31:41Z</time></trkpt><trkpt lat="36.969972870579866" lon="15.014878344273727"><ele>495.0</ele><time>2026-04-19T08:31:42Z</time></trkpt><trkpt lat="36.96987473343839" lon="15.014846564366467"><ele>495.0</ele><time>2026-04-19T08:31:43Z</time></trkpt><trkpt lat="36.96978462441228" lon="15.014773681980136"><ele>495.0</ele><time>2026-04-19T08:31:44Z</time></trkpt><trkpt lat="36.96969407678767" lon="15.014664197573"><ele>495.0</ele><time>2026-04-19T08:31:45Z</time></trkpt><trkpt lat="36.969608155609855" lon="15.014503221690347"><ele>495.0</ele><time>2026-04-19T08:31:46Z</time></trkpt><trkpt lat="36.969525775723895" lon="15.014353759135119"><ele>495.0</ele><time>2026-04-19T08:31:47Z</time></trkpt><trkpt lat="36.96947094297191" lon="15.014188773539564"><ele>495.0</ele><time>2026-04-19T08:31:48Z</time></trkpt><trkpt lat="36.96942766379022" lon="15.014018899383098"><ele>494.75</ele><time>2026-04-19T08:31:49Z</time></trkpt><trkpt lat="36.969361021272846" lon="15.013876728651733"><ele>494.5</ele><time>2026-04-19T08:31:50Z</time></trkpt><trkpt lat="36.96927571601182" lon="15.013752294946274"><ele>494.25</ele><time>2026-04-19T08:31:51Z</time></trkpt><trkpt lat="36.969180415726576" lon="15.013637042002593"><ele>494.0</ele><time>2026-04-19T08:31:52Z</time></trkpt><trkpt lat="36.96904945682989" lon="15.013540424978663"><ele>494.0</ele><time>2026-04-19T08:31:53Z</time></trkpt><trkpt lat="36.96890644052429" lon="15.013449173115525"><ele>494.0</ele><time>2026-04-19T08:31:54Z</time></trkpt><trkpt lat="36.968783424411846" lon="15.013351291474308"><ele>494.0</ele><time>2026-04-19T08:31:55Z</time></trkpt><trkpt lat="36.96867491271493" lon="15.013233245134934"><ele>493.3333333333333</ele><time>2026-04-19T08:31:56Z</time></trkpt><trkpt lat="36.96856233426249" lon="15.013094682452563"><ele>492.66666666666663</ele><time>2026-04-19T08:31:57Z</time></trkpt><trkpt lat="36.96844194456277" lon="15.012916371468181"><ele>492.0</ele><time>2026-04-19T08:31:58Z</time></trkpt><trkpt lat="36.968318662172486" lon="15.012721064205403"><ele>492.0</ele><time>2026-04-19T08:31:59Z</time></trkpt><trkpt lat="36.96818378792491" lon="15.012513217926523"><ele>492.0</ele><time>2026-04-19T08:32:00Z</time></trkpt><trkpt lat="36.96805911194486" lon="15.012329558616944"><ele>492.0</ele><time>2026-04-19T08:32:01Z</time></trkpt><trkpt lat="36.96795375750851" lon="15.012165379785563"><ele>492.75</ele><time>2026-04-19T08:32:02Z</time></trkpt><trkpt lat="36.96786225665213" lon="15.012011266363867"><ele>493.5</ele><time>2026-04-19T08:32:03Z</time></trkpt><trkpt lat="36.96779258852652" lon="15.011864377233803"><ele>494.25</ele><time>2026-04-19T08:32:04Z</time></trkpt><trkpt lat="36.96773786997669" lon="15.011713445092244"><ele>495.0</ele><time>2026-04-19T08:32:05Z</time></trkpt><trkpt lat="36.967702238221825" lon="15.011538159152757"><ele>495.75</ele><time>2026-04-19T08:32:06Z</time></trkpt><trkpt lat="36.96768487030072" lon="15.01134748541962"><ele>496.5</ele><time>2026-04-19T08:32:07Z</time></trkpt><trkpt lat="36.96767535554862" lon="15.011171330230047"><ele>497.25</ele><time>2026-04-19T08:32:08Z</time></trkpt><trkpt lat="36.96765459110073" lon="15.011011838045588"><ele>498.0</ele><time>2026-04-19T08:32:09Z</time></trkpt><trkpt lat="36.96761286034592" lon="15.010867604057836"><ele>498.0</ele><time>2026-04-19T08:32:10Z</time></trkpt><trkpt lat="36.96754068663407" lon="15.010758533896698"><ele>497.99999999999994</ele><time>2026-04-19T08:32:11Z</time></trkpt><trkpt lat="36.96745726140559" lon="15.010675246844448"><ele>497.99999999999994</ele><time>2026-04-19T08:32:12Z</time></trkpt><trkpt lat="36.96736985616913" lon="15.010613434857676"><ele>498.0</ele><time>2026-04-19T08:32:13Z</time></trkpt><trkpt lat="36.96730580106181" lon="15.01056683419738"><ele>498.0</ele><time>2026-04-19T08:32:14Z</time></trkpt><trkpt lat="36.96719745672645" lon="15.010475503941196"><ele>497.59999999999997</ele><time>2026-04-19T08:32:16Z</time></trkpt><trkpt lat="36.96713084828114" lon="15.010429200080884"><ele>497.19999999999993</ele><time>2026-04-19T08:32:17Z</time></trkpt><trkpt lat="36.96705592739249" lon="15.010401617669565"><ele>496.8</ele><time>2026-04-19T08:32:18Z</time></trkpt><trkpt lat="36.96695861619284" lon="15.010394864370765"><ele>496.4</ele><time>2026-04-19T08:32:19Z</time></trkpt><trkpt lat="36.96684657083732" lon="15.010415494474639"><ele>496.0</ele><time>2026-04-19T08:32:20Z</time></trkpt><trkpt lat="36.9667176538996" lon="15.010447998225017"><ele>497.25</ele><time>2026-04-19T08:32:21Z</time></trkpt><trkpt lat="36.96658044786581" lon="15.010484391703079"><ele>498.5</ele><time>2026-04-19T08:32:22Z</time></trkpt><trkpt lat="36.96644377906762" lon="15.010511615612417"><ele>499.75</ele><time>2026-04-19T08:32:23Z</time></trkpt><trkpt lat="36.966317493678375" lon="15.01053274245004"><ele>501.0</ele><time>2026-04-19T08:32:24Z</time></trkpt><trkpt lat="36.96619015625892" lon="15.010565418540978"><ele>501.0</ele><time>2026-04-19T08:32:25Z</time></trkpt><trkpt lat="36.96605625835303" lon="15.010634312122562"><ele>501.0</ele><time>2026-04-19T08:32:26Z</time></trkpt><trkpt lat="36.96592258539033" lon="15.010735093958363"><ele>501.0</ele><time>2026-04-19T08:32:27Z</time></trkpt><trkpt lat="36.96578766029534" lon="15.010850146338523"><ele>499.5</ele><time>2026-04-19T08:32:28Z</time></trkpt><trkpt lat="36.96567066710862" lon="15.010950964199832"><ele>498.0</ele><time>2026-04-19T08:32:29Z</time></trkpt><trkpt lat="36.96556924350222" lon="15.01104299666406"><ele>496.5</ele><time>2026-04-19T08:32:30Z</time></trkpt><trkpt lat="36.965475912596666" lon="15.011130910145395"><ele>495.0</ele><time>2026-04-19T08:32:31Z</time></trkpt><trkpt lat="36.96538883885401" lon="15.011221141081974"><ele>495.0</ele><time>2026-04-19T08:32:32Z</time></trkpt><trkpt lat="36.96530825817112" lon="15.011300224449402"><ele>495.0</ele><time>2026-04-19T08:32:33Z</time></trkpt><trkpt lat="36.96520629912631" lon="15.011354814350094"><ele>495.0</ele><time>2026-04-19T08:32:34Z</time></trkpt><trkpt lat="36.96507098879019" lon="15.011353855598943"><ele>495.0</ele><time>2026-04-19T08:32:35Z</time></trkpt><trkpt lat="36.964934899436116" lon="15.011305940232718"><ele>496.0</ele><time>2026-04-19T08:32:36Z</time></trkpt><trkpt lat="36.964810057219154" lon="15.011265439994032"><ele>497.0</ele><time>2026-04-19T08:32:37Z</time></trkpt><trkpt lat="36.96469609415522" lon="15.011239519657172"><ele>498.0</ele><time>2026-04-19T08:32:38Z</time></trkpt><trkpt lat="36.96457688644609" lon="15.011225602276328"><ele>499.0</ele><time>2026-04-19T08:32:39Z</time></trkpt><trkpt lat="36.96447607208544" lon="15.01121361433548"><ele>499.0</ele><time>2026-04-19T08:32:40Z</time></trkpt><trkpt lat="36.96438931390117" lon="15.01123929058431"><ele>499.0</ele><time>2026-04-19T08:32:41Z</time></trkpt><trkpt lat="36.96431767460928" lon="15.01130350187864"><ele>499.0</ele><time>2026-04-19T08:32:42Z</time></trkpt><trkpt lat="36.96425603668251" lon="15.011421657563186"><ele>499.0</ele><time>2026-04-19T08:32:43Z</time></trkpt><trkpt lat="36.96419044253717" lon="15.011579825733925"><ele>499.0</ele><time>2026-04-19T08:32:44Z</time></trkpt><trkpt lat="36.96411669012267" lon="15.011762310308313"><ele>498.0</ele><time>2026-04-19T08:32:45Z</time></trkpt><trkpt lat="36.964039965804176" lon="15.01193901568856"><ele>497.0</ele><time>2026-04-19T08:32:46Z</time></trkpt><trkpt lat="36.96395634515622" lon="15.012081021369415"><ele>496.0</ele><time>2026-04-19T08:32:47Z</time></trkpt><trkpt lat="36.96388274141436" lon="15.012228985115174"><ele>495.0</ele><time>2026-04-19T08:32:48Z</time></trkpt><trkpt lat="36.96380910839455" lon="15.012384881857646"><ele>494.25</ele><time>2026-04-19T08:32:49Z</time></trkpt><trkpt lat="36.96371280599241" lon="15.012517583184348"><ele>493.5</ele><time>2026-04-19T08:32:50Z</time></trkpt><trkpt lat="36.96361793429482" lon="15.01262205399603"><ele>492.75</ele><time>2026-04-19T08:32:51Z</time></trkpt><trkpt lat="36.96351979913314" lon="15.012699625644572"><ele>492.0</ele><time>2026-04-19T08:32:52Z</time></trkpt><trkpt lat="36.963411408069256" lon="15.012762388354124"><ele>492.0</ele><time>2026-04-19T08:32:53Z</time></trkpt><trkpt lat="36.96330947759424" lon="15.012805079791525"><ele>492.0</ele><time>2026-04-19T08:32:54Z</time></trkpt><trkpt lat="36.963230744984415" lon="15.012818130138033"><ele>492.0</ele><time>2026-04-19T08:32:55Z</time></trkpt><trkpt lat="36.96316470367557" lon="15.012786308856207"><ele>492.0</ele><time>2026-04-19T08:32:56Z</time></trkpt><trkpt lat="36.963123916714586" lon="15.012708020730537"><ele>492.0</ele><time>2026-04-19T08:32:57Z</time></trkpt><trkpt lat="36.9631278801524" lon="15.012564759629262"><ele>492.0</ele><time>2026-04-19T08:32:58Z</time></trkpt><trkpt lat="36.96311555570232" lon="15.012403587036697"><ele>492.0</ele><time>2026-04-19T08:32:59Z</time></trkpt><trkpt lat="36.96312632118758" lon="15.012220855326724"><ele>492.0</ele><time>2026-04-19T08:33:00Z</time></trkpt><trkpt lat="36.96313202185748" lon="15.012019339166416"><ele>492.0</ele><time>2026-04-19T08:33:01Z</time></trkpt><trkpt lat="36.963138101507916" lon="15.011842148574042"><ele>492.0</ele><time>2026-04-19T08:33:02Z</time></trkpt><trkpt lat="36.96313517432813" lon="15.011680981565515"><ele>493.0</ele><time>2026-04-19T08:33:03Z</time></trkpt><trkpt lat="36.96309691409659" lon="15.011516318142904"><ele>494.0</ele><time>2026-04-19T08:33:04Z</time></trkpt><trkpt lat="36.96301852247645" lon="15.01137094327791"><ele>495.0</ele><time>2026-04-19T08:33:05Z</time></trkpt><trkpt lat="36.96290738072479" lon="15.011234620983164"><ele>496.0</ele><time>2026-04-19T08:33:06Z</time></trkpt><trkpt lat="36.96282937385536" lon="15.01108723433067"><ele>496.0</ele><time>2026-04-19T08:33:07Z</time></trkpt><trkpt lat="36.962782847572036" lon="15.010945582176353"><ele>496.0</ele><time>2026-04-19T08:33:08Z</time></trkpt><trkpt lat="36.96273511574232" lon="15.010828482361484"><ele>496.0</ele><time>2026-04-19T08:33:09Z</time></trkpt><trkpt lat="36.962649512677096" lon="15.010732130110359"><ele>496.0</ele><time>2026-04-19T08:33:10Z</time></trkpt><trkpt lat="36.96253497871853" lon="15.010661695406071"><ele>494.8</ele><time>2026-04-19T08:33:11Z</time></trkpt><trkpt lat="36.96240627563121" lon="15.010638840305525"><ele>493.6</ele><time>2026-04-19T08:33:12Z</time></trkpt><trkpt lat="36.9622934848712" lon="15.010662216962436"><ele>492.4</ele><time>2026-04-19T08:33:13Z</time></trkpt><trkpt lat="36.962205135995085" lon="15.010704291109532"><ele>491.2</ele><time>2026-04-19T08:33:14Z</time></trkpt><trkpt lat="36.962125855064755" lon="15.010721732591465"><ele>490.0</ele><time>2026-04-19T08:33:15Z</time></trkpt><trkpt lat="36.962054922918014" lon="15.010681875458356"><ele>490.0</ele><time>2026-04-19T08:33:16Z</time></trkpt><trkpt lat="36.96201063571127" lon="15.010593191800515"><ele>490.0</ele><time>2026-04-19T08:33:17Z</time></trkpt><trkpt lat="36.96198020794867" lon="15.010462040176861"><ele>490.0</ele><time>2026-04-19T08:33:18Z</time></trkpt><trkpt lat="36.96196082810919" lon="15.010305999531834"><ele>490.0</ele><time>2026-04-19T08:33:19Z</time></trkpt><trkpt lat="36.96195937755811" lon="15.010130293112887"><ele>491.6666666666667</ele><time>2026-04-19T08:33:20Z</time></trkpt><trkpt lat="36.961989338099" lon="15.009945038089331"><ele>493.33333333333337</ele><time>2026-04-19T08:33:21Z</time></trkpt><trkpt lat="36.96207087845992" lon="15.009776002269671"><ele>495.0</ele><time>2026-04-19T08:33:22Z</time></trkpt><trkpt lat="36.96213915270773" lon="15.009588368256546"><ele>495.0</ele><time>2026-04-19T08:33:23Z</time></trkpt><trkpt lat="36.962225666233" lon="15.009421141291654"><ele>495.0</ele><time>2026-04-19T08:33:24Z</time></trkpt><trkpt lat="36.96231755382554" lon="15.009271481793121"><ele>495.0</ele><time>2026-04-19T08:33:25Z</time></trkpt><trkpt lat="36.96240128776781" lon="15.00913470846492"><ele>495.0</ele><time>2026-04-19T08:33:26Z</time></trkpt><trkpt lat="36.96248728649496" lon="15.008986321492252"><ele>497.33333333333337</ele><time>2026-04-19T08:33:27Z</time></trkpt><trkpt lat="36.9625744690464" lon="15.008831949357736"><ele>499.6666666666667</ele><time>2026-04-19T08:33:28Z</time></trkpt><trkpt lat="36.96266301783218" lon="15.008670234701686"><ele>502.0</ele><time>2026-04-19T08:33:29Z</time></trkpt><trkpt lat="36.96275530661004" lon="15.008500449501918"><ele>502.0</ele><time>2026-04-19T08:33:30Z</time></trkpt><trkpt lat="36.962849884242864" lon="15.00832697045117"><ele>502.0</ele><time>2026-04-19T08:33:31Z</time></trkpt><trkpt lat="36.962935332904046" lon="15.008147640927548"><ele>502.0</ele><time>2026-04-19T08:33:32Z</time></trkpt><trkpt lat="36.96299247524159" lon="15.007940245531234"><ele>503.6666666666667</ele><time>2026-04-19T08:33:33Z</time></trkpt><trkpt lat="36.96303090840349" lon="15.007709178478875"><ele>505.33333333333337</ele><time>2026-04-19T08:33:34Z</time></trkpt><trkpt lat="36.96307186282879" lon="15.007482654727848"><ele>507.0</ele><time>2026-04-19T08:33:35Z</time></trkpt><trkpt lat="36.963112359376275" lon="15.007298104763125"><ele>507.25</ele><time>2026-04-19T08:33:36Z</time></trkpt><trkpt lat="36.96315913275127" lon="15.007151312966684"><ele>507.5</ele><time>2026-04-19T08:33:37Z</time></trkpt><trkpt lat="36.9632525107022" lon="15.007022630108692"><ele>507.75</ele><time>2026-04-19T08:33:38Z</time></trkpt><trkpt lat="36.96336617479387" lon="15.00687190839767"><ele>508.0</ele><time>2026-04-19T08:33:39Z</time></trkpt><trkpt lat="36.9634895235183" lon="15.006695961942679"><ele>509.6666666666667</ele><time>2026-04-19T08:33:40Z</time></trkpt><trkpt lat="36.963623155328946" lon="15.006533939270202"><ele>511.33333333333337</ele><time>2026-04-19T08:33:41Z</time></trkpt><trkpt lat="36.9637454984084" lon="15.006367463741945"><ele>513.0</ele><time>2026-04-19T08:33:42Z</time></trkpt><trkpt lat="36.96386203326904" lon="15.006191092492283"><ele>513.0</ele><time>2026-04-19T08:33:43Z</time></trkpt><trkpt lat="36.96396532504057" lon="15.00599260993478"><ele>513.0</ele><time>2026-04-19T08:33:44Z</time></trkpt><trkpt lat="36.96405154553623" lon="15.005768379724373"><ele>513.0</ele><time>2026-04-19T08:33:45Z</time></trkpt><trkpt lat="36.964154834835036" lon="15.005546517811723"><ele>516.0</ele><time>2026-04-19T08:33:46Z</time></trkpt><trkpt lat="36.96425595843512" lon="15.005350732186093"><ele>519.0</ele><time>2026-04-19T08:33:47Z</time></trkpt><trkpt lat="36.96433344267309" lon="15.00516802392241"><ele>522.0</ele><time>2026-04-19T08:33:48Z</time></trkpt><trkpt lat="36.964378864268525" lon="15.00497890362954"><ele>522.5</ele><time>2026-04-19T08:33:49Z</time></trkpt><trkpt lat="36.96438871852058" lon="15.004784471379466"><ele>523.0</ele><time>2026-04-19T08:33:50Z</time></trkpt><trkpt lat="36.964372054081196" lon="15.004604189876545"><ele>523.5</ele><time>2026-04-19T08:33:51Z</time></trkpt><trkpt lat="36.964367380800525" lon="15.004440526610011"><ele>524.0</ele><time>2026-04-19T08:33:52Z</time></trkpt><trkpt lat="36.96442578278051" lon="15.004309453944117"><ele>524.0</ele><time>2026-04-19T08:33:53Z</time></trkpt><trkpt lat="36.96450351289681" lon="15.004184649828343"><ele>524.0</ele><time>2026-04-19T08:33:54Z</time></trkpt><trkpt lat="36.964565097404154" lon="15.00404542174179"><ele>524.0</ele><time>2026-04-19T08:33:55Z</time></trkpt><trkpt lat="36.964602718553735" lon="15.003913564005433"><ele>524.0</ele><time>2026-04-19T08:33:56Z</time></trkpt><trkpt lat="36.96459868884902" lon="15.0037538592522"><ele>524.5</ele><time>2026-04-19T08:33:57Z</time></trkpt><trkpt lat="36.96456217071985" lon="15.003592286671044"><ele>525.0</ele><time>2026-04-19T08:33:58Z</time></trkpt><trkpt lat="36.96449098386199" lon="15.003437369961864"><ele>525.5</ele><time>2026-04-19T08:33:59Z</time></trkpt><trkpt lat="36.9644003630236" lon="15.003276938834395"><ele>526.0</ele><time>2026-04-19T08:34:00Z</time></trkpt><trkpt lat="36.96429868990297" lon="15.003098621933706"><ele>525.6666666666667</ele><time>2026-04-19T08:34:01Z</time></trkpt><trkpt lat="36.964194722475725" lon="15.002906747124754"><ele>525.3333333333334</ele><time>2026-04-19T08:34:02Z</time></trkpt><trkpt lat="36.96409206931997" lon="15.00270438036805"><ele>525.0</ele><time>2026-04-19T08:34:03Z</time></trkpt><trkpt lat="36.963989439320166" lon="15.002516899107766"><ele>526.25</ele><time>2026-04-19T08:34:04Z</time></trkpt><trkpt lat="36.963900925546156" lon="15.002355876746854"><ele>527.5</ele><time>2026-04-19T08:34:05Z</time></trkpt><trkpt lat="36.96383223180677" lon="15.002217273365051"><ele>528.75</ele><time>2026-04-19T08:34:06Z</time></trkpt><trkpt lat="36.96379277144631" lon="15.002081857182144"><ele>530.0</ele><time>2026-04-19T08:34:07Z</time></trkpt><trkpt lat="36.96377936036457" lon="15.001911246958432"><ele>530.0</ele><time>2026-04-19T08:34:08Z</time></trkpt><trkpt lat="36.963762919268774" lon="15.00171588454372"><ele>530.0</ele><time>2026-04-19T08:34:09Z</time></trkpt><trkpt lat="36.963726753075726" lon="15.001527155511567"><ele>530.0</ele><time>2026-04-19T08:34:10Z</time></trkpt><trkpt lat="36.96367220673101" lon="15.001356912863681"><ele>531.3333333333333</ele><time>2026-04-19T08:34:11Z</time></trkpt><trkpt lat="36.96357795444687" lon="15.001184307195333"><ele>532.6666666666666</ele><time>2026-04-19T08:34:12Z</time></trkpt><trkpt lat="36.96345756809711" lon="15.001003442927422"><ele>534.0</ele><time>2026-04-19T08:34:13Z</time></trkpt><trkpt lat="36.96332522612353" lon="15.000822168144223"><ele>534.3333333333334</ele><time>2026-04-19T08:34:14Z</time></trkpt><trkpt lat="36.96320156021822" lon="15.000666415974274"><ele>534.6666666666667</ele><time>2026-04-19T08:34:15Z</time></trkpt><trkpt lat="36.96308366990309" lon="15.000520702518918"><ele>535.0</ele><time>2026-04-19T08:34:16Z</time></trkpt><trkpt lat="36.96297249784904" lon="15.000371774154802"><ele>535.0</ele><time>2026-04-19T08:34:17Z</time></trkpt><trkpt lat="36.96287681632277" lon="15.000210474996118"><ele>535.0</ele><time>2026-04-19T08:34:18Z</time></trkpt><trkpt lat="36.962803380470184" lon="15.000036851382246"><ele>535.0</ele><time>2026-04-19T08:34:19Z</time></trkpt><trkpt lat="36.96273642625442" lon="14.999838312017133"><ele>535.0</ele><time>2026-04-19T08:34:20Z</time></trkpt><trkpt lat="36.962660778922945" lon="14.999626524119053"><ele>535.0</ele><time>2026-04-19T08:34:21Z</time></trkpt><trkpt lat="36.962574045665114" lon="14.99941678208399"><ele>535.0</ele><time>2026-04-19T08:34:22Z</time></trkpt><trkpt lat="36.96248091043295" lon="14.999213829565482"><ele>534.0</ele><time>2026-04-19T08:34:23Z</time></trkpt><trkpt lat="36.96237617478271" lon="14.999025208088609"><ele>533.0</ele><time>2026-04-19T08:34:24Z</time></trkpt><trkpt lat="36.96224552627703" lon="14.99886549517064"><ele>532.0</ele><time>2026-04-19T08:34:25Z</time></trkpt><trkpt lat="36.96210209165794" lon="14.998725380235928"><ele>532.0</ele><time>2026-04-19T08:34:26Z</time></trkpt><trkpt lat="36.961969826065065" lon="14.998584332494461"><ele>532.0</ele><time>2026-04-19T08:34:27Z</time></trkpt><trkpt lat="36.961858861927844" lon="14.998451327919643"><ele>532.0</ele><time>2026-04-19T08:34:28Z</time></trkpt><trkpt lat="36.96176039516796" lon="14.99833653570782"><ele>532.5</ele><time>2026-04-19T08:34:29Z</time></trkpt><trkpt lat="36.96166105769284" lon="14.998257978583744"><ele>533.0</ele><time>2026-04-19T08:34:30Z</time></trkpt><trkpt lat="36.96153421063322" lon="14.998243515767417"><ele>533.5</ele><time>2026-04-19T08:34:31Z</time></trkpt><trkpt lat="36.96141409618062" lon="14.998226012397552"><ele>534.0</ele><time>2026-04-19T08:34:32Z</time></trkpt><trkpt lat="36.961318990431295" lon="14.998216653067033"><ele>534.0</ele><time>2026-04-19T08:34:33Z</time></trkpt><trkpt lat="36.96125747374857" lon="14.998156301802396"><ele>534.0</ele><time>2026-04-19T08:34:34Z</time></trkpt><trkpt lat="36.96119934895597" lon="14.998038031162594"><ele>534.0</ele><time>2026-04-19T08:34:35Z</time></trkpt><trkpt lat="36.96112335213874" lon="14.99789304330556"><ele>534.0</ele><time>2026-04-19T08:34:36Z</time></trkpt><trkpt lat="36.96102996374511" lon="14.997717068586121"><ele>534.0</ele><time>2026-04-19T08:34:37Z</time></trkpt><trkpt lat="36.9609371858253" lon="14.997535839642547"><ele>534.0</ele><time>2026-04-19T08:34:38Z</time></trkpt><trkpt lat="36.96082569659499" lon="14.99734606953693"><ele>534.0</ele><time>2026-04-19T08:34:39Z</time></trkpt><trkpt lat="36.96070870525288" lon="14.997153782793745"><ele>534.6666666666666</ele><time>2026-04-19T08:34:40Z</time></trkpt><trkpt lat="36.96058476037754" lon="14.996952388454305"><ele>535.3333333333333</ele><time>2026-04-19T08:34:41Z</time></trkpt><trkpt lat="36.96046403055316" lon="14.996755782921124"><ele>536.0</ele><time>2026-04-19T08:34:42Z</time></trkpt><trkpt lat="36.96035361316517" lon="14.996583133682442"><ele>536.3333333333333</ele><time>2026-04-19T08:34:43Z</time></trkpt><trkpt lat="36.960246581664286" lon="14.99642256730783"><ele>536.6666666666666</ele><time>2026-04-19T08:34:44Z</time></trkpt><trkpt lat="36.96013409576829" lon="14.996258141046948"><ele>537.0</ele><time>2026-04-19T08:34:45Z</time></trkpt><trkpt lat="36.9600316863037" lon="14.996102485971235"><ele>538.6666666666666</ele><time>2026-04-19T08:34:46Z</time></trkpt><trkpt lat="36.95994278072923" lon="14.995948380495031"><ele>540.3333333333333</ele><time>2026-04-19T08:34:47Z</time></trkpt><trkpt lat="36.95986030895139" lon="14.995776984183836"><ele>542.0</ele><time>2026-04-19T08:34:48Z</time></trkpt><trkpt lat="36.95979314075287" lon="14.995572271483349"><ele>543.3333333333333</ele><time>2026-04-19T08:34:49Z</time></trkpt><trkpt lat="36.95973493352025" lon="14.995349516540443"><ele>544.6666666666666</ele><time>2026-04-19T08:34:50Z</time></trkpt><trkpt lat="36.95968198802744" lon="14.995112172227296"><ele>546.0</ele><time>2026-04-19T08:34:51Z</time></trkpt><trkpt lat="36.95963344412677" lon="14.994895937848414"><ele>546.6666666666666</ele><time>2026-04-19T08:34:52Z</time></trkpt><trkpt lat="36.95959155124238" lon="14.994690713409987"><ele>547.3333333333333</ele><time>2026-04-19T08:34:53Z</time></trkpt><trkpt lat="36.95955553821935" lon="14.994479353576462"><ele>548.0</ele><time>2026-04-19T08:34:54Z</time></trkpt><trkpt lat="36.959539643067146" lon="14.994247467862799"><ele>549.0</ele><time>2026-04-19T08:34:55Z</time></trkpt><trkpt lat="36.959529268078505" lon="14.994008494799822"><ele>550.0</ele><time>2026-04-19T08:34:56Z</time></trkpt><trkpt lat="36.9595246850925" lon="14.993761704955137"><ele>551.0</ele><time>2026-04-19T08:34:57Z</time></trkpt><trkpt lat="36.959514624874004" lon="14.993516702720813"><ele>552.0</ele><time>2026-04-19T08:34:58Z</time></trkpt><trkpt lat="36.959504042917615" lon="14.993299083165878"><ele>553.0</ele><time>2026-04-19T08:34:59Z</time></trkpt><trkpt lat="36.959491917449206" lon="14.993108011265575"><ele>554.0</ele><time>2026-04-19T08:35:00Z</time></trkpt><trkpt lat="36.95946647265084" lon="14.99294334098045"><ele>554.0</ele><time>2026-04-19T08:35:01Z</time></trkpt><trkpt lat="36.959412540445776" lon="14.992788547261991"><ele>554.0</ele><time>2026-04-19T08:35:02Z</time></trkpt><trkpt lat="36.959319459911534" lon="14.992622690585087"><ele>554.0</ele><time>2026-04-19T08:35:03Z</time></trkpt><trkpt lat="36.959204997713215" lon="14.992455115985617"><ele>552.75</ele><time>2026-04-19T08:35:04Z</time></trkpt><trkpt lat="36.95911596273986" lon="14.992292950909116"><ele>551.5</ele><time>2026-04-19T08:35:05Z</time></trkpt><trkpt lat="36.9590665480861" lon="14.992133739143874"><ele>550.25</ele><time>2026-04-19T08:35:06Z</time></trkpt><trkpt lat="36.959040955253336" lon="14.991972836089635"><ele>549.0</ele><time>2026-04-19T08:35:07Z</time></trkpt><trkpt lat="36.95903156969679" lon="14.991815376603856"><ele>550.0</ele><time>2026-04-19T08:35:08Z</time></trkpt><trkpt lat="36.95905198876354" lon="14.991646454084131"><ele>551.0</ele><time>2026-04-19T08:35:09Z</time></trkpt><trkpt lat="36.95909051500693" lon="14.99145712423281"><ele>552.0</ele><time>2026-04-19T08:35:10Z</time></trkpt><trkpt lat="36.95914567731043" lon="14.991259055684264"><ele>552.0</ele><time>2026-04-19T08:35:11Z</time></trkpt><trkpt lat="36.95921310302648" lon="14.991054998145"><ele>552.0</ele><time>2026-04-19T08:35:12Z</time></trkpt><trkpt lat="36.95927247667091" lon="14.990851910468646"><ele>552.0</ele><time>2026-04-19T08:35:13Z</time></trkpt><trkpt lat="36.95931110170343" lon="14.990668572911204"><ele>552.6666666666666</ele><time>2026-04-19T08:35:14Z</time></trkpt><trkpt lat="36.95932536407367" lon="14.99048653690438"><ele>553.3333333333333</ele><time>2026-04-19T08:35:15Z</time></trkpt><trkpt lat="36.959312697688475" lon="14.990287751714082"><ele>554.0</ele><time>2026-04-19T08:35:16Z</time></trkpt><trkpt lat="36.95927654312904" lon="14.990073234441175"><ele>554.0</ele><time>2026-04-19T08:35:17Z</time></trkpt><trkpt lat="36.95921391190892" lon="14.989849796595152"><ele>554.0</ele><time>2026-04-19T08:35:18Z</time></trkpt><trkpt lat="36.95913779379994" lon="14.989618076941339"><ele>554.0</ele><time>2026-04-19T08:35:19Z</time></trkpt><trkpt lat="36.95906638231185" lon="14.989382999699961"><ele>556.3333333333333</ele><time>2026-04-19T08:35:20Z</time></trkpt><trkpt lat="36.95900975750089" lon="14.989160473088319"><ele>558.6666666666666</ele><time>2026-04-19T08:35:21Z</time></trkpt><trkpt lat="36.95896701795059" lon="14.988944718481141"><ele>561.0</ele><time>2026-04-19T08:35:22Z</time></trkpt><trkpt lat="36.95894223419061" lon="14.988728350239178"><ele>561.0</ele><time>2026-04-19T08:35:23Z</time></trkpt><trkpt lat="36.95892658394769" lon="14.988499571976272"><ele>561.0</ele><time>2026-04-19T08:35:24Z</time></trkpt><trkpt lat="36.9589246892079" lon="14.988267275413493"><ele>561.0</ele><time>2026-04-19T08:35:25Z</time></trkpt><trkpt lat="36.95892504401196" lon="14.988028456779013"><ele>561.6666666666666</ele><time>2026-04-19T08:35:26Z</time></trkpt><trkpt lat="36.95892697134333" lon="14.987788264300242"><ele>562.3333333333333</ele><time>2026-04-19T08:35:27Z</time></trkpt><trkpt lat="36.95892440057076" lon="14.98754442767152"><ele>563.0</ele><time>2026-04-19T08:35:28Z</time></trkpt><trkpt lat="36.958917430636845" lon="14.987304896745577"><ele>563.0</ele><time>2026-04-19T08:35:29Z</time></trkpt><trkpt lat="36.958912773408485" lon="14.987093467348139"><ele>563.0</ele><time>2026-04-19T08:35:30Z</time></trkpt><trkpt lat="36.958902404398906" lon="14.986917522583232"><ele>563.0</ele><time>2026-04-19T08:35:31Z</time></trkpt><trkpt lat="36.95886770708016" lon="14.98674368676381"><ele>564.6666666666666</ele><time>2026-04-19T08:35:32Z</time></trkpt><trkpt lat="36.95882765863454" lon="14.986547895808684"><ele>566.3333333333334</ele><time>2026-04-19T08:35:33Z</time></trkpt><trkpt lat="36.95880843321885" lon="14.986349952329615"><ele>568.0</ele><time>2026-04-19T08:35:34Z</time></trkpt><trkpt lat="36.95881627420243" lon="14.986147976268883"><ele>568.0</ele><time>2026-04-19T08:35:35Z</time></trkpt><trkpt lat="36.95885109619821" lon="14.985932304900988"><ele>568.0</ele><time>2026-04-19T08:35:36Z</time></trkpt><trkpt lat="36.958902265129616" lon="14.985708409459164"><ele>568.0</ele><time>2026-04-19T08:35:37Z</time></trkpt><trkpt lat="36.958960452342" lon="14.985483372390835"><ele>569.3333333333334</ele><time>2026-04-19T08:35:38Z</time></trkpt><trkpt lat="36.959007892821475" lon="14.985257217489986"><ele>570.6666666666666</ele><time>2026-04-19T08:35:39Z</time></trkpt><trkpt lat="36.95904485290348" lon="14.985024145301248"><ele>572.0</ele><time>2026-04-19T08:35:40Z</time></trkpt><trkpt lat="36.95907664286824" lon="14.984796240929162"><ele>572.3333333333333</ele><time>2026-04-19T08:35:41Z</time></trkpt><trkpt lat="36.95909427082906" lon="14.984587472070366"><ele>572.6666666666666</ele><time>2026-04-19T08:35:42Z</time></trkpt><trkpt lat="36.95908926557265" lon="14.984388537153592"><ele>573.0</ele><time>2026-04-19T08:35:43Z</time></trkpt><trkpt lat="36.95906732183771" lon="14.984209903234975"><ele>573.0</ele><time>2026-04-19T08:35:44Z</time></trkpt><trkpt lat="36.95905978723821" lon="14.984043284065201"><ele>573.0</ele><time>2026-04-19T08:35:45Z</time></trkpt><trkpt lat="36.95911804415867" lon="14.983878793617437"><ele>573.0</ele><time>2026-04-19T08:35:46Z</time></trkpt><trkpt lat="36.95918549628109" lon="14.983699691593364"><ele>573.0</ele><time>2026-04-19T08:35:47Z</time></trkpt><trkpt lat="36.95926087856483" lon="14.98350686677278"><ele>574.3333333333334</ele><time>2026-04-19T08:35:48Z</time></trkpt><trkpt lat="36.95933348125646" lon="14.98329332194596"><ele>575.6666666666667</ele><time>2026-04-19T08:35:49Z</time></trkpt><trkpt lat="36.95941366277376" lon="14.983090919939315"><ele>577.0</ele><time>2026-04-19T08:35:50Z</time></trkpt><trkpt lat="36.959487468232716" lon="14.982908853321439"><ele>577.0</ele><time>2026-04-19T08:35:51Z</time></trkpt><trkpt lat="36.95955903863836" lon="14.982723849123317"><ele>577.0</ele><time>2026-04-19T08:35:52Z</time></trkpt><trkpt lat="36.959629434474095" lon="14.982541371055458"><ele>577.0</ele><time>2026-04-19T08:35:53Z</time></trkpt><trkpt lat="36.95970562334912" lon="14.982362974072117"><ele>577.3333333333334</ele><time>2026-04-19T08:35:54Z</time></trkpt><trkpt lat="36.95979627728987" lon="14.982189312070219"><ele>577.6666666666666</ele><time>2026-04-19T08:35:55Z</time></trkpt><trkpt lat="36.95990706586691" lon="14.982010829393202"><ele>578.0</ele><time>2026-04-19T08:35:56Z</time></trkpt><trkpt lat="36.960021919363705" lon="14.981837521481681"><ele>580.0</ele><time>2026-04-19T08:35:57Z</time></trkpt><trkpt lat="36.96011964178966" lon="14.981680587991022"><ele>582.0</ele><time>2026-04-19T08:35:58Z</time></trkpt><trkpt lat="36.960202351284316" lon="14.981523598175972"><ele>584.0</ele><time>2026-04-19T08:35:59Z</time></trkpt><trkpt lat="36.96026498068459" lon="14.981363654848424"><ele>584.0</ele><time>2026-04-19T08:36:00Z</time></trkpt><trkpt lat="36.960303166297564" lon="14.981206752316332"><ele>584.0</ele><time>2026-04-19T08:36:01Z</time></trkpt><trkpt lat="36.96034998202477" lon="14.98105769281479"><ele>584.0</ele><time>2026-04-19T08:36:02Z</time></trkpt><trkpt lat="36.96045302133233" lon="14.980927017189797"><ele>584.0</ele><time>2026-04-19T08:36:03Z</time></trkpt><trkpt lat="36.96056335586322" lon="14.980759809789213"><ele>584.6666666666666</ele><time>2026-04-19T08:36:04Z</time></trkpt><trkpt lat="36.96066853114709" lon="14.980570085766987"><ele>585.3333333333334</ele><time>2026-04-19T08:36:05Z</time></trkpt><trkpt lat="36.96077711150598" lon="14.980407252661044"><ele>586.0</ele><time>2026-04-19T08:36:06Z</time></trkpt><trkpt lat="36.960875206059484" lon="14.98025460569656"><ele>586.0</ele><time>2026-04-19T08:36:07Z</time></trkpt><trkpt lat="36.9609689167579" lon="14.98009756133774"><ele>586.0</ele><time>2026-04-19T08:36:08Z</time></trkpt><trkpt lat="36.96104908717328" lon="14.979929710003045"><ele>586.0</ele><time>2026-04-19T08:36:09Z</time></trkpt><trkpt lat="36.961106586800256" lon="14.979737285383544"><ele>586.0</ele><time>2026-04-19T08:36:10Z</time></trkpt><trkpt lat="36.961152134453776" lon="14.979509371443882"><ele>586.0</ele><time>2026-04-19T08:36:11Z</time></trkpt><trkpt lat="36.96119555509617" lon="14.979262599622782"><ele>586.0</ele><time>2026-04-19T08:36:12Z</time></trkpt><trkpt lat="36.96124504742976" lon="14.97900089852607"><ele>586.0</ele><time>2026-04-19T08:36:13Z</time></trkpt><trkpt lat="36.96129432069398" lon="14.978751922314789"><ele>586.0</ele><time>2026-04-19T08:36:14Z</time></trkpt><trkpt lat="36.96133527251169" lon="14.978534424865671"><ele>586.0</ele><time>2026-04-19T08:36:15Z</time></trkpt><trkpt lat="36.96137063769684" lon="14.978331287069258"><ele>586.75</ele><time>2026-04-19T08:36:16Z</time></trkpt><trkpt lat="36.961411072116924" lon="14.97814479607956"><ele>587.5</ele><time>2026-04-19T08:36:17Z</time></trkpt><trkpt lat="36.96145269743716" lon="14.977974652192442"><ele>588.25</ele><time>2026-04-19T08:36:18Z</time></trkpt><trkpt lat="36.9614972025983" lon="14.977818195922415"><ele>589.0</ele><time>2026-04-19T08:36:19Z</time></trkpt><trkpt lat="36.96155575040714" lon="14.977658756377698"><ele>589.6666666666667</ele><time>2026-04-19T08:36:20Z</time></trkpt><trkpt lat="36.961631596414904" lon="14.977484319631742"><ele>590.3333333333334</ele><time>2026-04-19T08:36:21Z</time></trkpt><trkpt lat="36.96171319164742" lon="14.977301373021355"><ele>591.0</ele><time>2026-04-19T08:36:22Z</time></trkpt><trkpt lat="36.96179239942671" lon="14.977120157022682"><ele>591.0</ele><time>2026-04-19T08:36:23Z</time></trkpt><trkpt lat="36.961863431097946" lon="14.976960646216375"><ele>591.0</ele><time>2026-04-19T08:36:24Z</time></trkpt><trkpt lat="36.96193077966573" lon="14.976804114693229"><ele>591.0</ele><time>2026-04-19T08:36:25Z</time></trkpt><trkpt lat="36.96199279901435" lon="14.976656287192984"><ele>591.0</ele><time>2026-04-19T08:36:26Z</time></trkpt><trkpt lat="36.9620487944198" lon="14.976520451693066"><ele>591.0</ele><time>2026-04-19T08:36:27Z</time></trkpt><trkpt lat="36.96210588233085" lon="14.976383654471473"><ele>591.0</ele><time>2026-04-19T08:36:28Z</time></trkpt><trkpt lat="36.96216714609035" lon="14.976238890411556"><ele>591.0</ele><time>2026-04-19T08:36:29Z</time></trkpt><trkpt lat="36.96223000296209" lon="14.976091512113875"><ele>591.0</ele><time>2026-04-19T08:36:30Z</time></trkpt><trkpt lat="36.96228190361724" lon="14.975951175472392"><ele>591.0</ele><time>2026-04-19T08:36:31Z</time></trkpt><trkpt lat="36.96232682978958" lon="14.975819428789057"><ele>591.0</ele><time>2026-04-19T08:36:32Z</time></trkpt><trkpt lat="36.962361810102315" lon="14.975700800767083"><ele>591.0</ele><time>2026-04-19T08:36:33Z</time></trkpt><trkpt lat="36.96238523174414" lon="14.975596369775108"><ele>591.0</ele><time>2026-04-19T08:36:34Z</time></trkpt><trkpt lat="36.962409356852426" lon="14.975502619834753"><ele>591.0</ele><time>2026-04-19T08:36:35Z</time></trkpt><trkpt lat="36.96242868293161" lon="14.975412002477523"><ele>591.0</ele><time>2026-04-19T08:36:36Z</time></trkpt><trkpt lat="36.96244217501966" lon="14.975318450920927"><ele>591.0</ele><time>2026-04-19T08:36:37Z</time></trkpt><trkpt lat="36.96245351882923" lon="14.975223670154252"><ele>591.0</ele><time>2026-04-19T08:36:38Z</time></trkpt><trkpt lat="36.96246297603852" lon="14.975139616513019"><ele>591.0</ele><time>2026-04-19T08:36:39Z</time></trkpt><trkpt lat="36.96247270549399" lon="14.975017630074133"><ele>591.0</ele><time>2026-04-19T08:36:41Z</time></trkpt><trkpt lat="36.96248513360598" lon="14.97487340551918"><ele>591.0</ele><time>2026-04-19T08:36:43Z</time></trkpt><trkpt lat="36.96249359088913" lon="14.974767046645539"><ele>591.1666666666666</ele><time>2026-04-19T08:36:45Z</time></trkpt><trkpt lat="36.962508500881185" lon="14.974673151795704"><ele>591.3333333333334</ele><time>2026-04-19T08:36:49Z</time></trkpt><trkpt lat="36.96252738490913" lon="14.974590862342911"><ele>591.5</ele><time>2026-04-19T08:37:30Z</time></trkpt><trkpt lat="36.96258995942798" lon="14.97453707896001"><ele>591.6666666666667</ele><time>2026-04-19T08:38:08Z</time></trkpt><trkpt lat="36.96252892958933" lon="14.974597183766798"><ele>591.8333333333334</ele><time>2026-04-19T08:41:05Z</time></trkpt><trkpt lat="36.962520409252924" lon="14.97449016779175"><ele>592.0</ele><time>2026-04-19T09:01:11Z</time></trkpt><trkpt lat="36.96254604307452" lon="14.974339938840764"><ele>592.0</ele><time>2026-04-19T09:01:13Z</time></trkpt><trkpt lat="36.96254357838928" lon="14.974219737877968"><ele>592.0</ele><time>2026-04-19T09:01:15Z</time></trkpt><trkpt lat="36.96249033607683" lon="14.974149959492596"><ele>592.0</ele><time>2026-04-19T09:01:17Z</time></trkpt><trkpt lat="36.96237456858496" lon="14.974147234755224"><ele>592.0</ele><time>2026-04-19T09:01:19Z</time></trkpt><trkpt lat="36.96231025120871" lon="14.974147370981573"><ele>592.0</ele><time>2026-04-19T09:01:20Z</time></trkpt><trkpt lat="36.962240329729724" lon="14.974141558435933"><ele>592.0</ele><time>2026-04-19T09:01:21Z</time></trkpt><trkpt lat="36.96216919689074" lon="14.974130687760725"><ele>592.3333333333334</ele><time>2026-04-19T09:01:22Z</time></trkpt><trkpt lat="36.96209449685256" lon="14.974121590445058"><ele>592.6666666666667</ele><time>2026-04-19T09:01:23Z</time></trkpt><trkpt lat="36.96201846583202" lon="14.974112383609539"><ele>593.0</ele><time>2026-04-19T09:01:24Z</time></trkpt><trkpt lat="36.9619382440293" lon="14.974104363341581"><ele>593.3333333333334</ele><time>2026-04-19T09:01:25Z</time></trkpt><trkpt lat="36.96185676560774" lon="14.974099782900609"><ele>593.6666666666666</ele><time>2026-04-19T09:01:26Z</time></trkpt><trkpt lat="36.961774969503495" lon="14.974113330348075"><ele>594.0</ele><time>2026-04-19T09:01:27Z</time></trkpt><trkpt lat="36.96169299717054" lon="14.97414623041167"><ele>593.6</ele><time>2026-04-19T09:01:28Z</time></trkpt><trkpt lat="36.961609697154124" lon="14.974194061396744"><ele>593.2</ele><time>2026-04-19T09:01:29Z</time></trkpt><trkpt lat="36.961526283924584" lon="14.974247854254772"><ele>592.8000000000001</ele><time>2026-04-19T09:01:30Z</time></trkpt><trkpt lat="36.96143318531031" lon="14.974303178780437"><ele>592.4</ele><time>2026-04-19T09:01:31Z</time></trkpt><trkpt lat="36.96133596161996" lon="14.974357915040832"><ele>592.0</ele><time>2026-04-19T09:01:32Z</time></trkpt><trkpt lat="36.96125387011298" lon="14.974409023955355"><ele>592.0</ele><time>2026-04-19T09:01:33Z</time></trkpt><trkpt lat="36.96117656713487" lon="14.974456991812149"><ele>592.0</ele><time>2026-04-19T09:01:34Z</time></trkpt><trkpt lat="36.96109685608404" lon="14.974502087238244"><ele>592.0</ele><time>2026-04-19T09:01:35Z</time></trkpt><trkpt lat="36.96100541912075" lon="14.974550713624923"><ele>592.0</ele><time>2026-04-19T09:01:36Z</time></trkpt><trkpt lat="36.960930410723655" lon="14.974592461151246"><ele>592.0</ele><time>2026-04-19T09:01:37Z</time></trkpt><trkpt lat="36.96086338653196" lon="14.974626642881244"><ele>592.0</ele><time>2026-04-19T09:01:38Z</time></trkpt><trkpt lat="36.96079800236968" lon="14.97464326169139"><ele>591.4</ele><time>2026-04-19T09:01:39Z</time></trkpt><trkpt lat="36.96070840980962" lon="14.974673976712115"><ele>590.8000000000001</ele><time>2026-04-19T09:01:40Z</time></trkpt><trkpt lat="36.960610407437294" lon="14.974696220629983"><ele>590.2</ele><time>2026-04-19T09:01:41Z</time></trkpt><trkpt lat="36.96053178370363" lon="14.974703800375742"><ele>589.6</ele><time>2026-04-19T09:01:42Z</time></trkpt><trkpt lat="36.96043333289235" lon="14.974702223668979"><ele>589.0</ele><time>2026-04-19T09:01:43Z</time></trkpt><trkpt lat="36.96030499566633" lon="14.974688824398228"><ele>589.0</ele><time>2026-04-19T09:01:44Z</time></trkpt><trkpt lat="36.9601612508982" lon="14.974654966617125"><ele>589.0</ele><time>2026-04-19T09:01:45Z</time></trkpt><trkpt lat="36.9600095200987" lon="14.974618833248655"><ele>589.0</ele><time>2026-04-19T09:01:46Z</time></trkpt><trkpt lat="36.959853137304115" lon="14.97459499843829"><ele>589.0</ele><time>2026-04-19T09:01:47Z</time></trkpt><trkpt lat="36.959674166872205" lon="14.974588356849486"><ele>589.0</ele><time>2026-04-19T09:01:48Z</time></trkpt><trkpt lat="36.95951200056655" lon="14.974589161618312"><ele>589.0</ele><time>2026-04-19T09:01:49Z</time></trkpt><trkpt lat="36.95937667403113" lon="14.974586932829318"><ele>589.0</ele><time>2026-04-19T09:01:50Z</time></trkpt><trkpt lat="36.95925448714085" lon="14.974580226651685"><ele>589.0</ele><time>2026-04-19T09:01:51Z</time></trkpt><trkpt lat="36.959130990609616" lon="14.974569242777713"><ele>589.0</ele><time>2026-04-19T09:01:52Z</time></trkpt><trkpt lat="36.95898435210326" lon="14.974571046176454"><ele>589.0</ele><time>2026-04-19T09:01:53Z</time></trkpt><trkpt lat="36.958845418345156" lon="14.974578582916285"><ele>588.75</ele><time>2026-04-19T09:01:54Z</time></trkpt><trkpt lat="36.95872245705966" lon="14.974583055370108"><ele>588.5</ele><time>2026-04-19T09:01:55Z</time></trkpt><trkpt lat="36.95859572674093" lon="14.974583344636478"><ele>588.25</ele><time>2026-04-19T09:01:56Z</time></trkpt><trkpt lat="36.95845398940193" lon="14.974603951473323"><ele>588.0</ele><time>2026-04-19T09:01:57Z</time></trkpt><trkpt lat="36.95830205750319" lon="14.974653234646537"><ele>588.0</ele><time>2026-04-19T09:01:58Z</time></trkpt><trkpt lat="36.95815676442686" lon="14.974718945750782"><ele>588.0</ele><time>2026-04-19T09:01:59Z</time></trkpt><trkpt lat="36.95802564629997" lon="14.974764445412147"><ele>588.0</ele><time>2026-04-19T09:02:00Z</time></trkpt><trkpt lat="36.95789350244182" lon="14.974803886311001"><ele>588.0</ele><time>2026-04-19T09:02:01Z</time></trkpt><trkpt lat="36.95776572241922" lon="14.974845949322692"><ele>588.0</ele><time>2026-04-19T09:02:02Z</time></trkpt><trkpt lat="36.957640479949106" lon="14.974891956810808"><ele>588.0</ele><time>2026-04-19T09:02:03Z</time></trkpt><trkpt lat="36.95751545581271" lon="14.97493091326984"><ele>588.0</ele><time>2026-04-19T09:02:04Z</time></trkpt><trkpt lat="36.957391171192405" lon="14.974969840224091"><ele>588.0</ele><time>2026-04-19T09:02:05Z</time></trkpt><trkpt lat="36.95727687498867" lon="14.975009715415231"><ele>587.6</ele><time>2026-04-19T09:02:06Z</time></trkpt><trkpt lat="36.957175270650566" lon="14.975047696064374"><ele>587.1999999999999</ele><time>2026-04-19T09:02:07Z</time></trkpt><trkpt lat="36.95708124986745" lon="14.975081788374464"><ele>586.8</ele><time>2026-04-19T09:02:08Z</time></trkpt><trkpt lat="36.956990404401466" lon="14.975115060766571"><ele>586.4</ele><time>2026-04-19T09:02:09Z</time></trkpt><trkpt lat="36.95690402370956" lon="14.975149760613197"><ele>586.0</ele><time>2026-04-19T09:02:10Z</time></trkpt><trkpt lat="36.956821906139126" lon="14.97517588782868"><ele>586.0</ele><time>2026-04-19T09:02:11Z</time></trkpt><trkpt lat="36.95673392411559" lon="14.975200611759718"><ele>586.0</ele><time>2026-04-19T09:02:12Z</time></trkpt><trkpt lat="36.956639960681116" lon="14.975225807371707"><ele>586.0</ele><time>2026-04-19T09:02:13Z</time></trkpt><trkpt lat="36.95654476263086" lon="14.975254185061866"><ele>586.0</ele><time>2026-04-19T09:02:14Z</time></trkpt><trkpt lat="36.95643868281425" lon="14.975294117823077"><ele>586.0</ele><time>2026-04-19T09:02:15Z</time></trkpt><trkpt lat="36.95631268983364" lon="14.975340852831625"><ele>587.6666666666667</ele><time>2026-04-19T09:02:16Z</time></trkpt><trkpt lat="36.95614813011967" lon="14.97540369557961"><ele>589.3333333333334</ele><time>2026-04-19T09:02:17Z</time></trkpt><trkpt lat="36.95597866948347" lon="14.97547474440411"><ele>591.0</ele><time>2026-04-19T09:02:18Z</time></trkpt><trkpt lat="36.95579940524864" lon="14.975562359652816"><ele>591.0</ele><time>2026-04-19T09:02:19Z</time></trkpt><trkpt lat="36.955608158454154" lon="14.975673873284746"><ele>591.0</ele><time>2026-04-19T09:02:20Z</time></trkpt><trkpt lat="36.955420634843875" lon="14.975795319063995"><ele>591.0</ele><time>2026-04-19T09:02:21Z</time></trkpt><trkpt lat="36.95525652913164" lon="14.975891311849926"><ele>591.0</ele><time>2026-04-19T09:02:22Z</time></trkpt><trkpt lat="36.95510028882027" lon="14.975961262836739"><ele>591.0</ele><time>2026-04-19T09:02:23Z</time></trkpt><trkpt lat="36.95493981314466" lon="14.976008447619536"><ele>591.0</ele><time>2026-04-19T09:02:24Z</time></trkpt><trkpt lat="36.954772443866936" lon="14.976045500032493"><ele>592.3333333333334</ele><time>2026-04-19T09:02:25Z</time></trkpt><trkpt lat="36.95459143340666" lon="14.976094455121151"><ele>593.6666666666667</ele><time>2026-04-19T09:02:26Z</time></trkpt><trkpt lat="36.954402478304246" lon="14.976145533957524"><ele>595.0</ele><time>2026-04-19T09:02:27Z</time></trkpt><trkpt lat="36.95422409230518" lon="14.976195919330005"><ele>594.0</ele><time>2026-04-19T09:02:28Z</time></trkpt><trkpt lat="36.954062101657314" lon="14.976243737378917"><ele>593.0</ele><time>2026-04-19T09:02:29Z</time></trkpt><trkpt lat="36.95388344451294" lon="14.976297071657985"><ele>592.0</ele><time>2026-04-19T09:02:30Z</time></trkpt><trkpt lat="36.953717148408344" lon="14.976340725610473"><ele>592.0</ele><time>2026-04-19T09:02:31Z</time></trkpt><trkpt lat="36.953539342815716" lon="14.976373167693676"><ele>592.0</ele><time>2026-04-19T09:02:32Z</time></trkpt><trkpt lat="36.953359869545224" lon="14.976383745426393"><ele>592.0</ele><time>2026-04-19T09:02:33Z</time></trkpt><trkpt lat="36.95319700553825" lon="14.976401940626134"><ele>591.3333333333334</ele><time>2026-04-19T09:02:34Z</time></trkpt><trkpt lat="36.95303566047614" lon="14.976438563805262"><ele>590.6666666666666</ele><time>2026-04-19T09:02:35Z</time></trkpt><trkpt lat="36.95286010630883" lon="14.97650172739354"><ele>590.0</ele><time>2026-04-19T09:02:36Z</time></trkpt><trkpt lat="36.95269247104614" lon="14.976576266870826"><ele>590.0</ele><time>2026-04-19T09:02:37Z</time></trkpt><trkpt lat="36.95254101837111" lon="14.976639708206095"><ele>590.0</ele><time>2026-04-19T09:02:38Z</time></trkpt><trkpt lat="36.95240590390053" lon="14.976702567683008"><ele>590.0</ele><time>2026-04-19T09:02:39Z</time></trkpt><trkpt lat="36.95227971471148" lon="14.976778885387624"><ele>590.0</ele><time>2026-04-19T09:02:40Z</time></trkpt><trkpt lat="36.95217101264083" lon="14.976863858729695"><ele>589.5</ele><time>2026-04-19T09:02:41Z</time></trkpt><trkpt lat="36.95207416913946" lon="14.97695371763084"><ele>589.0</ele><time>2026-04-19T09:02:42Z</time></trkpt><trkpt lat="36.95198661433635" lon="14.977053399938903"><ele>588.5</ele><time>2026-04-19T09:02:43Z</time></trkpt><trkpt lat="36.95191662718821" lon="14.977159009027677"><ele>588.0</ele><time>2026-04-19T09:02:44Z</time></trkpt><trkpt lat="36.95183796360365" lon="14.977251156051302"><ele>588.0</ele><time>2026-04-19T09:02:45Z</time></trkpt><trkpt lat="36.95175477386094" lon="14.977333815411852"><ele>588.0</ele><time>2026-04-19T09:02:46Z</time></trkpt><trkpt lat="36.95165496194643" lon="14.977422308363947"><ele>588.0</ele><time>2026-04-19T09:02:47Z</time></trkpt><trkpt lat="36.95152363840761" lon="14.977521583619833"><ele>588.0</ele><time>2026-04-19T09:02:48Z</time></trkpt><trkpt lat="36.951380642823395" lon="14.977626054153383"><ele>587.3333333333334</ele><time>2026-04-19T09:02:49Z</time></trkpt><trkpt lat="36.95123220569162" lon="14.97772082566701"><ele>586.6666666666667</ele><time>2026-04-19T09:02:50Z</time></trkpt><trkpt lat="36.95108686351644" lon="14.977797071540417"><ele>586.0</ele><time>2026-04-19T09:02:51Z</time></trkpt><trkpt lat="36.950951256215" lon="14.977854008813381"><ele>585.5</ele><time>2026-04-19T09:02:52Z</time></trkpt><trkpt lat="36.95081782368522" lon="14.97789891833909"><ele>585.0</ele><time>2026-04-19T09:02:53Z</time></trkpt><trkpt lat="36.950682440966354" lon="14.97794632888995"><ele>584.5</ele><time>2026-04-19T09:02:54Z</time></trkpt><trkpt lat="36.95054557726765" lon="14.97800298499477"><ele>584.0</ele><time>2026-04-19T09:02:55Z</time></trkpt><trkpt lat="36.95041253379021" lon="14.978068267212041"><ele>584.0</ele><time>2026-04-19T09:02:56Z</time></trkpt><trkpt lat="36.95027649297228" lon="14.97814341740243"><ele>584.0</ele><time>2026-04-19T09:02:57Z</time></trkpt><trkpt lat="36.95013161732726" lon="14.978228300340689"><ele>584.0</ele><time>2026-04-19T09:02:58Z</time></trkpt><trkpt lat="36.94997732942006" lon="14.978313329658633"><ele>583.3333333333333</ele><time>2026-04-19T09:02:59Z</time></trkpt><trkpt lat="36.94980742199429" lon="14.978407834900088"><ele>582.6666666666666</ele><time>2026-04-19T09:03:00Z</time></trkpt><trkpt lat="36.94961311947582" lon="14.978515375225674"><ele>582.0</ele><time>2026-04-19T09:03:01Z</time></trkpt><trkpt lat="36.949392733301984" lon="14.978631004766106"><ele>581.0</ele><time>2026-04-19T09:03:02Z</time></trkpt><trkpt lat="36.94918129426088" lon="14.978724855574695"><ele>580.0</ele><time>2026-04-19T09:03:03Z</time></trkpt><trkpt lat="36.94898782364281" lon="14.97877536247207"><ele>579.0</ele><time>2026-04-19T09:03:04Z</time></trkpt><trkpt lat="36.948779118153176" lon="14.978822282703643"><ele>579.0</ele><time>2026-04-19T09:03:05Z</time></trkpt><trkpt lat="36.948573924015236" lon="14.978860150987146"><ele>579.0</ele><time>2026-04-19T09:03:06Z</time></trkpt><trkpt lat="36.94839159330796" lon="14.978887072736667"><ele>579.0</ele><time>2026-04-19T09:03:07Z</time></trkpt><trkpt lat="36.94822077307148" lon="14.978914319818323"><ele>578.3333333333334</ele><time>2026-04-19T09:03:08Z</time></trkpt><trkpt lat="36.948053663480856" lon="14.978946629498582"><ele>577.6666666666667</ele><time>2026-04-19T09:03:09Z</time></trkpt><trkpt lat="36.947882111366006" lon="14.978979404472216"><ele>577.0</ele><time>2026-04-19T09:03:10Z</time></trkpt><trkpt lat="36.947715663238334" lon="14.97900618304405"><ele>577.0</ele><time>2026-04-19T09:03:11Z</time></trkpt><trkpt lat="36.947559645167765" lon="14.979020638084931"><ele>577.0</ele><time>2026-04-19T09:03:12Z</time></trkpt><trkpt lat="36.947408045187196" lon="14.979016229297162"><ele>577.0</ele><time>2026-04-19T09:03:13Z</time></trkpt><trkpt lat="36.94726179909885" lon="14.978995829882361"><ele>576.5</ele><time>2026-04-19T09:03:14Z</time></trkpt><trkpt lat="36.94711547305448" lon="14.97895305365461"><ele>576.0</ele><time>2026-04-19T09:03:15Z</time></trkpt><trkpt lat="36.94697753347329" lon="14.978906363854728"><ele>575.5</ele><time>2026-04-19T09:03:16Z</time></trkpt><trkpt lat="36.946851999311185" lon="14.978852766845725"><ele>575.0</ele><time>2026-04-19T09:03:17Z</time></trkpt><trkpt lat="36.94672738540506" lon="14.97880539990895"><ele>575.0</ele><time>2026-04-19T09:03:18Z</time></trkpt><trkpt lat="36.94660718179645" lon="14.97876389222244"><ele>575.0</ele><time>2026-04-19T09:03:19Z</time></trkpt><trkpt lat="36.94648610368224" lon="14.978737705448097"><ele>575.0</ele><time>2026-04-19T09:03:20Z</time></trkpt><trkpt lat="36.94636932044677" lon="14.978727965031588"><ele>575.0</ele><time>2026-04-19T09:03:21Z</time></trkpt><trkpt lat="36.94624828075361" lon="14.978724045674358"><ele>575.0</ele><time>2026-04-19T09:03:22Z</time></trkpt><trkpt lat="36.94611319592602" lon="14.978718357466052"><ele>575.0</ele><time>2026-04-19T09:03:23Z</time></trkpt><trkpt lat="36.945969979091664" lon="14.978707946426196"><ele>575.0</ele><time>2026-04-19T09:03:24Z</time></trkpt><trkpt lat="36.945820500039495" lon="14.978685656756973"><ele>575.0</ele><time>2026-04-19T09:03:25Z</time></trkpt><trkpt lat="36.94567222834712" lon="14.978649528831001"><ele>575.0</ele><time>2026-04-19T09:03:26Z</time></trkpt><trkpt lat="36.945537082269134" lon="14.978593991677027"><ele>575.0</ele><time>2026-04-19T09:03:27Z</time></trkpt><trkpt lat="36.94539604027907" lon="14.978533727686289"><ele>575.0</ele><time>2026-04-19T09:03:28Z</time></trkpt><trkpt lat="36.945254794798956" lon="14.97845616493231"><ele>575.0</ele><time>2026-04-19T09:03:29Z</time></trkpt><trkpt lat="36.945122571266" lon="14.978361218530234"><ele>573.5</ele><time>2026-04-19T09:03:30Z</time></trkpt><trkpt lat="36.945003529493874" lon="14.97826023784599"><ele>572.0</ele><time>2026-04-19T09:03:31Z</time></trkpt><trkpt lat="36.944900443082624" lon="14.978177611807583"><ele>570.5</ele><time>2026-04-19T09:03:32Z</time></trkpt><trkpt lat="36.944818020102936" lon="14.978124023757236"><ele>569.0</ele><time>2026-04-19T09:03:33Z</time></trkpt><trkpt lat="36.944715331466206" lon="14.978099344836313"><ele>569.0</ele><time>2026-04-19T09:03:35Z</time></trkpt><trkpt lat="36.944719237013004" lon="14.978244917954145"><ele>569.0</ele><time>2026-04-19T09:03:38Z</time></trkpt><trkpt lat="36.944716726652786" lon="14.978366549238341"><ele>569.0</ele><time>2026-04-19T09:03:39Z</time></trkpt><trkpt lat="36.944746136005264" lon="14.978529438000054"><ele>569.0</ele><time>2026-04-19T09:03:40Z</time></trkpt><trkpt lat="36.94478789649544" lon="14.978749436840864"><ele>569.3333333333333</ele><time>2026-04-19T09:03:41Z</time></trkpt><trkpt lat="36.944836973994846" lon="14.979007982074027"><ele>569.6666666666666</ele><time>2026-04-19T09:03:42Z</time></trkpt><trkpt lat="36.94488635592972" lon="14.979275246093946"><ele>570.0</ele><time>2026-04-19T09:03:43Z</time></trkpt><trkpt lat="36.94493594628169" lon="14.979567510506714"><ele>570.0</ele><time>2026-04-19T09:03:44Z</time></trkpt><trkpt lat="36.944983525885" lon="14.97984670165362"><ele>570.0</ele><time>2026-04-19T09:03:45Z</time></trkpt><trkpt lat="36.945028846318166" lon="14.980088888368726"><ele>570.0</ele><time>2026-04-19T09:03:46Z</time></trkpt><trkpt lat="36.94507497467914" lon="14.980335392445856"><ele>570.3333333333334</ele><time>2026-04-19T09:03:47Z</time></trkpt><trkpt lat="36.945117040483176" lon="14.98056260361153"><ele>570.6666666666667</ele><time>2026-04-19T09:03:48Z</time></trkpt><trkpt lat="36.94515431733328" lon="14.980767142236514"><ele>571.0</ele><time>2026-04-19T09:03:49Z</time></trkpt><trkpt lat="36.945188128602375" lon="14.980952665046303"><ele>571.0</ele><time>2026-04-19T09:03:50Z</time></trkpt><trkpt lat="36.94521863153632" lon="14.981120035016765"><ele>571.0</ele><time>2026-04-19T09:03:51Z</time></trkpt><trkpt lat="36.9452495422882" lon="14.981267542487892"><ele>571.0</ele><time>2026-04-19T09:03:52Z</time></trkpt><trkpt lat="36.94527906731752" lon="14.98138738719859"><ele>571.0</ele><time>2026-04-19T09:03:53Z</time></trkpt><trkpt lat="36.9452955002764" lon="14.981482549665015"><ele>571.0</ele><time>2026-04-19T09:03:54Z</time></trkpt><trkpt lat="36.94530149499658" lon="14.9815670784715"><ele>571.0</ele><time>2026-04-19T09:03:55Z</time></trkpt><trkpt lat="36.945229824029965" lon="14.981729388380476"><ele>571.0</ele><time>2026-04-19T09:03:57Z</time></trkpt><trkpt lat="36.9451588673307" lon="14.981874349622384"><ele>571.0</ele><time>2026-04-19T09:03:58Z</time></trkpt><trkpt lat="36.94507830024906" lon="14.982024859905763"><ele>571.0</ele><time>2026-04-19T09:03:59Z</time></trkpt><trkpt lat="36.945015605212824" lon="14.982157061902187"><ele>571.0</ele><time>2026-04-19T09:04:00Z</time></trkpt><trkpt lat="36.94496367900082" lon="14.982268672063972"><ele>571.0</ele><time>2026-04-19T09:04:01Z</time></trkpt><trkpt lat="36.944923570983626" lon="14.982354880244474"><ele>571.0</ele><time>2026-04-19T09:04:02Z</time></trkpt><trkpt lat="36.94488589561226" lon="14.982435859854977"><ele>571.0</ele><time>2026-04-19T09:04:04Z</time></trkpt><trkpt lat="36.945014171146056" lon="14.982616599581519"><ele>569.0</ele><time>2026-04-19T09:04:09Z</time></trkpt><trkpt lat="36.9450865827933" lon="14.982722648039296"><ele>567.0</ele><time>2026-04-19T09:04:10Z</time></trkpt><trkpt lat="36.94516515948576" lon="14.982832922188"><ele>565.0</ele><time>2026-04-19T09:04:11Z</time></trkpt><trkpt lat="36.94523841219001" lon="14.982932314232734"><ele>563.0</ele><time>2026-04-19T09:04:12Z</time></trkpt><trkpt lat="36.945311002984866" lon="14.983032263521036"><ele>561.0</ele><time>2026-04-19T09:04:13Z</time></trkpt><trkpt lat="36.94538111430743" lon="14.983134879456667"><ele>561.0</ele><time>2026-04-19T09:04:14Z</time></trkpt><trkpt lat="36.94544672329357" lon="14.983242012958629"><ele>561.0</ele><time>2026-04-19T09:04:15Z</time></trkpt><trkpt lat="36.945501307704454" lon="14.983346388475503"><ele>561.0</ele><time>2026-04-19T09:04:16Z</time></trkpt><trkpt lat="36.9455402158254" lon="14.983444879315973"><ele>561.0</ele><time>2026-04-19T09:04:17Z</time></trkpt><trkpt lat="36.945558732185475" lon="14.98352607657641"><ele>561.0</ele><time>2026-04-19T09:04:18Z</time></trkpt><trkpt lat="36.945571425344575" lon="14.983609974155847"><ele>561.0</ele><time>2026-04-19T09:04:20Z</time></trkpt><trkpt lat="36.945723044770844" lon="14.983562438372752"><ele>562.0</ele><time>2026-04-19T09:04:23Z</time></trkpt><trkpt lat="36.945786650190065" lon="14.983553368261742"><ele>563.0</ele><time>2026-04-19T09:04:25Z</time></trkpt><trkpt lat="36.94588484653187" lon="14.983578364409661"><ele>564.0</ele><time>2026-04-19T09:04:27Z</time></trkpt><trkpt lat="36.94594590897873" lon="14.983545568221945"><ele>565.0</ele><time>2026-04-19T09:04:30Z</time></trkpt><trkpt lat="36.94600704989446" lon="14.983504070367973"><ele>566.0</ele><time>2026-04-19T09:04:35Z</time></trkpt><trkpt lat="36.946062680951094" lon="14.983577847666211"><ele>567.0</ele><time>2026-04-19T09:04:40Z</time></trkpt><trkpt lat="36.94608683156631" lon="14.983659694357796"><ele>567.8571428571429</ele><time>2026-04-19T09:04:43Z</time></trkpt><trkpt lat="36.94613215956315" lon="14.983732335039708"><ele>568.7142857142858</ele><time>2026-04-19T09:04:47Z</time></trkpt><trkpt lat="36.946170393808295" lon="14.983805947920926"><ele>569.5714285714286</ele><time>2026-04-19T09:04:52Z</time></trkpt><trkpt lat="36.946230228473354" lon="14.983865503057595"><ele>570.4285714285714</ele><time>2026-04-19T09:04:57Z</time></trkpt><trkpt lat="36.94624521807087" lon="14.983945565634661"><ele>571.2857142857143</ele><time>2026-04-19T09:05:02Z</time></trkpt><trkpt lat="36.946313610607376" lon="14.983939811589657"><ele>572.1428571428571</ele><time>2026-04-19T09:05:56Z</time></trkpt><trkpt lat="36.946380445702" lon="14.9839602175419"><ele>573.0</ele><time>2026-04-19T09:06:00Z</time></trkpt><trkpt lat="36.94631537598135" lon="14.98395396345528"><ele>573.0</ele><time>2026-04-19T09:06:17Z</time></trkpt><trkpt lat="36.94635561565856" lon="14.984021709356334"><ele>573.0</ele><time>2026-04-19T09:06:32Z</time></trkpt><trkpt lat="36.94629615240863" lon="14.983977703008055"><ele>573.0</ele><time>2026-04-19T09:07:55Z</time></trkpt><trkpt lat="36.94637049424285" lon="14.98402141074865"><ele>573.0</ele><time>2026-04-19T09:15:17.001Z</time></trkpt><trkpt lat="36.94644823058235" lon="14.984090818973545"><ele>573.0</ele><time>2026-04-19T09:15:53.001Z</time></trkpt><trkpt lat="36.94650127363927" lon="14.984135761512471"><ele>573.0</ele><time>2026-04-19T09:15:55.001Z</time></trkpt><trkpt lat="36.9465534116471" lon="14.98418964599504"><ele>573.0</ele><time>2026-04-19T09:15:58.001Z</time></trkpt><trkpt lat="36.94662914293737" lon="14.984236443519624"><ele>573.0</ele><time>2026-04-19T09:16:01.001Z</time></trkpt><trkpt lat="36.946709132687275" lon="14.98426797089204"><ele>573.0</ele><time>2026-04-19T09:16:04.001Z</time></trkpt><trkpt lat="36.94676723839102" lon="14.984316934141635"><ele>573.0</ele><time>2026-04-19T09:16:06.002Z</time></trkpt><trkpt lat="36.946849401716655" lon="14.98440874978784"><ele>573.0</ele><time>2026-04-19T09:16:09.001Z</time></trkpt><trkpt lat="36.94694375028944" lon="14.984487786288367"><ele>573.0</ele><time>2026-04-19T09:16:12.001Z</time></trkpt><trkpt lat="36.94702370821255" lon="14.984547145273433"><ele>572.6</ele><time>2026-04-19T09:16:14.001Z</time></trkpt><trkpt lat="36.94711554352725" lon="14.984609153041424"><ele>572.1999999999999</ele><time>2026-04-19T09:16:18.001Z</time></trkpt><trkpt lat="36.947169842687856" lon="14.98466031133023"><ele>571.8</ele><time>2026-04-19T09:16:21.001Z</time></trkpt><trkpt lat="36.947234915948265" lon="14.984710172421668"><ele>571.4</ele><time>2026-04-19T09:16:23.001Z</time></trkpt><trkpt lat="36.94737612487258" lon="14.984825924100905"><ele>571.0</ele><time>2026-04-19T09:16:27.001Z</time></trkpt><trkpt lat="36.94744577412386" lon="14.984879845119371"><ele>571.0</ele><time>2026-04-19T09:16:30.001Z</time></trkpt><trkpt lat="36.947497370639134" lon="14.984931694261247"><ele>571.0</ele><time>2026-04-19T09:16:32.001Z</time></trkpt><trkpt lat="36.947569532343636" lon="14.984979616105708"><ele>571.0</ele><time>2026-04-19T09:16:35.001Z</time></trkpt><trkpt lat="36.94763890420218" lon="14.98504032124038"><ele>571.0</ele><time>2026-04-19T09:16:38.001Z</time></trkpt><trkpt lat="36.94775370888977" lon="14.985143467595883"><ele>571.0</ele><time>2026-04-19T09:16:40.001Z</time></trkpt><trkpt lat="36.947825132376614" lon="14.98520402463091"><ele>570.1666666666667</ele><time>2026-04-19T09:16:44.001Z</time></trkpt><trkpt lat="36.94790865001118" lon="14.985273890785558"><ele>569.3333333333334</ele><time>2026-04-19T09:16:47.001Z</time></trkpt><trkpt lat="36.94797411690749" lon="14.985316575818146"><ele>568.5</ele><time>2026-04-19T09:16:49.001Z</time></trkpt><trkpt lat="36.94803694319079" lon="14.985380011543551"><ele>567.6666666666666</ele><time>2026-04-19T09:16:52.001Z</time></trkpt><trkpt lat="36.94811163360014" lon="14.985443141514454"><ele>566.8333333333333</ele><time>2026-04-19T09:16:54.001Z</time></trkpt><trkpt lat="36.94818730301629" lon="14.985497738289794"><ele>566.0</ele><time>2026-04-19T09:16:56.001Z</time></trkpt><trkpt lat="36.94825733574492" lon="14.985541268668214"><ele>566.0</ele><time>2026-04-19T09:16:58.001Z</time></trkpt><trkpt lat="36.94831486011654" lon="14.9855831836337"><ele>566.0</ele><time>2026-04-19T09:17:00.001Z</time></trkpt><trkpt lat="36.94836872190934" lon="14.9856656700754"><ele>566.0</ele><time>2026-04-19T09:17:03.001Z</time></trkpt><trkpt lat="36.948426207015146" lon="14.985714681579763"><ele>566.0</ele><time>2026-04-19T09:17:05.001Z</time></trkpt><trkpt lat="36.94846700702394" lon="14.985791416260552"><ele>566.0</ele><time>2026-04-19T09:17:07.001Z</time></trkpt><trkpt lat="36.94851695987513" lon="14.985887308818668"><ele>566.0</ele><time>2026-04-19T09:17:09.001Z</time></trkpt><trkpt lat="36.94858497161697" lon="14.985979579847138"><ele>565.0</ele><time>2026-04-19T09:17:11.001Z</time></trkpt><trkpt lat="36.948639277194225" lon="14.986085128285533"><ele>564.0</ele><time>2026-04-19T09:17:13.001Z</time></trkpt><trkpt lat="36.94869221435223" lon="14.986163571916427"><ele>563.0</ele><time>2026-04-19T09:17:15.001Z</time></trkpt><trkpt lat="36.948744657539784" lon="14.986252682648995"><ele>562.0</ele><time>2026-04-19T09:17:17.001Z</time></trkpt><trkpt lat="36.94879648513019" lon="14.986331288139866"><ele>561.0</ele><time>2026-04-19T09:17:19.001Z</time></trkpt><trkpt lat="36.94885255671671" lon="14.986417682495722"><ele>560.0</ele><time>2026-04-19T09:17:22.001Z</time></trkpt><trkpt lat="36.9488971812867" lon="14.986498398538487"><ele>560.0</ele><time>2026-04-19T09:17:24.001Z</time></trkpt><trkpt lat="36.948949692099134" lon="14.986571461890112"><ele>560.0</ele><time>2026-04-19T09:17:26.001Z</time></trkpt><trkpt lat="36.9489989106508" lon="14.98665717178649"><ele>560.0</ele><time>2026-04-19T09:17:28.001Z</time></trkpt><trkpt lat="36.94904016997655" lon="14.986720172279728"><ele>560.0</ele><time>2026-04-19T09:17:30.001Z</time></trkpt><trkpt lat="36.94905050734573" lon="14.986815143321918"><ele>560.0</ele><time>2026-04-19T09:17:33.001Z</time></trkpt><trkpt lat="36.94903087656333" lon="14.98692512979949"><ele>560.0</ele><time>2026-04-19T09:17:36.001Z</time></trkpt><trkpt lat="36.94902253559274" lon="14.987006130879475"><ele>559.8571428571429</ele><time>2026-04-19T09:17:38.002Z</time></trkpt><trkpt lat="36.94900336315344" lon="14.987086780955233"><ele>559.7142857142858</ele><time>2026-04-19T09:17:40.002Z</time></trkpt><trkpt lat="36.94896418785439" lon="14.987192627186182"><ele>559.5714285714286</ele><time>2026-04-19T09:17:43.002Z</time></trkpt><trkpt lat="36.94891478749486" lon="14.98726230612302"><ele>559.4285714285714</ele><time>2026-04-19T09:17:45.002Z</time></trkpt><trkpt lat="36.94885062943496" lon="14.987320895344721"><ele>559.2857142857143</ele><time>2026-04-19T09:17:47.002Z</time></trkpt><trkpt lat="36.94880174100505" lon="14.987376050491466"><ele>559.1428571428571</ele><time>2026-04-19T09:17:49.002Z</time></trkpt><trkpt lat="36.94876607208741" lon="14.987445322786124"><ele>559.0</ele><time>2026-04-19T09:17:51.002Z</time></trkpt><trkpt lat="36.948737041183655" lon="14.987522596153543"><ele>559.0</ele><time>2026-04-19T09:17:53.002Z</time></trkpt><trkpt lat="36.948715357671276" lon="14.98762617970235"><ele>559.0</ele><time>2026-04-19T09:17:55.002Z</time></trkpt><trkpt lat="36.94867570940408" lon="14.987787784402984"><ele>559.0</ele><time>2026-04-19T09:17:58.002Z</time></trkpt><trkpt lat="36.948619674229164" lon="14.987878189868697"><ele>559.0</ele><time>2026-04-19T09:18:00.002Z</time></trkpt><trkpt lat="36.948589261636265" lon="14.987966165975253"><ele>559.0</ele><time>2026-04-19T09:18:03.002Z</time></trkpt><trkpt lat="36.948644590762875" lon="14.988069242899225"><ele>559.0</ele><time>2026-04-19T09:18:06.002Z</time></trkpt><trkpt lat="36.94869401766483" lon="14.988163372320075"><ele>559.0</ele><time>2026-04-19T09:18:08.002Z</time></trkpt><trkpt lat="36.948734067633204" lon="14.988256335366387"><ele>559.0</ele><time>2026-04-19T09:18:10.002Z</time></trkpt><trkpt lat="36.948777407347535" lon="14.988331765523895"><ele>559.0</ele><time>2026-04-19T09:18:12.002Z</time></trkpt><trkpt lat="36.94878280291892" lon="14.988425431982703"><ele>559.0</ele><time>2026-04-19T09:18:14.001Z</time></trkpt><trkpt lat="36.948837873312506" lon="14.988478389228495"><ele>559.0</ele><time>2026-04-19T09:18:16.001Z</time></trkpt><trkpt lat="36.94889006703977" lon="14.988592204224215"><ele>558.1666666666667</ele><time>2026-04-19T09:18:18.001Z</time></trkpt><trkpt lat="36.94887129888471" lon="14.988681609319816"><ele>557.3333333333334</ele><time>2026-04-19T09:18:19.001Z</time></trkpt><trkpt lat="36.948900665847574" lon="14.988766683789626"><ele>556.5</ele><time>2026-04-19T09:18:20.001Z</time></trkpt><trkpt lat="36.94893158690065" lon="14.988835604598242"><ele>555.6666666666666</ele><time>2026-04-19T09:18:21.001Z</time></trkpt><trkpt lat="36.949002542631355" lon="14.988881083057812"><ele>554.8333333333333</ele><time>2026-04-19T09:18:22.001Z</time></trkpt><trkpt lat="36.94904785656874" lon="14.988972350273736"><ele>554.0</ele><time>2026-04-19T09:18:23.001Z</time></trkpt><trkpt lat="36.949122223564515" lon="14.989077829401138"><ele>554.0</ele><time>2026-04-19T09:18:24.001Z</time></trkpt><trkpt lat="36.94919019698348" lon="14.989186567646477"><ele>554.0</ele><time>2026-04-19T09:18:25.001Z</time></trkpt><trkpt lat="36.94925831593292" lon="14.98930360248606"><ele>554.0</ele><time>2026-04-19T09:18:26.001Z</time></trkpt><trkpt lat="36.94933661913801" lon="14.98940585617825"><ele>554.0</ele><time>2026-04-19T09:18:27.001Z</time></trkpt><trkpt lat="36.94942055346869" lon="14.989496725756165"><ele>555.0</ele><time>2026-04-19T09:18:28.001Z</time></trkpt><trkpt lat="36.949504844875946" lon="14.989586875241825"><ele>556.0</ele><time>2026-04-19T09:18:29.001Z</time></trkpt><trkpt lat="36.9495896634717" lon="14.989671792497663"><ele>557.0</ele><time>2026-04-19T09:18:30.001Z</time></trkpt><trkpt lat="36.94967654179479" lon="14.989748398415012"><ele>558.0</ele><time>2026-04-19T09:18:31.001Z</time></trkpt><trkpt lat="36.949760899530574" lon="14.989841353339454"><ele>559.0</ele><time>2026-04-19T09:18:32.001Z</time></trkpt><trkpt lat="36.949849876868" lon="14.989951864145509"><ele>558.75</ele><time>2026-04-19T09:18:33.001Z</time></trkpt><trkpt lat="36.94994598099831" lon="14.990073276089054"><ele>558.5</ele><time>2026-04-19T09:18:34.001Z</time></trkpt><trkpt lat="36.950041195107616" lon="14.990188951433975"><ele>558.25</ele><time>2026-04-19T09:18:35.001Z</time></trkpt><trkpt lat="36.95012025808658" lon="14.990283813487787"><ele>558.0</ele><time>2026-04-19T09:18:36.001Z</time></trkpt><trkpt lat="36.95017300414336" lon="14.990346843369295"><ele>558.5</ele><time>2026-04-19T09:18:37.001Z</time></trkpt><trkpt lat="36.950231735108005" lon="14.990425990071172"><ele>559.0</ele><time>2026-04-19T09:18:38.001Z</time></trkpt><trkpt lat="36.95030403898792" lon="14.990483704910371"><ele>559.5</ele><time>2026-04-19T09:18:39.001Z</time></trkpt><trkpt lat="36.95036884865098" lon="14.990518277422417"><ele>560.0</ele><time>2026-04-19T09:18:41.001Z</time></trkpt><trkpt lat="36.95043263315864" lon="14.990250374627252"><ele>560.0</ele><time>2026-04-19T09:18:43.001Z</time></trkpt><trkpt lat="36.95044342049505" lon="14.990124209076443"><ele>560.0</ele><time>2026-04-19T09:18:44.001Z</time></trkpt><trkpt lat="36.95045434053021" lon="14.989990933049123"><ele>560.0</ele><time>2026-04-19T09:18:45.001Z</time></trkpt><trkpt lat="36.950463230144145" lon="14.989860073480873"><ele>560.0</ele><time>2026-04-19T09:18:46.001Z</time></trkpt><trkpt lat="36.95047601750025" lon="14.989737706084233"><ele>560.0</ele><time>2026-04-19T09:18:47.001Z</time></trkpt><trkpt lat="36.95049477862114" lon="14.989607425547772"><ele>559.8</ele><time>2026-04-19T09:18:48.001Z</time></trkpt><trkpt lat="36.9505105818553" lon="14.98946781693438"><ele>559.6</ele><time>2026-04-19T09:18:49.001Z</time></trkpt><trkpt lat="36.950530784922485" lon="14.989324587010817"><ele>559.4</ele><time>2026-04-19T09:18:50.001Z</time></trkpt><trkpt lat="36.95055317650898" lon="14.989192693443409"><ele>559.2</ele><time>2026-04-19T09:18:51.001Z</time></trkpt><trkpt lat="36.950569309523445" lon="14.989065471478003"><ele>559.0</ele><time>2026-04-19T09:18:52.001Z</time></trkpt><trkpt lat="36.950586196555406" lon="14.98892844132784"><ele>559.0</ele><time>2026-04-19T09:18:53.001Z</time></trkpt><trkpt lat="36.95059676249516" lon="14.988786791924658"><ele>559.0</ele><time>2026-04-19T09:18:54.001Z</time></trkpt><trkpt lat="36.95060721262972" lon="14.988651041600555"><ele>559.0</ele><time>2026-04-19T09:18:55.001Z</time></trkpt><trkpt lat="36.9506203504716" lon="14.988534687738204"><ele>559.0</ele><time>2026-04-19T09:18:56.001Z</time></trkpt><trkpt lat="36.950636454678" lon="14.988411253056961"><ele>559.0</ele><time>2026-04-19T09:18:57.001Z</time></trkpt><trkpt lat="36.95066370471562" lon="14.988295671176205"><ele>559.8</ele><time>2026-04-19T09:18:58.001Z</time></trkpt><trkpt lat="36.95071240596834" lon="14.9882048737204"><ele>560.5999999999999</ele><time>2026-04-19T09:18:59.001Z</time></trkpt><trkpt lat="36.950768379162874" lon="14.98810816174624"><ele>561.4</ele><time>2026-04-19T09:19:00.001Z</time></trkpt><trkpt lat="36.950837828305986" lon="14.988001203755358"><ele>562.1999999999999</ele><time>2026-04-19T09:19:01.001Z</time></trkpt><trkpt lat="36.950910268474516" lon="14.98789115304998"><ele>563.0</ele><time>2026-04-19T09:19:02.001Z</time></trkpt><trkpt lat="36.950980118077815" lon="14.987785210906077"><ele>563.0</ele><time>2026-04-19T09:19:03.001Z</time></trkpt><trkpt lat="36.95104530414557" lon="14.987694158631134"><ele>563.0</ele><time>2026-04-19T09:19:04.001Z</time></trkpt><trkpt lat="36.951107256869555" lon="14.987612421703878"><ele>563.0</ele><time>2026-04-19T09:19:05.001Z</time></trkpt><trkpt lat="36.951165468256455" lon="14.987533261176297"><ele>563.0</ele><time>2026-04-19T09:19:06.001Z</time></trkpt><trkpt lat="36.95122378874812" lon="14.987478433157168"><ele>563.0</ele><time>2026-04-19T09:19:07.001Z</time></trkpt><trkpt lat="36.95130128375321" lon="14.98744584096563"><ele>563.0</ele><time>2026-04-19T09:19:08.001Z</time></trkpt><trkpt lat="36.951414187484595" lon="14.987484431333137"><ele>563.25</ele><time>2026-04-19T09:19:09.001Z</time></trkpt><trkpt lat="36.95154613332402" lon="14.98746240179476"><ele>563.5</ele><time>2026-04-19T09:19:10.001Z</time></trkpt><trkpt lat="36.951680172656395" lon="14.98743820629442"><ele>563.75</ele><time>2026-04-19T09:19:11.001Z</time></trkpt><trkpt lat="36.95178800643985" lon="14.98741622523714"><ele>564.0</ele><time>2026-04-19T09:19:12.001Z</time></trkpt><trkpt lat="36.951874998288126" lon="14.987398080551323"><ele>564.0</ele><time>2026-04-19T09:19:13.001Z</time></trkpt><trkpt lat="36.95195191775644" lon="14.987370441429723"><ele>564.0</ele><time>2026-04-19T09:19:14.001Z</time></trkpt><trkpt lat="36.95201691158071" lon="14.987318870711606"><ele>564.0</ele><time>2026-04-19T09:19:15.001Z</time></trkpt><trkpt lat="36.95206606183239" lon="14.98722015773686"><ele>564.0</ele><time>2026-04-19T09:19:16.001Z</time></trkpt><trkpt lat="36.95212982832767" lon="14.987133816058376"><ele>564.0</ele><time>2026-04-19T09:19:17.001Z</time></trkpt><trkpt lat="36.95220138790011" lon="14.987046018955962"><ele>564.0</ele><time>2026-04-19T09:19:18.001Z</time></trkpt><trkpt lat="36.952277877540716" lon="14.986968042199706"><ele>564.0</ele><time>2026-04-19T09:19:19.001Z</time></trkpt><trkpt lat="36.95236660522253" lon="14.98687199852686"><ele>564.0</ele><time>2026-04-19T09:19:20.001Z</time></trkpt><trkpt lat="36.95246321254666" lon="14.986764391404355"><ele>564.0</ele><time>2026-04-19T09:19:21.001Z</time></trkpt><trkpt lat="36.95254633828911" lon="14.986665072314086"><ele>564.0</ele><time>2026-04-19T09:19:22.001Z</time></trkpt><trkpt lat="36.95262317452007" lon="14.986572142522892"><ele>564.0</ele><time>2026-04-19T09:19:23.001Z</time></trkpt><trkpt lat="36.95269987287624" lon="14.98647310046724"><ele>564.0</ele><time>2026-04-19T09:19:24.001Z</time></trkpt><trkpt lat="36.95277076095208" lon="14.986372492385604"><ele>564.0</ele><time>2026-04-19T09:19:25.001Z</time></trkpt><trkpt lat="36.95283254383624" lon="14.98628162413167"><ele>564.0</ele><time>2026-04-19T09:19:26.001Z</time></trkpt><trkpt lat="36.95289402805848" lon="14.986194852244415"><ele>564.0</ele><time>2026-04-19T09:19:27.001Z</time></trkpt><trkpt lat="36.952959882987635" lon="14.986110075971883"><ele>564.0</ele><time>2026-04-19T09:19:28.001Z</time></trkpt><trkpt lat="36.95301798142826" lon="14.986025709855753"><ele>564.0</ele><time>2026-04-19T09:19:29.001Z</time></trkpt><trkpt lat="36.953082578544084" lon="14.985936423018599"><ele>564.0</ele><time>2026-04-19T09:19:30.001Z</time></trkpt><trkpt lat="36.95314739685836" lon="14.985840759052676"><ele>564.0</ele><time>2026-04-19T09:19:31.001Z</time></trkpt><trkpt lat="36.95320825455769" lon="14.985742582386818"><ele>564.0</ele><time>2026-04-19T09:19:32.001Z</time></trkpt><trkpt lat="36.953261489282355" lon="14.985650802036622"><ele>564.0</ele><time>2026-04-19T09:19:33.001Z</time></trkpt><trkpt lat="36.95330906328178" lon="14.985553451465398"><ele>564.0</ele><time>2026-04-19T09:19:34.001Z</time></trkpt><trkpt lat="36.953360883484834" lon="14.98544579721584"><ele>564.0</ele><time>2026-04-19T09:19:35.001Z</time></trkpt><trkpt lat="36.95340969675339" lon="14.98533741252521"><ele>564.0</ele><time>2026-04-19T09:19:36.001Z</time></trkpt><trkpt lat="36.95344520709107" lon="14.985229045336618"><ele>564.0</ele><time>2026-04-19T09:19:37.001Z</time></trkpt><trkpt lat="36.95346949163468" lon="14.985114550193202"><ele>565.0</ele><time>2026-04-19T09:19:38.001Z</time></trkpt><trkpt lat="36.95349016090122" lon="14.984983018941287"><ele>566.0</ele><time>2026-04-19T09:19:39.001Z</time></trkpt><trkpt lat="36.953509214561805" lon="14.984846035927948"><ele>567.0</ele><time>2026-04-19T09:19:40.001Z</time></trkpt><trkpt lat="36.95353936887551" lon="14.984709051604751"><ele>568.0</ele><time>2026-04-19T09:19:41.001Z</time></trkpt><trkpt lat="36.95358025291434" lon="14.984572574121813"><ele>569.0</ele><time>2026-04-19T09:19:42.001Z</time></trkpt><trkpt lat="36.95362692943005" lon="14.984441523897097"><ele>569.0</ele><time>2026-04-19T09:19:43.001Z</time></trkpt><trkpt lat="36.95367351409189" lon="14.984306399566625"><ele>569.0</ele><time>2026-04-19T09:19:44.001Z</time></trkpt><trkpt lat="36.95371633532971" lon="14.984165175841191"><ele>569.0</ele><time>2026-04-19T09:19:45.001Z</time></trkpt><trkpt lat="36.95375313727583" lon="14.98401661884552"><ele>569.0</ele><time>2026-04-19T09:19:46.001Z</time></trkpt><trkpt lat="36.953785931202844" lon="14.983876216497904"><ele>569.6</ele><time>2026-04-19T09:19:47.001Z</time></trkpt><trkpt lat="36.95381372772797" lon="14.983744550715173"><ele>570.2</ele><time>2026-04-19T09:19:48.001Z</time></trkpt><trkpt lat="36.953843855161566" lon="14.983617994262088"><ele>570.8000000000001</ele><time>2026-04-19T09:19:49.001Z</time></trkpt><trkpt lat="36.95387751063148" lon="14.98350258878597"><ele>571.4</ele><time>2026-04-19T09:19:50.001Z</time></trkpt><trkpt lat="36.95392276633377" lon="14.983399243551771"><ele>572.0</ele><time>2026-04-19T09:19:51.001Z</time></trkpt><trkpt lat="36.95397875422577" lon="14.983276721326927"><ele>572.0</ele><time>2026-04-19T09:19:52.001Z</time></trkpt><trkpt lat="36.954047790641766" lon="14.983160063679465"><ele>572.0</ele><time>2026-04-19T09:19:53.001Z</time></trkpt><trkpt lat="36.95408937197713" lon="14.983044095491763"><ele>572.0</ele><time>2026-04-19T09:19:54.001Z</time></trkpt><trkpt lat="36.954129369729" lon="14.98292306109828"><ele>572.0</ele><time>2026-04-19T09:19:55.001Z</time></trkpt><trkpt lat="36.95417350045595" lon="14.982799015014177"><ele>572.0</ele><time>2026-04-19T09:19:56.001Z</time></trkpt><trkpt lat="36.95421740930643" lon="14.982677246177257"><ele>572.0</ele><time>2026-04-19T09:19:57.001Z</time></trkpt><trkpt lat="36.95426269205166" lon="14.982570665262244"><ele>572.0</ele><time>2026-04-19T09:19:58.001Z</time></trkpt><trkpt lat="36.95430022466645" lon="14.982473510623848"><ele>572.0</ele><time>2026-04-19T09:19:59.001Z</time></trkpt><trkpt lat="36.95433486252152" lon="14.982373456894281"><ele>572.0</ele><time>2026-04-19T09:20:00.001Z</time></trkpt><trkpt lat="36.9543731006376" lon="14.982251219201178"><ele>572.0</ele><time>2026-04-19T09:20:01.001Z</time></trkpt><trkpt lat="36.95440831989372" lon="14.982118683722488"><ele>571.6</ele><time>2026-04-19T09:20:02.001Z</time></trkpt><trkpt lat="36.95444320676942" lon="14.981991891639773"><ele>571.2</ele><time>2026-04-19T09:20:03.001Z</time></trkpt><trkpt lat="36.95448132408636" lon="14.981871662125666"><ele>570.8</ele><time>2026-04-19T09:20:04.002Z</time></trkpt><trkpt lat="36.95451963171441" lon="14.981751845456321"><ele>570.4</ele><time>2026-04-19T09:20:05.002Z</time></trkpt><trkpt lat="36.95454255891469" lon="14.981637007972907"><ele>570.0</ele><time>2026-04-19T09:20:06.002Z</time></trkpt><trkpt lat="36.95455309833412" lon="14.981538828926626"><ele>570.0</ele><time>2026-04-19T09:20:07.002Z</time></trkpt><trkpt lat="36.95456299374165" lon="14.981442676832547"><ele>570.0</ele><time>2026-04-19T09:20:08.002Z</time></trkpt><trkpt lat="36.95458436117867" lon="14.981340631126784"><ele>570.0</ele><time>2026-04-19T09:20:09.002Z</time></trkpt><trkpt lat="36.95462279947547" lon="14.981221342587338"><ele>570.0</ele><time>2026-04-19T09:20:10.002Z</time></trkpt><trkpt lat="36.95467185789168" lon="14.981097430139885"><ele>570.0</ele><time>2026-04-19T09:20:11.002Z</time></trkpt><trkpt lat="36.95471577124436" lon="14.981003976085134"><ele>570.0</ele><time>2026-04-19T09:20:12.002Z</time></trkpt><trkpt lat="36.954743675263686" lon="14.980912761709774"><ele>570.0</ele><time>2026-04-19T09:20:13.002Z</time></trkpt><trkpt lat="36.95476367344151" lon="14.980829029224447"><ele>570.0</ele><time>2026-04-19T09:20:14.002Z</time></trkpt><trkpt lat="36.95486794117249" lon="14.980737501701753"><ele>570.0</ele><time>2026-04-19T09:20:16.002Z</time></trkpt><trkpt lat="36.95493810311048" lon="14.98070692117725"><ele>570.0</ele><time>2026-04-19T09:20:17.002Z</time></trkpt><trkpt lat="36.95501209581208" lon="14.980661845675229"><ele>570.0</ele><time>2026-04-19T09:20:18.002Z</time></trkpt><trkpt lat="36.95507541552358" lon="14.980591898858215"><ele>571.1666666666666</ele><time>2026-04-19T09:20:19.001Z</time></trkpt><trkpt lat="36.95514388422773" lon="14.980534803369249"><ele>572.3333333333334</ele><time>2026-04-19T09:20:20.001Z</time></trkpt><trkpt lat="36.95520073129669" lon="14.980467647493555"><ele>573.5</ele><time>2026-04-19T09:20:21.001Z</time></trkpt><trkpt lat="36.9552173999924" lon="14.980374850954028"><ele>574.6666666666667</ele><time>2026-04-19T09:20:22.001Z</time></trkpt><trkpt lat="36.955244839757675" lon="14.980291464379048"><ele>575.8333333333334</ele><time>2026-04-19T09:20:23.001Z</time></trkpt><trkpt lat="36.95528147442058" lon="14.980174261753698"><ele>577.0</ele><time>2026-04-19T09:20:24.001Z</time></trkpt><trkpt lat="36.95533684302176" lon="14.980052567635305"><ele>577.6</ele><time>2026-04-19T09:20:25.001Z</time></trkpt><trkpt lat="36.955381631238986" lon="14.979938415033986"><ele>578.2</ele><time>2026-04-19T09:20:26.001Z</time></trkpt><trkpt lat="36.9554151524355" lon="14.979824927555867"><ele>578.8</ele><time>2026-04-19T09:20:27.001Z</time></trkpt><trkpt lat="36.95544672137223" lon="14.979707325324416"><ele>579.4</ele><time>2026-04-19T09:20:28.001Z</time></trkpt><trkpt lat="36.95548017482757" lon="14.979585728200094"><ele>580.0</ele><time>2026-04-19T09:20:29.001Z</time></trkpt><trkpt lat="36.95552133686851" lon="14.97945580718835"><ele>580.0</ele><time>2026-04-19T09:20:30.001Z</time></trkpt><trkpt lat="36.955567211902036" lon="14.979329435112097"><ele>580.0</ele><time>2026-04-19T09:20:31.001Z</time></trkpt><trkpt lat="36.95560313350641" lon="14.979209514264655"><ele>580.0</ele><time>2026-04-19T09:20:32.001Z</time></trkpt><trkpt lat="36.95562646505385" lon="14.979112526729718"><ele>580.0</ele><time>2026-04-19T09:20:33.001Z</time></trkpt><trkpt lat="36.95564968524028" lon="14.978998867638602"><ele>580.0</ele><time>2026-04-19T09:20:35.001Z</time></trkpt><trkpt lat="36.95550316618592" lon="14.978852159380642"><ele>581.0</ele><time>2026-04-19T09:20:38.001Z</time></trkpt><trkpt lat="36.955389456565335" lon="14.978800075872511"><ele>582.0</ele><time>2026-04-19T09:20:39.001Z</time></trkpt><trkpt lat="36.95530156298751" lon="14.978748567827855"><ele>583.0</ele><time>2026-04-19T09:20:40.001Z</time></trkpt><trkpt lat="36.95520451159367" lon="14.978689504981222"><ele>584.0</ele><time>2026-04-19T09:20:41.001Z</time></trkpt><trkpt lat="36.95506763596847" lon="14.97860114995951"><ele>584.0</ele><time>2026-04-19T09:20:42.001Z</time></trkpt><trkpt lat="36.95491031617355" lon="14.978510240434211"><ele>584.0</ele><time>2026-04-19T09:20:43.001Z</time></trkpt><trkpt lat="36.95472202377544" lon="14.978427647520771"><ele>584.0</ele><time>2026-04-19T09:20:44.001Z</time></trkpt><trkpt lat="36.95452571394834" lon="14.978353152907957"><ele>584.6666666666666</ele><time>2026-04-19T09:20:45.001Z</time></trkpt><trkpt lat="36.954357059187224" lon="14.978296386511506"><ele>585.3333333333334</ele><time>2026-04-19T09:20:46.001Z</time></trkpt><trkpt lat="36.95420898575259" lon="14.978233949410987"><ele>586.0</ele><time>2026-04-19T09:20:47.001Z</time></trkpt><trkpt lat="36.954066372643084" lon="14.978166346027086"><ele>586.5</ele><time>2026-04-19T09:20:48.001Z</time></trkpt><trkpt lat="36.953920623494554" lon="14.978105850644322"><ele>587.0</ele><time>2026-04-19T09:20:49.001Z</time></trkpt><trkpt lat="36.953780936489984" lon="14.978057451465906"><ele>587.5</ele><time>2026-04-19T09:20:50.001Z</time></trkpt><trkpt lat="36.95364334365524" lon="14.978022353419004"><ele>588.0</ele><time>2026-04-19T09:20:51.001Z</time></trkpt><trkpt lat="36.95350118244499" lon="14.977996891486688"><ele>588.5</ele><time>2026-04-19T09:20:52.001Z</time></trkpt><trkpt lat="36.953365273022754" lon="14.977976763070593"><ele>589.0</ele><time>2026-04-19T09:20:53.001Z</time></trkpt><trkpt lat="36.95323330853701" lon="14.977959233917506"><ele>589.5</ele><time>2026-04-19T09:20:54.001Z</time></trkpt><trkpt lat="36.95310735918056" lon="14.977935898129557"><ele>590.0</ele><time>2026-04-19T09:20:55.001Z</time></trkpt><trkpt lat="36.952994845668" lon="14.977914573269352"><ele>590.0</ele><time>2026-04-19T09:20:56.001Z</time></trkpt><trkpt lat="36.952897398393304" lon="14.977893709998373"><ele>590.0</ele><time>2026-04-19T09:20:57.001Z</time></trkpt><trkpt lat="36.9528072795925" lon="14.977875796980172"><ele>590.0</ele><time>2026-04-19T09:20:58.001Z</time></trkpt><trkpt lat="36.95272865869893" lon="14.977857956811057"><ele>590.0</ele><time>2026-04-19T09:20:59.001Z</time></trkpt><trkpt lat="36.95266503108954" lon="14.977828428983543"><ele>590.0</ele><time>2026-04-19T09:21:00.001Z</time></trkpt><trkpt lat="36.952608633496105" lon="14.97776608800209"><ele>590.0</ele><time>2026-04-19T09:21:01.001Z</time></trkpt><trkpt lat="36.95257084537454" lon="14.977635010951712"><ele>589.8</ele><time>2026-04-19T09:21:02.001Z</time></trkpt><trkpt lat="36.95251114758411" lon="14.977523962882405"><ele>589.6</ele><time>2026-04-19T09:21:03.001Z</time></trkpt><trkpt lat="36.952461380887364" lon="14.977410161224716"><ele>589.4</ele><time>2026-04-19T09:21:04.001Z</time></trkpt><trkpt lat="36.95240996208043" lon="14.977291921879209"><ele>589.2</ele><time>2026-04-19T09:21:05.001Z</time></trkpt><trkpt lat="36.952369542739625" lon="14.977185127427187"><ele>589.0</ele><time>2026-04-19T09:21:06.001Z</time></trkpt><trkpt lat="36.9523293301507" lon="14.977090978150837"><ele>588.8333333333334</ele><time>2026-04-19T09:21:07.001Z</time></trkpt><trkpt lat="36.952293093387006" lon="14.977015770737758"><ele>588.6666666666667</ele><time>2026-04-19T09:21:08.001Z</time></trkpt><trkpt lat="36.95225436032434" lon="14.976925985045224"><ele>588.5</ele><time>2026-04-19T09:21:10.001Z</time></trkpt><trkpt lat="36.952210496743554" lon="14.97684676276505"><ele>588.3333333333334</ele><time>2026-04-19T09:21:14.001Z</time></trkpt><trkpt lat="36.95212806980843" lon="14.976898951741818"><ele>588.1666666666666</ele><time>2026-04-19T09:21:15.001Z</time></trkpt><trkpt lat="36.95206786445092" lon="14.97699413030034"><ele>588.0</ele><time>2026-04-19T09:21:17.001Z</time></trkpt><trkpt lat="36.952016102635575" lon="14.977053489128895"><ele>588.0</ele><time>2026-04-19T09:21:19.001Z</time></trkpt><trkpt lat="36.95192046905809" lon="14.977166009395244"><ele>588.0</ele><time>2026-04-19T09:21:21.001Z</time></trkpt><trkpt lat="36.95185647534761" lon="14.977229171993201"><ele>588.0</ele><time>2026-04-19T09:21:22.001Z</time></trkpt><trkpt lat="36.9517929545511" lon="14.977295478258227"><ele>588.0</ele><time>2026-04-19T09:21:23.001Z</time></trkpt><trkpt lat="36.951731592482275" lon="14.977357390385016"><ele>588.0</ele><time>2026-04-19T09:21:24.001Z</time></trkpt><trkpt lat="36.95165842230738" lon="14.977422372022039"><ele>587.5</ele><time>2026-04-19T09:21:25.001Z</time></trkpt><trkpt lat="36.95156567657113" lon="14.977489612563927"><ele>587.0</ele><time>2026-04-19T09:21:26.001Z</time></trkpt><trkpt lat="36.951467636319485" lon="14.977560505579845"><ele>586.5</ele><time>2026-04-19T09:21:27.001Z</time></trkpt><trkpt lat="36.951357463611544" lon="14.977636253491163"><ele>586.0</ele><time>2026-04-19T09:21:28.001Z</time></trkpt><trkpt lat="36.95124038617676" lon="14.977716094368757"><ele>586.0</ele><time>2026-04-19T09:21:29.001Z</time></trkpt><trkpt lat="36.95111720075894" lon="14.977783245579548"><ele>586.0</ele><time>2026-04-19T09:21:30.001Z</time></trkpt><trkpt lat="36.95099571966396" lon="14.977836026522027"><ele>586.0</ele><time>2026-04-19T09:21:31.001Z</time></trkpt><trkpt lat="36.95088329991049" lon="14.977876530167107"><ele>586.0</ele><time>2026-04-19T09:21:32.001Z</time></trkpt><trkpt lat="36.950765205077374" lon="14.977915982947183"><ele>585.3333333333334</ele><time>2026-04-19T09:21:33.001Z</time></trkpt><trkpt lat="36.95063199792539" lon="14.977964611858877"><ele>584.6666666666666</ele><time>2026-04-19T09:21:34.001Z</time></trkpt><trkpt lat="36.95048535272117" lon="14.97802589115062"><ele>584.0</ele><time>2026-04-19T09:21:35.001Z</time></trkpt><trkpt lat="36.95033532187164" lon="14.97810003306832"><ele>584.0</ele><time>2026-04-19T09:21:36.001Z</time></trkpt><trkpt lat="36.95018519182966" lon="14.97818650502289"><ele>584.0</ele><time>2026-04-19T09:21:37.001Z</time></trkpt><trkpt lat="36.95003151087994" lon="14.978275883109585"><ele>584.0</ele><time>2026-04-19T09:21:38.001Z</time></trkpt><trkpt lat="36.94988255192759" lon="14.978367255034284"><ele>583.3333333333333</ele><time>2026-04-19T09:21:39.001Z</time></trkpt><trkpt lat="36.94973975942844" lon="14.978451473834973"><ele>582.6666666666666</ele><time>2026-04-19T09:21:40.001Z</time></trkpt><trkpt lat="36.949589614367476" lon="14.97852348935947"><ele>582.0</ele><time>2026-04-19T09:21:41.001Z</time></trkpt><trkpt lat="36.949435180095094" lon="14.978598160930101"><ele>582.0</ele><time>2026-04-19T09:21:42.001Z</time></trkpt><trkpt lat="36.94927582589532" lon="14.97866878880433"><ele>582.0</ele><time>2026-04-19T09:21:43.001Z</time></trkpt><trkpt lat="36.94911985443599" lon="14.97872594341224"><ele>582.0</ele><time>2026-04-19T09:21:44.001Z</time></trkpt><trkpt lat="36.94895376475807" lon="14.978768702323041"><ele>581.0</ele><time>2026-04-19T09:21:45.001Z</time></trkpt><trkpt lat="36.94877219350457" lon="14.978806062742839"><ele>580.0</ele><time>2026-04-19T09:21:46.001Z</time></trkpt><trkpt lat="36.948605499938544" lon="14.978838497826828"><ele>579.0</ele><time>2026-04-19T09:21:47.001Z</time></trkpt><trkpt lat="36.94845654090563" lon="14.978866800053792"><ele>578.5</ele><time>2026-04-19T09:21:48.001Z</time></trkpt><trkpt lat="36.94831879513219" lon="14.978894131809154"><ele>578.0</ele><time>2026-04-19T09:21:49.001Z</time></trkpt><trkpt lat="36.948170595940226" lon="14.978919895576382"><ele>577.5</ele><time>2026-04-19T09:21:50.001Z</time></trkpt><trkpt lat="36.948018060673526" lon="14.978944008955931"><ele>577.0</ele><time>2026-04-19T09:21:51.001Z</time></trkpt><trkpt lat="36.94786296036659" lon="14.978968184881637"><ele>577.0</ele><time>2026-04-19T09:21:52.001Z</time></trkpt><trkpt lat="36.9477028454311" lon="14.978988116039865"><ele>577.0</ele><time>2026-04-19T09:21:53.001Z</time></trkpt><trkpt lat="36.94754144395338" lon="14.979001668178485"><ele>577.0</ele><time>2026-04-19T09:21:54.001Z</time></trkpt><trkpt lat="36.9473771908355" lon="14.978998332454992"><ele>576.3333333333334</ele><time>2026-04-19T09:21:55.001Z</time></trkpt><trkpt lat="36.947210825361594" lon="14.978968725699533"><ele>575.6666666666666</ele><time>2026-04-19T09:21:56.001Z</time></trkpt><trkpt lat="36.947041369659935" lon="14.978916751515799"><ele>575.0</ele><time>2026-04-19T09:21:57.001Z</time></trkpt><trkpt lat="36.94686876645721" lon="14.978850340246577"><ele>575.0</ele><time>2026-04-19T09:21:58.001Z</time></trkpt><trkpt lat="36.946693614015715" lon="14.978783380626773"><ele>575.0</ele><time>2026-04-19T09:21:59.001Z</time></trkpt><trkpt lat="36.94651661628315" lon="14.978733867039438"><ele>575.0</ele><time>2026-04-19T09:22:00.001Z</time></trkpt><trkpt lat="36.946339908923036" lon="14.978702758166966"><ele>575.0</ele><time>2026-04-19T09:22:01.001Z</time></trkpt><trkpt lat="36.946166924881275" lon="14.9786854585642"><ele>575.0</ele><time>2026-04-19T09:22:02.001Z</time></trkpt><trkpt lat="36.94600635087079" lon="14.978685745746187"><ele>575.0</ele><time>2026-04-19T09:22:03.001Z</time></trkpt><trkpt lat="36.94584751931796" lon="14.97867460841011"><ele>575.0</ele><time>2026-04-19T09:22:04.001Z</time></trkpt><trkpt lat="36.94568197690762" lon="14.978642818091776"><ele>575.0</ele><time>2026-04-19T09:22:05.001Z</time></trkpt><trkpt lat="36.94551284649629" lon="14.97858625818334"><ele>575.0</ele><time>2026-04-19T09:22:06.001Z</time></trkpt><trkpt lat="36.945346598754895" lon="14.978508257601177"><ele>575.0</ele><time>2026-04-19T09:22:07.001Z</time></trkpt><trkpt lat="36.94518934022775" lon="14.978410787888818"><ele>575.0</ele><time>2026-04-19T09:22:08.001Z</time></trkpt><trkpt lat="36.94504044160354" lon="14.978295912293364"><ele>575.0</ele><time>2026-04-19T09:22:09.001Z</time></trkpt><trkpt lat="36.94491228346799" lon="14.978180318766514"><ele>573.0</ele><time>2026-04-19T09:22:10.001Z</time></trkpt><trkpt lat="36.944781909481485" lon="14.978097432978833"><ele>571.0</ele><time>2026-04-19T09:22:11.001Z</time></trkpt><trkpt lat="36.94464183715657" lon="14.978058258335247"><ele>569.0</ele><time>2026-04-19T09:22:12.001Z</time></trkpt><trkpt lat="36.94447994887634" lon="14.978068262622488"><ele>569.0</ele><time>2026-04-19T09:22:13.001Z</time></trkpt><trkpt lat="36.9443117879031" lon="14.97811755361667"><ele>569.0</ele><time>2026-04-19T09:22:14.001Z</time></trkpt><trkpt lat="36.94413440526783" lon="14.978182990233293"><ele>569.0</ele><time>2026-04-19T09:22:15.001Z</time></trkpt><trkpt lat="36.94395007165544" lon="14.978247813714285"><ele>568.3333333333333</ele><time>2026-04-19T09:22:16.001Z</time></trkpt><trkpt lat="36.94376269882725" lon="14.978316139204091"><ele>567.6666666666666</ele><time>2026-04-19T09:22:17.001Z</time></trkpt><trkpt lat="36.943569672474446" lon="14.978380962672267"><ele>567.0</ele><time>2026-04-19T09:22:18.001Z</time></trkpt><trkpt lat="36.94336947641061" lon="14.978434992936323"><ele>566.0</ele><time>2026-04-19T09:22:19.001Z</time></trkpt><trkpt lat="36.94316702311086" lon="14.978485179076687"><ele>565.0</ele><time>2026-04-19T09:22:20.001Z</time></trkpt><trkpt lat="36.94295765742966" lon="14.97853222653833"><ele>564.0</ele><time>2026-04-19T09:22:21.001Z</time></trkpt><trkpt lat="36.942746172635964" lon="14.978579887756936"><ele>563.3333333333334</ele><time>2026-04-19T09:22:22.001Z</time></trkpt><trkpt lat="36.942536122943444" lon="14.978629066984647"><ele>562.6666666666667</ele><time>2026-04-19T09:22:23.001Z</time></trkpt><trkpt lat="36.94232260268801" lon="14.97867703457778"><ele>562.0</ele><time>2026-04-19T09:22:24.001Z</time></trkpt><trkpt lat="36.94211153532872" lon="14.978725142878373"><ele>562.0</ele><time>2026-04-19T09:22:25.001Z</time></trkpt><trkpt lat="36.94189705054943" lon="14.978769937741754"><ele>562.0</ele><time>2026-04-19T09:22:26.001Z</time></trkpt><trkpt lat="36.94168412455475" lon="14.978816394346998"><ele>562.0</ele><time>2026-04-19T09:22:27.001Z</time></trkpt><trkpt lat="36.941472239490075" lon="14.978863468250546"><ele>561.6666666666667</ele><time>2026-04-19T09:22:28.001Z</time></trkpt><trkpt lat="36.94125983978349" lon="14.978911285068298"><ele>561.3333333333334</ele><time>2026-04-19T09:22:29.001Z</time></trkpt><trkpt lat="36.9410482457123" lon="14.978956566349042"><ele>561.0</ele><time>2026-04-19T09:22:30.001Z</time></trkpt><trkpt lat="36.940837344879846" lon="14.978990217385892"><ele>561.0</ele><time>2026-04-19T09:22:31.001Z</time></trkpt><trkpt lat="36.9406230987729" lon="14.979008852043137"><ele>561.0</ele><time>2026-04-19T09:22:32.001Z</time></trkpt><trkpt lat="36.940414661954314" lon="14.979016101051403"><ele>561.0</ele><time>2026-04-19T09:22:33.001Z</time></trkpt><trkpt lat="36.94020595255344" lon="14.979029855894707"><ele>559.6666666666666</ele><time>2026-04-19T09:22:34.001Z</time></trkpt><trkpt lat="36.94000003488555" lon="14.979039900874962"><ele>558.3333333333333</ele><time>2026-04-19T09:22:35.001Z</time></trkpt><trkpt lat="36.939790871393434" lon="14.979047493802536"><ele>557.0</ele><time>2026-04-19T09:22:36.001Z</time></trkpt><trkpt lat="36.93957972157114" lon="14.979052829698274"><ele>557.0</ele><time>2026-04-19T09:22:37.001Z</time></trkpt><trkpt lat="36.939365015804505" lon="14.979053101728583"><ele>557.0</ele><time>2026-04-19T09:22:38.001Z</time></trkpt><trkpt lat="36.93914625138226" lon="14.97905097904109"><ele>557.0</ele><time>2026-04-19T09:22:39.001Z</time></trkpt><trkpt lat="36.93892094628385" lon="14.979047716728676"><ele>555.5</ele><time>2026-04-19T09:22:40.001Z</time></trkpt><trkpt lat="36.93868700325534" lon="14.979040116396305"><ele>554.0</ele><time>2026-04-19T09:22:41.001Z</time></trkpt><trkpt lat="36.938443337523275" lon="14.979030953695709"><ele>553.0</ele><time>2026-04-19T09:22:42.001Z</time></trkpt><trkpt lat="36.93819221255009" lon="14.979010500268753"><ele>552.0</ele><time>2026-04-19T09:22:43.001Z</time></trkpt><trkpt lat="36.93795129390984" lon="14.978997945680034"><ele>552.0</ele><time>2026-04-19T09:22:44.001Z</time></trkpt><trkpt lat="36.93773416277722" lon="14.978987407685436"><ele>552.0</ele><time>2026-04-19T09:22:45.001Z</time></trkpt><trkpt lat="36.93752721302682" lon="14.978977032772496"><ele>552.0</ele><time>2026-04-19T09:22:46Z</time></trkpt><trkpt lat="36.93732590915156" lon="14.978961932142687"><ele>551.6666666666666</ele><time>2026-04-19T09:22:47Z</time></trkpt><trkpt lat="36.93712584367986" lon="14.978948470530659"><ele>551.3333333333333</ele><time>2026-04-19T09:22:48Z</time></trkpt><trkpt lat="36.93692203854886" lon="14.97893479595216"><ele>551.0</ele><time>2026-04-19T09:22:49Z</time></trkpt><trkpt lat="36.9367144396774" lon="14.97892640608508"><ele>551.0</ele><time>2026-04-19T09:22:50Z</time></trkpt><trkpt lat="36.93650275198427" lon="14.978924026517689"><ele>551.0</ele><time>2026-04-19T09:22:51Z</time></trkpt><trkpt lat="36.93628963534167" lon="14.978932392483362"><ele>551.0</ele><time>2026-04-19T09:22:52Z</time></trkpt><trkpt lat="36.93607661780582" lon="14.978950416965963"><ele>550.0</ele><time>2026-04-19T09:22:53Z</time></trkpt><trkpt lat="36.93585732881182" lon="14.978965269640819"><ele>549.0</ele><time>2026-04-19T09:22:54Z</time></trkpt><trkpt lat="36.93563945152248" lon="14.978983740853058"><ele>548.0</ele><time>2026-04-19T09:22:55Z</time></trkpt><trkpt lat="36.935419464882884" lon="14.97900656556347"><ele>548.0</ele><time>2026-04-19T09:22:56Z</time></trkpt><trkpt lat="36.93519891507268" lon="14.979026722062901"><ele>548.0</ele><time>2026-04-19T09:22:57Z</time></trkpt><trkpt lat="36.934976530541945" lon="14.97904416786513"><ele>548.0</ele><time>2026-04-19T09:22:58Z</time></trkpt><trkpt lat="36.93475312488498" lon="14.979050422280826"><ele>547.6666666666666</ele><time>2026-04-19T09:22:59Z</time></trkpt><trkpt lat="36.9345332670244" lon="14.979038344977086"><ele>547.3333333333334</ele><time>2026-04-19T09:23:00Z</time></trkpt><trkpt lat="36.93431271067984" lon="14.979014273514018"><ele>547.0</ele><time>2026-04-19T09:23:01Z</time></trkpt><trkpt lat="36.934105030006435" lon="14.978984675671922"><ele>547.0</ele><time>2026-04-19T09:23:02Z</time></trkpt><trkpt lat="36.93390703255963" lon="14.978973167202467"><ele>547.0</ele><time>2026-04-19T09:23:03Z</time></trkpt><trkpt lat="36.93370691398034" lon="14.978989360832612"><ele>547.0</ele><time>2026-04-19T09:23:04Z</time></trkpt><trkpt lat="36.93349820930474" lon="14.979028803884244"><ele>547.0</ele><time>2026-04-19T09:23:05Z</time></trkpt><trkpt lat="36.93329050229597" lon="14.979073414884866"><ele>547.0</ele><time>2026-04-19T09:23:06Z</time></trkpt><trkpt lat="36.93309190080622" lon="14.979128405509673"><ele>547.0</ele><time>2026-04-19T09:23:07Z</time></trkpt><trkpt lat="36.93289123342186" lon="14.979195504413891"><ele>548.0</ele><time>2026-04-19T09:23:08Z</time></trkpt><trkpt lat="36.93268987112913" lon="14.979232513899477"><ele>549.0</ele><time>2026-04-19T09:23:09Z</time></trkpt><trkpt lat="36.932508971375675" lon="14.979371958396728"><ele>550.0</ele><time>2026-04-19T09:23:10Z</time></trkpt><trkpt lat="36.93234372278434" lon="14.979488839726244"><ele>550.0</ele><time>2026-04-19T09:23:11Z</time></trkpt><trkpt lat="36.932197448909726" lon="14.97961311728435"><ele>550.0</ele><time>2026-04-19T09:23:12Z</time></trkpt><trkpt lat="36.9320599967352" lon="14.979737969713659"><ele>550.0</ele><time>2026-04-19T09:23:13Z</time></trkpt><trkpt lat="36.931922640123226" lon="14.9798660884951"><ele>550.0</ele><time>2026-04-19T09:23:14Z</time></trkpt><trkpt lat="36.93180366804566" lon="14.979986434532144"><ele>550.0</ele><time>2026-04-19T09:23:15Z</time></trkpt><trkpt lat="36.93170465632346" lon="14.98009019284023"><ele>550.0</ele><time>2026-04-19T09:23:16Z</time></trkpt><trkpt lat="36.93162687736242" lon="14.980205412622169"><ele>550.0</ele><time>2026-04-19T09:23:17Z</time></trkpt><trkpt lat="36.93157447310553" lon="14.980339623177493"><ele>548.0</ele><time>2026-04-19T09:23:18Z</time></trkpt><trkpt lat="36.93154674571955" lon="14.980483025452495"><ele>546.0</ele><time>2026-04-19T09:23:19Z</time></trkpt><trkpt lat="36.93155422561539" lon="14.980643833134385"><ele>544.0</ele><time>2026-04-19T09:23:20Z</time></trkpt><trkpt lat="36.93159594870116" lon="14.980827736698329"><ele>542.0</ele><time>2026-04-19T09:23:21Z</time></trkpt><trkpt lat="36.93164750146939" lon="14.981018678363993"><ele>542.3333333333333</ele><time>2026-04-19T09:23:22Z</time></trkpt><trkpt lat="36.93169852108124" lon="14.981196825916765"><ele>542.6666666666666</ele><time>2026-04-19T09:23:23Z</time></trkpt><trkpt lat="36.931776815543245" lon="14.981370588804051"><ele>543.0</ele><time>2026-04-19T09:23:24Z</time></trkpt><trkpt lat="36.93187675082801" lon="14.981512097930171"><ele>543.0</ele><time>2026-04-19T09:23:25Z</time></trkpt><trkpt lat="36.93198650976658" lon="14.981625689162087"><ele>543.0</ele><time>2026-04-19T09:23:26Z</time></trkpt><trkpt lat="36.93208596076535" lon="14.98173300527569"><ele>543.0</ele><time>2026-04-19T09:23:27.001Z</time></trkpt><trkpt lat="36.93217607249313" lon="14.981842214647871"><ele>543.0</ele><time>2026-04-19T09:23:28.001Z</time></trkpt><trkpt lat="36.9322433259977" lon="14.981947155789479"><ele>541.6666666666666</ele><time>2026-04-19T09:23:29.001Z</time></trkpt><trkpt lat="36.93228498119286" lon="14.9820586465418"><ele>540.3333333333334</ele><time>2026-04-19T09:23:30.001Z</time></trkpt><trkpt lat="36.93228445456036" lon="14.98215203386329"><ele>539.0</ele><time>2026-04-19T09:23:31.001Z</time></trkpt><trkpt lat="36.9322434376344" lon="14.982217088297787"><ele>537.6666666666667</ele><time>2026-04-19T09:23:32.001Z</time></trkpt><trkpt lat="36.932175787720524" lon="14.982271833395357"><ele>536.3333333333334</ele><time>2026-04-19T09:23:33.001Z</time></trkpt><trkpt lat="36.93207388861701" lon="14.982283523616188"><ele>535.0</ele><time>2026-04-19T09:23:34.001Z</time></trkpt><trkpt lat="36.931952626204286" lon="14.98225134948176"><ele>535.0</ele><time>2026-04-19T09:23:35.001Z</time></trkpt><trkpt lat="36.93182467425349" lon="14.98218889833553"><ele>535.0</ele><time>2026-04-19T09:23:36.001Z</time></trkpt><trkpt lat="36.93167270457492" lon="14.982127097276566"><ele>535.0</ele><time>2026-04-19T09:23:37.001Z</time></trkpt><trkpt lat="36.93150714134094" lon="14.982095450353606"><ele>533.3333333333334</ele><time>2026-04-19T09:23:38.001Z</time></trkpt><trkpt lat="36.931328770072454" lon="14.982102343586627"><ele>531.6666666666666</ele><time>2026-04-19T09:23:39.001Z</time></trkpt><trkpt lat="36.93115434949248" lon="14.982127429054"><ele>530.0</ele><time>2026-04-19T09:23:40.001Z</time></trkpt><trkpt lat="36.93101025024636" lon="14.982173710413676"><ele>529.6</ele><time>2026-04-19T09:23:41.001Z</time></trkpt><trkpt lat="36.93088887085517" lon="14.98222828029876"><ele>529.2</ele><time>2026-04-19T09:23:42.001Z</time></trkpt><trkpt lat="36.9307916031233" lon="14.98228868496788"><ele>528.8</ele><time>2026-04-19T09:23:43.001Z</time></trkpt><trkpt lat="36.93070476639246" lon="14.982351590813781"><ele>528.4</ele><time>2026-04-19T09:23:44.001Z</time></trkpt><trkpt lat="36.93063446180802" lon="14.982401610055247"><ele>528.0</ele><time>2026-04-19T09:23:45.001Z</time></trkpt><trkpt lat="36.930565268134764" lon="14.982409906574786"><ele>528.0</ele><time>2026-04-19T09:23:46.001Z</time></trkpt><trkpt lat="36.93047010108084" lon="14.982374175091278"><ele>528.0</ele><time>2026-04-19T09:23:47.001Z</time></trkpt><trkpt lat="36.930362754103825" lon="14.982302333780508"><ele>528.0</ele><time>2026-04-19T09:23:48.001Z</time></trkpt><trkpt lat="36.93024897466384" lon="14.982217939988733"><ele>528.0</ele><time>2026-04-19T09:23:49.001Z</time></trkpt><trkpt lat="36.93012103490233" lon="14.982140235717521"><ele>527.3333333333334</ele><time>2026-04-19T09:23:50.001Z</time></trkpt><trkpt lat="36.92997558393568" lon="14.982065994617257"><ele>526.6666666666667</ele><time>2026-04-19T09:23:51.001Z</time></trkpt><trkpt lat="36.92982077504509" lon="14.981983682155127"><ele>526.0</ele><time>2026-04-19T09:23:52.001Z</time></trkpt><trkpt lat="36.929658724830645" lon="14.98188394623305"><ele>526.0</ele><time>2026-04-19T09:23:53.001Z</time></trkpt><trkpt lat="36.92951348920806" lon="14.981770437685345"><ele>526.0</ele><time>2026-04-19T09:23:54.001Z</time></trkpt><trkpt lat="36.92938227002685" lon="14.98166393962986"><ele>526.0</ele><time>2026-04-19T09:23:55.001Z</time></trkpt><trkpt lat="36.92926012169474" lon="14.981561281410258"><ele>526.25</ele><time>2026-04-19T09:23:56.001Z</time></trkpt><trkpt lat="36.92913125516715" lon="14.981459502095765"><ele>526.5</ele><time>2026-04-19T09:23:57.001Z</time></trkpt><trkpt lat="36.92900414519309" lon="14.981369153467018"><ele>526.75</ele><time>2026-04-19T09:23:58.001Z</time></trkpt><trkpt lat="36.92888621273301" lon="14.98128453953613"><ele>527.0</ele><time>2026-04-19T09:23:59.001Z</time></trkpt><trkpt lat="36.9287680980569" lon="14.98120345261749"><ele>527.0</ele><time>2026-04-19T09:24:00.001Z</time></trkpt><trkpt lat="36.928649330963836" lon="14.981116783035258"><ele>527.0</ele><time>2026-04-19T09:24:01.001Z</time></trkpt><trkpt lat="36.928537962077044" lon="14.98102999841245"><ele>527.0</ele><time>2026-04-19T09:24:02.001Z</time></trkpt><trkpt lat="36.928444898922685" lon="14.980932407290362"><ele>527.0</ele><time>2026-04-19T09:24:03.001Z</time></trkpt><trkpt lat="36.92837413084095" lon="14.980831524293054"><ele>527.6</ele><time>2026-04-19T09:24:04.001Z</time></trkpt><trkpt lat="36.92830461848303" lon="14.980753411942555"><ele>528.2</ele><time>2026-04-19T09:24:05.001Z</time></trkpt><trkpt lat="36.92821489120816" lon="14.980724767931767"><ele>528.8</ele><time>2026-04-19T09:24:06.001Z</time></trkpt><trkpt lat="36.92810591838447" lon="14.98074477750667"><ele>529.4</ele><time>2026-04-19T09:24:07.001Z</time></trkpt><trkpt lat="36.927975329412064" lon="14.980785022946346"><ele>530.0</ele><time>2026-04-19T09:24:08.001Z</time></trkpt><trkpt lat="36.92783359225055" lon="14.980831922125237"><ele>529.6</ele><time>2026-04-19T09:24:09.001Z</time></trkpt><trkpt lat="36.9277105781063" lon="14.980865380904756"><ele>529.2</ele><time>2026-04-19T09:24:10.001Z</time></trkpt><trkpt lat="36.92760440628023" lon="14.980891918945517"><ele>528.8</ele><time>2026-04-19T09:24:11.001Z</time></trkpt><trkpt lat="36.92750393178003" lon="14.980912450873692"><ele>528.4</ele><time>2026-04-19T09:24:12.001Z</time></trkpt><trkpt lat="36.927413907466715" lon="14.980933872178257"><ele>528.0</ele><time>2026-04-19T09:24:13.001Z</time></trkpt><trkpt lat="36.92732627028451" lon="14.980945468787183"><ele>527.8</ele><time>2026-04-19T09:24:14.001Z</time></trkpt><trkpt lat="36.927233190874546" lon="14.980947188668367"><ele>527.5999999999999</ele><time>2026-04-19T09:24:15.001Z</time></trkpt><trkpt lat="36.927143225583954" lon="14.980938183824595"><ele>527.4000000000001</ele><time>2026-04-19T09:24:16.001Z</time></trkpt><trkpt lat="36.92707357518073" lon="14.980926101240174"><ele>527.2</ele><time>2026-04-19T09:24:17.001Z</time></trkpt><trkpt lat="36.926952006682676" lon="14.980924728692681"><ele>527.0</ele><time>2026-04-19T09:24:19.001Z</time></trkpt><trkpt lat="36.926839260561074" lon="14.98093300689127"><ele>526.8333333333333</ele><time>2026-04-19T09:24:21.001Z</time></trkpt><trkpt lat="36.92672753011039" lon="14.980933649659567"><ele>526.6666666666666</ele><time>2026-04-19T09:24:23.001Z</time></trkpt><trkpt lat="36.92666023334682" lon="14.98092677582764"><ele>526.5</ele><time>2026-04-19T09:24:24.001Z</time></trkpt><trkpt lat="36.926596788575225" lon="14.980922176451898"><ele>526.3333333333334</ele><time>2026-04-19T09:24:25.001Z</time></trkpt><trkpt lat="36.92652372882261" lon="14.98091333479464"><ele>526.1666666666667</ele><time>2026-04-19T09:24:26.001Z</time></trkpt><trkpt lat="36.92645612804481" lon="14.980901098319743"><ele>526.0</ele><time>2026-04-19T09:24:27.001Z</time></trkpt><trkpt lat="36.92638752578786" lon="14.980895540354373"><ele>526.0</ele><time>2026-04-19T09:24:28.001Z</time></trkpt><trkpt lat="36.92631250788341" lon="14.980895869178912"><ele>526.0</ele><time>2026-04-19T09:24:29.001Z</time></trkpt><trkpt lat="36.926236592508396" lon="14.980893988145416"><ele>526.0</ele><time>2026-04-19T09:24:30.001Z</time></trkpt><trkpt lat="36.926159573898104" lon="14.980895180755843"><ele>526.0</ele><time>2026-04-19T09:24:31Z</time></trkpt><trkpt lat="36.92608006128399" lon="14.980894881455647"><ele>526.0</ele><time>2026-04-19T09:24:32Z</time></trkpt><trkpt lat="36.92599919738163" lon="14.980897740032658"><ele>526.0</ele><time>2026-04-19T09:24:33Z</time></trkpt><trkpt lat="36.925920787515814" lon="14.980897741129802"><ele>525.1666666666667</ele><time>2026-04-19T09:24:34Z</time></trkpt><trkpt lat="36.925836064342526" lon="14.980896051236936"><ele>524.3333333333334</ele><time>2026-04-19T09:24:35Z</time></trkpt><trkpt lat="36.92574970381745" lon="14.980896947569514"><ele>523.5</ele><time>2026-04-19T09:24:36Z</time></trkpt><trkpt lat="36.92566945586705" lon="14.980894981122697"><ele>522.6666666666666</ele><time>2026-04-19T09:24:37Z</time></trkpt><trkpt lat="36.92558777216759" lon="14.980893397894624"><ele>521.8333333333333</ele><time>2026-04-19T09:24:38Z</time></trkpt><trkpt lat="36.92549467397854" lon="14.980893550399008"><ele>521.0</ele><time>2026-04-19T09:24:39Z</time></trkpt><trkpt lat="36.92540283829415" lon="14.980895950795404"><ele>521.0</ele><time>2026-04-19T09:24:40Z</time></trkpt><trkpt lat="36.92531321244515" lon="14.980895729596044"><ele>521.0</ele><time>2026-04-19T09:24:41Z</time></trkpt><trkpt lat="36.92523081147669" lon="14.980893955810679"><ele>521.0</ele><time>2026-04-19T09:24:42Z</time></trkpt><trkpt lat="36.92513984928059" lon="14.980897099841616"><ele>521.0</ele><time>2026-04-19T09:24:43Z</time></trkpt><trkpt lat="36.9250505167454" lon="14.980905372802251"><ele>521.0</ele><time>2026-04-19T09:24:44Z</time></trkpt><trkpt lat="36.92496052738977" lon="14.980920079140546"><ele>521.0</ele><time>2026-04-19T09:24:45Z</time></trkpt><trkpt lat="36.92487324085298" lon="14.98093724643458"><ele>520.1666666666666</ele><time>2026-04-19T09:24:46Z</time></trkpt><trkpt lat="36.924791474377315" lon="14.980961355888388"><ele>519.3333333333333</ele><time>2026-04-19T09:24:47Z</time></trkpt><trkpt lat="36.924710741026786" lon="14.980984711803021"><ele>518.5</ele><time>2026-04-19T09:24:48Z</time></trkpt><trkpt lat="36.92462996905836" lon="14.981007666105253"><ele>517.6666666666666</ele><time>2026-04-19T09:24:49Z</time></trkpt><trkpt lat="36.924552841303864" lon="14.981033743940888"><ele>516.8333333333334</ele><time>2026-04-19T09:24:50Z</time></trkpt><trkpt lat="36.92446613371118" lon="14.981074333284385"><ele>516.0</ele><time>2026-04-19T09:24:51Z</time></trkpt><trkpt lat="36.92437147469836" lon="14.981136161660306"><ele>516.0</ele><time>2026-04-19T09:24:52Z</time></trkpt><trkpt lat="36.92427492276409" lon="14.981213855216193"><ele>516.0</ele><time>2026-04-19T09:24:53Z</time></trkpt><trkpt lat="36.924178368354156" lon="14.98129854716979"><ele>516.0</ele><time>2026-04-19T09:24:54Z</time></trkpt><trkpt lat="36.92407361064234" lon="14.981417192867518"><ele>516.0</ele><time>2026-04-19T09:24:55Z</time></trkpt><trkpt lat="36.92395665641359" lon="14.981573905534233"><ele>514.3333333333334</ele><time>2026-04-19T09:24:56Z</time></trkpt><trkpt lat="36.923842826229475" lon="14.981736588359189"><ele>512.6666666666667</ele><time>2026-04-19T09:24:57Z</time></trkpt><trkpt lat="36.92373064678352" lon="14.98187411238284"><ele>511.0</ele><time>2026-04-19T09:24:58Z</time></trkpt><trkpt lat="36.92360685392177" lon="14.98195728840388"><ele>511.0</ele><time>2026-04-19T09:24:59Z</time></trkpt><trkpt lat="36.923504514016926" lon="14.982045261163389"><ele>511.0</ele><time>2026-04-19T09:25:00Z</time></trkpt><trkpt lat="36.92338783931456" lon="14.982104307261658"><ele>511.0</ele><time>2026-04-19T09:25:01Z</time></trkpt><trkpt lat="36.92326501407415" lon="14.982144933981317"><ele>511.0</ele><time>2026-04-19T09:25:02Z</time></trkpt><trkpt lat="36.92312980381586" lon="14.98214273633918"><ele>511.5</ele><time>2026-04-19T09:25:03Z</time></trkpt><trkpt lat="36.922997082489466" lon="14.982143996448247"><ele>512.0</ele><time>2026-04-19T09:25:04Z</time></trkpt><trkpt lat="36.92287529570067" lon="14.982192048088272"><ele>512.5</ele><time>2026-04-19T09:25:05Z</time></trkpt><trkpt lat="36.92274890803275" lon="14.982306852808703"><ele>513.0</ele><time>2026-04-19T09:25:06Z</time></trkpt><trkpt lat="36.92262535059483" lon="14.982467015180466"><ele>513.0</ele><time>2026-04-19T09:25:07Z</time></trkpt><trkpt lat="36.9225020648418" lon="14.982632151936382"><ele>513.0</ele><time>2026-04-19T09:25:08Z</time></trkpt><trkpt lat="36.922357740662065" lon="14.98278215635057"><ele>513.0</ele><time>2026-04-19T09:25:09Z</time></trkpt><trkpt lat="36.922214626056416" lon="14.982912568589972"><ele>513.0</ele><time>2026-04-19T09:25:10Z</time></trkpt><trkpt lat="36.92207644104594" lon="14.983024812090386"><ele>513.0</ele><time>2026-04-19T09:25:11Z</time></trkpt><trkpt lat="36.92194368299427" lon="14.983129322792081"><ele>513.0</ele><time>2026-04-19T09:25:12Z</time></trkpt><trkpt lat="36.921814203993954" lon="14.983230194278713"><ele>511.33333333333337</ele><time>2026-04-19T09:25:13Z</time></trkpt><trkpt lat="36.921674647717936" lon="14.983339649873896"><ele>509.6666666666667</ele><time>2026-04-19T09:25:14Z</time></trkpt><trkpt lat="36.92152892846246" lon="14.983448038732066"><ele>508.0</ele><time>2026-04-19T09:25:15Z</time></trkpt><trkpt lat="36.92140399251206" lon="14.983556817973268"><ele>508.0</ele><time>2026-04-19T09:25:16Z</time></trkpt><trkpt lat="36.921292433828164" lon="14.98370293566717"><ele>508.0</ele><time>2026-04-19T09:25:17Z</time></trkpt><trkpt lat="36.921197750693786" lon="14.983869781298178"><ele>508.0</ele><time>2026-04-19T09:25:18Z</time></trkpt><trkpt lat="36.921104978084635" lon="14.98400695254292"><ele>508.0</ele><time>2026-04-19T09:25:19Z</time></trkpt><trkpt lat="36.92100897791192" lon="14.98409087531155"><ele>508.0</ele><time>2026-04-19T09:25:20Z</time></trkpt><trkpt lat="36.92089615228733" lon="14.984118489609214"><ele>508.0</ele><time>2026-04-19T09:25:21Z</time></trkpt><trkpt lat="36.920768497809426" lon="14.984147962998835"><ele>508.0</ele><time>2026-04-19T09:25:22Z</time></trkpt><trkpt lat="36.92061446887336" lon="14.984128537586878"><ele>506.25</ele><time>2026-04-19T09:25:23Z</time></trkpt><trkpt lat="36.920474102679826" lon="14.984086191473612"><ele>504.5</ele><time>2026-04-19T09:25:24Z</time></trkpt><trkpt lat="36.92034987888043" lon="14.984021861731884"><ele>502.75</ele><time>2026-04-19T09:25:25Z</time></trkpt><trkpt lat="36.920238127736916" lon="14.983937322737376"><ele>501.0</ele><time>2026-04-19T09:25:26Z</time></trkpt><trkpt lat="36.920145318990784" lon="14.983824273974571"><ele>501.0</ele><time>2026-04-19T09:25:27Z</time></trkpt><trkpt lat="36.92007280907498" lon="14.983683379187855"><ele>501.0</ele><time>2026-04-19T09:25:28Z</time></trkpt><trkpt lat="36.9200266021729" lon="14.983519238423936"><ele>501.0</ele><time>2026-04-19T09:25:29Z</time></trkpt><trkpt lat="36.9199871226858" lon="14.983378675162243"><ele>501.0</ele><time>2026-04-19T09:25:30Z</time></trkpt><trkpt lat="36.91991985608484" lon="14.983259975759376"><ele>498.5</ele><time>2026-04-19T09:25:31Z</time></trkpt><trkpt lat="36.91982850228456" lon="14.983153368147184"><ele>496.0</ele><time>2026-04-19T09:25:32Z</time></trkpt><trkpt lat="36.919726629376626" lon="14.983054724400455"><ele>493.5</ele><time>2026-04-19T09:25:33Z</time></trkpt><trkpt lat="36.919614586489644" lon="14.98298222143427"><ele>491.0</ele><time>2026-04-19T09:25:34Z</time></trkpt><trkpt lat="36.919488403039686" lon="14.98293690256967"><ele>491.0</ele><time>2026-04-19T09:25:35Z</time></trkpt><trkpt lat="36.91934216110431" lon="14.982907915718867"><ele>491.0</ele><time>2026-04-19T09:25:36Z</time></trkpt><trkpt lat="36.91917579505083" lon="14.982882677828695"><ele>491.0</ele><time>2026-04-19T09:25:37Z</time></trkpt><trkpt lat="36.918998886033386" lon="14.982843377775831"><ele>491.3333333333333</ele><time>2026-04-19T09:25:38Z</time></trkpt><trkpt lat="36.91880740860525" lon="14.982807977884992"><ele>491.66666666666663</ele><time>2026-04-19T09:25:39Z</time></trkpt><trkpt lat="36.91863240329841" lon="14.982789394489092"><ele>492.0</ele><time>2026-04-19T09:25:40Z</time></trkpt><trkpt lat="36.918476049543024" lon="14.9827910532552"><ele>491.0</ele><time>2026-04-19T09:25:41Z</time></trkpt><trkpt lat="36.91833462425285" lon="14.982804535602343"><ele>490.0</ele><time>2026-04-19T09:25:42Z</time></trkpt><trkpt lat="36.91821553394992" lon="14.982797442296254"><ele>489.0</ele><time>2026-04-19T09:25:43Z</time></trkpt><trkpt lat="36.91811487561852" lon="14.982747233742717"><ele>488.0</ele><time>2026-04-19T09:25:44Z</time></trkpt><trkpt lat="36.918013497281876" lon="14.98264655084275"><ele>485.66666666666663</ele><time>2026-04-19T09:25:45Z</time></trkpt><trkpt lat="36.91791421383703" lon="14.982495166687638"><ele>483.33333333333337</ele><time>2026-04-19T09:25:46Z</time></trkpt><trkpt lat="36.917806051749906" lon="14.982335570578565"><ele>481.0</ele><time>2026-04-19T09:25:47Z</time></trkpt><trkpt lat="36.91767821991055" lon="14.98217842490358"><ele>481.6666666666667</ele><time>2026-04-19T09:25:48Z</time></trkpt><trkpt lat="36.91754471672515" lon="14.982009153725809"><ele>482.33333333333337</ele><time>2026-04-19T09:25:49Z</time></trkpt><trkpt lat="36.91742725129762" lon="14.981833104894525"><ele>483.0</ele><time>2026-04-19T09:25:50Z</time></trkpt><trkpt lat="36.917325481265046" lon="14.98166412153025"><ele>483.0</ele><time>2026-04-19T09:25:51Z</time></trkpt><trkpt lat="36.9172269676393" lon="14.98149943150679"><ele>483.0</ele><time>2026-04-19T09:25:52Z</time></trkpt><trkpt lat="36.91713566359071" lon="14.981356213351999"><ele>483.0</ele><time>2026-04-19T09:25:53Z</time></trkpt><trkpt lat="36.91706186690291" lon="14.98123844102721"><ele>483.0</ele><time>2026-04-19T09:25:54Z</time></trkpt><trkpt lat="36.91700789343483" lon="14.981123286916674"><ele>483.0</ele><time>2026-04-19T09:25:55Z</time></trkpt><trkpt lat="36.91698037570916" lon="14.98099858372996"><ele>482.99999999999994</ele><time>2026-04-19T09:25:56Z</time></trkpt><trkpt lat="36.91701476885489" lon="14.980880225526526"><ele>482.99999999999994</ele><time>2026-04-19T09:25:57Z</time></trkpt><trkpt lat="36.917033135479954" lon="14.980739982233377"><ele>483.0</ele><time>2026-04-19T09:25:58Z</time></trkpt><trkpt lat="36.91708383532206" lon="14.980604087674795"><ele>483.0</ele><time>2026-04-19T09:25:59Z</time></trkpt><trkpt lat="36.91711683084719" lon="14.980490807639017"><ele>481.59999999999997</ele><time>2026-04-19T09:26:00Z</time></trkpt><trkpt lat="36.91712373443183" lon="14.980392048896551"><ele>480.19999999999993</ele><time>2026-04-19T09:26:01Z</time></trkpt><trkpt lat="36.91709377739239" lon="14.980315572954467"><ele>478.8</ele><time>2026-04-19T09:26:02Z</time></trkpt><trkpt lat="36.91702648453919" lon="14.980262476414543"><ele>477.4</ele><time>2026-04-19T09:26:03Z</time></trkpt><trkpt lat="36.9169224146631" lon="14.980211260959113"><ele>476.0</ele><time>2026-04-19T09:26:04Z</time></trkpt><trkpt lat="36.91679178236809" lon="14.980149997096916"><ele>475.75</ele><time>2026-04-19T09:26:05Z</time></trkpt><trkpt lat="36.9166551075971" lon="14.98008373625017"><ele>475.5</ele><time>2026-04-19T09:26:06Z</time></trkpt><trkpt lat="36.916531700237364" lon="14.980043695812165"><ele>475.25</ele><time>2026-04-19T09:26:07Z</time></trkpt><trkpt lat="36.9164334955726" lon="14.9800094428166"><ele>475.0</ele><time>2026-04-19T09:26:08Z</time></trkpt><trkpt lat="36.91634969824805" lon="14.979922142478705"><ele>473.0</ele><time>2026-04-19T09:26:10Z</time></trkpt><trkpt lat="36.91638124710124" lon="14.979779364225285"><ele>471.0</ele><time>2026-04-19T09:26:12Z</time></trkpt><trkpt lat="36.91644470835883" lon="14.979691175787766"><ele>469.0</ele><time>2026-04-19T09:26:13Z</time></trkpt><trkpt lat="36.916499885702954" lon="14.979607715245002"><ele>467.0</ele><time>2026-04-19T09:26:14Z</time></trkpt><trkpt lat="36.9165026078654" lon="14.979518341148282"><ele>465.0</ele><time>2026-04-19T09:26:15Z</time></trkpt><trkpt lat="36.91641292366357" lon="14.979425329174065"><ele>465.0</ele><time>2026-04-19T09:26:17Z</time></trkpt><trkpt lat="36.916339944313876" lon="14.979425407565918"><ele>465.0</ele><time>2026-04-19T09:26:18Z</time></trkpt><trkpt lat="36.91625064259544" lon="14.979456920697439"><ele>465.0</ele><time>2026-04-19T09:26:19Z</time></trkpt><trkpt lat="36.9161458087835" lon="14.979496294248333"><ele>465.0</ele><time>2026-04-19T09:26:20Z</time></trkpt><trkpt lat="36.91602262114352" lon="14.979525964303951"><ele>465.0</ele><time>2026-04-19T09:26:21Z</time></trkpt><trkpt lat="36.91591166708892" lon="14.979535854624155"><ele>464.1666666666667</ele><time>2026-04-19T09:26:22Z</time></trkpt><trkpt lat="36.915808299715216" lon="14.979519761465136"><ele>463.33333333333337</ele><time>2026-04-19T09:26:23Z</time></trkpt><trkpt lat="36.91572542446244" lon="14.979468153797574"><ele>462.5</ele><time>2026-04-19T09:26:24Z</time></trkpt><trkpt lat="36.91565038118744" lon="14.979400502963102"><ele>461.6666666666667</ele><time>2026-04-19T09:26:25Z</time></trkpt><trkpt lat="36.91557635987294" lon="14.979353669300641"><ele>460.83333333333337</ele><time>2026-04-19T09:26:26Z</time></trkpt><trkpt lat="36.91551371447731" lon="14.979329563974117"><ele>460.0</ele><time>2026-04-19T09:26:27Z</time></trkpt><trkpt lat="36.915411834711485" lon="14.979306526674005"><ele>460.0</ele><time>2026-04-19T09:26:29.001Z</time></trkpt><trkpt lat="36.915341702092434" lon="14.979267213782636"><ele>460.0</ele><time>2026-04-19T09:26:32.001Z</time></trkpt><trkpt lat="36.915248510338394" lon="14.979221328532208"><ele>460.0</ele><time>2026-04-19T09:26:43Z</time></trkpt><trkpt lat="36.91525551681758" lon="14.978966420392956"><ele>460.0</ele><time>2026-04-19T09:26:44Z</time></trkpt><trkpt lat="36.91522245783306" lon="14.978886542056662"><ele>458.1666666666667</ele><time>2026-04-19T09:26:45Z</time></trkpt><trkpt lat="36.915186590398825" lon="14.978809923887443"><ele>456.33333333333337</ele><time>2026-04-19T09:26:46Z</time></trkpt><trkpt lat="36.915154617379265" lon="14.978730813898359"><ele>454.5</ele><time>2026-04-19T09:26:47Z</time></trkpt><trkpt lat="36.915125640074294" lon="14.978646923371446"><ele>452.66666666666663</ele><time>2026-04-19T09:26:48Z</time></trkpt><trkpt lat="36.91509061900434" lon="14.978560804912966"><ele>450.8333333333333</ele><time>2026-04-19T09:26:49Z</time></trkpt><trkpt lat="36.91504895321856" lon="14.978472091177938"><ele>449.0</ele><time>2026-04-19T09:26:50Z</time></trkpt><trkpt lat="36.91500620522207" lon="14.978378882464892"><ele>446.99999999999994</ele><time>2026-04-19T09:26:51Z</time></trkpt><trkpt lat="36.9149655366716" lon="14.978300821355807"><ele>445.0</ele><time>2026-04-19T09:26:52Z</time></trkpt><trkpt lat="36.91488384687394" lon="14.978202384916408"><ele>443.0</ele><time>2026-04-19T09:26:54Z</time></trkpt><trkpt lat="36.914837494682345" lon="14.97811268240251"><ele>441.0</ele><time>2026-04-19T09:26:56Z</time></trkpt><trkpt lat="36.91483249067386" lon="14.978034022273334"><ele>438.99999999999994</ele><time>2026-04-19T09:26:58Z</time></trkpt><trkpt lat="36.91482246760131" lon="14.977907883744859"><ele>437.0</ele><time>2026-04-19T09:27:00Z</time></trkpt><trkpt lat="36.91477515776891" lon="14.977806709287474"><ele>437.0</ele><time>2026-04-19T09:27:01Z</time></trkpt><trkpt lat="36.9147155443061" lon="14.977680761237847"><ele>437.00000000000006</ele><time>2026-04-19T09:27:02Z</time></trkpt><trkpt lat="36.91466704025726" lon="14.977558346370392"><ele>437.00000000000006</ele><time>2026-04-19T09:27:03Z</time></trkpt><trkpt lat="36.91462272590865" lon="14.977451736268526"><ele>437.0</ele><time>2026-04-19T09:27:04Z</time></trkpt><trkpt lat="36.91459131277533" lon="14.977359961766695"><ele>437.0</ele><time>2026-04-19T09:27:05Z</time></trkpt><trkpt lat="36.91455721183233" lon="14.97727646166592"><ele>436.49999999999994</ele><time>2026-04-19T09:27:06Z</time></trkpt><trkpt lat="36.914518258427734" lon="14.977177320031055"><ele>436.0</ele><time>2026-04-19T09:27:07Z</time></trkpt><trkpt lat="36.914472375294714" lon="14.977084856459996"><ele>435.5</ele><time>2026-04-19T09:27:08Z</time></trkpt><trkpt lat="36.914435511998704" lon="14.976986789509999"><ele>435.0</ele><time>2026-04-19T09:27:09Z</time></trkpt><trkpt lat="36.914396429281" lon="14.976898729179235"><ele>434.49999999999994</ele><time>2026-04-19T09:27:10Z</time></trkpt><trkpt lat="36.914363036036114" lon="14.97681884637507"><ele>434.0</ele><time>2026-04-19T09:27:11Z</time></trkpt><trkpt lat="36.91433470790352" lon="14.976746474950986"><ele>434.2</ele><time>2026-04-19T09:27:12Z</time></trkpt><trkpt lat="36.914300847331845" lon="14.976602081956568"><ele>434.4</ele><time>2026-04-19T09:27:14Z</time></trkpt><trkpt lat="36.91432217962305" lon="14.976451949269839"><ele>434.6</ele><time>2026-04-19T09:27:16Z</time></trkpt><trkpt lat="36.91437060019901" lon="14.97630589764281"><ele>434.8</ele><time>2026-04-19T09:27:18Z</time></trkpt><trkpt lat="36.91439709220904" lon="14.976231163789102"><ele>435.0</ele><time>2026-04-19T09:27:19Z</time></trkpt><trkpt lat="36.91443237427043" lon="14.976093471058007"><ele>435.0</ele><time>2026-04-19T09:27:21Z</time></trkpt><trkpt lat="36.91446531477662" lon="14.975956732254634"><ele>435.0</ele><time>2026-04-19T09:27:23Z</time></trkpt><trkpt lat="36.91447686949299" lon="14.975879285749865"><ele>435.0</ele><time>2026-04-19T09:27:24Z</time></trkpt><trkpt lat="36.91449790756497" lon="14.975747129909363"><ele>435.0</ele><time>2026-04-19T09:27:26Z</time></trkpt><trkpt lat="36.91454158762931" lon="14.975649514139084"><ele>435.0</ele><time>2026-04-19T09:27:28Z</time></trkpt><trkpt lat="36.91459430272795" lon="14.975558895978548"><ele>434.0</ele><time>2026-04-19T09:27:30Z</time></trkpt><trkpt lat="36.9146349738152" lon="14.975477764151865"><ele>433.0</ele><time>2026-04-19T09:27:32Z</time></trkpt><trkpt lat="36.91467874740714" lon="14.975393256210618"><ele>432.0</ele><time>2026-04-19T09:27:34Z</time></trkpt><trkpt lat="36.91473191985868" lon="14.975298850135362"><ele>431.0</ele><time>2026-04-19T09:27:36Z</time></trkpt><trkpt lat="36.91481515262803" lon="14.975201812103705"><ele>430.0</ele><time>2026-04-19T09:27:38Z</time></trkpt><trkpt lat="36.91486663741369" lon="14.975152233313157"><ele>429.0</ele><time>2026-04-19T09:27:39Z</time></trkpt><trkpt lat="36.914962678747514" lon="14.975069665829537"><ele>429.0</ele><time>2026-04-19T09:27:41Z</time></trkpt><trkpt lat="36.91506164302398" lon="14.97506900463108"><ele>429.0</ele><time>2026-04-19T09:27:43Z</time></trkpt><trkpt lat="36.9151365903477" lon="14.97516438156116"><ele>429.0</ele><time>2026-04-19T09:27:45Z</time></trkpt><trkpt lat="36.915168815300056" lon="14.975236524785014"><ele>429.0</ele><time>2026-04-19T09:27:46Z</time></trkpt><trkpt lat="36.91519328079434" lon="14.97531547656767"><ele>429.0</ele><time>2026-04-19T09:27:47Z</time></trkpt><trkpt lat="36.91521560685881" lon="14.975400793909234"><ele>429.0</ele><time>2026-04-19T09:27:48Z</time></trkpt><trkpt lat="36.915241546732645" lon="14.975490985340619"><ele>426.57142857142856</ele><time>2026-04-19T09:27:49Z</time></trkpt><trkpt lat="36.91526678012624" lon="14.975572832759996"><ele>424.14285714285717</ele><time>2026-04-19T09:27:50Z</time></trkpt><trkpt lat="36.91529811243616" lon="14.975647024781484"><ele>421.71428571428567</ele><time>2026-04-19T09:27:51Z</time></trkpt><trkpt lat="36.915330351628036" lon="14.975721496856885"><ele>419.2857142857143</ele><time>2026-04-19T09:27:52Z</time></trkpt><trkpt lat="36.91536204298901" lon="14.975801551988395"><ele>416.85714285714283</ele><time>2026-04-19T09:27:53Z</time></trkpt><trkpt lat="36.915396739895954" lon="14.97588508957261"><ele>414.4285714285714</ele><time>2026-04-19T09:27:54Z</time></trkpt><trkpt lat="36.91543534812005" lon="14.975976258411063"><ele>412.0</ele><time>2026-04-19T09:27:55Z</time></trkpt><trkpt lat="36.915474892330714" lon="14.976064880819932"><ele>412.00000000000006</ele><time>2026-04-19T09:27:56Z</time></trkpt><trkpt lat="36.915515332952495" lon="14.976149575685026"><ele>412.0</ele><time>2026-04-19T09:27:57Z</time></trkpt><trkpt lat="36.91555751577086" lon="14.976235434251775"><ele>412.0</ele><time>2026-04-19T09:27:58Z</time></trkpt><trkpt lat="36.915595541265326" lon="14.97632474856772"><ele>412.0</ele><time>2026-04-19T09:27:59Z</time></trkpt><trkpt lat="36.91562630518002" lon="14.976409962775698"><ele>412.00000000000006</ele><time>2026-04-19T09:28:00Z</time></trkpt><trkpt lat="36.915648701187045" lon="14.976495689257215"><ele>412.0</ele><time>2026-04-19T09:28:01Z</time></trkpt><trkpt lat="36.915667522512194" lon="14.976580779063744"><ele>412.00000000000006</ele><time>2026-04-19T09:28:02Z</time></trkpt><trkpt lat="36.91568271198357" lon="14.976678456476405"><ele>412.0</ele><time>2026-04-19T09:28:03Z</time></trkpt><trkpt lat="36.91569544748702" lon="14.976787712588932"><ele>412.0</ele><time>2026-04-19T09:28:04Z</time></trkpt><trkpt lat="36.915698215588336" lon="14.976889627585694"><ele>412.0</ele><time>2026-04-19T09:28:05Z</time></trkpt><trkpt lat="36.91568827134488" lon="14.976984481755146"><ele>412.00000000000006</ele><time>2026-04-19T09:28:06Z</time></trkpt><trkpt lat="36.91567775979836" lon="14.97707072045377"><ele>412.0</ele><time>2026-04-19T09:28:07Z</time></trkpt><trkpt lat="36.91566948962549" lon="14.977149077753099"><ele>413.6</ele><time>2026-04-19T09:28:08Z</time></trkpt><trkpt lat="36.91566893470738" lon="14.977282780204051"><ele>415.20000000000005</ele><time>2026-04-19T09:28:10Z</time></trkpt><trkpt lat="36.91571266567194" lon="14.977347112629312"><ele>416.8</ele><time>2026-04-19T09:28:12Z</time></trkpt><trkpt lat="36.91577606360071" lon="14.97728949766174"><ele>418.4</ele><time>2026-04-19T09:28:14Z</time></trkpt><trkpt lat="36.915761355110206" lon="14.977151347889953"><ele>420.0</ele><time>2026-04-19T09:28:16Z</time></trkpt><trkpt lat="36.91579112842721" lon="14.977018455326808"><ele>420.0</ele><time>2026-04-19T09:28:18Z</time></trkpt><trkpt lat="36.91583676035194" lon="14.976944790503556"><ele>420.0</ele><time>2026-04-19T09:28:19Z</time></trkpt><trkpt lat="36.91587261623205" lon="14.976860482713393"><ele>420.0</ele><time>2026-04-19T09:28:20Z</time></trkpt><trkpt lat="36.915887933154515" lon="14.976774608269546"><ele>420.0</ele><time>2026-04-19T09:28:21Z</time></trkpt><trkpt lat="36.915889697631954" lon="14.976680592297923"><ele>420.0</ele><time>2026-04-19T09:28:22Z</time></trkpt><trkpt lat="36.915887025627256" lon="14.9765939513975"><ele>420.0</ele><time>2026-04-19T09:28:23Z</time></trkpt><trkpt lat="36.91588755743754" lon="14.9765067230416"><ele>420.0</ele><time>2026-04-19T09:28:24Z</time></trkpt><trkpt lat="36.91588443998762" lon="14.97641516414401"><ele>418.4</ele><time>2026-04-19T09:28:25Z</time></trkpt><trkpt lat="36.91588029288939" lon="14.97632763302806"><ele>416.8</ele><time>2026-04-19T09:28:26Z</time></trkpt><trkpt lat="36.915871318154664" lon="14.976216295321127"><ele>415.20000000000005</ele><time>2026-04-19T09:28:27Z</time></trkpt><trkpt lat="36.9158489146631" lon="14.976097425773524"><ele>413.6</ele><time>2026-04-19T09:28:28Z</time></trkpt><trkpt lat="36.91582848586444" lon="14.975985797041604"><ele>412.0</ele><time>2026-04-19T09:28:29Z</time></trkpt><trkpt lat="36.91580944416217" lon="14.97584853657469"><ele>409.8</ele><time>2026-04-19T09:28:30Z</time></trkpt><trkpt lat="36.91579938601949" lon="14.975699118035683"><ele>407.6</ele><time>2026-04-19T09:28:31Z</time></trkpt><trkpt lat="36.91579589409722" lon="14.975568683405225"><ele>405.40000000000003</ele><time>2026-04-19T09:28:32Z</time></trkpt><trkpt lat="36.91579036949052" lon="14.975431834655888"><ele>403.20000000000005</ele><time>2026-04-19T09:28:33Z</time></trkpt><trkpt lat="36.915779650176404" lon="14.97529591132819"><ele>401.0</ele><time>2026-04-19T09:28:34Z</time></trkpt><trkpt lat="36.915760631226924" lon="14.975168876489667"><ele>401.0</ele><time>2026-04-19T09:28:35Z</time></trkpt><trkpt lat="36.91573988127953" lon="14.975063361737526"><ele>401.0</ele><time>2026-04-19T09:28:36Z</time></trkpt><trkpt lat="36.91573808396373" lon="14.974958434746911"><ele>401.0</ele><time>2026-04-19T09:28:37Z</time></trkpt><trkpt lat="36.91575990414567" lon="14.974849742183311"><ele>401.0</ele><time>2026-04-19T09:28:38Z</time></trkpt><trkpt lat="36.915785963851626" lon="14.974741032630762"><ele>401.0</ele><time>2026-04-19T09:28:39Z</time></trkpt><trkpt lat="36.915828843295884" lon="14.974624360784915"><ele>401.6</ele><time>2026-04-19T09:28:40Z</time></trkpt><trkpt lat="36.915857525281204" lon="14.974509118568266"><ele>402.20000000000005</ele><time>2026-04-19T09:28:41Z</time></trkpt><trkpt lat="36.915883056388225" lon="14.974378585008328"><ele>402.79999999999995</ele><time>2026-04-19T09:28:42Z</time></trkpt><trkpt lat="36.91591347979996" lon="14.974253557362074"><ele>403.4</ele><time>2026-04-19T09:28:43Z</time></trkpt><trkpt lat="36.9159448864936" lon="14.974129063209134"><ele>404.0</ele><time>2026-04-19T09:28:44Z</time></trkpt><trkpt lat="36.91596873059386" lon="14.973997087331828"><ele>401.2</ele><time>2026-04-19T09:28:45Z</time></trkpt><trkpt lat="36.915982583093665" lon="14.973872808465874"><ele>398.4</ele><time>2026-04-19T09:28:46Z</time></trkpt><trkpt lat="36.91598433996214" lon="14.973758019785432"><ele>395.6</ele><time>2026-04-19T09:28:47Z</time></trkpt><trkpt lat="36.91598515862807" lon="14.97362515049235"><ele>392.8</ele><time>2026-04-19T09:28:48Z</time></trkpt><trkpt lat="36.915985640669746" lon="14.973510232019065"><ele>390.0</ele><time>2026-04-19T09:28:49Z</time></trkpt><trkpt lat="36.91598573033092" lon="14.973399702605136"><ele>388.0</ele><time>2026-04-19T09:28:50Z</time></trkpt><trkpt lat="36.915990883050654" lon="14.973293794669027"><ele>386.0</ele><time>2026-04-19T09:28:51Z</time></trkpt><trkpt lat="36.91599319997304" lon="14.973193759807502"><ele>384.0</ele><time>2026-04-19T09:28:52Z</time></trkpt><trkpt lat="36.91599746025285" lon="14.973098472490586"><ele>382.0</ele><time>2026-04-19T09:28:53Z</time></trkpt><trkpt lat="36.9159961644822" lon="14.973008261831241"><ele>380.0</ele><time>2026-04-19T09:28:54Z</time></trkpt><trkpt lat="36.91598296509324" lon="14.972923349685528"><ele>378.0</ele><time>2026-04-19T09:28:55Z</time></trkpt><trkpt lat="36.915954125548176" lon="14.972844744667636"><ele>378.0</ele><time>2026-04-19T09:28:56Z</time></trkpt><trkpt lat="36.91591645885108" lon="14.972756799886623"><ele>378.0</ele><time>2026-04-19T09:28:57Z</time></trkpt><trkpt lat="36.91588863690905" lon="14.97268533715218"><ele>378.0</ele><time>2026-04-19T09:28:58Z</time></trkpt><trkpt lat="36.91584917704549" lon="14.972617257617355"><ele>378.0</ele><time>2026-04-19T09:28:59Z</time></trkpt><trkpt lat="36.91579904992127" lon="14.972560784351202"><ele>378.0</ele><time>2026-04-19T09:29:00Z</time></trkpt><trkpt lat="36.91573127564885" lon="14.972517036009258"><ele>378.0</ele><time>2026-04-19T09:29:01Z</time></trkpt><trkpt lat="36.915652868144726" lon="14.972488649456157"><ele>378.0</ele><time>2026-04-19T09:29:02Z</time></trkpt><trkpt lat="36.9155685850054" lon="14.972469792073616"><ele>376.1666666666667</ele><time>2026-04-19T09:29:03Z</time></trkpt><trkpt lat="36.915466450922374" lon="14.972460652846125"><ele>374.3333333333333</ele><time>2026-04-19T09:29:04Z</time></trkpt><trkpt lat="36.91536617227474" lon="14.972460402045884"><ele>372.5</ele><time>2026-04-19T09:29:05Z</time></trkpt><trkpt lat="36.91527915372996" lon="14.972461084723431"><ele>370.66666666666663</ele><time>2026-04-19T09:29:06Z</time></trkpt><trkpt lat="36.915200488496815" lon="14.97246373050545"><ele>368.8333333333333</ele><time>2026-04-19T09:29:07Z</time></trkpt><trkpt lat="36.915125145907616" lon="14.97246797251896"><ele>367.0</ele><time>2026-04-19T09:29:08Z</time></trkpt><trkpt lat="36.915058182849876" lon="14.972485421919883"><ele>365.66666666666663</ele><time>2026-04-19T09:29:09Z</time></trkpt><trkpt lat="36.914995977285606" lon="14.972505729271257"><ele>364.3333333333333</ele><time>2026-04-19T09:29:10Z</time></trkpt><trkpt lat="36.91494032131719" lon="14.972552845293674"><ele>363.0</ele><time>2026-04-19T09:29:11Z</time></trkpt><trkpt lat="36.9148838635877" lon="14.972606601866756"><ele>361.6666666666667</ele><time>2026-04-19T09:29:12Z</time></trkpt><trkpt lat="36.91483043416885" lon="14.972667717653476"><ele>360.33333333333337</ele><time>2026-04-19T09:29:13Z</time></trkpt><trkpt lat="36.91478562840574" lon="14.972730144443497"><ele>359.0</ele><time>2026-04-19T09:29:14Z</time></trkpt><trkpt lat="36.91472644369974" lon="14.972851258353037"><ele>359.0</ele><time>2026-04-19T09:29:16Z</time></trkpt><trkpt lat="36.91466713846498" lon="14.972916830896535"><ele>359.0</ele><time>2026-04-19T09:29:18Z</time></trkpt><trkpt lat="36.91460346022803" lon="14.97287622196972"><ele>359.0</ele><time>2026-04-19T09:29:20Z</time></trkpt><trkpt lat="36.91460745737332" lon="14.972712376534899"><ele>359.0</ele><time>2026-04-19T09:29:22Z</time></trkpt><trkpt lat="36.91463204935572" lon="14.972628169818943"><ele>359.0</ele><time>2026-04-19T09:29:23Z</time></trkpt><trkpt lat="36.91466177539571" lon="14.97254843603781"><ele>359.0</ele><time>2026-04-19T09:29:24Z</time></trkpt><trkpt lat="36.91471184692118" lon="14.972423801759321"><ele>359.0</ele><time>2026-04-19T09:29:26Z</time></trkpt><trkpt lat="36.91470275105174" lon="14.972338574012154"><ele>359.0</ele><time>2026-04-19T09:29:28Z</time></trkpt><trkpt lat="36.9146221031195" lon="14.972305682779917"><ele>359.0</ele><time>2026-04-19T09:29:30Z</time></trkpt><trkpt lat="36.91452693209347" lon="14.972385507550875"><ele>359.0</ele><time>2026-04-19T09:29:32Z</time></trkpt><trkpt lat="36.91447222615364" lon="14.972456169013867"><ele>359.0</ele><time>2026-04-19T09:29:34Z</time></trkpt><trkpt lat="36.91444330743894" lon="14.972526488037092"><ele>359.0</ele><time>2026-04-19T09:29:40Z</time></trkpt><trkpt lat="36.914502165634396" lon="14.972588288488723"><ele>359.0</ele><time>2026-04-19T09:29:43Z</time></trkpt><trkpt lat="36.91455477787291" lon="14.972636384390482"><ele>359.0</ele><time>2026-04-19T09:29:45Z</time></trkpt><trkpt lat="36.91467882317858" lon="14.972545262390344"><ele>359.0</ele><time>2026-04-19T09:29:50Z</time></trkpt><trkpt lat="36.914706147768065" lon="14.972446512091812"><ele>359.0</ele><time>2026-04-19T09:29:51Z</time></trkpt><trkpt lat="36.91471299394681" lon="14.97233871276878"><ele>359.0</ele><time>2026-04-19T09:29:53Z</time></trkpt><trkpt lat="36.91462903574135" lon="14.972307532850108"><ele>359.0</ele><time>2026-04-19T09:29:55Z</time></trkpt><trkpt lat="36.914555546365534" lon="14.972356760295984"><ele>359.0</ele><time>2026-04-19T09:29:57Z</time></trkpt><trkpt lat="36.914489595498715" lon="14.972436953524415"><ele>359.0</ele><time>2026-04-19T09:29:59Z</time></trkpt><trkpt lat="36.914454327785734" lon="14.97250657386691"><ele>359.0</ele><time>2026-04-19T09:30:05Z</time></trkpt><trkpt lat="36.91448959870917" lon="14.972574653306422"><ele>359.0</ele><time>2026-04-19T09:30:29Z</time></trkpt><trkpt lat="36.914562774012886" lon="14.972640686650438"><ele>359.0</ele><time>2026-04-19T09:31:59Z</time></trkpt><trkpt lat="36.91462855889946" lon="14.972660669367466"><ele>359.0</ele><time>2026-04-19T09:32:01Z</time></trkpt><trkpt lat="36.91467847911419" lon="14.97257471756734"><ele>359.0</ele><time>2026-04-19T09:32:04Z</time></trkpt><trkpt lat="36.914708247254" lon="14.972438693436073"><ele>359.0</ele><time>2026-04-19T09:32:06Z</time></trkpt><trkpt lat="36.91470738983865" lon="14.972336765465617"><ele>359.0</ele><time>2026-04-19T09:32:08Z</time></trkpt><trkpt lat="36.91463953199986" lon="14.972308744131347"><ele>359.0</ele><time>2026-04-19T09:32:10Z</time></trkpt><trkpt lat="36.91456941434645" lon="14.97235616540387"><ele>359.0</ele><time>2026-04-19T09:32:12Z</time></trkpt><trkpt lat="36.91449594222352" lon="14.972433846941795"><ele>359.0</ele><time>2026-04-19T09:32:14Z</time></trkpt><trkpt lat="36.91444801312248" lon="14.9725161325512"><ele>359.0</ele><time>2026-04-19T09:32:16Z</time></trkpt><trkpt lat="36.914395438881606" lon="14.972602781949211"><ele>359.0</ele><time>2026-04-19T09:32:19Z</time></trkpt><trkpt lat="36.914332629656904" lon="14.972618499683673"><ele>359.0</ele><time>2026-04-19T09:32:22Z</time></trkpt><trkpt lat="36.91427297112329" lon="14.972591491027902"><ele>359.0</ele><time>2026-04-19T09:32:46Z</time></trkpt><trkpt lat="36.91420990333411" lon="14.972560544934176"><ele>359.0</ele><time>2026-04-19T09:38:06Z</time></trkpt><trkpt lat="36.91411144273116" lon="14.972525650813589"><ele>356.2</ele><time>2026-04-19T09:38:08Z</time></trkpt><trkpt lat="36.91402467894789" lon="14.972419327947135"><ele>353.4</ele><time>2026-04-19T09:38:10Z</time></trkpt><trkpt lat="36.913960413390434" lon="14.972329606328673"><ele>350.6</ele><time>2026-04-19T09:38:11Z</time></trkpt><trkpt lat="36.91391629111462" lon="14.97226629460775"><ele>347.8</ele><time>2026-04-19T09:38:12Z</time></trkpt><trkpt lat="36.91379914661919" lon="14.972176277332322"><ele>345.0</ele><time>2026-04-19T09:38:14Z</time></trkpt><trkpt lat="36.91372706408964" lon="14.972129067217171"><ele>345.0</ele><time>2026-04-19T09:38:15Z</time></trkpt><trkpt lat="36.91366895395014" lon="14.972092750948546"><ele>345.0</ele><time>2026-04-19T09:38:16Z</time></trkpt><trkpt lat="36.91358336016088" lon="14.971994893676017"><ele>345.0</ele><time>2026-04-19T09:38:18Z</time></trkpt><trkpt lat="36.91353977193917" lon="14.971924074820278"><ele>345.0</ele><time>2026-04-19T09:38:19Z</time></trkpt><trkpt lat="36.913490577900866" lon="14.971854523022476"><ele>345.0</ele><time>2026-04-19T09:38:20Z</time></trkpt><trkpt lat="36.91344091558212" lon="14.9717889077303"><ele>345.0</ele><time>2026-04-19T09:38:21Z</time></trkpt><trkpt lat="36.91339099215825" lon="14.971712396274219"><ele>345.6666666666667</ele><time>2026-04-19T09:38:22Z</time></trkpt><trkpt lat="36.91335121952737" lon="14.971629133022827"><ele>346.3333333333333</ele><time>2026-04-19T09:38:23Z</time></trkpt><trkpt lat="36.913329849508315" lon="14.971547325842556"><ele>347.0</ele><time>2026-04-19T09:38:24Z</time></trkpt><trkpt lat="36.91331201535149" lon="14.97144767629719"><ele>347.66666666666663</ele><time>2026-04-19T09:38:25Z</time></trkpt><trkpt lat="36.91328240818464" lon="14.971332015426256"><ele>348.3333333333333</ele><time>2026-04-19T09:38:26Z</time></trkpt><trkpt lat="36.91325153193054" lon="14.971232613146972"><ele>349.0</ele><time>2026-04-19T09:38:27Z</time></trkpt><trkpt lat="36.91321148579023" lon="14.971158684550742"><ele>348.99999999999994</ele><time>2026-04-19T09:38:28Z</time></trkpt><trkpt lat="36.91315225270971" lon="14.97108560928381"><ele>349.0</ele><time>2026-04-19T09:38:29Z</time></trkpt><trkpt lat="36.913085675682865" lon="14.971036613375967"><ele>349.0</ele><time>2026-04-19T09:38:30Z</time></trkpt><trkpt lat="36.91302127731025" lon="14.970990001994977"><ele>349.0</ele><time>2026-04-19T09:38:31Z</time></trkpt><trkpt lat="36.91296285148238" lon="14.970952130400438"><ele>349.0</ele><time>2026-04-19T09:38:32Z</time></trkpt><trkpt lat="36.9129270103226" lon="14.970876339432612"><ele>348.99999999999994</ele><time>2026-04-19T09:38:34Z</time></trkpt><trkpt lat="36.91293644215719" lon="14.97078626951238"><ele>349.0</ele><time>2026-04-19T09:38:36Z</time></trkpt><trkpt lat="36.91288544780559" lon="14.970710919471744"><ele>348.16666666666663</ele><time>2026-04-19T09:38:38Z</time></trkpt><trkpt lat="36.912816796933924" lon="14.970685147125678"><ele>347.3333333333333</ele><time>2026-04-19T09:38:39Z</time></trkpt><trkpt lat="36.912751135546145" lon="14.970651924721436"><ele>346.5</ele><time>2026-04-19T09:38:40Z</time></trkpt><trkpt lat="36.91264487060037" lon="14.970557540186386"><ele>345.6666666666667</ele><time>2026-04-19T09:38:42Z</time></trkpt><trkpt lat="36.91258524329787" lon="14.970526226062393"><ele>344.83333333333337</ele><time>2026-04-19T09:38:43Z</time></trkpt><trkpt lat="36.9124890278312" lon="14.970465335043304"><ele>344.0</ele><time>2026-04-19T09:38:45Z</time></trkpt><trkpt lat="36.91245721796392" lon="14.97034555990233"><ele>344.0</ele><time>2026-04-19T09:38:48Z</time></trkpt><trkpt lat="36.91245311768019" lon="14.970230639571316"><ele>344.0</ele><time>2026-04-19T09:38:49Z</time></trkpt><trkpt lat="36.91245477309214" lon="14.970117735517489"><ele>344.0</ele><time>2026-04-19T09:38:50Z</time></trkpt><trkpt lat="36.912433184325074" lon="14.97002825486196"><ele>344.0</ele><time>2026-04-19T09:38:51Z</time></trkpt><trkpt lat="36.912393989551056" lon="14.969949514351029"><ele>344.0</ele><time>2026-04-19T09:38:52.001Z</time></trkpt><trkpt lat="36.91232998165543" lon="14.969866132652657"><ele>344.0</ele><time>2026-04-19T09:38:53.001Z</time></trkpt><trkpt lat="36.91227351736437" lon="14.969784887118854"><ele>344.6</ele><time>2026-04-19T09:38:54.001Z</time></trkpt><trkpt lat="36.91222305791721" lon="14.969703518558013"><ele>345.2</ele><time>2026-04-19T09:38:55.001Z</time></trkpt><trkpt lat="36.912183974285945" lon="14.969607252542051"><ele>345.8</ele><time>2026-04-19T09:38:56.001Z</time></trkpt><trkpt lat="36.912151175391855" lon="14.969488573407034"><ele>346.40000000000003</ele><time>2026-04-19T09:38:57.001Z</time></trkpt><trkpt lat="36.91211645541881" lon="14.969343952624792"><ele>347.0</ele><time>2026-04-19T09:38:58.001Z</time></trkpt><trkpt lat="36.912080668697136" lon="14.96920402332232"><ele>347.25</ele><time>2026-04-19T09:38:59.001Z</time></trkpt><trkpt lat="36.91203537602457" lon="14.969045201347543"><ele>347.5</ele><time>2026-04-19T09:39:00.001Z</time></trkpt><trkpt lat="36.91199294038963" lon="14.968898619610282"><ele>347.75</ele><time>2026-04-19T09:39:01.001Z</time></trkpt><trkpt lat="36.91194677210726" lon="14.96877364075796"><ele>348.0</ele><time>2026-04-19T09:39:02.001Z</time></trkpt><trkpt lat="36.91188528896045" lon="14.968644097066708"><ele>348.0</ele><time>2026-04-19T09:39:03.001Z</time></trkpt><trkpt lat="36.911826810986554" lon="14.968519634988356"><ele>348.0</ele><time>2026-04-19T09:39:04.001Z</time></trkpt><trkpt lat="36.91176239084547" lon="14.968382907534822"><ele>348.0</ele><time>2026-04-19T09:39:05.001Z</time></trkpt><trkpt lat="36.911686817322924" lon="14.968243129866655"><ele>348.0</ele><time>2026-04-19T09:39:06.001Z</time></trkpt><trkpt lat="36.91161827709891" lon="14.968136912956435"><ele>347.4</ele><time>2026-04-19T09:39:07.001Z</time></trkpt><trkpt lat="36.911550113458354" lon="14.96803544083627"><ele>346.79999999999995</ele><time>2026-04-19T09:39:08.001Z</time></trkpt><trkpt lat="36.91147932787532" lon="14.967946628486692"><ele>346.2</ele><time>2026-04-19T09:39:09.001Z</time></trkpt><trkpt lat="36.91141678074055" lon="14.967880593515636"><ele>345.6</ele><time>2026-04-19T09:39:10.001Z</time></trkpt><trkpt lat="36.911373592167735" lon="14.967821387392487"><ele>345.0</ele><time>2026-04-19T09:39:11.001Z</time></trkpt><trkpt lat="36.911347962874494" lon="14.967672555112717"><ele>345.0</ele><time>2026-04-19T09:39:13Z</time></trkpt><trkpt lat="36.91134594870071" lon="14.967589142253184"><ele>345.0</ele><time>2026-04-19T09:39:14Z</time></trkpt><trkpt lat="36.911350830902286" lon="14.96750517655773"><ele>345.0</ele><time>2026-04-19T09:39:15Z</time></trkpt><trkpt lat="36.91136494676767" lon="14.96737490704501"><ele>345.0</ele><time>2026-04-19T09:39:16Z</time></trkpt><trkpt lat="36.91137469762153" lon="14.967222574306954"><ele>345.0</ele><time>2026-04-19T09:39:17Z</time></trkpt><trkpt lat="36.911382827290325" lon="14.967068102824026"><ele>346.8333333333333</ele><time>2026-04-19T09:39:18Z</time></trkpt><trkpt lat="36.9113949430995" lon="14.966950361441471"><ele>348.6666666666667</ele><time>2026-04-19T09:39:19Z</time></trkpt><trkpt lat="36.9114206056992" lon="14.966863054716264"><ele>350.5</ele><time>2026-04-19T09:39:20Z</time></trkpt><trkpt lat="36.91145779051606" lon="14.966797832844083"><ele>352.33333333333337</ele><time>2026-04-19T09:39:21Z</time></trkpt><trkpt lat="36.91148200523589" lon="14.966698344481438"><ele>354.1666666666667</ele><time>2026-04-19T09:39:23Z</time></trkpt><trkpt lat="36.91142222257072" lon="14.966570712361255"><ele>356.0</ele><time>2026-04-19T09:39:25Z</time></trkpt><trkpt lat="36.91137045215523" lon="14.966509190366954"><ele>357.4</ele><time>2026-04-19T09:39:26Z</time></trkpt><trkpt lat="36.911307154948034" lon="14.966434230802573"><ele>358.8</ele><time>2026-04-19T09:39:27Z</time></trkpt><trkpt lat="36.91123938342486" lon="14.966343167990827"><ele>360.2</ele><time>2026-04-19T09:39:28Z</time></trkpt><trkpt lat="36.91116687437167" lon="14.966233316388724"><ele>361.59999999999997</ele><time>2026-04-19T09:39:29Z</time></trkpt><trkpt lat="36.91109147488804" lon="14.966130230692666"><ele>363.0</ele><time>2026-04-19T09:39:30Z</time></trkpt><trkpt lat="36.91103228112798" lon="14.966043328946123"><ele>363.0</ele><time>2026-04-19T09:39:31Z</time></trkpt><trkpt lat="36.91098624406034" lon="14.965972303614492"><ele>363.0</ele><time>2026-04-19T09:39:32Z</time></trkpt><trkpt lat="36.91093867437779" lon="14.965911801275597"><ele>363.0</ele><time>2026-04-19T09:39:33Z</time></trkpt><trkpt lat="36.9108894910574" lon="14.965854035511093"><ele>363.0</ele><time>2026-04-19T09:39:34Z</time></trkpt><trkpt lat="36.910841600454276" lon="14.96578347031019"><ele>363.0</ele><time>2026-04-19T09:39:35Z</time></trkpt><trkpt lat="36.910787156071386" lon="14.96569089075985"><ele>363.0</ele><time>2026-04-19T09:39:36Z</time></trkpt><trkpt lat="36.91071956933974" lon="14.96557935733406"><ele>366.0</ele><time>2026-04-19T09:39:37Z</time></trkpt><trkpt lat="36.91065525075059" lon="14.965473553633245"><ele>369.0</ele><time>2026-04-19T09:39:38Z</time></trkpt><trkpt lat="36.910584026442585" lon="14.96538866406772"><ele>372.0</ele><time>2026-04-19T09:39:39Z</time></trkpt><trkpt lat="36.910511405658674" lon="14.965307749144431"><ele>375.0</ele><time>2026-04-19T09:39:40Z</time></trkpt><trkpt lat="36.91045229606072" lon="14.965235494611584"><ele>378.0</ele><time>2026-04-19T09:39:41Z</time></trkpt><trkpt lat="36.910389909216754" lon="14.965165551889577"><ele>378.0</ele><time>2026-04-19T09:39:42Z</time></trkpt><trkpt lat="36.91031282971558" lon="14.965100612100425"><ele>378.0</ele><time>2026-04-19T09:39:43Z</time></trkpt><trkpt lat="36.91022646987569" lon="14.965031482041454"><ele>378.0</ele><time>2026-04-19T09:39:44Z</time></trkpt><trkpt lat="36.91015432755739" lon="14.96494949580859"><ele>378.0</ele><time>2026-04-19T09:39:45Z</time></trkpt><trkpt lat="36.91005981580843" lon="14.964843857392484"><ele>378.0</ele><time>2026-04-19T09:39:46Z</time></trkpt><trkpt lat="36.90995612911431" lon="14.96473418538997"><ele>379.79999999999995</ele><time>2026-04-19T09:39:47Z</time></trkpt><trkpt lat="36.90986012286753" lon="14.964635901929348"><ele>381.6</ele><time>2026-04-19T09:39:48Z</time></trkpt><trkpt lat="36.90978750624555" lon="14.964561581859178"><ele>383.4</ele><time>2026-04-19T09:39:49Z</time></trkpt><trkpt lat="36.90972630847043" lon="14.964501326155746"><ele>385.20000000000005</ele><time>2026-04-19T09:39:50Z</time></trkpt><trkpt lat="36.90963314924198" lon="14.964458740915802"><ele>387.0</ele><time>2026-04-19T09:39:52Z</time></trkpt><trkpt lat="36.90955060280039" lon="14.964520058430585"><ele>387.0</ele><time>2026-04-19T09:39:54Z</time></trkpt><trkpt lat="36.90950642860679" lon="14.964581114218294"><ele>387.0</ele><time>2026-04-19T09:39:55Z</time></trkpt><trkpt lat="36.90945023161023" lon="14.964662832147994"><ele>387.0</ele><time>2026-04-19T09:39:56Z</time></trkpt><trkpt lat="36.9093912577369" lon="14.964762633887911"><ele>387.0</ele><time>2026-04-19T09:39:57Z</time></trkpt><trkpt lat="36.90932955882752" lon="14.96486584161564"><ele>387.0</ele><time>2026-04-19T09:39:58Z</time></trkpt><trkpt lat="36.90928815474327" lon="14.96494676027649"><ele>387.0</ele><time>2026-04-19T09:39:59Z</time></trkpt><trkpt lat="36.909268464159425" lon="14.965036522281528"><ele>386.1666666666667</ele><time>2026-04-19T09:40:00Z</time></trkpt><trkpt lat="36.909259609435395" lon="14.965131121205953"><ele>385.3333333333333</ele><time>2026-04-19T09:40:01Z</time></trkpt><trkpt lat="36.909252747033605" lon="14.965211157685737"><ele>384.5</ele><time>2026-04-19T09:40:02Z</time></trkpt><trkpt lat="36.909231468111486" lon="14.965292595615365"><ele>383.66666666666663</ele><time>2026-04-19T09:40:04Z</time></trkpt><trkpt lat="36.90914852737271" lon="14.965295459464173"><ele>382.8333333333333</ele><time>2026-04-19T09:40:07Z</time></trkpt><trkpt lat="36.909030525517665" lon="14.965210118642862"><ele>382.0</ele><time>2026-04-19T09:40:09Z</time></trkpt><trkpt lat="36.90894750045183" lon="14.965156098891653"><ele>382.8333333333333</ele><time>2026-04-19T09:40:10Z</time></trkpt><trkpt lat="36.90885597724502" lon="14.965115789031504"><ele>383.66666666666663</ele><time>2026-04-19T09:40:11Z</time></trkpt><trkpt lat="36.908771399574775" lon="14.965085961769265"><ele>384.5</ele><time>2026-04-19T09:40:12Z</time></trkpt><trkpt lat="36.90869368334645" lon="14.965037642689564"><ele>385.3333333333333</ele><time>2026-04-19T09:40:13Z</time></trkpt><trkpt lat="36.90861922457204" lon="14.964982919034405"><ele>386.1666666666667</ele><time>2026-04-19T09:40:14Z</time></trkpt><trkpt lat="36.90855251181934" lon="14.964939641456166"><ele>387.0</ele><time>2026-04-19T09:40:15Z</time></trkpt><trkpt lat="36.908484949012916" lon="14.964907241671138"><ele>387.0</ele><time>2026-04-19T09:40:16Z</time></trkpt><trkpt lat="36.90841815036955" lon="14.964884101416718"><ele>387.0</ele><time>2026-04-19T09:40:17Z</time></trkpt><trkpt lat="36.90829986099741" lon="14.964897862290492"><ele>387.0</ele><time>2026-04-19T09:40:19Z</time></trkpt><trkpt lat="36.90818583601622" lon="14.964977031780178"><ele>387.0</ele><time>2026-04-19T09:40:21Z</time></trkpt><trkpt lat="36.90812957889484" lon="14.965034094852692"><ele>387.0</ele><time>2026-04-19T09:40:22Z</time></trkpt><trkpt lat="36.90807385225373" lon="14.965094141761982"><ele>383.6666666666667</ele><time>2026-04-19T09:40:23Z</time></trkpt><trkpt lat="36.908009919546366" lon="14.965147954397212"><ele>380.3333333333333</ele><time>2026-04-19T09:40:24Z</time></trkpt><trkpt lat="36.90793739798089" lon="14.96519443365495"><ele>377.0</ele><time>2026-04-19T09:40:25Z</time></trkpt><trkpt lat="36.90787172583173" lon="14.96525116244874"><ele>373.66666666666663</ele><time>2026-04-19T09:40:26Z</time></trkpt><trkpt lat="36.90780051408734" lon="14.965320661218643"><ele>370.3333333333333</ele><time>2026-04-19T09:40:27Z</time></trkpt><trkpt lat="36.90772512949183" lon="14.965376068625558"><ele>367.0</ele><time>2026-04-19T09:40:28Z</time></trkpt><trkpt lat="36.907651942890354" lon="14.965424344944397"><ele>367.0</ele><time>2026-04-19T09:40:29Z</time></trkpt><trkpt lat="36.90758211142776" lon="14.965470427937602"><ele>367.0</ele><time>2026-04-19T09:40:30Z</time></trkpt><trkpt lat="36.90751952996253" lon="14.96550722256562"><ele>367.0</ele><time>2026-04-19T09:40:31Z</time></trkpt><trkpt lat="36.90742116082968" lon="14.965578544784272"><ele>367.0</ele><time>2026-04-19T09:40:33Z</time></trkpt><trkpt lat="36.90730981398401" lon="14.965592974270109"><ele>367.0</ele><time>2026-04-19T09:40:35Z</time></trkpt><trkpt lat="36.9072270463541" lon="14.965571423322137"><ele>366.8333333333333</ele><time>2026-04-19T09:40:36Z</time></trkpt><trkpt lat="36.90713935712437" lon="14.965559060673442"><ele>366.66666666666663</ele><time>2026-04-19T09:40:37Z</time></trkpt><trkpt lat="36.90705350400918" lon="14.965562742709507"><ele>366.5</ele><time>2026-04-19T09:40:38Z</time></trkpt><trkpt lat="36.9069761366709" lon="14.965578241058374"><ele>366.3333333333333</ele><time>2026-04-19T09:40:39Z</time></trkpt><trkpt lat="36.906890781251214" lon="14.965605109719855"><ele>366.1666666666667</ele><time>2026-04-19T09:40:40Z</time></trkpt><trkpt lat="36.906807169725624" lon="14.965637486258657"><ele>366.0</ele><time>2026-04-19T09:40:41Z</time></trkpt><trkpt lat="36.90674527964747" lon="14.965663265923196"><ele>366.25</ele><time>2026-04-19T09:40:42Z</time></trkpt><trkpt lat="36.9066496611229" lon="14.965773825209194"><ele>366.5</ele><time>2026-04-19T09:40:44Z</time></trkpt><trkpt lat="36.906590491029256" lon="14.965899636256443"><ele>366.75</ele><time>2026-04-19T09:40:45Z</time></trkpt><trkpt lat="36.906529983517515" lon="14.966042032132192"><ele>367.0</ele><time>2026-04-19T09:40:46Z</time></trkpt><trkpt lat="36.90646032116964" lon="14.966188314057957"><ele>367.75</ele><time>2026-04-19T09:40:47Z</time></trkpt><trkpt lat="36.906395745760996" lon="14.966326988454993"><ele>368.5</ele><time>2026-04-19T09:40:48Z</time></trkpt><trkpt lat="36.90634122461558" lon="14.966450913253784"><ele>369.25</ele><time>2026-04-19T09:40:49Z</time></trkpt><trkpt lat="36.90628367184868" lon="14.966580878273534"><ele>370.0</ele><time>2026-04-19T09:40:50Z</time></trkpt><trkpt lat="36.90622534716623" lon="14.966718739354098"><ele>370.5</ele><time>2026-04-19T09:40:51Z</time></trkpt><trkpt lat="36.90616628211436" lon="14.96685604304041"><ele>371.0</ele><time>2026-04-19T09:40:52Z</time></trkpt><trkpt lat="36.90612000720438" lon="14.966974385258016"><ele>371.5</ele><time>2026-04-19T09:40:53Z</time></trkpt><trkpt lat="36.906072423232224" lon="14.967115111079224"><ele>372.0</ele><time>2026-04-19T09:40:54Z</time></trkpt><trkpt lat="36.906031960220375" lon="14.967244386340036"><ele>372.0</ele><time>2026-04-19T09:40:55Z</time></trkpt><trkpt lat="36.906001216945604" lon="14.967350550013066"><ele>372.0</ele><time>2026-04-19T09:40:56Z</time></trkpt><trkpt lat="36.905986475727794" lon="14.967448777704771"><ele>372.0</ele><time>2026-04-19T09:40:57Z</time></trkpt><trkpt lat="36.905985911703794" lon="14.9675629547783"><ele>372.0</ele><time>2026-04-19T09:40:58Z</time></trkpt><trkpt lat="36.9059871838709" lon="14.967677279759625"><ele>372.0</ele><time>2026-04-19T09:40:59Z</time></trkpt><trkpt lat="36.90598089452934" lon="14.967768426595493"><ele>372.0</ele><time>2026-04-19T09:41:00Z</time></trkpt><trkpt lat="36.90592867826631" lon="14.967828125822747"><ele>372.8</ele><time>2026-04-19T09:41:03.001Z</time></trkpt><trkpt lat="36.905853451631" lon="14.967747307886212"><ele>373.6</ele><time>2026-04-19T09:41:05.001Z</time></trkpt><trkpt lat="36.90578205147304" lon="14.967632440483104"><ele>374.40000000000003</ele><time>2026-04-19T09:41:07.001Z</time></trkpt><trkpt lat="36.90567213584946" lon="14.967541669115725"><ele>375.20000000000005</ele><time>2026-04-19T09:41:09.001Z</time></trkpt><trkpt lat="36.90562060363488" lon="14.967495405688418"><ele>376.0</ele><time>2026-04-19T09:41:10.001Z</time></trkpt><trkpt lat="36.905562793814205" lon="14.967447084510237"><ele>376.0</ele><time>2026-04-19T09:41:11.001Z</time></trkpt><trkpt lat="36.905465514454654" lon="14.967353231821551"><ele>376.0</ele><time>2026-04-19T09:41:13.001Z</time></trkpt><trkpt lat="36.905382287048916" lon="14.9672431057125"><ele>376.0</ele><time>2026-04-19T09:41:15.001Z</time></trkpt><trkpt lat="36.90532343261481" lon="14.967200774240357"><ele>376.0</ele><time>2026-04-19T09:41:16.001Z</time></trkpt><trkpt lat="36.905263414011095" lon="14.967158538892082"><ele>376.0</ele><time>2026-04-19T09:41:17.001Z</time></trkpt><trkpt lat="36.90516799256826" lon="14.96707240693406"><ele>376.0</ele><time>2026-04-19T09:41:19Z</time></trkpt><trkpt lat="36.90510368367346" lon="14.967003590873416"><ele>376.0</ele><time>2026-04-19T09:41:21Z</time></trkpt><trkpt lat="36.9050500256859" lon="14.966930596328217"><ele>376.0</ele><time>2026-04-19T09:41:35Z</time></trkpt><trkpt lat="36.90507104014886" lon="14.966855478483385"><ele>376.0</ele><time>2026-04-19T09:41:41Z</time></trkpt><trkpt lat="36.90504987507184" lon="14.966743103646005"><ele>376.0</ele><time>2026-04-19T09:42:38Z</time></trkpt><trkpt lat="36.90500494527817" lon="14.966640778746333"><ele>376.0</ele><time>2026-04-19T09:42:40Z</time></trkpt><trkpt lat="36.904963990190275" lon="14.966521321676375"><ele>373.20000000000005</ele><time>2026-04-19T09:42:42Z</time></trkpt><trkpt lat="36.90493760096129" lon="14.966393402804712"><ele>370.40000000000003</ele><time>2026-04-19T09:42:44Z</time></trkpt><trkpt lat="36.90494041634941" lon="14.96627212233353"><ele>367.6</ele><time>2026-04-19T09:42:46Z</time></trkpt><trkpt lat="36.904938701649726" lon="14.966161061619992"><ele>364.8</ele><time>2026-04-19T09:42:48Z</time></trkpt><trkpt lat="36.90491267396637" lon="14.966058653148686"><ele>362.0</ele><time>2026-04-19T09:42:50Z</time></trkpt><trkpt lat="36.904885810434806" lon="14.96596619290013"><ele>362.0</ele><time>2026-04-19T09:42:52Z</time></trkpt><trkpt lat="36.90485831026231" lon="14.965894063631461"><ele>362.0</ele><time>2026-04-19T09:42:54Z</time></trkpt><trkpt lat="36.904858057110815" lon="14.965772851537599"><ele>362.0</ele><time>2026-04-19T09:42:56Z</time></trkpt><trkpt lat="36.90483006701671" lon="14.965662354977036"><ele>362.0</ele><time>2026-04-19T09:42:58Z</time></trkpt><trkpt lat="36.90479439385262" lon="14.965593324936842"><ele>362.0</ele><time>2026-04-19T09:43:01Z</time></trkpt><trkpt lat="36.90472573069305" lon="14.965581602725925"><ele>362.0</ele><time>2026-04-19T09:43:05Z</time></trkpt><trkpt lat="36.904656097292445" lon="14.965600067563004"><ele>360.42857142857144</ele><time>2026-04-19T09:43:08.001Z</time></trkpt><trkpt lat="36.9045999965494" lon="14.965546315839292"><ele>358.85714285714283</ele><time>2026-04-19T09:43:11.001Z</time></trkpt><trkpt lat="36.90453114861729" lon="14.965490314040814"><ele>357.28571428571433</ele><time>2026-04-19T09:43:14.001Z</time></trkpt><trkpt lat="36.90445902429688" lon="14.965497700956496"><ele>355.7142857142857</ele><time>2026-04-19T09:43:17.001Z</time></trkpt><trkpt lat="36.90438399657537" lon="14.965537373589893"><ele>354.14285714285717</ele><time>2026-04-19T09:43:20.001Z</time></trkpt><trkpt lat="36.904322559369994" lon="14.965566454844627"><ele>352.5714285714286</ele><time>2026-04-19T09:43:23.001Z</time></trkpt><trkpt lat="36.90426653037467" lon="14.96550040697135"><ele>351.0</ele><time>2026-04-19T09:43:26Z</time></trkpt><trkpt lat="36.90423555382841" lon="14.965426813232426"><ele>348.7142857142857</ele><time>2026-04-19T09:43:29Z</time></trkpt><trkpt lat="36.90419384077692" lon="14.965359020084495"><ele>346.42857142857144</ele><time>2026-04-19T09:43:33Z</time></trkpt><trkpt lat="36.90417326163718" lon="14.965268305861144"><ele>344.1428571428571</ele><time>2026-04-19T09:43:37Z</time></trkpt><trkpt lat="36.904163949572066" lon="14.965180155157276"><ele>341.8571428571429</ele><time>2026-04-19T09:43:40Z</time></trkpt><trkpt lat="36.90416042183052" lon="14.965098407943119"><ele>339.57142857142856</ele><time>2026-04-19T09:43:43Z</time></trkpt><trkpt lat="36.90418382724672" lon="14.96501442478618"><ele>337.2857142857143</ele><time>2026-04-19T09:43:46Z</time></trkpt><trkpt lat="36.90423820234571" lon="14.964927347589322"><ele>335.0</ele><time>2026-04-19T09:43:49Z</time></trkpt><trkpt lat="36.904336853676085" lon="14.964765723433782"><ele>335.0</ele><time>2026-04-19T09:43:51Z</time></trkpt><trkpt lat="36.90440628235914" lon="14.964681826346336"><ele>335.0</ele><time>2026-04-19T09:43:53Z</time></trkpt><trkpt lat="36.90446603885278" lon="14.96461680592285"><ele>335.0</ele><time>2026-04-19T09:43:56Z</time></trkpt><trkpt lat="36.904494775641" lon="14.964541380135977"><ele>335.0</ele><time>2026-04-19T09:44:00Z</time></trkpt><trkpt lat="36.90442707030994" lon="14.964540702165232"><ele>335.0</ele><time>2026-04-19T09:44:04Z</time></trkpt><trkpt lat="36.904343493374924" lon="14.964552372728988"><ele>335.0</ele><time>2026-04-19T09:44:06Z</time></trkpt><trkpt lat="36.90426552284418" lon="14.964548528288597"><ele>331.6666666666667</ele><time>2026-04-19T09:44:08Z</time></trkpt><trkpt lat="36.9041829890013" lon="14.964498698493855"><ele>328.33333333333337</ele><time>2026-04-19T09:44:10Z</time></trkpt><trkpt lat="36.90411608194231" lon="14.964484397531232"><ele>325.0</ele><time>2026-04-19T09:44:12Z</time></trkpt><trkpt lat="36.904019634087156" lon="14.964483469269911"><ele>321.6666666666667</ele><time>2026-04-19T09:44:14Z</time></trkpt><trkpt lat="36.90393742994236" lon="14.964466318850773"><ele>318.3333333333333</ele><time>2026-04-19T09:44:16Z</time></trkpt><trkpt lat="36.903879378971325" lon="14.9643690919428"><ele>315.0</ele><time>2026-04-19T09:44:18Z</time></trkpt><trkpt lat="36.90378558272603" lon="14.964282798545488"><ele>315.0</ele><time>2026-04-19T09:44:20Z</time></trkpt><trkpt lat="36.90366172753405" lon="14.9642619833125"><ele>315.0</ele><time>2026-04-19T09:44:22Z</time></trkpt><trkpt lat="36.903549123197635" lon="14.96422496947824"><ele>315.0</ele><time>2026-04-19T09:44:24Z</time></trkpt><trkpt lat="36.90344183366824" lon="14.96417846977528"><ele>315.0</ele><time>2026-04-19T09:44:26Z</time></trkpt><trkpt lat="36.9033340392805" lon="14.964119134918077"><ele>311.0</ele><time>2026-04-19T09:44:28Z</time></trkpt><trkpt lat="36.903233886913306" lon="14.964057679484325"><ele>307.0</ele><time>2026-04-19T09:44:30Z</time></trkpt><trkpt lat="36.903156941881655" lon="14.963986863363841"><ele>303.0</ele><time>2026-04-19T09:44:32Z</time></trkpt><trkpt lat="36.90310490496073" lon="14.963912304019063"><ele>299.0</ele><time>2026-04-19T09:44:34Z</time></trkpt><trkpt lat="36.903035330723654" lon="14.963897474413512"><ele>295.0</ele><time>2026-04-19T09:44:36Z</time></trkpt><trkpt lat="36.90296555474867" lon="14.963925733349004"><ele>291.0</ele><time>2026-04-19T09:44:38Z</time></trkpt><trkpt lat="36.902923506794956" lon="14.964009779102312"><ele>291.0</ele><time>2026-04-19T09:44:40Z</time></trkpt><trkpt lat="36.90288031367445" lon="14.96409143066235"><ele>291.0</ele><time>2026-04-19T09:44:42Z</time></trkpt><trkpt lat="36.90280136478962" lon="14.96421353201564"><ele>291.0</ele><time>2026-04-19T09:44:44Z</time></trkpt><trkpt lat="36.90275504480917" lon="14.964281909189603"><ele>291.0</ele><time>2026-04-19T09:44:45Z</time></trkpt><trkpt lat="36.9027082099751" lon="14.964350360660427"><ele>291.0</ele><time>2026-04-19T09:44:46Z</time></trkpt><trkpt lat="36.902659035284486" lon="14.964421741955228"><ele>291.0</ele><time>2026-04-19T09:44:47Z</time></trkpt><trkpt lat="36.90261169644633" lon="14.96449107386922"><ele>287.3333333333333</ele><time>2026-04-19T09:44:48Z</time></trkpt><trkpt lat="36.902551004876656" lon="14.96458979566674"><ele>283.6666666666667</ele><time>2026-04-19T09:44:50Z</time></trkpt><trkpt lat="36.9025073182341" lon="14.964674062225374"><ele>280.0</ele><time>2026-04-19T09:44:52.001Z</time></trkpt><trkpt lat="36.90246338095481" lon="14.964741169572788"><ele>276.33333333333337</ele><time>2026-04-19T09:44:54.001Z</time></trkpt><trkpt lat="36.90241368504317" lon="14.964825199902867"><ele>272.6666666666667</ele><time>2026-04-19T09:44:57.001Z</time></trkpt><trkpt lat="36.90243927111678" lon="14.964916674798815"><ele>269.0</ele><time>2026-04-19T09:44:59.001Z</time></trkpt><trkpt lat="36.90248461232263" lon="14.96502601896251"><ele>266.8</ele><time>2026-04-19T09:45:01.001Z</time></trkpt><trkpt lat="36.902503531542024" lon="14.96513379502159"><ele>264.59999999999997</ele><time>2026-04-19T09:45:03.001Z</time></trkpt><trkpt lat="36.9024721507886" lon="14.965228686486915"><ele>262.4</ele><time>2026-04-19T09:45:05.001Z</time></trkpt><trkpt lat="36.90248788758123" lon="14.965351474902027"><ele>260.2</ele><time>2026-04-19T09:45:08.001Z</time></trkpt><trkpt lat="36.902475340614316" lon="14.965485472113278"><ele>258.0</ele><time>2026-04-19T09:45:10.001Z</time></trkpt><trkpt lat="36.902469363362414" lon="14.965609195400317"><ele>258.0</ele><time>2026-04-19T09:45:12.001Z</time></trkpt><trkpt lat="36.90248231271689" lon="14.965736008576929"><ele>258.0</ele><time>2026-04-19T09:45:14.001Z</time></trkpt><trkpt lat="36.90252149444518" lon="14.965876176004508"><ele>258.0</ele><time>2026-04-19T09:45:16.001Z</time></trkpt><trkpt lat="36.902544016394394" lon="14.965955732373336"><ele>258.0</ele><time>2026-04-19T09:45:17.001Z</time></trkpt><trkpt lat="36.9025361140624" lon="14.966072528614534"><ele>258.0</ele><time>2026-04-19T09:45:19.001Z</time></trkpt><trkpt lat="36.902472178721574" lon="14.966155265064133"><ele>257.6</ele><time>2026-04-19T09:45:21.001Z</time></trkpt><trkpt lat="36.90239778536494" lon="14.966229107685837"><ele>257.20000000000005</ele><time>2026-04-19T09:45:23.001Z</time></trkpt><trkpt lat="36.90231476342372" lon="14.966304871092134"><ele>256.8</ele><time>2026-04-19T09:45:25.001Z</time></trkpt><trkpt lat="36.90222101219412" lon="14.966393394549991"><ele>256.40000000000003</ele><time>2026-04-19T09:45:27.001Z</time></trkpt><trkpt lat="36.90211537428382" lon="14.966450092209643"><ele>256.0</ele><time>2026-04-19T09:45:29.001Z</time></trkpt><trkpt lat="36.90198672375884" lon="14.966484010803855"><ele>256.0</ele><time>2026-04-19T09:45:31Z</time></trkpt><trkpt lat="36.90192281707909" lon="14.966510179651493"><ele>256.0</ele><time>2026-04-19T09:45:32Z</time></trkpt><trkpt lat="36.90181845856016" lon="14.966579978528902"><ele>256.0</ele><time>2026-04-19T09:45:34Z</time></trkpt><trkpt lat="36.901732036144466" lon="14.966629594069163"><ele>256.0</ele><time>2026-04-19T09:45:36Z</time></trkpt><trkpt lat="36.90163574419901" lon="14.96665031117709"><ele>256.0</ele><time>2026-04-19T09:45:38Z</time></trkpt><trkpt lat="36.90154383880912" lon="14.966629321530824"><ele>252.20000000000002</ele><time>2026-04-19T09:45:40Z</time></trkpt><trkpt lat="36.90146716564454" lon="14.96661172347259"><ele>248.40000000000003</ele><time>2026-04-19T09:45:42Z</time></trkpt><trkpt lat="36.90140117156386" lon="14.96660517453894"><ele>244.6</ele><time>2026-04-19T09:45:44Z</time></trkpt><trkpt lat="36.90132217642726" lon="14.96657579199297"><ele>240.8</ele><time>2026-04-19T09:45:46Z</time></trkpt><trkpt lat="36.90117290814767" lon="14.966528061001611"><ele>237.0</ele><time>2026-04-19T09:45:49Z</time></trkpt><trkpt lat="36.90106777430197" lon="14.966486563354046"><ele>237.0</ele><time>2026-04-19T09:45:51Z</time></trkpt><trkpt lat="36.900961090631725" lon="14.966509716480132"><ele>237.0</ele><time>2026-04-19T09:45:53Z</time></trkpt><trkpt lat="36.90089366219715" lon="14.966536733337257"><ele>237.0</ele><time>2026-04-19T09:45:54Z</time></trkpt><trkpt lat="36.90081451572208" lon="14.966559066769255"><ele>237.0</ele><time>2026-04-19T09:45:55Z</time></trkpt><trkpt lat="36.90069016976504" lon="14.966586064294958"><ele>237.0</ele><time>2026-04-19T09:45:57Z</time></trkpt><trkpt lat="36.90062243249647" lon="14.966585581026449"><ele>235.83333333333334</ele><time>2026-04-19T09:45:58Z</time></trkpt><trkpt lat="36.900543281187566" lon="14.96658683822317"><ele>234.66666666666669</ele><time>2026-04-19T09:45:59Z</time></trkpt><trkpt lat="36.900471723396954" lon="14.966576865695693"><ele>233.5</ele><time>2026-04-19T09:46:00Z</time></trkpt><trkpt lat="36.90039662569072" lon="14.966555186380315"><ele>232.33333333333334</ele><time>2026-04-19T09:46:01Z</time></trkpt><trkpt lat="36.90032159628124" lon="14.966549178548563"><ele>231.16666666666669</ele><time>2026-04-19T09:46:02Z</time></trkpt><trkpt lat="36.90023865436182" lon="14.966542363381834"><ele>230.0</ele><time>2026-04-19T09:46:03Z</time></trkpt><trkpt lat="36.90015941875773" lon="14.966532533000212"><ele>229.4</ele><time>2026-04-19T09:46:04Z</time></trkpt><trkpt lat="36.900081645869044" lon="14.966519598069853"><ele>228.8</ele><time>2026-04-19T09:46:05Z</time></trkpt><trkpt lat="36.900014407040864" lon="14.966494769407648"><ele>228.2</ele><time>2026-04-19T09:46:06Z</time></trkpt><trkpt lat="36.899919812959155" lon="14.966451941489003"><ele>227.6</ele><time>2026-04-19T09:46:08Z</time></trkpt><trkpt lat="36.89979686977286" lon="14.966439665776297"><ele>227.0</ele><time>2026-04-19T09:46:10Z</time></trkpt><trkpt lat="36.89967180988258" lon="14.966459189705702"><ele>227.0</ele><time>2026-04-19T09:46:12Z</time></trkpt><trkpt lat="36.8995638825237" lon="14.96651318427266"><ele>227.0</ele><time>2026-04-19T09:46:14Z</time></trkpt><trkpt lat="36.89946207750831" lon="14.966547062027033"><ele>227.0</ele><time>2026-04-19T09:46:16Z</time></trkpt><trkpt lat="36.89936947510657" lon="14.966581146680614"><ele>227.0</ele><time>2026-04-19T09:46:18Z</time></trkpt><trkpt lat="36.89926277522717" lon="14.966600709883817"><ele>227.0</ele><time>2026-04-19T09:46:20Z</time></trkpt><trkpt lat="36.89919927947302" lon="14.966636879542717"><ele>227.50000000000003</ele><time>2026-04-19T09:46:21Z</time></trkpt><trkpt lat="36.89914930572357" lon="14.966690979815699"><ele>228.0</ele><time>2026-04-19T09:46:22Z</time></trkpt><trkpt lat="36.899083058728486" lon="14.96672617711351"><ele>228.5</ele><time>2026-04-19T09:46:23Z</time></trkpt><trkpt lat="36.89901595760835" lon="14.966783492306451"><ele>229.0</ele><time>2026-04-19T09:46:24Z</time></trkpt><trkpt lat="36.898956105910415" lon="14.966850423221626"><ele>229.50000000000003</ele><time>2026-04-19T09:46:25Z</time></trkpt><trkpt lat="36.898907999318254" lon="14.966909341663891"><ele>230.0</ele><time>2026-04-19T09:46:26Z</time></trkpt><trkpt lat="36.89883183733612" lon="14.96701872145991"><ele>230.00000000000003</ele><time>2026-04-19T09:46:28Z</time></trkpt><trkpt lat="36.89871334028755" lon="14.967082812092725"><ele>230.0</ele><time>2026-04-19T09:46:30Z</time></trkpt><trkpt lat="36.898654831944725" lon="14.967127863189567"><ele>230.0</ele><time>2026-04-19T09:46:31Z</time></trkpt><trkpt lat="36.89858931255486" lon="14.967183033956914"><ele>230.0</ele><time>2026-04-19T09:46:32Z</time></trkpt><trkpt lat="36.89852618347345" lon="14.96724640263586"><ele>230.00000000000003</ele><time>2026-04-19T09:46:33Z</time></trkpt><trkpt lat="36.89848505181618" lon="14.967323152454584"><ele>230.0</ele><time>2026-04-19T09:46:34Z</time></trkpt><trkpt lat="36.89842308433862" lon="14.967397266005282"><ele>227.66666666666669</ele><time>2026-04-19T09:46:35Z</time></trkpt><trkpt lat="36.89834847958931" lon="14.967468711573897"><ele>225.33333333333334</ele><time>2026-04-19T09:46:36Z</time></trkpt><trkpt lat="36.898292684076026" lon="14.967540891720999"><ele>223.0</ele><time>2026-04-19T09:46:37Z</time></trkpt><trkpt lat="36.898238765443324" lon="14.967618782849994"><ele>220.66666666666669</ele><time>2026-04-19T09:46:38Z</time></trkpt><trkpt lat="36.898203360358224" lon="14.967706652740238"><ele>218.33333333333334</ele><time>2026-04-19T09:46:39Z</time></trkpt><trkpt lat="36.89814707144194" lon="14.967768953638187"><ele>216.0</ele><time>2026-04-19T09:46:40Z</time></trkpt><trkpt lat="36.89805750052714" lon="14.967871001721722"><ele>216.0</ele><time>2026-04-19T09:46:42Z</time></trkpt><trkpt lat="36.89800272423533" lon="14.967911452094002"><ele>216.0</ele><time>2026-04-19T09:46:43Z</time></trkpt><trkpt lat="36.897939398635366" lon="14.967956492455615"><ele>216.0</ele><time>2026-04-19T09:46:44Z</time></trkpt><trkpt lat="36.897877217012656" lon="14.96801083977476"><ele>216.0</ele><time>2026-04-19T09:46:45Z</time></trkpt><trkpt lat="36.897812581531724" lon="14.968047309222912"><ele>216.0</ele><time>2026-04-19T09:46:46Z</time></trkpt><trkpt lat="36.89774157168978" lon="14.968047154483322"><ele>216.0</ele><time>2026-04-19T09:46:47Z</time></trkpt><trkpt lat="36.89766796418106" lon="14.968059888811988"><ele>216.0</ele><time>2026-04-19T09:46:48Z</time></trkpt><trkpt lat="36.89758652524978" lon="14.968100844039569"><ele>213.4</ele><time>2026-04-19T09:46:49Z</time></trkpt><trkpt lat="36.897498801622206" lon="14.968128849607284"><ele>210.8</ele><time>2026-04-19T09:46:50Z</time></trkpt><trkpt lat="36.89740983171028" lon="14.968157674541665"><ele>208.20000000000002</ele><time>2026-04-19T09:46:51Z</time></trkpt><trkpt lat="36.8973207477443" lon="14.968188454160304"><ele>205.60000000000002</ele><time>2026-04-19T09:46:52Z</time></trkpt><trkpt lat="36.897229715765576" lon="14.968185269461722"><ele>203.0</ele><time>2026-04-19T09:46:53Z</time></trkpt><trkpt lat="36.89713811215978" lon="14.968203447296268"><ele>203.00000000000003</ele><time>2026-04-19T09:46:54Z</time></trkpt><trkpt lat="36.89705044431441" lon="14.968255085805188"><ele>203.0</ele><time>2026-04-19T09:46:55Z</time></trkpt><trkpt lat="36.896968681931135" lon="14.968292459681026"><ele>203.0</ele><time>2026-04-19T09:46:56Z</time></trkpt><trkpt lat="36.896890566232514" lon="14.968332947829262"><ele>203.0</ele><time>2026-04-19T09:46:57Z</time></trkpt><trkpt lat="36.89682352699085" lon="14.968367803492258"><ele>203.00000000000003</ele><time>2026-04-19T09:46:58Z</time></trkpt><trkpt lat="36.89676035533949" lon="14.96837736313419"><ele>203.0</ele><time>2026-04-19T09:46:59.001Z</time></trkpt><trkpt lat="36.89667735528467" lon="14.968386056728596"><ele>201.83333333333334</ele><time>2026-04-19T09:47:00.001Z</time></trkpt><trkpt lat="36.89660755057349" lon="14.968400877597725"><ele>200.66666666666669</ele><time>2026-04-19T09:47:01.001Z</time></trkpt><trkpt lat="36.89654375995741" lon="14.968419569213184"><ele>199.5</ele><time>2026-04-19T09:47:02.001Z</time></trkpt><trkpt lat="36.896480460325336" lon="14.96843503473575"><ele>198.33333333333331</ele><time>2026-04-19T09:47:03.001Z</time></trkpt><trkpt lat="36.89636815005155" lon="14.96843493224345"><ele>197.16666666666666</ele><time>2026-04-19T09:47:05.001Z</time></trkpt><trkpt lat="36.896259964975854" lon="14.968429632113095"><ele>196.0</ele><time>2026-04-19T09:47:07.001Z</time></trkpt><trkpt lat="36.896167201559635" lon="14.968386405019242"><ele>195.66666666666666</ele><time>2026-04-19T09:47:09.001Z</time></trkpt><trkpt lat="36.896148593329265" lon="14.968299776168728"><ele>195.33333333333331</ele><time>2026-04-19T09:47:10.001Z</time></trkpt><trkpt lat="36.896081389349234" lon="14.968184798766114"><ele>195.0</ele><time>2026-04-19T09:47:12.001Z</time></trkpt><trkpt lat="36.89599841735592" lon="14.968165456331718"><ele>194.66666666666669</ele><time>2026-04-19T09:47:14.001Z</time></trkpt><trkpt lat="36.89593408028062" lon="14.96818711496294"><ele>194.33333333333334</ele><time>2026-04-19T09:47:15.001Z</time></trkpt><trkpt lat="36.895841913917884" lon="14.968221414696373"><ele>194.0</ele><time>2026-04-19T09:47:16.001Z</time></trkpt><trkpt lat="36.89574051658992" lon="14.968270438380507"><ele>192.0</ele><time>2026-04-19T09:47:17.001Z</time></trkpt><trkpt lat="36.8956595059457" lon="14.968311873343378"><ele>190.0</ele><time>2026-04-19T09:47:18.001Z</time></trkpt><trkpt lat="36.895574772879556" lon="14.968354450319373"><ele>188.0</ele><time>2026-04-19T09:47:19.001Z</time></trkpt><trkpt lat="36.895484169758376" lon="14.968392868339128"><ele>186.0</ele><time>2026-04-19T09:47:20.001Z</time></trkpt><trkpt lat="36.89539472189548" lon="14.96842766940264"><ele>184.0</ele><time>2026-04-19T09:47:21.001Z</time></trkpt><trkpt lat="36.89530722959455" lon="14.968464346827538"><ele>183.0</ele><time>2026-04-19T09:47:22.001Z</time></trkpt><trkpt lat="36.89522151113335" lon="14.968478642126092"><ele>182.0</ele><time>2026-04-19T09:47:23.001Z</time></trkpt><trkpt lat="36.89514544942151" lon="14.968509186991833"><ele>181.0</ele><time>2026-04-19T09:47:24.001Z</time></trkpt><trkpt lat="36.895066966357774" lon="14.968557082951943"><ele>180.0</ele><time>2026-04-19T09:47:25.001Z</time></trkpt><trkpt lat="36.89498416646186" lon="14.968590019321047"><ele>179.0</ele><time>2026-04-19T09:47:26.001Z</time></trkpt><trkpt lat="36.89490136418804" lon="14.968624000155302"><ele>178.0</ele><time>2026-04-19T09:47:27.001Z</time></trkpt><trkpt lat="36.894814073965144" lon="14.968658724966579"><ele>176.66666666666669</ele><time>2026-04-19T09:47:28.001Z</time></trkpt><trkpt lat="36.89473293997154" lon="14.96868956022608"><ele>175.33333333333334</ele><time>2026-04-19T09:47:29.001Z</time></trkpt><trkpt lat="36.89465724860865" lon="14.96872126370895"><ele>174.0</ele><time>2026-04-19T09:47:30.001Z</time></trkpt><trkpt lat="36.894581332099534" lon="14.968736108815053"><ele>172.66666666666666</ele><time>2026-04-19T09:47:31.001Z</time></trkpt><trkpt lat="36.89450996794373" lon="14.968784758453992"><ele>171.33333333333331</ele><time>2026-04-19T09:47:32.001Z</time></trkpt><trkpt lat="36.8944353216891" lon="14.968813884511803"><ele>170.0</ele><time>2026-04-19T09:47:33.001Z</time></trkpt><trkpt lat="36.894370120759405" lon="14.968838573093823"><ele>168.8</ele><time>2026-04-19T09:47:34.001Z</time></trkpt><trkpt lat="36.89425349753748" lon="14.968868993272684"><ele>167.6</ele><time>2026-04-19T09:47:36.001Z</time></trkpt><trkpt lat="36.89417058307645" lon="14.968931690267732"><ele>166.39999999999998</ele><time>2026-04-19T09:47:38Z</time></trkpt><trkpt lat="36.894155059290554" lon="14.969058629729952"><ele>165.2</ele><time>2026-04-19T09:47:40Z</time></trkpt><trkpt lat="36.89418391542942" lon="14.969181639631794"><ele>164.0</ele><time>2026-04-19T09:47:42Z</time></trkpt><trkpt lat="36.8942207998543" lon="14.969251415344276"><ele>163.83333333333331</ele><time>2026-04-19T09:47:43Z</time></trkpt><trkpt lat="36.89426155440639" lon="14.969316035663521"><ele>163.66666666666666</ele><time>2026-04-19T09:47:44Z</time></trkpt><trkpt lat="36.89434966243606" lon="14.9694308298129"><ele>163.5</ele><time>2026-04-19T09:47:46Z</time></trkpt><trkpt lat="36.89442276082104" lon="14.969529397861347"><ele>163.33333333333334</ele><time>2026-04-19T09:47:48Z</time></trkpt><trkpt lat="36.89441433918092" lon="14.969612980648336"><ele>163.16666666666669</ele><time>2026-04-19T09:47:51Z</time></trkpt><trkpt lat="36.89434964954994" lon="14.969672376149022"><ele>163.0</ele><time>2026-04-19T09:47:53Z</time></trkpt><trkpt lat="36.89422939706498" lon="14.969686388136324"><ele>163.0</ele><time>2026-04-19T09:47:55Z</time></trkpt><trkpt lat="36.89410902984279" lon="14.969706041950845"><ele>163.0</ele><time>2026-04-19T09:47:57Z</time></trkpt><trkpt lat="36.89404830734919" lon="14.969676162018017"><ele>163.0</ele><time>2026-04-19T09:47:58Z</time></trkpt><trkpt lat="36.893938156311854" lon="14.969660439071825"><ele>163.0</ele><time>2026-04-19T09:48:00Z</time></trkpt><trkpt lat="36.893872866873146" lon="14.969695438606553"><ele>163.0</ele><time>2026-04-19T09:48:01Z</time></trkpt><trkpt lat="36.89378248042167" lon="14.969732269818945"><ele>163.0</ele><time>2026-04-19T09:48:02Z</time></trkpt><trkpt lat="36.89368247504059" lon="14.969744085272614"><ele>163.0</ele><time>2026-04-19T09:48:03Z</time></trkpt><trkpt lat="36.893593287336515" lon="14.969720998473367"><ele>163.0</ele><time>2026-04-19T09:48:04Z</time></trkpt><trkpt lat="36.8935160298934" lon="14.969682401902892"><ele>163.0</ele><time>2026-04-19T09:48:05Z</time></trkpt><trkpt lat="36.893442716167044" lon="14.969623026467819"><ele>163.0</ele><time>2026-04-19T09:48:06Z</time></trkpt><trkpt lat="36.89338055411423" lon="14.96954949458877"><ele>163.0</ele><time>2026-04-19T09:48:07Z</time></trkpt><trkpt lat="36.893330133650124" lon="14.969460030108106"><ele>162.8</ele><time>2026-04-19T09:48:08Z</time></trkpt><trkpt lat="36.893296520316" lon="14.969356305693367"><ele>162.60000000000002</ele><time>2026-04-19T09:48:09Z</time></trkpt><trkpt lat="36.893274070741455" lon="14.969244465187124"><ele>162.39999999999998</ele><time>2026-04-19T09:48:10Z</time></trkpt><trkpt lat="36.89326338497284" lon="14.969129653249563"><ele>162.2</ele><time>2026-04-19T09:48:11Z</time></trkpt><trkpt lat="36.89326744158759" lon="14.968995445846469"><ele>162.0</ele><time>2026-04-19T09:48:12Z</time></trkpt><trkpt lat="36.89328131524268" lon="14.968852327699537"><ele>162.0</ele><time>2026-04-19T09:48:13Z</time></trkpt><trkpt lat="36.89329301409083" lon="14.968731307128904"><ele>162.0</ele><time>2026-04-19T09:48:14Z</time></trkpt><trkpt lat="36.89330186828015" lon="14.968624183300639"><ele>162.0</ele><time>2026-04-19T09:48:15Z</time></trkpt><trkpt lat="36.8933029184959" lon="14.9685244869683"><ele>162.0</ele><time>2026-04-19T09:48:16Z</time></trkpt><trkpt lat="36.8932852616373" lon="14.968433052572811"><ele>162.0</ele><time>2026-04-19T09:48:17Z</time></trkpt><trkpt lat="36.89323649669851" lon="14.968377760926755"><ele>162.0</ele><time>2026-04-19T09:48:18Z</time></trkpt><trkpt lat="36.89321063522513" lon="14.968301881503214"><ele>160.75</ele><time>2026-04-19T09:48:19Z</time></trkpt><trkpt lat="36.89312878354117" lon="14.96822999126273"><ele>159.5</ele><time>2026-04-19T09:48:20Z</time></trkpt><trkpt lat="36.89303366805582" lon="14.968142885752616"><ele>158.25</ele><time>2026-04-19T09:48:21Z</time></trkpt><trkpt lat="36.89292321810153" lon="14.968061041550257"><ele>157.0</ele><time>2026-04-19T09:48:22Z</time></trkpt><trkpt lat="36.89283049554693" lon="14.967977807300219"><ele>157.0</ele><time>2026-04-19T09:48:23Z</time></trkpt><trkpt lat="36.892741755092814" lon="14.967886874076068"><ele>157.0</ele><time>2026-04-19T09:48:24Z</time></trkpt><trkpt lat="36.89266109652387" lon="14.967800609460582"><ele>157.0</ele><time>2026-04-19T09:48:25Z</time></trkpt><trkpt lat="36.89258340125106" lon="14.967703686027019"><ele>157.0</ele><time>2026-04-19T09:48:26Z</time></trkpt><trkpt lat="36.892514615181284" lon="14.967614641622275"><ele>157.0</ele><time>2026-04-19T09:48:27Z</time></trkpt><trkpt lat="36.89244253015103" lon="14.96754108055326"><ele>155.0</ele><time>2026-04-19T09:48:28Z</time></trkpt><trkpt lat="36.892347982548046" lon="14.96748738292673"><ele>153.0</ele><time>2026-04-19T09:48:29Z</time></trkpt><trkpt lat="36.89223180371477" lon="14.967449349368913"><ele>151.0</ele><time>2026-04-19T09:48:30Z</time></trkpt><trkpt lat="36.89208993478499" lon="14.96741693309543"><ele>149.0</ele><time>2026-04-19T09:48:31Z</time></trkpt><trkpt lat="36.891976650691" lon="14.967378929050975"><ele>149.0</ele><time>2026-04-19T09:48:32Z</time></trkpt><trkpt lat="36.89187728590576" lon="14.96732664805834"><ele>149.0</ele><time>2026-04-19T09:48:33Z</time></trkpt><trkpt lat="36.891778105474806" lon="14.967259726076449"><ele>149.0</ele><time>2026-04-19T09:48:34Z</time></trkpt><trkpt lat="36.89170384963353" lon="14.967188341562421"><ele>149.0</ele><time>2026-04-19T09:48:35Z</time></trkpt><trkpt lat="36.89163626328201" lon="14.967092993073434"><ele>149.0</ele><time>2026-04-19T09:48:36Z</time></trkpt><trkpt lat="36.89156572435067" lon="14.966978804858249"><ele>149.2</ele><time>2026-04-19T09:48:37Z</time></trkpt><trkpt lat="36.89150513158648" lon="14.966889704230201"><ele>149.4</ele><time>2026-04-19T09:48:38Z</time></trkpt><trkpt lat="36.891442749164916" lon="14.966819866722863"><ele>149.6</ele><time>2026-04-19T09:48:39Z</time></trkpt><trkpt lat="36.891355557370765" lon="14.966782954365994"><ele>149.8</ele><time>2026-04-19T09:48:40Z</time></trkpt><trkpt lat="36.89125939774288" lon="14.966739868017717"><ele>150.0</ele><time>2026-04-19T09:48:41Z</time></trkpt><trkpt lat="36.89117749095346" lon="14.966677852931852"><ele>149.4</ele><time>2026-04-19T09:48:42Z</time></trkpt><trkpt lat="36.89107941374271" lon="14.966632760659177"><ele>148.8</ele><time>2026-04-19T09:48:43Z</time></trkpt><trkpt lat="36.89097385278332" lon="14.96657904593609"><ele>148.2</ele><time>2026-04-19T09:48:44Z</time></trkpt><trkpt lat="36.89087886606014" lon="14.966520087030409"><ele>147.6</ele><time>2026-04-19T09:48:45Z</time></trkpt><trkpt lat="36.89078097401138" lon="14.966460564322011"><ele>147.0</ele><time>2026-04-19T09:48:46Z</time></trkpt><trkpt lat="36.89068170559629" lon="14.966399866264888"><ele>148.2</ele><time>2026-04-19T09:48:47Z</time></trkpt><trkpt lat="36.8905893231997" lon="14.966346403910018"><ele>149.39999999999998</ele><time>2026-04-19T09:48:48Z</time></trkpt><trkpt lat="36.890498592808456" lon="14.966286333389055"><ele>150.60000000000002</ele><time>2026-04-19T09:48:49Z</time></trkpt><trkpt lat="36.89042279432951" lon="14.96621893015235"><ele>151.8</ele><time>2026-04-19T09:48:50Z</time></trkpt><trkpt lat="36.89035552752443" lon="14.966156285763352"><ele>153.0</ele><time>2026-04-19T09:48:51Z</time></trkpt><trkpt lat="36.89029334457126" lon="14.96608804173404"><ele>153.0</ele><time>2026-04-19T09:48:52Z</time></trkpt><trkpt lat="36.890237654662315" lon="14.966009166440271"><ele>153.0</ele><time>2026-04-19T09:48:53Z</time></trkpt><trkpt lat="36.890178970454684" lon="14.965917775881723"><ele>153.0</ele><time>2026-04-19T09:48:54Z</time></trkpt><trkpt lat="36.890118421919254" lon="14.965835792440041"><ele>153.0</ele><time>2026-04-19T09:48:55Z</time></trkpt><trkpt lat="36.89005996382046" lon="14.965755948321444"><ele>153.0</ele><time>2026-04-19T09:48:56Z</time></trkpt><trkpt lat="36.89000339726087" lon="14.965679532293784"><ele>153.0</ele><time>2026-04-19T09:48:57Z</time></trkpt><trkpt lat="36.889943594911614" lon="14.96560150901242"><ele>151.66666666666666</ele><time>2026-04-19T09:48:58Z</time></trkpt><trkpt lat="36.88989316626065" lon="14.965527047115378"><ele>150.33333333333334</ele><time>2026-04-19T09:48:59Z</time></trkpt><trkpt lat="36.88984410820533" lon="14.965452110110348"><ele>149.0</ele><time>2026-04-19T09:49:00Z</time></trkpt><trkpt lat="36.88979640552991" lon="14.965379849129599"><ele>147.66666666666669</ele><time>2026-04-19T09:49:01Z</time></trkpt><trkpt lat="36.889740103911016" lon="14.965304462135725"><ele>146.33333333333334</ele><time>2026-04-19T09:49:02Z</time></trkpt><trkpt lat="36.88966815371813" lon="14.965241772920526"><ele>145.0</ele><time>2026-04-19T09:49:03Z</time></trkpt><trkpt lat="36.889581862455955" lon="14.965203270144707"><ele>145.0</ele><time>2026-04-19T09:49:04Z</time></trkpt><trkpt lat="36.8894834842469" lon="14.965164041445215"><ele>145.0</ele><time>2026-04-19T09:49:05Z</time></trkpt><trkpt lat="36.88935327599338" lon="14.965177694430539"><ele>145.0</ele><time>2026-04-19T09:49:06Z</time></trkpt><trkpt lat="36.88922479692359" lon="14.965170052316713"><ele>145.0</ele><time>2026-04-19T09:49:07Z</time></trkpt><trkpt lat="36.88909359664824" lon="14.965169175195154"><ele>143.0</ele><time>2026-04-19T09:49:08Z</time></trkpt><trkpt lat="36.88897446096226" lon="14.96517026362741"><ele>141.0</ele><time>2026-04-19T09:49:09Z</time></trkpt><trkpt lat="36.88885326776429" lon="14.96517058288878"><ele>139.0</ele><time>2026-04-19T09:49:10Z</time></trkpt><trkpt lat="36.88873119044725" lon="14.965164958172243"><ele>137.0</ele><time>2026-04-19T09:49:11Z</time></trkpt><trkpt lat="36.88860731731985" lon="14.965162420655247"><ele>137.0</ele><time>2026-04-19T09:49:12Z</time></trkpt><trkpt lat="36.88849572805284" lon="14.965170456772329"><ele>137.0</ele><time>2026-04-19T09:49:13Z</time></trkpt><trkpt lat="36.888389131205656" lon="14.965176912797922"><ele>137.0</ele><time>2026-04-19T09:49:14Z</time></trkpt><trkpt lat="36.88828232510626" lon="14.965175359001828"><ele>137.0</ele><time>2026-04-19T09:49:15Z</time></trkpt><trkpt lat="36.888179314547955" lon="14.965156128162882"><ele>137.0</ele><time>2026-04-19T09:49:16Z</time></trkpt><trkpt lat="36.88806845194454" lon="14.965132018451788"><ele>135.5</ele><time>2026-04-19T09:49:17Z</time></trkpt><trkpt lat="36.887955163078274" lon="14.965101013020847"><ele>134.0</ele><time>2026-04-19T09:49:18.001Z</time></trkpt><trkpt lat="36.887851200334204" lon="14.965055284883217"><ele>132.5</ele><time>2026-04-19T09:49:19.001Z</time></trkpt><trkpt lat="36.88773582399117" lon="14.965007356282921"><ele>131.0</ele><time>2026-04-19T09:49:20.001Z</time></trkpt><trkpt lat="36.88761460612762" lon="14.964968827920547"><ele>130.2</ele><time>2026-04-19T09:49:21.001Z</time></trkpt><trkpt lat="36.88750909345965" lon="14.964935584594635"><ele>129.39999999999998</ele><time>2026-04-19T09:49:22.001Z</time></trkpt><trkpt lat="36.88741883271848" lon="14.964904747318386"><ele>128.6</ele><time>2026-04-19T09:49:23.001Z</time></trkpt><trkpt lat="36.887327087274436" lon="14.964871997115896"><ele>127.8</ele><time>2026-04-19T09:49:24.001Z</time></trkpt><trkpt lat="36.88721845152637" lon="14.964831706526837"><ele>127.0</ele><time>2026-04-19T09:49:25.001Z</time></trkpt><trkpt lat="36.88708450034782" lon="14.96475287231156"><ele>127.0</ele><time>2026-04-19T09:49:26.001Z</time></trkpt><trkpt lat="36.88692367405018" lon="14.964699450714283"><ele>127.0</ele><time>2026-04-19T09:49:27.001Z</time></trkpt><trkpt lat="36.88677775307939" lon="14.964623575840498"><ele>127.0</ele><time>2026-04-19T09:49:28.001Z</time></trkpt><trkpt lat="36.886643332675014" lon="14.964560960722155"><ele>124.66666666666667</ele><time>2026-04-19T09:49:29.001Z</time></trkpt><trkpt lat="36.88649616628232" lon="14.964497904755778"><ele>122.33333333333334</ele><time>2026-04-19T09:49:30.001Z</time></trkpt><trkpt lat="36.886335266382915" lon="14.964423442558214"><ele>120.0</ele><time>2026-04-19T09:49:31.001Z</time></trkpt><trkpt lat="36.88617271131362" lon="14.964355550161208"><ele>120.0</ele><time>2026-04-19T09:49:32.001Z</time></trkpt><trkpt lat="36.886022644770506" lon="14.964279597849512"><ele>120.0</ele><time>2026-04-19T09:49:33.001Z</time></trkpt><trkpt lat="36.885868663418556" lon="14.964209327918148"><ele>120.0</ele><time>2026-04-19T09:49:34.001Z</time></trkpt><trkpt lat="36.88567203382247" lon="14.964120339106215"><ele>119.5</ele><time>2026-04-19T09:49:35.001Z</time></trkpt><trkpt lat="36.88545280122164" lon="14.96402479455127"><ele>119.0</ele><time>2026-04-19T09:49:36.001Z</time></trkpt><trkpt lat="36.885232015204544" lon="14.963925409270754"><ele>117.66666666666666</ele><time>2026-04-19T09:49:37.001Z</time></trkpt><trkpt lat="36.885049883290876" lon="14.963839105801403"><ele>116.33333333333334</ele><time>2026-04-19T09:49:38.001Z</time></trkpt><trkpt lat="36.88487299417124" lon="14.963756536462647"><ele>115.0</ele><time>2026-04-19T09:49:39.001Z</time></trkpt><trkpt lat="36.884708022335396" lon="14.963681109106819"><ele>115.0</ele><time>2026-04-19T09:49:40.001Z</time></trkpt><trkpt lat="36.884563350392035" lon="14.96360979370385"><ele>115.0</ele><time>2026-04-19T09:49:41.001Z</time></trkpt><trkpt lat="36.884420721993834" lon="14.963540456396458"><ele>115.0</ele><time>2026-04-19T09:49:42.001Z</time></trkpt><trkpt lat="36.884280434640274" lon="14.963471063603029"><ele>114.75</ele><time>2026-04-19T09:49:43Z</time></trkpt><trkpt lat="36.884156026349125" lon="14.963410587141327"><ele>114.5</ele><time>2026-04-19T09:49:44Z</time></trkpt><trkpt lat="36.884042182686244" lon="14.963354705954018"><ele>114.25</ele><time>2026-04-19T09:49:45Z</time></trkpt><trkpt lat="36.88393417615684" lon="14.963303036312347"><ele>114.0</ele><time>2026-04-19T09:49:46Z</time></trkpt><trkpt lat="36.8838386862877" lon="14.963256620800797"><ele>114.0</ele><time>2026-04-19T09:49:47Z</time></trkpt><trkpt lat="36.88375984138324" lon="14.96322249210883"><ele>114.0</ele><time>2026-04-19T09:49:48Z</time></trkpt><trkpt lat="36.88369530999237" lon="14.963181949053487"><ele>114.0</ele><time>2026-04-19T09:49:49Z</time></trkpt><trkpt lat="36.88363336462826" lon="14.963150457179783"><ele>114.0</ele><time>2026-04-19T09:49:50Z</time></trkpt><trkpt lat="36.88352770274509" lon="14.963103600853188"><ele>114.0</ele><time>2026-04-19T09:49:53Z</time></trkpt><trkpt lat="36.883447100900355" lon="14.963059615335602"><ele>114.0</ele><time>2026-04-19T09:49:54Z</time></trkpt><trkpt lat="36.88336992688826" lon="14.96301750043219"><ele>114.0</ele><time>2026-04-19T09:49:56Z</time></trkpt><trkpt lat="36.88361992478836" lon="14.96299037905038"><ele>114.0</ele><time>2026-04-19T09:49:57Z</time></trkpt><trkpt lat="36.88335746299695" lon="14.962549230638798"><ele>113.4</ele><time>2026-04-19T09:49:59Z</time></trkpt><trkpt lat="36.88332628066395" lon="14.962396844985141"><ele>112.80000000000001</ele><time>2026-04-19T09:50:00Z</time></trkpt><trkpt lat="36.8832976355122" lon="14.962249616568398"><ele>112.19999999999999</ele><time>2026-04-19T09:50:01Z</time></trkpt><trkpt lat="36.883272311665884" lon="14.962128114584672"><ele>111.6</ele><time>2026-04-19T09:50:02Z</time></trkpt><trkpt lat="36.88325054955387" lon="14.96201955858014"><ele>111.0</ele><time>2026-04-19T09:50:03Z</time></trkpt><trkpt lat="36.883223517102934" lon="14.961925378320874"><ele>111.0</ele><time>2026-04-19T09:50:04Z</time></trkpt><trkpt lat="36.88318682008427" lon="14.96184456481745"><ele>111.0</ele><time>2026-04-19T09:50:05Z</time></trkpt><trkpt lat="36.88314561210928" lon="14.961772247073867"><ele>111.0</ele><time>2026-04-19T09:50:06Z</time></trkpt><trkpt lat="36.88311370442388" lon="14.961702158562128"><ele>111.0</ele><time>2026-04-19T09:50:07Z</time></trkpt><trkpt lat="36.88306639857901" lon="14.961578567418398"><ele>111.0</ele><time>2026-04-19T09:50:09Z</time></trkpt><trkpt lat="36.883023463943516" lon="14.961474967301223"><ele>111.0</ele><time>2026-04-19T09:50:11Z</time></trkpt><trkpt lat="36.883000113805934" lon="14.961340080178244"><ele>110.8</ele><time>2026-04-19T09:50:13Z</time></trkpt><trkpt lat="36.88301539668029" lon="14.961214259158677"><ele>110.6</ele><time>2026-04-19T09:50:14Z</time></trkpt><trkpt lat="36.8830467466672" lon="14.961055958893619"><ele>110.4</ele><time>2026-04-19T09:50:15Z</time></trkpt><trkpt lat="36.88307659842113" lon="14.960924844222097"><ele>110.2</ele><time>2026-04-19T09:50:16Z</time></trkpt><trkpt lat="36.88310736744031" lon="14.960810824579893"><ele>110.0</ele><time>2026-04-19T09:50:17Z</time></trkpt><trkpt lat="36.883131292278364" lon="14.960687844598993"><ele>109.83333333333333</ele><time>2026-04-19T09:50:18Z</time></trkpt><trkpt lat="36.88314415662015" lon="14.960571977804427"><ele>109.66666666666666</ele><time>2026-04-19T09:50:19Z</time></trkpt><trkpt lat="36.88315898069607" lon="14.960467355945067"><ele>109.5</ele><time>2026-04-19T09:50:20Z</time></trkpt><trkpt lat="36.8831703377644" lon="14.960382932101298"><ele>109.33333333333334</ele><time>2026-04-19T09:50:21Z</time></trkpt><trkpt lat="36.88316073078486" lon="14.96029784913505"><ele>109.16666666666667</ele><time>2026-04-19T09:50:22Z</time></trkpt><trkpt lat="36.88318462471248" lon="14.960162765850754"><ele>109.0</ele><time>2026-04-19T09:50:24Z</time></trkpt><trkpt lat="36.883172544935" lon="14.960046219367038"><ele>108.50000000000001</ele><time>2026-04-19T09:50:26Z</time></trkpt><trkpt lat="36.88318582294309" lon="14.959956862008006"><ele>108.0</ele><time>2026-04-19T09:50:38Z</time></trkpt><trkpt lat="36.88317699334727" lon="14.959842363067338"><ele>107.5</ele><time>2026-04-19T09:50:40Z</time></trkpt><trkpt lat="36.883178706263614" lon="14.959741380649055"><ele>107.0</ele><time>2026-04-19T09:50:41Z</time></trkpt><trkpt lat="36.883179442822424" lon="14.959625351912024"><ele>106.50000000000001</ele><time>2026-04-19T09:50:42Z</time></trkpt><trkpt lat="36.88318013434431" lon="14.95951009822549"><ele>106.0</ele><time>2026-04-19T09:50:43Z</time></trkpt><trkpt lat="36.883196408018684" lon="14.95940249550946"><ele>106.0</ele><time>2026-04-19T09:50:44Z</time></trkpt><trkpt lat="36.88319448797798" lon="14.959316841869953"><ele>106.0</ele><time>2026-04-19T09:50:45Z</time></trkpt><trkpt lat="36.88318902513013" lon="14.959215727740725"><ele>106.0</ele><time>2026-04-19T09:50:47Z</time></trkpt><trkpt lat="36.883169528580524" lon="14.959113043499466"><ele>106.0</ele><time>2026-04-19T09:50:50Z</time></trkpt><trkpt lat="36.88315733417371" lon="14.95902029401446"><ele>106.0</ele><time>2026-04-19T09:50:52Z</time></trkpt><trkpt lat="36.88272491774835" lon="14.958891997659418"><ele>106.19999999999999</ele><time>2026-04-19T09:50:54Z</time></trkpt><trkpt lat="36.88264105523847" lon="14.95883573148138"><ele>106.39999999999999</ele><time>2026-04-19T09:50:55Z</time></trkpt><trkpt lat="36.88255841416102" lon="14.958775968971052"><ele>106.6</ele><time>2026-04-19T09:50:56Z</time></trkpt><trkpt lat="36.88246733449074" lon="14.958714192927447"><ele>106.8</ele><time>2026-04-19T09:50:57Z</time></trkpt><trkpt lat="36.88238035897214" lon="14.958654988782211"><ele>107.0</ele><time>2026-04-19T09:50:58Z</time></trkpt><trkpt lat="36.8823059531618" lon="14.958602854172991"><ele>106.6</ele><time>2026-04-19T09:50:59Z</time></trkpt><trkpt lat="36.88224401506254" lon="14.958561233874704"><ele>106.19999999999999</ele><time>2026-04-19T09:51:00Z</time></trkpt><trkpt lat="36.882147665186864" lon="14.958508681830802"><ele>105.8</ele><time>2026-04-19T09:51:02Z</time></trkpt><trkpt lat="36.882086453380765" lon="14.958476649120838"><ele>105.4</ele><time>2026-04-19T09:51:03Z</time></trkpt><trkpt lat="36.88196940843688" lon="14.958382958902327"><ele>105.0</ele><time>2026-04-19T09:51:05Z</time></trkpt><trkpt lat="36.88187938941684" lon="14.958311808200959"><ele>105.0</ele><time>2026-04-19T09:51:06Z</time></trkpt><trkpt lat="36.88178433631478" lon="14.958252726825313"><ele>105.0</ele><time>2026-04-19T09:51:07Z</time></trkpt><trkpt lat="36.881689356675345" lon="14.958189994510816"><ele>105.0</ele><time>2026-04-19T09:51:08Z</time></trkpt><trkpt lat="36.88160332522238" lon="14.958138011111785"><ele>105.0</ele><time>2026-04-19T09:51:09Z</time></trkpt><trkpt lat="36.881515592481755" lon="14.958070966333926"><ele>105.0</ele><time>2026-04-19T09:51:10Z</time></trkpt><trkpt lat="36.88142185148008" lon="14.958006194110595"><ele>105.5</ele><time>2026-04-19T09:51:11Z</time></trkpt><trkpt lat="36.88134372524363" lon="14.957962152208074"><ele>106.0</ele><time>2026-04-19T09:51:12Z</time></trkpt><trkpt lat="36.88127106620045" lon="14.957911707618191"><ele>106.5</ele><time>2026-04-19T09:51:13Z</time></trkpt><trkpt lat="36.88120725943661" lon="14.95786187238011"><ele>107.0</ele><time>2026-04-19T09:51:14Z</time></trkpt><trkpt lat="36.88115086316937" lon="14.957826738442401"><ele>107.5</ele><time>2026-04-19T09:51:15Z</time></trkpt><trkpt lat="36.88104134593303" lon="14.957758946265024"><ele>108.0</ele><time>2026-04-19T09:51:17Z</time></trkpt><trkpt lat="36.88095731848979" lon="14.957653742354076"><ele>108.33333333333333</ele><time>2026-04-19T09:51:19Z</time></trkpt><trkpt lat="36.88090142248917" lon="14.957584771321278"><ele>108.66666666666666</ele><time>2026-04-19T09:51:20Z</time></trkpt><trkpt lat="36.88084687296727" lon="14.957518296066445"><ele>109.0</ele><time>2026-04-19T09:51:21Z</time></trkpt><trkpt lat="36.88080058615734" lon="14.957464479763408"><ele>109.33333333333333</ele><time>2026-04-19T09:51:22Z</time></trkpt><trkpt lat="36.88073787519091" lon="14.957366788533774"><ele>109.66666666666666</ele><time>2026-04-19T09:51:24Z</time></trkpt><trkpt lat="36.880675298500876" lon="14.957235427780336"><ele>110.0</ele><time>2026-04-19T09:51:26Z</time></trkpt><trkpt lat="36.8806394657804" lon="14.957168338848652"><ele>111.6</ele><time>2026-04-19T09:51:27.001Z</time></trkpt><trkpt lat="36.880571669471756" lon="14.957069686708488"><ele>113.2</ele><time>2026-04-19T09:51:29.001Z</time></trkpt><trkpt lat="36.88049191350696" lon="14.956966346249194"><ele>114.80000000000001</ele><time>2026-04-19T09:51:31.001Z</time></trkpt><trkpt lat="36.88042453786276" lon="14.956878086166535"><ele>116.4</ele><time>2026-04-19T09:51:33.001Z</time></trkpt><trkpt lat="36.880348694901365" lon="14.95678724678725"><ele>118.0</ele><time>2026-04-19T09:51:35.001Z</time></trkpt><trkpt lat="36.88027783163336" lon="14.956680022969431"><ele>117.80000000000001</ele><time>2026-04-19T09:51:37.001Z</time></trkpt><trkpt lat="36.88019794729978" lon="14.95657828903581"><ele>117.60000000000001</ele><time>2026-04-19T09:51:39.001Z</time></trkpt><trkpt lat="36.88011128786235" lon="14.956481369500604"><ele>117.39999999999999</ele><time>2026-04-19T09:51:41.001Z</time></trkpt><trkpt lat="36.88002878128184" lon="14.956366437828843"><ele>117.19999999999999</ele><time>2026-04-19T09:51:43.001Z</time></trkpt><trkpt lat="36.87997416207621" lon="14.956272654609494"><ele>117.0</ele><time>2026-04-19T09:51:45.001Z</time></trkpt><trkpt lat="36.87989840633906" lon="14.956212215657839"><ele>117.0</ele><time>2026-04-19T09:51:48.001Z</time></trkpt><trkpt lat="36.87980459494718" lon="14.956223247471081"><ele>117.0</ele><time>2026-04-19T09:51:50Z</time></trkpt><trkpt lat="36.87971311726044" lon="14.956232472792745"><ele>117.0</ele><time>2026-04-19T09:51:52Z</time></trkpt><trkpt lat="36.8796503840905" lon="14.956217822993219"><ele>117.0</ele><time>2026-04-19T09:51:56Z</time></trkpt><trkpt lat="36.87959693004861" lon="14.956111644856337"><ele>117.0</ele><time>2026-04-19T09:51:59Z</time></trkpt><trkpt lat="36.87954818771601" lon="14.956036869238924"><ele>117.0</ele><time>2026-04-19T09:52:02Z</time></trkpt><trkpt lat="36.87954383156371" lon="14.955942838401938"><ele>117.33333333333333</ele><time>2026-04-19T09:52:04Z</time></trkpt><trkpt lat="36.87955746742697" lon="14.955838870390966"><ele>117.66666666666666</ele><time>2026-04-19T09:52:06Z</time></trkpt><trkpt lat="36.87954450875556" lon="14.955735306721705"><ele>118.0</ele><time>2026-04-19T09:52:09Z</time></trkpt><trkpt lat="36.879466596827214" lon="14.955630130165078"><ele>118.33333333333333</ele><time>2026-04-19T09:52:11Z</time></trkpt><trkpt lat="36.87942669866749" lon="14.955566608786757"><ele>118.66666666666666</ele><time>2026-04-19T09:52:12Z</time></trkpt><trkpt lat="36.87937631460515" lon="14.95546058015771"><ele>119.0</ele><time>2026-04-19T09:52:14Z</time></trkpt><trkpt lat="36.87939541055426" lon="14.955384842826787"><ele>119.0</ele><time>2026-04-19T09:52:16Z</time></trkpt><trkpt lat="36.87932437116999" lon="14.955310249635952"><ele>119.0</ele><time>2026-04-19T09:52:19Z</time></trkpt><trkpt lat="36.87926714519248" lon="14.955273348384258"><ele>119.0</ele><time>2026-04-19T09:52:20Z</time></trkpt><trkpt lat="36.879115302698715" lon="14.955183421283605"><ele>119.0</ele><time>2026-04-19T09:52:21Z</time></trkpt><trkpt lat="36.87905170929866" lon="14.955127736538207"><ele>119.0</ele><time>2026-04-19T09:52:22Z</time></trkpt><trkpt lat="36.87897842580431" lon="14.955019886126408"><ele>117.83333333333333</ele><time>2026-04-19T09:52:24Z</time></trkpt><trkpt lat="36.87891097887786" lon="14.954948925011506"><ele>116.66666666666666</ele><time>2026-04-19T09:52:25Z</time></trkpt><trkpt lat="36.878836017225154" lon="14.954880867064666"><ele>115.5</ele><time>2026-04-19T09:52:26Z</time></trkpt><trkpt lat="36.878754319109454" lon="14.954825919411517"><ele>114.33333333333334</ele><time>2026-04-19T09:52:27Z</time></trkpt><trkpt lat="36.87867360666704" lon="14.954767622011671"><ele>113.16666666666667</ele><time>2026-04-19T09:52:28Z</time></trkpt><trkpt lat="36.87860492721379" lon="14.954722066790943"><ele>112.0</ele><time>2026-04-19T09:52:29Z</time></trkpt><trkpt lat="36.878527237534534" lon="14.954674696553008"><ele>112.0</ele><time>2026-04-19T09:52:30Z</time></trkpt><trkpt lat="36.878451758942724" lon="14.954621925216879"><ele>111.99999999999999</ele><time>2026-04-19T09:52:31Z</time></trkpt><trkpt lat="36.87836363233828" lon="14.954596491064336"><ele>111.99999999999999</ele><time>2026-04-19T09:52:32Z</time></trkpt><trkpt lat="36.8782661229961" lon="14.954566654294632"><ele>112.0</ele><time>2026-04-19T09:52:33Z</time></trkpt><trkpt lat="36.87817006629363" lon="14.954533840906175"><ele>112.0</ele><time>2026-04-19T09:52:34Z</time></trkpt><trkpt lat="36.87808656712466" lon="14.954502190180692"><ele>111.66666666666667</ele><time>2026-04-19T09:52:35Z</time></trkpt><trkpt lat="36.87800188246505" lon="14.954469497242052"><ele>111.33333333333334</ele><time>2026-04-19T09:52:36Z</time></trkpt><trkpt lat="36.87791028231453" lon="14.954434568418806"><ele>111.0</ele><time>2026-04-19T09:52:37Z</time></trkpt><trkpt lat="36.87782891578581" lon="14.954402428730969"><ele>110.66666666666666</ele><time>2026-04-19T09:52:38Z</time></trkpt><trkpt lat="36.87775485401375" lon="14.954363957136039"><ele>110.33333333333333</ele><time>2026-04-19T09:52:39Z</time></trkpt><trkpt lat="36.8776853950411" lon="14.954326997699232"><ele>110.0</ele><time>2026-04-19T09:52:40Z</time></trkpt><trkpt lat="36.87760855923338" lon="14.95428985449331"><ele>109.16666666666666</ele><time>2026-04-19T09:52:41Z</time></trkpt><trkpt lat="36.87753353158179" lon="14.954241052437016"><ele>108.33333333333333</ele><time>2026-04-19T09:52:42Z</time></trkpt><trkpt lat="36.87746981223336" lon="14.954182563515594"><ele>107.5</ele><time>2026-04-19T09:52:43Z</time></trkpt><trkpt lat="36.87741236489632" lon="14.954125200342098"><ele>106.66666666666666</ele><time>2026-04-19T09:52:44Z</time></trkpt><trkpt lat="36.877352745473424" lon="14.954087996654657"><ele>105.83333333333333</ele><time>2026-04-19T09:52:45Z</time></trkpt><trkpt lat="36.877250142010304" lon="14.954047419867056"><ele>105.0</ele><time>2026-04-19T09:52:47Z</time></trkpt><trkpt lat="36.877135205934096" lon="14.954045957484672"><ele>104.57142857142857</ele><time>2026-04-19T09:52:49Z</time></trkpt><trkpt lat="36.877071525549646" lon="14.954057171273249"><ele>104.14285714285714</ele><time>2026-04-19T09:52:50Z</time></trkpt><trkpt lat="36.877006418505054" lon="14.954058729051564"><ele>103.71428571428572</ele><time>2026-04-19T09:52:51Z</time></trkpt><trkpt lat="36.876939551435015" lon="14.954056142752432"><ele>103.28571428571428</ele><time>2026-04-19T09:52:52Z</time></trkpt><trkpt lat="36.876871048830616" lon="14.954066422631453"><ele>102.85714285714286</ele><time>2026-04-19T09:52:53Z</time></trkpt><trkpt lat="36.876800740001016" lon="14.95408806507611"><ele>102.42857142857143</ele><time>2026-04-19T09:52:54Z</time></trkpt><trkpt lat="36.876729231774874" lon="14.954113526960892"><ele>102.0</ele><time>2026-04-19T09:52:55Z</time></trkpt><trkpt lat="36.8766681985907" lon="14.95413538230667"><ele>100.6</ele><time>2026-04-19T09:52:56Z</time></trkpt><trkpt lat="36.87657384789796" lon="14.954229949830564"><ele>99.19999999999999</ele><time>2026-04-19T09:52:58Z</time></trkpt><trkpt lat="36.87651043763619" lon="14.95431865536526"><ele>97.8</ele><time>2026-04-19T09:52:59Z</time></trkpt><trkpt lat="36.876445818664706" lon="14.954398892520858"><ele>96.4</ele><time>2026-04-19T09:53:00Z</time></trkpt><trkpt lat="36.876392757413456" lon="14.954467028514655"><ele>95.0</ele><time>2026-04-19T09:53:01Z</time></trkpt><trkpt lat="36.87635672156323" lon="14.954539831989438"><ele>95.0</ele><time>2026-04-19T09:53:02Z</time></trkpt><trkpt lat="36.8763279415879" lon="14.954615818069723"><ele>95.0</ele><time>2026-04-19T09:53:03Z</time></trkpt><trkpt lat="36.87630127126292" lon="14.954692788336049"><ele>95.0</ele><time>2026-04-19T09:53:04Z</time></trkpt><trkpt lat="36.87626863056476" lon="14.954827858718794"><ele>95.0</ele><time>2026-04-19T09:53:06Z</time></trkpt><trkpt lat="36.87620670735967" lon="14.954877799997227"><ele>95.0</ele><time>2026-04-19T09:53:08Z</time></trkpt><trkpt lat="36.87607914871006" lon="14.954853294050183"><ele>95.0</ele><time>2026-04-19T09:53:10Z</time></trkpt><trkpt lat="36.87596695944421" lon="14.95484106445302"><ele>95.0</ele><time>2026-04-19T09:53:12Z</time></trkpt><trkpt lat="36.87589685442272" lon="14.954864997830981"><ele>95.0</ele><time>2026-04-19T09:53:16Z</time></trkpt><trkpt lat="36.87578382201539" lon="14.954899033710394"><ele>95.0</ele><time>2026-04-19T09:53:19Z</time></trkpt><trkpt lat="36.87571822315966" lon="14.954921456410935"><ele>95.0</ele><time>2026-04-19T09:53:20Z</time></trkpt><trkpt lat="36.87563429405718" lon="14.954966413848009"><ele>93.0</ele><time>2026-04-19T09:53:22Z</time></trkpt><trkpt lat="36.87558894286901" lon="14.955023217426128"><ele>91.0</ele><time>2026-04-19T09:53:40.001Z</time></trkpt><trkpt lat="36.875516303514054" lon="14.955120135577328"><ele>89.0</ele><time>2026-04-19T09:53:42.001Z</time></trkpt><trkpt lat="36.87542523445882" lon="14.955239438025494"><ele>87.0</ele><time>2026-04-19T09:53:44.001Z</time></trkpt><trkpt lat="36.875374455386286" lon="14.955320292451155"><ele>85.0</ele><time>2026-04-19T09:53:46.001Z</time></trkpt><trkpt lat="36.87536795549109" lon="14.955407127651156"><ele>84.8</ele><time>2026-04-19T09:53:48.001Z</time></trkpt><trkpt lat="36.875294564144326" lon="14.95547792286144"><ele>84.6</ele><time>2026-04-19T09:53:52.001Z</time></trkpt><trkpt lat="36.87521404513458" lon="14.955518165839157"><ele>84.4</ele><time>2026-04-19T09:53:54.001Z</time></trkpt><trkpt lat="36.87511352967415" lon="14.955575560220218"><ele>84.2</ele><time>2026-04-19T09:53:56Z</time></trkpt><trkpt lat="36.875024802440905" lon="14.955629901201942"><ele>84.0</ele><time>2026-04-19T09:53:58Z</time></trkpt><trkpt lat="36.87493456483393" lon="14.955686428061432"><ele>84.83333333333333</ele><time>2026-04-19T09:54:00Z</time></trkpt><trkpt lat="36.87484253997985" lon="14.955741907306383"><ele>85.66666666666667</ele><time>2026-04-19T09:54:02Z</time></trkpt><trkpt lat="36.87477618644684" lon="14.955780441812744"><ele>86.5</ele><time>2026-04-19T09:54:04Z</time></trkpt><trkpt lat="36.87470838290512" lon="14.955790739848762"><ele>87.33333333333334</ele><time>2026-04-19T09:54:07Z</time></trkpt><trkpt lat="36.87463023808019" lon="14.955744712450906"><ele>88.16666666666667</ele><time>2026-04-19T09:54:09Z</time></trkpt><trkpt lat="36.87452858450316" lon="14.955711481762604"><ele>89.0</ele><time>2026-04-19T09:54:11Z</time></trkpt><trkpt lat="36.874425762575676" lon="14.955669359644173"><ele>89.0</ele><time>2026-04-19T09:54:13Z</time></trkpt><trkpt lat="36.87435568212883" lon="14.955633139774047"><ele>89.0</ele><time>2026-04-19T09:54:15Z</time></trkpt><trkpt lat="36.874293915360525" lon="14.955604819033692"><ele>89.0</ele><time>2026-04-19T09:54:18Z</time></trkpt><trkpt lat="36.874324716912476" lon="14.955490272167445"><ele>89.0</ele><time>2026-04-19T09:54:22Z</time></trkpt><trkpt lat="36.87442103967714" lon="14.955409154901966"><ele>89.0</ele><time>2026-04-19T09:54:24Z</time></trkpt><trkpt lat="36.87447090889941" lon="14.955339150338036"><ele>89.0</ele><time>2026-04-19T09:54:26Z</time></trkpt><trkpt lat="36.874464735231044" lon="14.955246107427387"><ele>89.0</ele><time>2026-04-19T09:54:28Z</time></trkpt><trkpt lat="36.87441340251306" lon="14.955131786936835"><ele>89.0</ele><time>2026-04-19T09:54:30Z</time></trkpt><trkpt lat="36.87435250101378" lon="14.955006095268251"><ele>89.0</ele><time>2026-04-19T09:54:32Z</time></trkpt><trkpt lat="36.87431731326317" lon="14.954926105575572"><ele>89.0</ele><time>2026-04-19T09:54:33Z</time></trkpt><trkpt lat="36.87428009432821" lon="14.95483132622633"><ele>89.0</ele><time>2026-04-19T09:54:34Z</time></trkpt><trkpt lat="36.874238544641265" lon="14.954727925144102"><ele>91.80000000000001</ele><time>2026-04-19T09:54:35Z</time></trkpt><trkpt lat="36.87420549723515" lon="14.954640571719894"><ele>94.60000000000001</ele><time>2026-04-19T09:54:36Z</time></trkpt><trkpt lat="36.874139617625794" lon="14.954507733352534"><ele>97.4</ele><time>2026-04-19T09:54:38Z</time></trkpt><trkpt lat="36.87406590948062" lon="14.95439439064777"><ele>100.2</ele><time>2026-04-19T09:54:40Z</time></trkpt><trkpt lat="36.87403098982127" lon="14.954277196817646"><ele>103.0</ele><time>2026-04-19T09:54:42Z</time></trkpt><trkpt lat="36.87400631538077" lon="14.954194346131448"><ele>104.33333333333334</ele><time>2026-04-19T09:54:43Z</time></trkpt><trkpt lat="36.87397598417053" lon="14.954095359995787"><ele>105.66666666666667</ele><time>2026-04-19T09:54:44Z</time></trkpt><trkpt lat="36.87395463894432" lon="14.954003699636063"><ele>107.0</ele><time>2026-04-19T09:54:45Z</time></trkpt><trkpt lat="36.87393966453046" lon="14.95392458593749"><ele>108.33333333333334</ele><time>2026-04-19T09:54:46Z</time></trkpt><trkpt lat="36.87392668513825" lon="14.953847406446915"><ele>109.66666666666667</ele><time>2026-04-19T09:54:47Z</time></trkpt><trkpt lat="36.873917140078454" lon="14.953721690585978"><ele>111.0</ele><time>2026-04-19T09:54:49Z</time></trkpt><trkpt lat="36.87391109838103" lon="14.953601515154334"><ele>111.0</ele><time>2026-04-19T09:54:51Z</time></trkpt><trkpt lat="36.873870091251455" lon="14.953474567295222"><ele>111.0</ele><time>2026-04-19T09:54:53Z</time></trkpt><trkpt lat="36.873819162514216" lon="14.953367137265172"><ele>111.0</ele><time>2026-04-19T09:54:55Z</time></trkpt><trkpt lat="36.873755726427774" lon="14.953323860651887"><ele>111.0</ele><time>2026-04-19T09:54:57Z</time></trkpt><trkpt lat="36.873786385126316" lon="14.953210849526096"><ele>111.0</ele><time>2026-04-19T09:55:04Z</time></trkpt><trkpt lat="36.87384132531483" lon="14.953130739192863"><ele>112.0</ele><time>2026-04-19T09:55:06Z</time></trkpt><trkpt lat="36.87388048021979" lon="14.953060891914733"><ele>113.0</ele><time>2026-04-19T09:55:08Z</time></trkpt><trkpt lat="36.87394308387536" lon="14.953000868697298"><ele>114.0</ele><time>2026-04-19T09:55:11.001Z</time></trkpt><trkpt lat="36.87399596051991" lon="14.95293039717128"><ele>115.0</ele><time>2026-04-19T09:55:13.001Z</time></trkpt><trkpt lat="36.874016127190764" lon="14.952854536745823"><ele>116.0</ele><time>2026-04-19T09:55:16.001Z</time></trkpt><trkpt lat="36.874017506204325" lon="14.952728685058524"><ele>117.0</ele><time>2026-04-19T09:55:18.001Z</time></trkpt><trkpt lat="36.87402016138322" lon="14.952641847686806"><ele>117.0</ele><time>2026-04-19T09:55:21.001Z</time></trkpt><trkpt lat="36.87400264085719" lon="14.952536781646971"><ele>117.0</ele><time>2026-04-19T09:55:25.001Z</time></trkpt><trkpt lat="36.87392829933649" lon="14.952489494832223"><ele>117.0</ele><time>2026-04-19T09:55:28.001Z</time></trkpt><trkpt lat="36.87386499787261" lon="14.952455801016248"><ele>117.0</ele><time>2026-04-19T09:55:33.001Z</time></trkpt><trkpt lat="36.873922695395294" lon="14.952501353111618"><ele>117.0</ele><time>2026-04-19T09:55:48.001Z</time></trkpt><trkpt lat="36.87399679408434" lon="14.952461303862446"><ele>117.0</ele><time>2026-04-19T09:55:51.001Z</time></trkpt><trkpt lat="36.87404779495814" lon="14.952403339939549"><ele>117.0</ele><time>2026-04-19T09:55:54.001Z</time></trkpt><trkpt lat="36.87405015824112" lon="14.952271121018441"><ele>117.0</ele><time>2026-04-19T09:55:56.001Z</time></trkpt><trkpt lat="36.874056099844246" lon="14.952174963214876"><ele>117.0</ele><time>2026-04-19T09:55:58.001Z</time></trkpt><trkpt lat="36.874064886703046" lon="14.952084151363588"><ele>117.0</ele><time>2026-04-19T09:56:01Z</time></trkpt><trkpt lat="36.87404937103176" lon="14.95199061533593"><ele>117.0</ele><time>2026-04-19T09:56:04Z</time></trkpt><trkpt lat="36.874012681970214" lon="14.951902935026297"><ele>117.0</ele><time>2026-04-19T09:56:08Z</time></trkpt><trkpt lat="36.87397855673681" lon="14.95183052824575"><ele>117.0</ele><time>2026-04-19T09:56:14Z</time></trkpt><trkpt lat="36.873930384208705" lon="14.951773812863722"><ele>117.0</ele><time>2026-04-19T09:56:17Z</time></trkpt><trkpt lat="36.87391608676766" lon="14.95164633716679"><ele>117.0</ele><time>2026-04-19T09:56:27Z</time></trkpt><trkpt lat="36.873904151527135" lon="14.951553213670303"><ele>117.0</ele><time>2026-04-19T09:56:28Z</time></trkpt><trkpt lat="36.873892690640915" lon="14.95144901807923"><ele>117.0</ele><time>2026-04-19T09:56:29Z</time></trkpt><trkpt lat="36.87387418860585" lon="14.951316491561114"><ele>117.0</ele><time>2026-04-19T09:56:30Z</time></trkpt><trkpt lat="36.873861285796515" lon="14.951154145757803"><ele>117.0</ele><time>2026-04-19T09:56:31Z</time></trkpt><trkpt lat="36.873857064842596" lon="14.950984825458406"><ele>117.0</ele><time>2026-04-19T09:56:32Z</time></trkpt><trkpt lat="36.87385324337043" lon="14.950831545540442"><ele>117.0</ele><time>2026-04-19T09:56:33Z</time></trkpt><trkpt lat="36.873859138273225" lon="14.95068434903262"><ele>117.0</ele><time>2026-04-19T09:56:34Z</time></trkpt><trkpt lat="36.87386886664426" lon="14.950531388321233"><ele>117.5</ele><time>2026-04-19T09:56:35Z</time></trkpt><trkpt lat="36.87387599569571" lon="14.950387812242395"><ele>118.0</ele><time>2026-04-19T09:56:36Z</time></trkpt><trkpt lat="36.87388167552765" lon="14.950256958241107"><ele>118.5</ele><time>2026-04-19T09:56:37Z</time></trkpt><trkpt lat="36.87388893554564" lon="14.950118412122558"><ele>119.0</ele><time>2026-04-19T09:56:38Z</time></trkpt><trkpt lat="36.87390033523845" lon="14.949965391113782"><ele>120.4</ele><time>2026-04-19T09:56:39Z</time></trkpt><trkpt lat="36.87391155221545" lon="14.949822311252777"><ele>121.80000000000001</ele><time>2026-04-19T09:56:40Z</time></trkpt><trkpt lat="36.873932716140395" lon="14.949707717296148"><ele>123.19999999999999</ele><time>2026-04-19T09:56:41Z</time></trkpt><trkpt lat="36.87398808944253" lon="14.949631387797046"><ele>124.6</ele><time>2026-04-19T09:56:42Z</time></trkpt><trkpt lat="36.87404524924152" lon="14.949532559683977"><ele>126.0</ele><time>2026-04-19T09:56:43Z</time></trkpt><trkpt lat="36.874088214416844" lon="14.949420885309548"><ele>126.0</ele><time>2026-04-19T09:56:44Z</time></trkpt><trkpt lat="36.874137289252374" lon="14.949312743066175"><ele>126.0</ele><time>2026-04-19T09:56:45Z</time></trkpt><trkpt lat="36.87418135772599" lon="14.94916994200614"><ele>126.0</ele><time>2026-04-19T09:56:46Z</time></trkpt><trkpt lat="36.8742175832167" lon="14.949048083072356"><ele>126.0</ele><time>2026-04-19T09:56:47Z</time></trkpt><trkpt lat="36.874287356802164" lon="14.948973121372456"><ele>126.0</ele><time>2026-04-19T09:56:48Z</time></trkpt><trkpt lat="36.87435455243016" lon="14.94887877695964"><ele>126.8</ele><time>2026-04-19T09:56:49Z</time></trkpt><trkpt lat="36.87444844014564" lon="14.948794673397309"><ele>127.6</ele><time>2026-04-19T09:56:50Z</time></trkpt><trkpt lat="36.874538748671476" lon="14.948720358987392"><ele>128.4</ele><time>2026-04-19T09:56:51Z</time></trkpt><trkpt lat="36.87461652401492" lon="14.948662616482004"><ele>129.2</ele><time>2026-04-19T09:56:52Z</time></trkpt><trkpt lat="36.874683845877726" lon="14.948633756848446"><ele>130.0</ele><time>2026-04-19T09:56:53Z</time></trkpt><trkpt lat="36.874680463257555" lon="14.948503672353812"><ele>130.0</ele><time>2026-04-19T09:56:54Z</time></trkpt><trkpt lat="36.87473739298082" lon="14.948394961087372"><ele>130.0</ele><time>2026-04-19T09:56:55Z</time></trkpt><trkpt lat="36.874792557473825" lon="14.948283032387083"><ele>130.0</ele><time>2026-04-19T09:56:56Z</time></trkpt><trkpt lat="36.87482565806591" lon="14.948182730257535"><ele>130.0</ele><time>2026-04-19T09:56:57Z</time></trkpt><trkpt lat="36.87480820489429" lon="14.948059221171512"><ele>130.0</ele><time>2026-04-19T09:56:58Z</time></trkpt><trkpt lat="36.874816615593105" lon="14.947896209984538"><ele>131.0</ele><time>2026-04-19T09:56:59Z</time></trkpt><trkpt lat="36.87484000729483" lon="14.94772209212098"><ele>132.0</ele><time>2026-04-19T09:57:00Z</time></trkpt><trkpt lat="36.874840331058266" lon="14.947555092118215"><ele>133.0</ele><time>2026-04-19T09:57:01Z</time></trkpt><trkpt lat="36.874832168745954" lon="14.947414334064156"><ele>134.0</ele><time>2026-04-19T09:57:02Z</time></trkpt><trkpt lat="36.87480515897734" lon="14.947280717464105"><ele>134.4</ele><time>2026-04-19T09:57:03Z</time></trkpt><trkpt lat="36.87478883708599" lon="14.947140903197866"><ele>134.8</ele><time>2026-04-19T09:57:04Z</time></trkpt><trkpt lat="36.87475514886181" lon="14.947016186604595"><ele>135.2</ele><time>2026-04-19T09:57:05Z</time></trkpt><trkpt lat="36.87469780746397" lon="14.946909179937974"><ele>135.6</ele><time>2026-04-19T09:57:06Z</time></trkpt><trkpt lat="36.87463395995261" lon="14.946805565378986"><ele>136.0</ele><time>2026-04-19T09:57:07Z</time></trkpt><trkpt lat="36.87454805586559" lon="14.946709350113165"><ele>136.0</ele><time>2026-04-19T09:57:08Z</time></trkpt><trkpt lat="36.87443604687629" lon="14.946607466090953"><ele>136.0</ele><time>2026-04-19T09:57:09Z</time></trkpt><trkpt lat="36.87431649842187" lon="14.94648513949804"><ele>136.0</ele><time>2026-04-19T09:57:10Z</time></trkpt><trkpt lat="36.87418932338915" lon="14.946380838190755"><ele>136.0</ele><time>2026-04-19T09:57:11Z</time></trkpt><trkpt lat="36.87406194749305" lon="14.946268930133936"><ele>134.0</ele><time>2026-04-19T09:57:12Z</time></trkpt><trkpt lat="36.873906048847346" lon="14.946141804154106"><ele>132.0</ele><time>2026-04-19T09:57:13Z</time></trkpt><trkpt lat="36.87376800630024" lon="14.946009790569988"><ele>130.0</ele><time>2026-04-19T09:57:14Z</time></trkpt><trkpt lat="36.87363799197788" lon="14.945888190365169"><ele>130.33333333333334</ele><time>2026-04-19T09:57:15Z</time></trkpt><trkpt lat="36.87349805462157" lon="14.945769572922599"><ele>130.66666666666666</ele><time>2026-04-19T09:57:16Z</time></trkpt><trkpt lat="36.873354658407216" lon="14.945659241303519"><ele>131.0</ele><time>2026-04-19T09:57:17Z</time></trkpt><trkpt lat="36.87322991176639" lon="14.9455612818484"><ele>131.0</ele><time>2026-04-19T09:57:18Z</time></trkpt><trkpt lat="36.87310487836321" lon="14.945477002596002"><ele>131.0</ele><time>2026-04-19T09:57:19Z</time></trkpt><trkpt lat="36.872967318011405" lon="14.945410733235141"><ele>131.0</ele><time>2026-04-19T09:57:20Z</time></trkpt><trkpt lat="36.87281972077741" lon="14.945356586320607"><ele>131.0</ele><time>2026-04-19T09:57:21Z</time></trkpt><trkpt lat="36.87264480431202" lon="14.9452988510755"><ele>132.0</ele><time>2026-04-19T09:57:22Z</time></trkpt><trkpt lat="36.87247291733887" lon="14.945237940343134"><ele>133.0</ele><time>2026-04-19T09:57:23Z</time></trkpt><trkpt lat="36.87230173175831" lon="14.945177965973329"><ele>134.0</ele><time>2026-04-19T09:57:24Z</time></trkpt><trkpt lat="36.87215229115261" lon="14.94512164458554"><ele>134.0</ele><time>2026-04-19T09:57:25Z</time></trkpt><trkpt lat="36.872023580513456" lon="14.945075114338069"><ele>134.0</ele><time>2026-04-19T09:57:26Z</time></trkpt><trkpt lat="36.871923713848055" lon="14.945037170284245"><ele>134.0</ele><time>2026-04-19T09:57:27Z</time></trkpt><trkpt lat="36.87183158894965" lon="14.945002853023466"><ele>134.0</ele><time>2026-04-19T09:57:28Z</time></trkpt><trkpt lat="36.871758180565024" lon="14.944975184460972"><ele>134.0</ele><time>2026-04-19T09:57:29Z</time></trkpt><trkpt lat="36.871682434916934" lon="14.944951297522328"><ele>134.2</ele><time>2026-04-19T09:57:31Z</time></trkpt><trkpt lat="36.87160916058081" lon="14.9449345557945"><ele>134.4</ele><time>2026-04-19T09:57:58.001Z</time></trkpt><trkpt lat="36.871574583503126" lon="14.94511923554914"><ele>134.6</ele><time>2026-04-19T09:57:59.001Z</time></trkpt><trkpt lat="36.87153825817415" lon="14.945230210445734"><ele>134.8</ele><time>2026-04-19T09:58:00.001Z</time></trkpt><trkpt lat="36.87151241159506" lon="14.945370083544265"><ele>135.0</ele><time>2026-04-19T09:58:01.001Z</time></trkpt><trkpt lat="36.87148531735556" lon="14.945516708581557"><ele>135.0</ele><time>2026-04-19T09:58:02.001Z</time></trkpt><trkpt lat="36.87145779960061" lon="14.94566562554674"><ele>135.0</ele><time>2026-04-19T09:58:03.001Z</time></trkpt><trkpt lat="36.87142908898141" lon="14.945820997892245"><ele>135.0</ele><time>2026-04-19T09:58:04.001Z</time></trkpt><trkpt lat="36.87139940537597" lon="14.945978882608985"><ele>135.0</ele><time>2026-04-19T09:58:05.001Z</time></trkpt><trkpt lat="36.87136615333714" lon="14.946143238448025"><ele>134.0</ele><time>2026-04-19T09:58:06.001Z</time></trkpt><trkpt lat="36.871325103797" lon="14.946304552679484"><ele>133.0</ele><time>2026-04-19T09:58:07Z</time></trkpt><trkpt lat="36.871266374352494" lon="14.946438116887263"><ele>132.0</ele><time>2026-04-19T09:58:08Z</time></trkpt><trkpt lat="36.8711896423212" lon="14.946563790447819"><ele>131.0</ele><time>2026-04-19T09:58:09Z</time></trkpt><trkpt lat="36.871081282666815" lon="14.946649255761582"><ele>131.0</ele><time>2026-04-19T09:58:10Z</time></trkpt><trkpt lat="36.87094500751815" lon="14.946696193814708"><ele>131.0</ele><time>2026-04-19T09:58:11Z</time></trkpt><trkpt lat="36.87080801594622" lon="14.946715750912892"><ele>131.0</ele><time>2026-04-19T09:58:12Z</time></trkpt><trkpt lat="36.87068129731804" lon="14.946718554027266"><ele>131.0</ele><time>2026-04-19T09:58:13Z</time></trkpt><trkpt lat="36.87057102264527" lon="14.946723693487833"><ele>130.4</ele><time>2026-04-19T09:58:14Z</time></trkpt><trkpt lat="36.87047406949557" lon="14.94673677949363"><ele>129.8</ele><time>2026-04-19T09:58:15Z</time></trkpt><trkpt lat="36.87038278566494" lon="14.946745896820406"><ele>129.20000000000002</ele><time>2026-04-19T09:58:16Z</time></trkpt><trkpt lat="36.870291182291645" lon="14.946756144529255"><ele>128.6</ele><time>2026-04-19T09:58:17Z</time></trkpt><trkpt lat="36.870195479479726" lon="14.946766356507437"><ele>128.0</ele><time>2026-04-19T09:58:18Z</time></trkpt><trkpt lat="36.87008492146283" lon="14.946777347584478"><ele>127.25</ele><time>2026-04-19T09:58:19Z</time></trkpt><trkpt lat="36.86996454966467" lon="14.946789728403028"><ele>126.5</ele><time>2026-04-19T09:58:20Z</time></trkpt><trkpt lat="36.869843629503585" lon="14.946803802071495"><ele>125.75</ele><time>2026-04-19T09:58:21Z</time></trkpt><trkpt lat="36.869730279390744" lon="14.946816875353832"><ele>125.0</ele><time>2026-04-19T09:58:22Z</time></trkpt><trkpt lat="36.869621647424395" lon="14.946828703674687"><ele>125.0</ele><time>2026-04-19T09:58:23Z</time></trkpt><trkpt lat="36.8695122117201" lon="14.946835846947383"><ele>125.0</ele><time>2026-04-19T09:58:24Z</time></trkpt><trkpt lat="36.869392108318095" lon="14.946857364152804"><ele>125.0</ele><time>2026-04-19T09:58:25Z</time></trkpt><trkpt lat="36.86926266464855" lon="14.94688231313269"><ele>125.0</ele><time>2026-04-19T09:58:26Z</time></trkpt><trkpt lat="36.86913002401381" lon="14.946904050582882"><ele>124.0</ele><time>2026-04-19T09:58:27Z</time></trkpt><trkpt lat="36.86899539069318" lon="14.946919508852814"><ele>123.0</ele><time>2026-04-19T09:58:28Z</time></trkpt><trkpt lat="36.86886042606196" lon="14.946940386946176"><ele>122.0</ele><time>2026-04-19T09:58:29Z</time></trkpt><trkpt lat="36.868726789374605" lon="14.946954809820587"><ele>121.0</ele><time>2026-04-19T09:58:30Z</time></trkpt><trkpt lat="36.86859349677232" lon="14.946961444206195"><ele>121.0</ele><time>2026-04-19T09:58:31Z</time></trkpt><trkpt lat="36.868454650400366" lon="14.94697834686112"><ele>121.0</ele><time>2026-04-19T09:58:32Z</time></trkpt><trkpt lat="36.86830652467394" lon="14.947005190859455"><ele>121.0</ele><time>2026-04-19T09:58:33Z</time></trkpt><trkpt lat="36.86815669250068" lon="14.947045795837763"><ele>121.0</ele><time>2026-04-19T09:58:34Z</time></trkpt><trkpt lat="36.86801063776314" lon="14.947092695983505"><ele>120.0</ele><time>2026-04-19T09:58:35Z</time></trkpt><trkpt lat="36.8678629959372" lon="14.94713821040884"><ele>119.0</ele><time>2026-04-19T09:58:36Z</time></trkpt><trkpt lat="36.86772340409405" lon="14.9471721896483"><ele>118.0</ele><time>2026-04-19T09:58:37Z</time></trkpt><trkpt lat="36.86759032713329" lon="14.947202469952577"><ele>117.0</ele><time>2026-04-19T09:58:38Z</time></trkpt><trkpt lat="36.867460203846875" lon="14.947221758135864"><ele>114.25</ele><time>2026-04-19T09:58:39Z</time></trkpt><trkpt lat="36.867325030998934" lon="14.947226294076888"><ele>111.5</ele><time>2026-04-19T09:58:40Z</time></trkpt><trkpt lat="36.86718911022657" lon="14.947205996615063"><ele>108.75</ele><time>2026-04-19T09:58:41Z</time></trkpt><trkpt lat="36.8670657764428" lon="14.947166481811582"><ele>106.0</ele><time>2026-04-19T09:58:42Z</time></trkpt><trkpt lat="36.86695575444539" lon="14.947125380889117"><ele>106.0</ele><time>2026-04-19T09:58:43Z</time></trkpt><trkpt lat="36.86685331187467" lon="14.947122216685436"><ele>106.0</ele><time>2026-04-19T09:58:44Z</time></trkpt><trkpt lat="36.86675547572722" lon="14.947165092638388"><ele>106.0</ele><time>2026-04-19T09:58:45Z</time></trkpt><trkpt lat="36.86666720196599" lon="14.94724764633813"><ele>106.0</ele><time>2026-04-19T09:58:46Z</time></trkpt><trkpt lat="36.86659292419304" lon="14.947358548743638"><ele>106.0</ele><time>2026-04-19T09:58:47Z</time></trkpt><trkpt lat="36.86652051263807" lon="14.94749890336217"><ele>105.0</ele><time>2026-04-19T09:58:48Z</time></trkpt><trkpt lat="36.86643108162822" lon="14.947649158344381"><ele>104.0</ele><time>2026-04-19T09:58:49Z</time></trkpt><trkpt lat="36.86633772153" lon="14.947777343434236"><ele>103.0</ele><time>2026-04-19T09:58:50Z</time></trkpt><trkpt lat="36.86627915890391" lon="14.947910554234241"><ele>102.0</ele><time>2026-04-19T09:58:51Z</time></trkpt><trkpt lat="36.86628344171444" lon="14.948060293107826"><ele>102.0</ele><time>2026-04-19T09:58:52Z</time></trkpt><trkpt lat="36.866302799486114" lon="14.94819697344847"><ele>102.0</ele><time>2026-04-19T09:58:53Z</time></trkpt><trkpt lat="36.86635424264455" lon="14.948330497671481"><ele>102.0</ele><time>2026-04-19T09:58:54Z</time></trkpt><trkpt lat="36.8664263506375" lon="14.948455434420694"><ele>102.0</ele><time>2026-04-19T09:58:55Z</time></trkpt><trkpt lat="36.86648430484345" lon="14.948595032217915"><ele>102.39999999999999</ele><time>2026-04-19T09:58:56Z</time></trkpt><trkpt lat="36.86654241000494" lon="14.948710580542825"><ele>102.8</ele><time>2026-04-19T09:58:57Z</time></trkpt><trkpt lat="36.866574162053816" lon="14.94882309150973"><ele>103.2</ele><time>2026-04-19T09:58:58Z</time></trkpt><trkpt lat="36.86657162989445" lon="14.948938182582614"><ele>103.6</ele><time>2026-04-19T09:58:59Z</time></trkpt><trkpt lat="36.86653842494404" lon="14.949035068656142"><ele>104.0</ele><time>2026-04-19T09:59:00Z</time></trkpt><trkpt lat="36.86648400673444" lon="14.949100652770204"><ele>104.0</ele><time>2026-04-19T09:59:01Z</time></trkpt><trkpt lat="36.8664024376642" lon="14.94919283652894"><ele>104.0</ele><time>2026-04-19T09:59:02Z</time></trkpt><trkpt lat="36.866301620889686" lon="14.94929753760529"><ele>104.0</ele><time>2026-04-19T09:59:03Z</time></trkpt><trkpt lat="36.86618732171015" lon="14.949410644364738"><ele>104.0</ele><time>2026-04-19T09:59:04Z</time></trkpt><trkpt lat="36.866074638851366" lon="14.949539020913539"><ele>104.75</ele><time>2026-04-19T09:59:05Z</time></trkpt><trkpt lat="36.86595148239488" lon="14.949638144153106"><ele>105.5</ele><time>2026-04-19T09:59:06Z</time></trkpt><trkpt lat="36.865835571964865" lon="14.949751734421705"><ele>106.25</ele><time>2026-04-19T09:59:07Z</time></trkpt><trkpt lat="36.86572722204123" lon="14.949882919516014"><ele>107.0</ele><time>2026-04-19T09:59:08Z</time></trkpt><trkpt lat="36.86560370556553" lon="14.949996308140744"><ele>109.75</ele><time>2026-04-19T09:59:09Z</time></trkpt><trkpt lat="36.86548920003912" lon="14.950105731093078"><ele>112.5</ele><time>2026-04-19T09:59:10Z</time></trkpt><trkpt lat="36.865381710500294" lon="14.950209337378697"><ele>115.25</ele><time>2026-04-19T09:59:11Z</time></trkpt><trkpt lat="36.86527286318268" lon="14.950318825741663"><ele>118.0</ele><time>2026-04-19T09:59:12Z</time></trkpt><trkpt lat="36.86516678342591" lon="14.950423541446966"><ele>118.75</ele><time>2026-04-19T09:59:13Z</time></trkpt><trkpt lat="36.865066662974485" lon="14.950528162232391"><ele>119.5</ele><time>2026-04-19T09:59:14Z</time></trkpt><trkpt lat="36.864967668938284" lon="14.950628494987242"><ele>120.25</ele><time>2026-04-19T09:59:15Z</time></trkpt><trkpt lat="36.86486576164254" lon="14.950731079184033"><ele>121.0</ele><time>2026-04-19T09:59:16Z</time></trkpt><trkpt lat="36.8647439343233" lon="14.950849383820385"><ele>120.66666666666667</ele><time>2026-04-19T09:59:17Z</time></trkpt><trkpt lat="36.86459914162368" lon="14.95099013386183"><ele>120.33333333333334</ele><time>2026-04-19T09:59:18Z</time></trkpt><trkpt lat="36.86444990891364" lon="14.95114148977963"><ele>120.0</ele><time>2026-04-19T09:59:19Z</time></trkpt><trkpt lat="36.86429838062424" lon="14.951298429588709"><ele>122.33333333333334</ele><time>2026-04-19T09:59:20Z</time></trkpt><trkpt lat="36.86413098442794" lon="14.951440228828275"><ele>124.66666666666667</ele><time>2026-04-19T09:59:21Z</time></trkpt><trkpt lat="36.863964328933726" lon="14.951604758782656"><ele>127.0</ele><time>2026-04-19T09:59:22Z</time></trkpt><trkpt lat="36.86381076643669" lon="14.951753414169893"><ele>127.0</ele><time>2026-04-19T09:59:23Z</time></trkpt><trkpt lat="36.86367851415499" lon="14.951881440306392"><ele>127.0</ele><time>2026-04-19T09:59:24Z</time></trkpt><trkpt lat="36.863554245917534" lon="14.95200173752411"><ele>127.0</ele><time>2026-04-19T09:59:25Z</time></trkpt><trkpt lat="36.86341374552007" lon="14.952139526573895"><ele>127.33333333333334</ele><time>2026-04-19T09:59:26Z</time></trkpt><trkpt lat="36.863256859947526" lon="14.952293879603287"><ele>127.66666666666666</ele><time>2026-04-19T09:59:27Z</time></trkpt><trkpt lat="36.86310601084035" lon="14.952438686567291"><ele>128.0</ele><time>2026-04-19T09:59:28Z</time></trkpt><trkpt lat="36.86296833905143" lon="14.952553479856057"><ele>128.0</ele><time>2026-04-19T09:59:29Z</time></trkpt><trkpt lat="36.86283030581771" lon="14.952644698017128"><ele>128.0</ele><time>2026-04-19T09:59:30Z</time></trkpt><trkpt lat="36.8626648791785" lon="14.952730707848186"><ele>128.0</ele><time>2026-04-19T09:59:31Z</time></trkpt><trkpt lat="36.862472064568124" lon="14.952818897220252"><ele>129.5</ele><time>2026-04-19T09:59:32Z</time></trkpt><trkpt lat="36.862263095341476" lon="14.952919154633527"><ele>131.0</ele><time>2026-04-19T09:59:33Z</time></trkpt><trkpt lat="36.86205397670331" lon="14.953043502581492"><ele>131.0</ele><time>2026-04-19T09:59:34Z</time></trkpt><trkpt lat="36.86183764181066" lon="14.953146944160174"><ele>131.0</ele><time>2026-04-19T09:59:35Z</time></trkpt><trkpt lat="36.861615161402845" lon="14.953254811520168"><ele>131.5</ele><time>2026-04-19T09:59:36Z</time></trkpt><trkpt lat="36.86138448223866" lon="14.953362734526735"><ele>132.0</ele><time>2026-04-19T09:59:37Z</time></trkpt><trkpt lat="36.861150822923406" lon="14.953473639943665"><ele>132.0</ele><time>2026-04-19T09:59:38Z</time></trkpt><trkpt lat="36.86093232073759" lon="14.95357730754822"><ele>132.0</ele><time>2026-04-19T09:59:39.001Z</time></trkpt><trkpt lat="36.86072172229238" lon="14.95368104914462"><ele>132.0</ele><time>2026-04-19T09:59:40.001Z</time></trkpt><trkpt lat="36.860508562766015" lon="14.953785902962307"><ele>132.0</ele><time>2026-04-19T09:59:41.001Z</time></trkpt><trkpt lat="36.86030138576018" lon="14.95388622903281"><ele>133.33333333333334</ele><time>2026-04-19T09:59:42.001Z</time></trkpt><trkpt lat="36.86009721414732" lon="14.953981881307797"><ele>134.66666666666669</ele><time>2026-04-19T09:59:43.001Z</time></trkpt><trkpt lat="36.85990302959974" lon="14.954072730552863"><ele>136.0</ele><time>2026-04-19T09:59:44.001Z</time></trkpt><trkpt lat="36.85972944413426" lon="14.954153432019766"><ele>135.33333333333334</ele><time>2026-04-19T09:59:45.001Z</time></trkpt><trkpt lat="36.85957340673592" lon="14.954228217083603"><ele>134.66666666666666</ele><time>2026-04-19T09:59:46.001Z</time></trkpt><trkpt lat="36.85941696308781" lon="14.954283424348677"><ele>134.0</ele><time>2026-04-19T09:59:47.001Z</time></trkpt><trkpt lat="36.85924992696908" lon="14.9543630583052"><ele>134.0</ele><time>2026-04-19T09:59:48.001Z</time></trkpt><trkpt lat="36.859068411526984" lon="14.954448800589907"><ele>134.0</ele><time>2026-04-19T09:59:49.001Z</time></trkpt><trkpt lat="36.85888749372467" lon="14.954533597976496"><ele>134.0</ele><time>2026-04-19T09:59:50.001Z</time></trkpt><trkpt lat="36.85870717716688" lon="14.954618552263685"><ele>134.0</ele><time>2026-04-19T09:59:51.001Z</time></trkpt><trkpt lat="36.85853596438732" lon="14.954702193038289"><ele>134.0</ele><time>2026-04-19T09:59:52.001Z</time></trkpt><trkpt lat="36.858375263524174" lon="14.954780698520176"><ele>134.0</ele><time>2026-04-19T09:59:53.001Z</time></trkpt><trkpt lat="36.858221003593854" lon="14.954856073779844"><ele>133.75</ele><time>2026-04-19T09:59:54.001Z</time></trkpt><trkpt lat="36.858089066483146" lon="14.954939287832033"><ele>133.5</ele><time>2026-04-19T09:59:55.001Z</time></trkpt><trkpt lat="36.85795916476297" lon="14.954994694478545"><ele>133.25</ele><time>2026-04-19T09:59:56.001Z</time></trkpt><trkpt lat="36.85784128045536" lon="14.955053848724225"><ele>133.0</ele><time>2026-04-19T09:59:57.001Z</time></trkpt><trkpt lat="36.85773482422606" lon="14.955116330616727"><ele>133.0</ele><time>2026-04-19T09:59:58.001Z</time></trkpt><trkpt lat="36.85762050108943" lon="14.955201943192487"><ele>133.0</ele><time>2026-04-19T09:59:59.001Z</time></trkpt><trkpt lat="36.85748218152181" lon="14.955296987653178"><ele>133.0</ele><time>2026-04-19T10:00:00.001Z</time></trkpt><trkpt lat="36.85736837915643" lon="14.955481712619203"><ele>133.66666666666669</ele><time>2026-04-19T10:00:01.001Z</time></trkpt><trkpt lat="36.85721616120542" lon="14.955649312834202"><ele>134.33333333333334</ele><time>2026-04-19T10:00:02.001Z</time></trkpt><trkpt lat="36.85705927707739" lon="14.95585841682045"><ele>135.0</ele><time>2026-04-19T10:00:03.001Z</time></trkpt><trkpt lat="36.856894735066895" lon="14.956080469406364"><ele>134.33333333333334</ele><time>2026-04-19T10:00:04.001Z</time></trkpt><trkpt lat="36.85674598823537" lon="14.956280041302177"><ele>133.66666666666669</ele><time>2026-04-19T10:00:05.001Z</time></trkpt><trkpt lat="36.856614270888244" lon="14.956456056699752"><ele>133.0</ele><time>2026-04-19T10:00:06.001Z</time></trkpt><trkpt lat="36.8564920813861" lon="14.956619339883519"><ele>132.33333333333334</ele><time>2026-04-19T10:00:07.001Z</time></trkpt><trkpt lat="36.85637704572783" lon="14.956773063267722"><ele>131.66666666666666</ele><time>2026-04-19T10:00:08.001Z</time></trkpt><trkpt lat="36.85626907156192" lon="14.956917350385506"><ele>131.0</ele><time>2026-04-19T10:00:09.001Z</time></trkpt><trkpt lat="36.85616798058051" lon="14.957052439395879"><ele>131.0</ele><time>2026-04-19T10:00:10.001Z</time></trkpt><trkpt lat="36.85607409816335" lon="14.957177895535562"><ele>131.0</ele><time>2026-04-19T10:00:11.001Z</time></trkpt><trkpt lat="36.85598530121908" lon="14.957296555867549"><ele>131.0</ele><time>2026-04-19T10:00:12.001Z</time></trkpt><trkpt lat="36.855900650640294" lon="14.957409970463667"><ele>131.0</ele><time>2026-04-19T10:00:13Z</time></trkpt><trkpt lat="36.855823721712085" lon="14.957513232551161"><ele>130.66666666666666</ele><time>2026-04-19T10:00:14Z</time></trkpt><trkpt lat="36.85575648970871" lon="14.957603478368357"><ele>130.33333333333331</ele><time>2026-04-19T10:00:15Z</time></trkpt><trkpt lat="36.85569649266091" lon="14.957684012714545"><ele>130.0</ele><time>2026-04-19T10:00:16Z</time></trkpt><trkpt lat="36.85563771438431" lon="14.957762911007093"><ele>129.66666666666666</ele><time>2026-04-19T10:00:17Z</time></trkpt><trkpt lat="36.85558231122669" lon="14.957837278931528"><ele>129.33333333333334</ele><time>2026-04-19T10:00:18Z</time></trkpt><trkpt lat="36.85553155717106" lon="14.9579054063369"><ele>129.0</ele><time>2026-04-19T10:00:19Z</time></trkpt><trkpt lat="36.85546067360217" lon="14.958000553674902"><ele>129.0</ele><time>2026-04-19T10:00:21Z</time></trkpt><trkpt lat="36.8553988723281" lon="14.958083509813997"><ele>129.0</ele><time>2026-04-19T10:00:23Z</time></trkpt><trkpt lat="36.855337117536244" lon="14.95816640354373"><ele>129.0</ele><time>2026-04-19T10:00:26Z</time></trkpt><trkpt lat="36.85528313996022" lon="14.958238857886855"><ele>129.0</ele><time>2026-04-19T10:00:29Z</time></trkpt><trkpt lat="36.85523055508388" lon="14.958309442825374"><ele>129.0</ele><time>2026-04-19T10:00:33Z</time></trkpt><trkpt lat="36.855196035354" lon="14.958386897231335"><ele>129.0</ele><time>2026-04-19T10:00:37Z</time></trkpt><trkpt lat="36.85513638508251" lon="14.958482063098739"><ele>129.16666666666666</ele><time>2026-04-19T10:00:40Z</time></trkpt><trkpt lat="36.855060519868786" lon="14.958568234390084"><ele>129.33333333333334</ele><time>2026-04-19T10:00:42Z</time></trkpt><trkpt lat="36.8549782650028" lon="14.958677423972741"><ele>129.5</ele><time>2026-04-19T10:00:44Z</time></trkpt><trkpt lat="36.854922218697794" lon="14.958719772176073"><ele>129.66666666666669</ele><time>2026-04-19T10:00:45Z</time></trkpt><trkpt lat="36.85488275107978" lon="14.958782540945888"><ele>129.83333333333334</ele><time>2026-04-19T10:00:46Z</time></trkpt><trkpt lat="36.85484542081445" lon="14.958848674422919"><ele>130.0</ele><time>2026-04-19T10:00:47Z</time></trkpt><trkpt lat="36.85481128034032" lon="14.958918972820683"><ele>130.0</ele><time>2026-04-19T10:00:48Z</time></trkpt><trkpt lat="36.854779028144165" lon="14.958990225854965"><ele>130.0</ele><time>2026-04-19T10:00:49Z</time></trkpt><trkpt lat="36.85474816386635" lon="14.959059845855593"><ele>130.0</ele><time>2026-04-19T10:00:50Z</time></trkpt><trkpt lat="36.85471578855525" lon="14.959132874246066"><ele>130.0</ele><time>2026-04-19T10:00:51Z</time></trkpt><trkpt lat="36.854679072871576" lon="14.959217824942344"><ele>130.0</ele><time>2026-04-19T10:00:52Z</time></trkpt><trkpt lat="36.85463854753253" lon="14.959311764605701"><ele>130.0</ele><time>2026-04-19T10:00:53Z</time></trkpt><trkpt lat="36.85459658383177" lon="14.959413880935244"><ele>129.2</ele><time>2026-04-19T10:00:54Z</time></trkpt><trkpt lat="36.85455068839561" lon="14.959524663548148"><ele>128.4</ele><time>2026-04-19T10:00:55Z</time></trkpt><trkpt lat="36.85450239632338" lon="14.959642163040007"><ele>127.6</ele><time>2026-04-19T10:00:56Z</time></trkpt><trkpt lat="36.85445018946297" lon="14.959769187714233"><ele>126.8</ele><time>2026-04-19T10:00:57Z</time></trkpt><trkpt lat="36.85440106971083" lon="14.959891827702732"><ele>126.0</ele><time>2026-04-19T10:00:58Z</time></trkpt><trkpt lat="36.85435293620695" lon="14.960011883636819"><ele>125.6</ele><time>2026-04-19T10:00:59Z</time></trkpt><trkpt lat="36.854304700854414" lon="14.960132193622103"><ele>125.19999999999999</ele><time>2026-04-19T10:01:00Z</time></trkpt><trkpt lat="36.8542570985933" lon="14.96025092504918"><ele>124.80000000000001</ele><time>2026-04-19T10:01:01Z</time></trkpt><trkpt lat="36.85420790856229" lon="14.960373163744574"><ele>124.4</ele><time>2026-04-19T10:01:02Z</time></trkpt><trkpt lat="36.85415777098561" lon="14.960496037169538"><ele>124.0</ele><time>2026-04-19T10:01:03Z</time></trkpt><trkpt lat="36.85410686278444" lon="14.960620799245314"><ele>124.0</ele><time>2026-04-19T10:01:04Z</time></trkpt><trkpt lat="36.85405661799475" lon="14.960743935417003"><ele>124.0</ele><time>2026-04-19T10:01:05Z</time></trkpt><trkpt lat="36.854005974959904" lon="14.960868047559455"><ele>124.0</ele><time>2026-04-19T10:01:06Z</time></trkpt><trkpt lat="36.85395348717271" lon="14.960996680622532"><ele>124.0</ele><time>2026-04-19T10:01:07Z</time></trkpt><trkpt lat="36.85390021730943" lon="14.961127230494524"><ele>123.0</ele><time>2026-04-19T10:01:08Z</time></trkpt><trkpt lat="36.85384569164139" lon="14.961260857885126"><ele>122.0</ele><time>2026-04-19T10:01:09Z</time></trkpt><trkpt lat="36.85379025951653" lon="14.961396706858261"><ele>121.0</ele><time>2026-04-19T10:01:10Z</time></trkpt><trkpt lat="36.85373639454604" lon="14.961528715154046"><ele>120.0</ele><time>2026-04-19T10:01:11Z</time></trkpt><trkpt lat="36.85368138502553" lon="14.961663528302141"><ele>119.5</ele><time>2026-04-19T10:01:12Z</time></trkpt><trkpt lat="36.85362655362125" lon="14.961797905313729"><ele>119.0</ele><time>2026-04-19T10:01:13Z</time></trkpt><trkpt lat="36.853573130965906" lon="14.961928829378282"><ele>118.5</ele><time>2026-04-19T10:01:14Z</time></trkpt><trkpt lat="36.85351988762659" lon="14.962059314156262"><ele>118.0</ele><time>2026-04-19T10:01:15Z</time></trkpt><trkpt lat="36.853478851341684" lon="14.962203591038778"><ele>118.25</ele><time>2026-04-19T10:01:16Z</time></trkpt><trkpt lat="36.8534077621824" lon="14.962334232073271"><ele>118.5</ele><time>2026-04-19T10:01:17Z</time></trkpt><trkpt lat="36.85336324628739" lon="14.962484638301882"><ele>118.75</ele><time>2026-04-19T10:01:18Z</time></trkpt><trkpt lat="36.8533037448941" lon="14.962634476113921"><ele>119.0</ele><time>2026-04-19T10:01:19Z</time></trkpt><trkpt lat="36.853227670027586" lon="14.962777083535585"><ele>118.5</ele><time>2026-04-19T10:01:20Z</time></trkpt><trkpt lat="36.853180746028485" lon="14.96293299117535"><ele>118.0</ele><time>2026-04-19T10:01:21Z</time></trkpt><trkpt lat="36.85310592949073" lon="14.96306898411676"><ele>117.5</ele><time>2026-04-19T10:01:22Z</time></trkpt><trkpt lat="36.853050434160735" lon="14.963202304176695"><ele>117.0</ele><time>2026-04-19T10:01:23Z</time></trkpt><trkpt lat="36.85299836835821" lon="14.9633273875639"><ele>116.25</ele><time>2026-04-19T10:01:24Z</time></trkpt><trkpt lat="36.852945735833245" lon="14.963456497453816"><ele>115.5</ele><time>2026-04-19T10:01:25Z</time></trkpt><trkpt lat="36.852905094091824" lon="14.963603266429372"><ele>114.75</ele><time>2026-04-19T10:01:26Z</time></trkpt><trkpt lat="36.852830851389534" lon="14.96374121643934"><ele>114.0</ele><time>2026-04-19T10:01:27Z</time></trkpt><trkpt lat="36.85276882217487" lon="14.963893873928754"><ele>114.0</ele><time>2026-04-19T10:01:28Z</time></trkpt><trkpt lat="36.8527044501126" lon="14.964050685837671"><ele>114.0</ele><time>2026-04-19T10:01:29Z</time></trkpt><trkpt lat="36.8526377270995" lon="14.96421322467906"><ele>114.0</ele><time>2026-04-19T10:01:30Z</time></trkpt><trkpt lat="36.85257104680753" lon="14.96437565951758"><ele>114.0</ele><time>2026-04-19T10:01:31Z</time></trkpt><trkpt lat="36.85250326080546" lon="14.964540787868698"><ele>113.5</ele><time>2026-04-19T10:01:32Z</time></trkpt><trkpt lat="36.85243573855555" lon="14.964705273705638"><ele>113.0</ele><time>2026-04-19T10:01:33Z</time></trkpt><trkpt lat="36.852367949837685" lon="14.964870408675026"><ele>112.5</ele><time>2026-04-19T10:01:34Z</time></trkpt><trkpt lat="36.85229884338515" lon="14.965038753662693"><ele>112.0</ele><time>2026-04-19T10:01:35Z</time></trkpt><trkpt lat="36.852229066486444" lon="14.965208731911853"><ele>111.33333333333334</ele><time>2026-04-19T10:01:36Z</time></trkpt><trkpt lat="36.852157702390095" lon="14.965382576579415"><ele>110.66666666666666</ele><time>2026-04-19T10:01:37Z</time></trkpt><trkpt lat="36.85208106115265" lon="14.965569276500228"><ele>110.0</ele><time>2026-04-19T10:01:38Z</time></trkpt><trkpt lat="36.852005622967994" lon="14.96575304577425"><ele>109.33333333333333</ele><time>2026-04-19T10:01:39Z</time></trkpt><trkpt lat="36.85193486558347" lon="14.965925412431218"><ele>108.66666666666666</ele><time>2026-04-19T10:01:40Z</time></trkpt><trkpt lat="36.851865010330414" lon="14.966097152339238"><ele>108.0</ele><time>2026-04-19T10:01:41Z</time></trkpt><trkpt lat="36.85179329462494" lon="14.96627370546046"><ele>108.66666666666666</ele><time>2026-04-19T10:01:42Z</time></trkpt><trkpt lat="36.851720991946024" lon="14.966451703621935"><ele>109.33333333333333</ele><time>2026-04-19T10:01:43.001Z</time></trkpt><trkpt lat="36.85165296696019" lon="14.966617968633582"><ele>110.0</ele><time>2026-04-19T10:01:44.001Z</time></trkpt><trkpt lat="36.85158116747109" lon="14.966791114902007"><ele>108.66666666666666</ele><time>2026-04-19T10:01:45.001Z</time></trkpt><trkpt lat="36.85150135625306" lon="14.96698358150048"><ele>107.33333333333334</ele><time>2026-04-19T10:01:46.001Z</time></trkpt><trkpt lat="36.85141495250238" lon="14.967192615082235"><ele>106.0</ele><time>2026-04-19T10:01:47.001Z</time></trkpt><trkpt lat="36.851326921458494" lon="14.967408325019587"><ele>105.66666666666667</ele><time>2026-04-19T10:01:48.001Z</time></trkpt><trkpt lat="36.85123372639407" lon="14.967636688718393"><ele>105.33333333333334</ele><time>2026-04-19T10:01:49.001Z</time></trkpt><trkpt lat="36.85113742335134" lon="14.96786987669102"><ele>105.0</ele><time>2026-04-19T10:01:50.001Z</time></trkpt><trkpt lat="36.85104328175876" lon="14.96810496107654"><ele>105.0</ele><time>2026-04-19T10:01:51.001Z</time></trkpt><trkpt lat="36.850968600226935" lon="14.968347619082296"><ele>105.0</ele><time>2026-04-19T10:01:52.001Z</time></trkpt><trkpt lat="36.85090405694064" lon="14.968583715469489"><ele>105.0</ele><time>2026-04-19T10:01:53.001Z</time></trkpt><trkpt lat="36.85084139888494" lon="14.968818483829242"><ele>105.0</ele><time>2026-04-19T10:01:54.001Z</time></trkpt><trkpt lat="36.85077867844975" lon="14.96905094644781"><ele>105.0</ele><time>2026-04-19T10:01:55.001Z</time></trkpt><trkpt lat="36.85071313534225" lon="14.969286025212721"><ele>105.0</ele><time>2026-04-19T10:01:56.001Z</time></trkpt><trkpt lat="36.850649189366386" lon="14.969521811155092"><ele>104.33333333333334</ele><time>2026-04-19T10:01:57.001Z</time></trkpt><trkpt lat="36.85058824812155" lon="14.969752711429214"><ele>103.66666666666667</ele><time>2026-04-19T10:01:58.001Z</time></trkpt><trkpt lat="36.85052912171212" lon="14.969974629396305"><ele>103.0</ele><time>2026-04-19T10:01:59.001Z</time></trkpt><trkpt lat="36.85046682099233" lon="14.970193035691095"><ele>102.66666666666667</ele><time>2026-04-19T10:02:00.001Z</time></trkpt><trkpt lat="36.85040516685766" lon="14.970415814877951"><ele>102.33333333333334</ele><time>2026-04-19T10:02:01.001Z</time></trkpt><trkpt lat="36.85034551032897" lon="14.970637965250855"><ele>102.0</ele><time>2026-04-19T10:02:02.001Z</time></trkpt><trkpt lat="36.85028519317457" lon="14.970862575676271"><ele>102.0</ele><time>2026-04-19T10:02:03.001Z</time></trkpt><trkpt lat="36.85022390570983" lon="14.971090799371533"><ele>102.0</ele><time>2026-04-19T10:02:04.001Z</time></trkpt><trkpt lat="36.85016185396114" lon="14.971322025429519"><ele>102.0</ele><time>2026-04-19T10:02:05.001Z</time></trkpt><trkpt lat="36.85009952525848" lon="14.971554289643134"><ele>102.0</ele><time>2026-04-19T10:02:06.001Z</time></trkpt><trkpt lat="36.850036469768106" lon="14.971789262168349"><ele>102.0</ele><time>2026-04-19T10:02:07.001Z</time></trkpt><trkpt lat="36.849973289959856" lon="14.972015611431026"><ele>102.0</ele><time>2026-04-19T10:02:08.001Z</time></trkpt><trkpt lat="36.84990994310226" lon="14.972242479259533"><ele>102.0</ele><time>2026-04-19T10:02:09.001Z</time></trkpt><trkpt lat="36.84984580196505" lon="14.972472191733512"><ele>102.0</ele><time>2026-04-19T10:02:10.001Z</time></trkpt><trkpt lat="36.84978388798309" lon="14.972699691712116"><ele>102.0</ele><time>2026-04-19T10:02:11.001Z</time></trkpt><trkpt lat="36.84972419697951" lon="14.972919002966847"><ele>101.0</ele><time>2026-04-19T10:02:12.001Z</time></trkpt><trkpt lat="36.84966580268657" lon="14.973133549998849"><ele>100.0</ele><time>2026-04-19T10:02:13.001Z</time></trkpt><trkpt lat="36.84960435960769" lon="14.973359298944372"><ele>99.0</ele><time>2026-04-19T10:02:14.001Z</time></trkpt><trkpt lat="36.84954168974432" lon="14.97359307901506"><ele>98.66666666666666</ele><time>2026-04-19T10:02:15.001Z</time></trkpt><trkpt lat="36.849478802242054" lon="14.973827238478469"><ele>98.33333333333333</ele><time>2026-04-19T10:02:16.001Z</time></trkpt><trkpt lat="36.849415617313376" lon="14.974062505383877"><ele>98.0</ele><time>2026-04-19T10:02:17.001Z</time></trkpt><trkpt lat="36.84935238656546" lon="14.974297942893594"><ele>97.33333333333333</ele><time>2026-04-19T10:02:18.001Z</time></trkpt><trkpt lat="36.849290679878926" lon="14.974525373611572"><ele>96.66666666666666</ele><time>2026-04-19T10:02:18.999Z</time></trkpt><trkpt lat="36.849232177128705" lon="14.974738700001266"><ele>96.0</ele><time>2026-04-19T10:02:19.999Z</time></trkpt><trkpt lat="36.849173478813206" lon="14.974952739896368"><ele>95.66666666666667</ele><time>2026-04-19T10:02:20.999Z</time></trkpt><trkpt lat="36.849113208528244" lon="14.975172511907303"><ele>95.33333333333334</ele><time>2026-04-19T10:02:21.999Z</time></trkpt><trkpt lat="36.849053289951634" lon="14.975394317814445"><ele>95.0</ele><time>2026-04-19T10:02:22.999Z</time></trkpt><trkpt lat="36.848994559471116" lon="14.975612212134598"><ele>95.0</ele><time>2026-04-19T10:02:23.999Z</time></trkpt><trkpt lat="36.84893575025796" lon="14.97583039860315"><ele>95.0</ele><time>2026-04-19T10:02:24.999Z</time></trkpt><trkpt lat="36.84887574527978" lon="14.976053021323638"><ele>95.0</ele><time>2026-04-19T10:02:25.999Z</time></trkpt><trkpt lat="36.84881777671862" lon="14.97626808690479"><ele>95.0</ele><time>2026-04-19T10:02:26.999Z</time></trkpt><trkpt lat="36.848761038379905" lon="14.976474454442357"><ele>95.0</ele><time>2026-04-19T10:02:27.999Z</time></trkpt><trkpt lat="36.84870408367213" lon="14.976682209729054"><ele>95.0</ele><time>2026-04-19T10:02:28.999Z</time></trkpt><trkpt lat="36.848645814323866" lon="14.976894527969053"><ele>95.33333333333334</ele><time>2026-04-19T10:02:30Z</time></trkpt><trkpt lat="36.84858943539385" lon="14.97709753105752"><ele>95.66666666666667</ele><time>2026-04-19T10:02:31Z</time></trkpt><trkpt lat="36.848537132733945" lon="14.977283882097922"><ele>96.0</ele><time>2026-04-19T10:02:32Z</time></trkpt><trkpt lat="36.848489398673216" lon="14.977453949627577"><ele>95.5</ele><time>2026-04-19T10:02:33Z</time></trkpt><trkpt lat="36.84844453118384" lon="14.977615989757716"><ele>95.0</ele><time>2026-04-19T10:02:34Z</time></trkpt><trkpt lat="36.84840219144408" lon="14.977768091002353"><ele>94.5</ele><time>2026-04-19T10:02:35Z</time></trkpt><trkpt lat="36.84836153306543" lon="14.977915570006875"><ele>94.0</ele><time>2026-04-19T10:02:36Z</time></trkpt><trkpt lat="36.848323000176045" lon="14.978055947762018"><ele>94.0</ele><time>2026-04-19T10:02:37Z</time></trkpt><trkpt lat="36.84828867978428" lon="14.978180978934079"><ele>94.0</ele><time>2026-04-19T10:02:38Z</time></trkpt><trkpt lat="36.84826005321039" lon="14.978285266931087"><ele>94.0</ele><time>2026-04-19T10:02:39Z</time></trkpt><trkpt lat="36.84823385127783" lon="14.978380722207678"><ele>94.0</ele><time>2026-04-19T10:02:40Z</time></trkpt><trkpt lat="36.84820261847773" lon="14.9784855451668"><ele>94.0</ele><time>2026-04-19T10:02:42Z</time></trkpt><trkpt lat="36.848133156871135" lon="14.97844458336134"><ele>94.0</ele><time>2026-04-19T10:02:43Z</time></trkpt><trkpt lat="36.84802954128724" lon="14.9784463386285"><ele>94.0</ele><time>2026-04-19T10:02:44Z</time></trkpt><trkpt lat="36.847915393584145" lon="14.978401714281242"><ele>94.0</ele><time>2026-04-19T10:02:45Z</time></trkpt><trkpt lat="36.84782045234591" lon="14.978377831880135"><ele>94.0</ele><time>2026-04-19T10:02:46Z</time></trkpt><trkpt lat="36.847732138489675" lon="14.978363566669648"><ele>94.0</ele><time>2026-04-19T10:02:47Z</time></trkpt><trkpt lat="36.84763727620038" lon="14.97834259399265"><ele>94.0</ele><time>2026-04-19T10:02:48Z</time></trkpt><trkpt lat="36.84752023119858" lon="14.978303635998442"><ele>92.25</ele><time>2026-04-19T10:02:49Z</time></trkpt><trkpt lat="36.84738953014534" lon="14.978264400059194"><ele>90.5</ele><time>2026-04-19T10:02:50Z</time></trkpt><trkpt lat="36.847260760465694" lon="14.978258720191645"><ele>88.75</ele><time>2026-04-19T10:02:51Z</time></trkpt><trkpt lat="36.847119030109" lon="14.978280148885345"><ele>87.0</ele><time>2026-04-19T10:02:52Z</time></trkpt><trkpt lat="36.84698505818603" lon="14.978299404240165"><ele>87.0</ele><time>2026-04-19T10:02:53Z</time></trkpt><trkpt lat="36.846854543541205" lon="14.978312905897937"><ele>87.0</ele><time>2026-04-19T10:02:54Z</time></trkpt><trkpt lat="36.84672888816513" lon="14.978319917218439"><ele>87.0</ele><time>2026-04-19T10:02:55Z</time></trkpt><trkpt lat="36.846604975526134" lon="14.97832583149485"><ele>87.0</ele><time>2026-04-19T10:02:56Z</time></trkpt><trkpt lat="36.84647889692386" lon="14.978334005343067"><ele>85.19999999999999</ele><time>2026-04-19T10:02:57Z</time></trkpt><trkpt lat="36.846354038065655" lon="14.978344050758794"><ele>83.39999999999999</ele><time>2026-04-19T10:02:58Z</time></trkpt><trkpt lat="36.846236473526105" lon="14.978355604421308"><ele>81.6</ele><time>2026-04-19T10:02:59Z</time></trkpt><trkpt lat="36.8461345357983" lon="14.97837062621421"><ele>79.8</ele><time>2026-04-19T10:03:00Z</time></trkpt><trkpt lat="36.84603911211577" lon="14.978375985619408"><ele>78.0</ele><time>2026-04-19T10:03:01Z</time></trkpt><trkpt lat="36.84595437159986" lon="14.978447523786093"><ele>77.0</ele><time>2026-04-19T10:03:02Z</time></trkpt><trkpt lat="36.84586442717382" lon="14.97849891329406"><ele>76.0</ele><time>2026-04-19T10:03:03Z</time></trkpt><trkpt lat="36.84577512008004" lon="14.978519893361923"><ele>75.0</ele><time>2026-04-19T10:03:04Z</time></trkpt><trkpt lat="36.84568340716418" lon="14.978486749744965"><ele>74.0</ele><time>2026-04-19T10:03:05Z</time></trkpt><trkpt lat="36.845561456393234" lon="14.978473576497073"><ele>73.0</ele><time>2026-04-19T10:03:06Z</time></trkpt><trkpt lat="36.845432432259955" lon="14.97845064826459"><ele>73.0</ele><time>2026-04-19T10:03:07Z</time></trkpt><trkpt lat="36.845313732727014" lon="14.978455301990596"><ele>73.0</ele><time>2026-04-19T10:03:08Z</time></trkpt><trkpt lat="36.84519885438397" lon="14.978476358814332"><ele>73.0</ele><time>2026-04-19T10:03:09Z</time></trkpt><trkpt lat="36.845083240462365" lon="14.97850442152544"><ele>73.0</ele><time>2026-04-19T10:03:10Z</time></trkpt><trkpt lat="36.844965308687485" lon="14.978535078767461"><ele>71.6</ele><time>2026-04-19T10:03:11Z</time></trkpt><trkpt lat="36.844854492617955" lon="14.978564316329768"><ele>70.19999999999999</ele><time>2026-04-19T10:03:12Z</time></trkpt><trkpt lat="36.844751699339746" lon="14.97858735525097"><ele>68.8</ele><time>2026-04-19T10:03:13Z</time></trkpt><trkpt lat="36.8446595103938" lon="14.97859539471415"><ele>67.39999999999999</ele><time>2026-04-19T10:03:14Z</time></trkpt><trkpt lat="36.84457056695226" lon="14.978599531818103"><ele>66.0</ele><time>2026-04-19T10:03:15Z</time></trkpt><trkpt lat="36.84448657341995" lon="14.978606037252343"><ele>66.0</ele><time>2026-04-19T10:03:16Z</time></trkpt><trkpt lat="36.844401470647156" lon="14.97862089898549"><ele>66.0</ele><time>2026-04-19T10:03:17Z</time></trkpt><trkpt lat="36.844305532205276" lon="14.978641217425471"><ele>66.0</ele><time>2026-04-19T10:03:18Z</time></trkpt><trkpt lat="36.844156699854345" lon="14.978680429050199"><ele>66.0</ele><time>2026-04-19T10:03:19Z</time></trkpt><trkpt lat="36.84399352187009" lon="14.978737345022907"><ele>65.66666666666667</ele><time>2026-04-19T10:03:20Z</time></trkpt><trkpt lat="36.84384814658993" lon="14.978803438994241"><ele>65.33333333333334</ele><time>2026-04-19T10:03:21Z</time></trkpt><trkpt lat="36.84371241065781" lon="14.978867290208708"><ele>65.0</ele><time>2026-04-19T10:03:22Z</time></trkpt><trkpt lat="36.84356482794373" lon="14.978926915929728"><ele>65.0</ele><time>2026-04-19T10:03:23Z</time></trkpt><trkpt lat="36.84341461714013" lon="14.978982357108006"><ele>65.0</ele><time>2026-04-19T10:03:24Z</time></trkpt><trkpt lat="36.843274248828365" lon="14.979030900932516"><ele>65.0</ele><time>2026-04-19T10:03:25Z</time></trkpt><trkpt lat="36.8431403085053" lon="14.979067382745827"><ele>65.0</ele><time>2026-04-19T10:03:26Z</time></trkpt><trkpt lat="36.84300503487458" lon="14.979083269685628"><ele>65.0</ele><time>2026-04-19T10:03:27Z</time></trkpt><trkpt lat="36.84287503715645" lon="14.979084134472268"><ele>65.0</ele><time>2026-04-19T10:03:28Z</time></trkpt><trkpt lat="36.84274750261259" lon="14.979078104973107"><ele>65.0</ele><time>2026-04-19T10:03:29Z</time></trkpt><trkpt lat="36.84262081851531" lon="14.97906506165586"><ele>65.0</ele><time>2026-04-19T10:03:30Z</time></trkpt><trkpt lat="36.8424954864454" lon="14.9790475585445"><ele>65.25</ele><time>2026-04-19T10:03:31Z</time></trkpt><trkpt lat="36.8423707196706" lon="14.97902989436725"><ele>65.5</ele><time>2026-04-19T10:03:32Z</time></trkpt><trkpt lat="36.842244673230454" lon="14.979015256332643"><ele>65.75</ele><time>2026-04-19T10:03:33Z</time></trkpt><trkpt lat="36.84211689526889" lon="14.97900527358507"><ele>66.0</ele><time>2026-04-19T10:03:34Z</time></trkpt><trkpt lat="36.841988128963756" lon="14.97900519811728"><ele>66.0</ele><time>2026-04-19T10:03:35Z</time></trkpt><trkpt lat="36.841858716178585" lon="14.979006850554914"><ele>66.0</ele><time>2026-04-19T10:03:36Z</time></trkpt><trkpt lat="36.84172642447807" lon="14.979018478996052"><ele>66.0</ele><time>2026-04-19T10:03:37Z</time></trkpt><trkpt lat="36.84159398571178" lon="14.979044427212985"><ele>66.0</ele><time>2026-04-19T10:03:38Z</time></trkpt><trkpt lat="36.84145899826244" lon="14.979073214260348"><ele>66.25</ele><time>2026-04-19T10:03:39Z</time></trkpt><trkpt lat="36.841321276879164" lon="14.97911108474489"><ele>66.5</ele><time>2026-04-19T10:03:40Z</time></trkpt><trkpt lat="36.84118605297402" lon="14.97915775635083"><ele>66.75</ele><time>2026-04-19T10:03:41Z</time></trkpt><trkpt lat="36.841060747746354" lon="14.979196279551992"><ele>67.0</ele><time>2026-04-19T10:03:42Z</time></trkpt><trkpt lat="36.840939229905665" lon="14.979241586848335"><ele>65.25</ele><time>2026-04-19T10:03:43Z</time></trkpt><trkpt lat="36.840813639716835" lon="14.979282362510013"><ele>63.5</ele><time>2026-04-19T10:03:44Z</time></trkpt><trkpt lat="36.84069996970677" lon="14.979331783795585"><ele>61.75</ele><time>2026-04-19T10:03:45Z</time></trkpt><trkpt lat="36.84058213278465" lon="14.979399538206819"><ele>60.0</ele><time>2026-04-19T10:03:46Z</time></trkpt><trkpt lat="36.84046761989064" lon="14.979483031505199"><ele>60.0</ele><time>2026-04-19T10:03:47Z</time></trkpt><trkpt lat="36.84035871863458" lon="14.979544017003686"><ele>60.0</ele><time>2026-04-19T10:03:48Z</time></trkpt><trkpt lat="36.840265073567" lon="14.979619466637603"><ele>60.0</ele><time>2026-04-19T10:03:49Z</time></trkpt><trkpt lat="36.840188908122066" lon="14.97968806294545"><ele>60.0</ele><time>2026-04-19T10:03:50Z</time></trkpt><trkpt lat="36.84011975047643" lon="14.979746532924123"><ele>60.0</ele><time>2026-04-19T10:03:51Z</time></trkpt><trkpt lat="36.84005115760003" lon="14.979800778876703"><ele>59.833333333333336</ele><time>2026-04-19T10:03:52Z</time></trkpt><trkpt lat="36.83999665563284" lon="14.97986603142881"><ele>59.66666666666667</ele><time>2026-04-19T10:03:53Z</time></trkpt><trkpt lat="36.8399352537141" lon="14.979906427913644"><ele>59.5</ele><time>2026-04-19T10:03:54Z</time></trkpt><trkpt lat="36.83986969889527" lon="14.97992013886668"><ele>59.333333333333336</ele><time>2026-04-19T10:03:55Z</time></trkpt><trkpt lat="36.83977932029751" lon="14.979901900227514"><ele>59.16666666666667</ele><time>2026-04-19T10:03:56Z</time></trkpt><trkpt lat="36.83968233171719" lon="14.97986141848695"><ele>59.0</ele><time>2026-04-19T10:03:57Z</time></trkpt><trkpt lat="36.83957772555401" lon="14.979808540303372"><ele>59.0</ele><time>2026-04-19T10:03:58Z</time></trkpt><trkpt lat="36.83946265909291" lon="14.979761018942874"><ele>59.0</ele><time>2026-04-19T10:03:59Z</time></trkpt><trkpt lat="36.839335551526574" lon="14.979711121570297"><ele>59.0</ele><time>2026-04-19T10:04:00Z</time></trkpt><trkpt lat="36.839199841495535" lon="14.979669445611654"><ele>59.0</ele><time>2026-04-19T10:04:01Z</time></trkpt><trkpt lat="36.83905164783246" lon="14.979637774376986"><ele>59.0</ele><time>2026-04-19T10:04:02Z</time></trkpt><trkpt lat="36.83889643503468" lon="14.979616463126122"><ele>59.0</ele><time>2026-04-19T10:04:03Z</time></trkpt><trkpt lat="36.838738722158745" lon="14.97959520703068"><ele>59.0</ele><time>2026-04-19T10:04:04Z</time></trkpt><trkpt lat="36.838581475820675" lon="14.97956723158846"><ele>59.0</ele><time>2026-04-19T10:04:05Z</time></trkpt><trkpt lat="36.838425235387746" lon="14.979537902526834"><ele>59.0</ele><time>2026-04-19T10:04:06Z</time></trkpt><trkpt lat="36.838287416232475" lon="14.979508488149886"><ele>59.0</ele><time>2026-04-19T10:04:07Z</time></trkpt><trkpt lat="36.838159564588516" lon="14.979477263710294"><ele>59.0</ele><time>2026-04-19T10:04:08Z</time></trkpt><trkpt lat="36.83803905076727" lon="14.979441050142317"><ele>59.0</ele><time>2026-04-19T10:04:09.001Z</time></trkpt><trkpt lat="36.83791895110875" lon="14.97940100242239"><ele>59.0</ele><time>2026-04-19T10:04:10.001Z</time></trkpt><trkpt lat="36.83779774940173" lon="14.979355816895472"><ele>59.0</ele><time>2026-04-19T10:04:11.001Z</time></trkpt><trkpt lat="36.83767605218995" lon="14.97930050383562"><ele>59.0</ele><time>2026-04-19T10:04:12.001Z</time></trkpt><trkpt lat="36.8375557447345" lon="14.979241245743072"><ele>61.0</ele><time>2026-04-19T10:04:13.001Z</time></trkpt><trkpt lat="36.8374352149444" lon="14.979178547142318"><ele>63.0</ele><time>2026-04-19T10:04:14.001Z</time></trkpt><trkpt lat="36.83731226870514" lon="14.979111119092682"><ele>65.0</ele><time>2026-04-19T10:04:15.001Z</time></trkpt><trkpt lat="36.837185109521634" lon="14.979053620246255"><ele>67.0</ele><time>2026-04-19T10:04:16.001Z</time></trkpt><trkpt lat="36.83706452808512" lon="14.978993543455555"><ele>67.0</ele><time>2026-04-19T10:04:17.001Z</time></trkpt><trkpt lat="36.83695117498212" lon="14.978918557759027"><ele>67.0</ele><time>2026-04-19T10:04:18.001Z</time></trkpt><trkpt lat="36.836836971383725" lon="14.978812904500781"><ele>67.0</ele><time>2026-04-19T10:04:19.001Z</time></trkpt><trkpt lat="36.836738569405604" lon="14.978705634831298"><ele>67.0</ele><time>2026-04-19T10:04:20.001Z</time></trkpt><trkpt lat="36.83665382011581" lon="14.978610827009227"><ele>66.83333333333333</ele><time>2026-04-19T10:04:21.001Z</time></trkpt><trkpt lat="36.83657949065422" lon="14.978535450452894"><ele>66.66666666666666</ele><time>2026-04-19T10:04:22.001Z</time></trkpt><trkpt lat="36.8365118127448" lon="14.978463786720821"><ele>66.5</ele><time>2026-04-19T10:04:23.001Z</time></trkpt><trkpt lat="36.83645043553538" lon="14.978402534229515"><ele>66.33333333333333</ele><time>2026-04-19T10:04:24.001Z</time></trkpt><trkpt lat="36.836365744725875" lon="14.978318706051079"><ele>66.16666666666667</ele><time>2026-04-19T10:04:25.999Z</time></trkpt><trkpt lat="36.83630792400871" lon="14.978260137607938"><ele>66.0</ele><time>2026-04-19T10:04:28.999Z</time></trkpt><trkpt lat="36.836248041811906" lon="14.97821890509338"><ele>66.0</ele><time>2026-04-19T10:04:30Z</time></trkpt><trkpt lat="36.83615426825876" lon="14.978160983040773"><ele>66.0</ele><time>2026-04-19T10:04:31Z</time></trkpt><trkpt lat="36.836063149760214" lon="14.97809314604647"><ele>66.0</ele><time>2026-04-19T10:04:32Z</time></trkpt><trkpt lat="36.83597122767248" lon="14.978018683250243"><ele>66.0</ele><time>2026-04-19T10:04:33Z</time></trkpt><trkpt lat="36.83586952390159" lon="14.97794035615449"><ele>66.0</ele><time>2026-04-19T10:04:34Z</time></trkpt><trkpt lat="36.83578224437352" lon="14.977867891279665"><ele>65.0</ele><time>2026-04-19T10:04:35Z</time></trkpt><trkpt lat="36.83570786137135" lon="14.977804068423794"><ele>63.99999999999999</ele><time>2026-04-19T10:04:36Z</time></trkpt><trkpt lat="36.83562446194904" lon="14.977760691229555"><ele>62.99999999999999</ele><time>2026-04-19T10:04:37Z</time></trkpt><trkpt lat="36.835515352532504" lon="14.97773253511171"><ele>62.0</ele><time>2026-04-19T10:04:38Z</time></trkpt><trkpt lat="36.83541887390609" lon="14.9777074245691"><ele>61.0</ele><time>2026-04-19T10:04:39Z</time></trkpt><trkpt lat="36.83535104284623" lon="14.977657450637537"><ele>61.0</ele><time>2026-04-19T10:04:40Z</time></trkpt><trkpt lat="36.835278947999534" lon="14.977574506932982"><ele>61.0</ele><time>2026-04-19T10:04:41Z</time></trkpt><trkpt lat="36.835183955332994" lon="14.977473658882946"><ele>61.0</ele><time>2026-04-19T10:04:42Z</time></trkpt><trkpt lat="36.83507338887255" lon="14.977364134885798"><ele>61.0</ele><time>2026-04-19T10:04:43Z</time></trkpt><trkpt lat="36.83496207640605" lon="14.977262465371735"><ele>62.666666666666664</ele><time>2026-04-19T10:04:44Z</time></trkpt><trkpt lat="36.834855960883424" lon="14.977191749880316"><ele>64.33333333333333</ele><time>2026-04-19T10:04:45Z</time></trkpt><trkpt lat="36.83471425085418" lon="14.977124620847171"><ele>66.0</ele><time>2026-04-19T10:04:46Z</time></trkpt><trkpt lat="36.83452192904576" lon="14.977056922869133"><ele>66.0</ele><time>2026-04-19T10:04:47Z</time></trkpt><trkpt lat="36.83435640248455" lon="14.97699434628986"><ele>66.0</ele><time>2026-04-19T10:04:48Z</time></trkpt><trkpt lat="36.83421915519699" lon="14.976937228048968"><ele>66.0</ele><time>2026-04-19T10:04:49Z</time></trkpt><trkpt lat="36.83409625279516" lon="14.976877740997095"><ele>66.0</ele><time>2026-04-19T10:04:50Z</time></trkpt><trkpt lat="36.83398048355578" lon="14.976806740417308"><ele>66.5</ele><time>2026-04-19T10:04:51Z</time></trkpt><trkpt lat="36.83386930761266" lon="14.976715991013481"><ele>67.0</ele><time>2026-04-19T10:04:52Z</time></trkpt><trkpt lat="36.83376067906562" lon="14.976601011493594"><ele>67.5</ele><time>2026-04-19T10:04:53Z</time></trkpt><trkpt lat="36.833655481328954" lon="14.976471895934218"><ele>68.0</ele><time>2026-04-19T10:04:54Z</time></trkpt><trkpt lat="36.83357031426152" lon="14.976363803009956"><ele>68.6</ele><time>2026-04-19T10:04:55Z</time></trkpt><trkpt lat="36.833502890501805" lon="14.976268750442328"><ele>69.19999999999999</ele><time>2026-04-19T10:04:56Z</time></trkpt><trkpt lat="36.83344587542408" lon="14.976176996066412"><ele>69.8</ele><time>2026-04-19T10:04:57Z</time></trkpt><trkpt lat="36.83339196908672" lon="14.97609205642511"><ele>70.39999999999999</ele><time>2026-04-19T10:04:58Z</time></trkpt><trkpt lat="36.83333768533052" lon="14.976014111238232"><ele>71.0</ele><time>2026-04-19T10:04:59Z</time></trkpt><trkpt lat="36.83327774311934" lon="14.975927163082677"><ele>71.5</ele><time>2026-04-19T10:05:00Z</time></trkpt><trkpt lat="36.83322949854882" lon="14.97584549718655"><ele>72.0</ele><time>2026-04-19T10:05:01Z</time></trkpt><trkpt lat="36.83319609274279" lon="14.975756750023558"><ele>72.5</ele><time>2026-04-19T10:05:02Z</time></trkpt><trkpt lat="36.8331827436162" lon="14.975662960932643"><ele>73.0</ele><time>2026-04-19T10:05:03Z</time></trkpt><trkpt lat="36.83316120583416" lon="14.975578840721049"><ele>73.5</ele><time>2026-04-19T10:05:04Z</time></trkpt><trkpt lat="36.833118492038196" lon="14.975506175920309"><ele>74.0</ele><time>2026-04-19T10:05:05Z</time></trkpt><trkpt lat="36.83306772788136" lon="14.97541146172358"><ele>74.0</ele><time>2026-04-19T10:05:06Z</time></trkpt><trkpt lat="36.8330046859822" lon="14.975314710501845"><ele>74.0</ele><time>2026-04-19T10:05:07Z</time></trkpt><trkpt lat="36.83293583921575" lon="14.975210015328106"><ele>74.0</ele><time>2026-04-19T10:05:08Z</time></trkpt><trkpt lat="36.832866738040366" lon="14.975102304652678"><ele>74.0</ele><time>2026-04-19T10:05:09Z</time></trkpt><trkpt lat="36.83279717018945" lon="14.97500908021755"><ele>74.0</ele><time>2026-04-19T10:05:10Z</time></trkpt><trkpt lat="36.832723366933244" lon="14.974929728457596"><ele>74.16666666666667</ele><time>2026-04-19T10:05:11Z</time></trkpt><trkpt lat="36.832656896208796" lon="14.974845732119086"><ele>74.33333333333334</ele><time>2026-04-19T10:05:12Z</time></trkpt><trkpt lat="36.832597512856616" lon="14.97475901725022"><ele>74.5</ele><time>2026-04-19T10:05:13Z</time></trkpt><trkpt lat="36.8325391029118" lon="14.974679911558308"><ele>74.66666666666667</ele><time>2026-04-19T10:05:14Z</time></trkpt><trkpt lat="36.83247390849837" lon="14.974613586552291"><ele>74.83333333333333</ele><time>2026-04-19T10:05:15Z</time></trkpt><trkpt lat="36.832406004189515" lon="14.974569024761099"><ele>75.0</ele><time>2026-04-19T10:05:16Z</time></trkpt><trkpt lat="36.832344206430335" lon="14.974544012287854"><ele>74.33333333333333</ele><time>2026-04-19T10:05:17Z</time></trkpt><trkpt lat="36.83224313132789" lon="14.974523845315266"><ele>73.66666666666667</ele><time>2026-04-19T10:05:19Z</time></trkpt><trkpt lat="36.83217300159015" lon="14.974562474812846"><ele>73.0</ele><time>2026-04-19T10:05:21Z</time></trkpt><trkpt lat="36.83210613357431" lon="14.974554553952839"><ele>72.33333333333334</ele><time>2026-04-19T10:05:23Z</time></trkpt><trkpt lat="36.83202748937846" lon="14.974459146389366"><ele>71.66666666666667</ele><time>2026-04-19T10:05:25Z</time></trkpt><trkpt lat="36.831974705712" lon="14.974405621819418"><ele>71.0</ele><time>2026-04-19T10:05:26Z</time></trkpt><trkpt lat="36.83191432736814" lon="14.974351188879833"><ele>71.0</ele><time>2026-04-19T10:05:27Z</time></trkpt><trkpt lat="36.83183927025963" lon="14.97427892475493"><ele>71.0</ele><time>2026-04-19T10:05:28Z</time></trkpt><trkpt lat="36.83176193056412" lon="14.97420819730061"><ele>71.0</ele><time>2026-04-19T10:05:29Z</time></trkpt><trkpt lat="36.831685607713936" lon="14.97414253245687"><ele>71.0</ele><time>2026-04-19T10:05:30Z</time></trkpt><trkpt lat="36.831600791122206" lon="14.974089843753704"><ele>71.0</ele><time>2026-04-19T10:05:31Z</time></trkpt><trkpt lat="36.831520657353884" lon="14.974035212204647"><ele>71.5</ele><time>2026-04-19T10:05:32Z</time></trkpt><trkpt lat="36.83144249865789" lon="14.973983408918501"><ele>72.0</ele><time>2026-04-19T10:05:33Z</time></trkpt><trkpt lat="36.831367731244555" lon="14.973933192088571"><ele>72.5</ele><time>2026-04-19T10:05:34Z</time></trkpt><trkpt lat="36.83129526314278" lon="14.97388693939602"><ele>73.0</ele><time>2026-04-19T10:05:35Z</time></trkpt><trkpt lat="36.831217674553514" lon="14.97384148777666"><ele>73.5</ele><time>2026-04-19T10:05:36Z</time></trkpt><trkpt lat="36.83113211024626" lon="14.973794056781443"><ele>74.0</ele><time>2026-04-19T10:05:37Z</time></trkpt><trkpt lat="36.83103959375318" lon="14.973745806251163"><ele>73.60000000000001</ele><time>2026-04-19T10:05:38Z</time></trkpt><trkpt lat="36.83094678753414" lon="14.973694865573684"><ele>73.2</ele><time>2026-04-19T10:05:39Z</time></trkpt><trkpt lat="36.83085672770634" lon="14.973643223100524"><ele>72.80000000000001</ele><time>2026-04-19T10:05:40Z</time></trkpt><trkpt lat="36.830769283106164" lon="14.973587629835627"><ele>72.4</ele><time>2026-04-19T10:05:41Z</time></trkpt><trkpt lat="36.83068440848428" lon="14.973528694749719"><ele>72.0</ele><time>2026-04-19T10:05:42Z</time></trkpt><trkpt lat="36.83059871091745" lon="14.973474213883197"><ele>72.0</ele><time>2026-04-19T10:05:43Z</time></trkpt><trkpt lat="36.83050816941785" lon="14.973424844544631"><ele>72.0</ele><time>2026-04-19T10:05:44Z</time></trkpt><trkpt lat="36.83041189847905" lon="14.973363983415918"><ele>72.0</ele><time>2026-04-19T10:05:45Z</time></trkpt><trkpt lat="36.830333201041114" lon="14.973313937956888"><ele>72.0</ele><time>2026-04-19T10:05:46Z</time></trkpt><trkpt lat="36.83025224077297" lon="14.97326447076438"><ele>72.0</ele><time>2026-04-19T10:05:47Z</time></trkpt><trkpt lat="36.830168092604154" lon="14.97322223916182"><ele>72.8</ele><time>2026-04-19T10:05:48Z</time></trkpt><trkpt lat="36.83008295367227" lon="14.973181309699683"><ele>73.6</ele><time>2026-04-19T10:05:49Z</time></trkpt><trkpt lat="36.83000531339171" lon="14.973155546656864"><ele>74.39999999999999</ele><time>2026-04-19T10:05:50Z</time></trkpt><trkpt lat="36.829916014418366" lon="14.973162936727023"><ele>75.2</ele><time>2026-04-19T10:05:51Z</time></trkpt><trkpt lat="36.829853184510235" lon="14.973090334937307"><ele>76.0</ele><time>2026-04-19T10:05:53Z</time></trkpt><trkpt lat="36.82975063310087" lon="14.973040404723145"><ele>76.0</ele><time>2026-04-19T10:06:28.001Z</time></trkpt><trkpt lat="36.82968440425062" lon="14.972949433100919"><ele>76.0</ele><time>2026-04-19T10:06:29.001Z</time></trkpt><trkpt lat="36.8296067490611" lon="14.972828208286549"><ele>76.0</ele><time>2026-04-19T10:06:30.001Z</time></trkpt><trkpt lat="36.82950654360691" lon="14.972683665163897"><ele>76.0</ele><time>2026-04-19T10:06:31Z</time></trkpt><trkpt lat="36.82941457965988" lon="14.972532385447014"><ele>77.33333333333333</ele><time>2026-04-19T10:06:32Z</time></trkpt><trkpt lat="36.82932591708897" lon="14.972350632657614"><ele>78.66666666666667</ele><time>2026-04-19T10:06:33Z</time></trkpt><trkpt lat="36.82922834009834" lon="14.9721601697681"><ele>80.0</ele><time>2026-04-19T10:06:34Z</time></trkpt><trkpt lat="36.829119274528296" lon="14.971960007065077"><ele>80.0</ele><time>2026-04-19T10:06:35Z</time></trkpt><trkpt lat="36.829019418045384" lon="14.971765781722253"><ele>80.0</ele><time>2026-04-19T10:06:36Z</time></trkpt><trkpt lat="36.82891905523349" lon="14.971568800124764"><ele>80.0</ele><time>2026-04-19T10:06:37Z</time></trkpt><trkpt lat="36.828814739696426" lon="14.971368021359272"><ele>81.66666666666667</ele><time>2026-04-19T10:06:38Z</time></trkpt><trkpt lat="36.8287040949035" lon="14.971163669175102"><ele>83.33333333333333</ele><time>2026-04-19T10:06:39Z</time></trkpt><trkpt lat="36.82858973621479" lon="14.970950953475604"><ele>85.0</ele><time>2026-04-19T10:06:40Z</time></trkpt><trkpt lat="36.82847444620789" lon="14.970733430435866"><ele>86.0</ele><time>2026-04-19T10:06:41Z</time></trkpt><trkpt lat="36.82836612560136" lon="14.970520974733526"><ele>87.0</ele><time>2026-04-19T10:06:42Z</time></trkpt><trkpt lat="36.8282551489173" lon="14.970312483612965"><ele>88.0</ele><time>2026-04-19T10:06:43Z</time></trkpt><trkpt lat="36.82814093242654" lon="14.970094229518752"><ele>89.0</ele><time>2026-04-19T10:06:44Z</time></trkpt><trkpt lat="36.82802342392415" lon="14.96987539823668"><ele>90.0</ele><time>2026-04-19T10:06:45Z</time></trkpt><trkpt lat="36.82790920226198" lon="14.969651997303073"><ele>91.0</ele><time>2026-04-19T10:06:46Z</time></trkpt><trkpt lat="36.82779581793984" lon="14.96942927884868"><ele>91.0</ele><time>2026-04-19T10:06:47Z</time></trkpt><trkpt lat="36.827681999414935" lon="14.969210322237192"><ele>91.0</ele><time>2026-04-19T10:06:48Z</time></trkpt><trkpt lat="36.8275658517103" lon="14.968998384533093"><ele>91.0</ele><time>2026-04-19T10:06:49Z</time></trkpt><trkpt lat="36.827452846805784" lon="14.968782754186755"><ele>91.0</ele><time>2026-04-19T10:06:50Z</time></trkpt><trkpt lat="36.827338210667" lon="14.9685726249299"><ele>91.0</ele><time>2026-04-19T10:06:51Z</time></trkpt><trkpt lat="36.82722887658164" lon="14.968367950786934"><ele>91.0</ele><time>2026-04-19T10:06:52Z</time></trkpt><trkpt lat="36.827123842841864" lon="14.968165969709718"><ele>92.66666666666666</ele><time>2026-04-19T10:06:53Z</time></trkpt><trkpt lat="36.8270243031443" lon="14.967970525262976"><ele>94.33333333333333</ele><time>2026-04-19T10:06:54Z</time></trkpt><trkpt lat="36.8269179010104" lon="14.967770215191056"><ele>96.0</ele><time>2026-04-19T10:06:55Z</time></trkpt><trkpt lat="36.82681505288131" lon="14.967573880954777"><ele>97.33333333333334</ele><time>2026-04-19T10:06:56Z</time></trkpt><trkpt lat="36.82671308623556" lon="14.967378115891597"><ele>98.66666666666667</ele><time>2026-04-19T10:06:57Z</time></trkpt><trkpt lat="36.8266146814729" lon="14.967184191914477"><ele>100.0</ele><time>2026-04-19T10:06:58Z</time></trkpt><trkpt lat="36.826515998713354" lon="14.966986747025457"><ele>100.0</ele><time>2026-04-19T10:06:59Z</time></trkpt><trkpt lat="36.8264165651259" lon="14.966795106961316"><ele>100.0</ele><time>2026-04-19T10:07:00Z</time></trkpt><trkpt lat="36.82631633674764" lon="14.966612203659324"><ele>100.0</ele><time>2026-04-19T10:07:01Z</time></trkpt><trkpt lat="36.8262202080569" lon="14.966438117515452"><ele>100.25</ele><time>2026-04-19T10:07:02Z</time></trkpt><trkpt lat="36.82613475741136" lon="14.966281918108306"><ele>100.5</ele><time>2026-04-19T10:07:03Z</time></trkpt><trkpt lat="36.82605961660253" lon="14.966138347754766"><ele>100.75</ele><time>2026-04-19T10:07:04Z</time></trkpt><trkpt lat="36.82598918626707" lon="14.966006015762085"><ele>101.0</ele><time>2026-04-19T10:07:05Z</time></trkpt><trkpt lat="36.82591992127961" lon="14.965883495600599"><ele>101.25</ele><time>2026-04-19T10:07:06Z</time></trkpt><trkpt lat="36.82584623435127" lon="14.965751126465852"><ele>101.5</ele><time>2026-04-19T10:07:07Z</time></trkpt><trkpt lat="36.825771288508065" lon="14.965606760129214"><ele>101.75</ele><time>2026-04-19T10:07:08Z</time></trkpt><trkpt lat="36.82569371809352" lon="14.965452709002546"><ele>102.0</ele><time>2026-04-19T10:07:09Z</time></trkpt><trkpt lat="36.82561838462215" lon="14.965305173787469"><ele>102.0</ele><time>2026-04-19T10:07:10Z</time></trkpt><trkpt lat="36.82554950646263" lon="14.965172108460624"><ele>102.0</ele><time>2026-04-19T10:07:11Z</time></trkpt><trkpt lat="36.825486219472886" lon="14.965046096789843"><ele>102.0</ele><time>2026-04-19T10:07:12Z</time></trkpt><trkpt lat="36.82542128660147" lon="14.964922208096688"><ele>102.0</ele><time>2026-04-19T10:07:13Z</time></trkpt><trkpt lat="36.825359067214656" lon="14.964805501885596"><ele>102.25</ele><time>2026-04-19T10:07:14Z</time></trkpt><trkpt lat="36.82528959281142" lon="14.964690672648262"><ele>102.5</ele><time>2026-04-19T10:07:15Z</time></trkpt><trkpt lat="36.8252093364777" lon="14.964575399492091"><ele>102.75</ele><time>2026-04-19T10:07:16Z</time></trkpt><trkpt lat="36.82513246069003" lon="14.964447687836147"><ele>103.0</ele><time>2026-04-19T10:07:17Z</time></trkpt><trkpt lat="36.82506926302485" lon="14.964297225240376"><ele>103.25</ele><time>2026-04-19T10:07:18Z</time></trkpt><trkpt lat="36.82501356348511" lon="14.964142317449824"><ele>103.5</ele><time>2026-04-19T10:07:19Z</time></trkpt><trkpt lat="36.824946986008804" lon="14.963995270530392"><ele>103.75</ele><time>2026-04-19T10:07:20Z</time></trkpt><trkpt lat="36.82487545737136" lon="14.963856932268293"><ele>104.0</ele><time>2026-04-19T10:07:21Z</time></trkpt><trkpt lat="36.82480191066017" lon="14.963730015408691"><ele>104.0</ele><time>2026-04-19T10:07:22Z</time></trkpt><trkpt lat="36.824739948694905" lon="14.963612410506345"><ele>104.0</ele><time>2026-04-19T10:07:23Z</time></trkpt><trkpt lat="36.82468465053391" lon="14.963501499475194"><ele>104.0</ele><time>2026-04-19T10:07:24Z</time></trkpt><trkpt lat="36.82463903430729" lon="14.96339456999132"><ele>104.0</ele><time>2026-04-19T10:07:25Z</time></trkpt><trkpt lat="36.82460511450512" lon="14.963302795911881"><ele>104.0</ele><time>2026-04-19T10:07:26Z</time></trkpt><trkpt lat="36.8245839339641" lon="14.96321784326163"><ele>103.99999999999999</ele><time>2026-04-19T10:07:27Z</time></trkpt><trkpt lat="36.82456184445831" lon="14.963095027574248"><ele>104.0</ele><time>2026-04-19T10:07:31Z</time></trkpt><trkpt lat="36.82455013306033" lon="14.963016733943029"><ele>104.0</ele><time>2026-04-19T10:07:32Z</time></trkpt><trkpt lat="36.824507823657726" lon="14.962939296909372"><ele>104.0</ele><time>2026-04-19T10:07:33Z</time></trkpt><trkpt lat="36.82443310688395" lon="14.962874983969717"><ele>103.99999999999999</ele><time>2026-04-19T10:07:34Z</time></trkpt><trkpt lat="36.824359306481966" lon="14.962804734691785"><ele>104.0</ele><time>2026-04-19T10:07:35Z</time></trkpt><trkpt lat="36.824268925066235" lon="14.962753822725192"><ele>104.0</ele><time>2026-04-19T10:07:36Z</time></trkpt><trkpt lat="36.8242254437937" lon="14.962600272541282"><ele>104.0</ele><time>2026-04-19T10:07:37Z</time></trkpt><trkpt lat="36.82416567872075" lon="14.962478470183969"><ele>104.0</ele><time>2026-04-19T10:07:38Z</time></trkpt><trkpt lat="36.824111597158925" lon="14.96235330231073"><ele>104.0</ele><time>2026-04-19T10:07:39Z</time></trkpt><trkpt lat="36.824051132360864" lon="14.96222994873697"><ele>104.5</ele><time>2026-04-19T10:07:40Z</time></trkpt><trkpt lat="36.823988804502214" lon="14.962105786345834"><ele>105.0</ele><time>2026-04-19T10:07:41Z</time></trkpt><trkpt lat="36.823923066708865" lon="14.961981724290174"><ele>105.5</ele><time>2026-04-19T10:07:42Z</time></trkpt><trkpt lat="36.82385701254262" lon="14.961862571370267"><ele>106.0</ele><time>2026-04-19T10:07:43Z</time></trkpt><trkpt lat="36.82379378847969" lon="14.961739005245006"><ele>106.25</ele><time>2026-04-19T10:07:44.001Z</time></trkpt><trkpt lat="36.82372990342332" lon="14.961613692864768"><ele>106.5</ele><time>2026-04-19T10:07:45.001Z</time></trkpt><trkpt lat="36.823664655859226" lon="14.961490509101557"><ele>106.75</ele><time>2026-04-19T10:07:46.001Z</time></trkpt><trkpt lat="36.82359626270529" lon="14.961367606268434"><ele>107.0</ele><time>2026-04-19T10:07:47.001Z</time></trkpt><trkpt lat="36.823527537145495" lon="14.96124068566151"><ele>107.25</ele><time>2026-04-19T10:07:48.001Z</time></trkpt><trkpt lat="36.82346023812416" lon="14.961111048268043"><ele>107.5</ele><time>2026-04-19T10:07:49.001Z</time></trkpt><trkpt lat="36.82339466858208" lon="14.960980474421685"><ele>107.75</ele><time>2026-04-19T10:07:50.001Z</time></trkpt><trkpt lat="36.823328331119015" lon="14.96085033955981"><ele>108.0</ele><time>2026-04-19T10:07:51.001Z</time></trkpt><trkpt lat="36.82325900117773" lon="14.960719107293698"><ele>109.0</ele><time>2026-04-19T10:07:52.001Z</time></trkpt><trkpt lat="36.823190843929545" lon="14.96058931340966"><ele>110.0</ele><time>2026-04-19T10:07:53.001Z</time></trkpt><trkpt lat="36.82312252974131" lon="14.96045933124106"><ele>111.0</ele><time>2026-04-19T10:07:54.001Z</time></trkpt><trkpt lat="36.82305531733981" lon="14.9603290287699"><ele>112.0</ele><time>2026-04-19T10:07:55.001Z</time></trkpt><trkpt lat="36.82298951020129" lon="14.960198420401406"><ele>112.0</ele><time>2026-04-19T10:07:56.001Z</time></trkpt><trkpt lat="36.822918482386406" lon="14.960071721850529"><ele>112.0</ele><time>2026-04-19T10:07:57.001Z</time></trkpt><trkpt lat="36.82282544561606" lon="14.959962306489022"><ele>112.0</ele><time>2026-04-19T10:07:58.001Z</time></trkpt><trkpt lat="36.82276178368855" lon="14.959833998669609"><ele>112.0</ele><time>2026-04-19T10:07:59.001Z</time></trkpt><trkpt lat="36.82269017832353" lon="14.959720817863076"><ele>112.39999999999999</ele><time>2026-04-19T10:08:00.001Z</time></trkpt><trkpt lat="36.82262388525644" lon="14.959610171686785"><ele>112.79999999999998</ele><time>2026-04-19T10:08:01.001Z</time></trkpt><trkpt lat="36.822543022150164" lon="14.959519625969953"><ele>113.2</ele><time>2026-04-19T10:08:02.001Z</time></trkpt><trkpt lat="36.822473140215514" lon="14.959416719983851"><ele>113.6</ele><time>2026-04-19T10:08:03.001Z</time></trkpt><trkpt lat="36.82241231848692" lon="14.959303424726437"><ele>114.0</ele><time>2026-04-19T10:08:04.001Z</time></trkpt><trkpt lat="36.82233552617909" lon="14.959207817413448"><ele>115.16666666666667</ele><time>2026-04-19T10:08:05.001Z</time></trkpt><trkpt lat="36.822267548513594" lon="14.95912049004432"><ele>116.33333333333334</ele><time>2026-04-19T10:08:06.001Z</time></trkpt><trkpt lat="36.82221240167742" lon="14.959038562744587"><ele>117.5</ele><time>2026-04-19T10:08:07.001Z</time></trkpt><trkpt lat="36.822159868904606" lon="14.95895509341806"><ele>118.66666666666667</ele><time>2026-04-19T10:08:08.001Z</time></trkpt><trkpt lat="36.822108175259466" lon="14.958895579709411"><ele>119.83333333333334</ele><time>2026-04-19T10:08:09.001Z</time></trkpt><trkpt lat="36.82206005918293" lon="14.958839739794213"><ele>121.0</ele><time>2026-04-19T10:08:11.001Z</time></trkpt><trkpt lat="36.82201087927031" lon="14.958906589610242"><ele>121.0</ele><time>2026-04-19T10:08:12.001Z</time></trkpt><trkpt lat="36.82194275645585" lon="14.959026515574108"><ele>121.0</ele><time>2026-04-19T10:08:14.001Z</time></trkpt><trkpt lat="36.82189960238554" lon="14.959103578456139"><ele>121.0</ele><time>2026-04-19T10:08:15.001Z</time></trkpt><trkpt lat="36.82186017001821" lon="14.959169878855247"><ele>121.0</ele><time>2026-04-19T10:08:16.001Z</time></trkpt><trkpt lat="36.82177458415784" lon="14.959246676362744"><ele>121.0</ele><time>2026-04-19T10:08:18.001Z</time></trkpt><trkpt lat="36.82170141465699" lon="14.959357392202792"><ele>119.25</ele><time>2026-04-19T10:08:20.001Z</time></trkpt><trkpt lat="36.82165964859149" lon="14.959423197709722"><ele>117.5</ele><time>2026-04-19T10:08:22.001Z</time></trkpt><trkpt lat="36.82175063525506" lon="14.959570706270917"><ele>115.75</ele><time>2026-04-19T10:08:23.001Z</time></trkpt><trkpt lat="36.82180825269686" lon="14.959635082110971"><ele>114.0</ele><time>2026-04-19T10:08:25.001Z</time></trkpt><trkpt lat="36.82196167304909" lon="14.959594395209159"><ele>114.0</ele><time>2026-04-19T10:08:28.001Z</time></trkpt><trkpt lat="36.82194288300604" lon="14.95947306843822"><ele>114.0</ele><time>2026-04-19T10:08:34.001Z</time></trkpt></trkseg></trk></gpx>